<?xml version="1.0" encoding="UTF-8" standalone="no" ?>
<gpx xmlns="http://www.topografix.com/GPX/1/1" xmlns:xsi="http://www.w3.org/2001/XMLSchema-instance" xsi:schemaLocation="http://www.topografix.com/GPX/1/1 http://www.topografix.com/GPX/1/1/gpx.xsd" version="1.1" creator="VisuGPX - https://www.visugpx.com">
  <metadata>
    <name>E-SE-St Aignan Le Bigon Chateau Thébaud Sorinières La Filée Les Couets</name>
    <desc><![CDATA[E-SE-St Aignan Le Bigon Chateau Thébaud Sorinières La Filée Les Couets]]></desc>
  </metadata>
  <trk>
    <name><![CDATA[2021-03-21 09:03 +01:00]]></name>
    <trkseg>
      <trkpt lat="47.16774" lon="-1.62656">
        <ele>61</ele>
        <time>2021-03-21T08:03:12.613Z</time>
      </trkpt>
      <trkpt lat="47.16778" lon="-1.62671">
        <ele>77</ele>
        <time>2021-03-21T08:05:15.000Z</time>
      </trkpt>
      <trkpt lat="47.1677" lon="-1.62679">
        <ele>76</ele>
        <time>2021-03-21T08:05:17.000Z</time>
      </trkpt>
      <trkpt lat="47.16758" lon="-1.62677">
        <ele>74</ele>
        <time>2021-03-21T08:05:19.000Z</time>
      </trkpt>
      <trkpt lat="47.16747" lon="-1.62676">
        <ele>74</ele>
        <time>2021-03-21T08:05:21.000Z</time>
      </trkpt>
      <trkpt lat="47.16736" lon="-1.62683">
        <ele>74</ele>
        <time>2021-03-21T08:05:23.000Z</time>
      </trkpt>
      <trkpt lat="47.16726" lon="-1.6269">
        <ele>73</ele>
        <time>2021-03-21T08:05:25.000Z</time>
      </trkpt>
      <trkpt lat="47.16716" lon="-1.62697">
        <ele>72</ele>
        <time>2021-03-21T08:05:27.000Z</time>
      </trkpt>
      <trkpt lat="47.16705" lon="-1.62689">
        <ele>72</ele>
        <time>2021-03-21T08:05:29.000Z</time>
      </trkpt>
      <trkpt lat="47.167" lon="-1.62671">
        <ele>72</ele>
        <time>2021-03-21T08:05:31.000Z</time>
      </trkpt>
      <trkpt lat="47.16697" lon="-1.6265">
        <ele>72</ele>
        <time>2021-03-21T08:05:33.000Z</time>
      </trkpt>
      <trkpt lat="47.16696" lon="-1.62628">
        <ele>71</ele>
        <time>2021-03-21T08:05:35.000Z</time>
      </trkpt>
      <trkpt lat="47.16696" lon="-1.62606">
        <ele>71</ele>
        <time>2021-03-21T08:05:37.000Z</time>
      </trkpt>
      <trkpt lat="47.16697" lon="-1.62584">
        <ele>71</ele>
        <time>2021-03-21T08:05:39.000Z</time>
      </trkpt>
      <trkpt lat="47.16699" lon="-1.62563">
        <ele>71</ele>
        <time>2021-03-21T08:05:41.000Z</time>
      </trkpt>
      <trkpt lat="47.16701" lon="-1.62542">
        <ele>71</ele>
        <time>2021-03-21T08:05:43.000Z</time>
      </trkpt>
      <trkpt lat="47.16704" lon="-1.62521">
        <ele>71</ele>
        <time>2021-03-21T08:05:45.000Z</time>
      </trkpt>
      <trkpt lat="47.16707" lon="-1.62501">
        <ele>70</ele>
        <time>2021-03-21T08:05:47.000Z</time>
      </trkpt>
      <trkpt lat="47.1671" lon="-1.6248">
        <ele>70</ele>
        <time>2021-03-21T08:05:49.000Z</time>
      </trkpt>
      <trkpt lat="47.16714" lon="-1.6246">
        <ele>70</ele>
        <time>2021-03-21T08:05:51.000Z</time>
      </trkpt>
      <trkpt lat="47.16716" lon="-1.6244">
        <ele>71</ele>
        <time>2021-03-21T08:05:53.000Z</time>
      </trkpt>
      <trkpt lat="47.16721" lon="-1.62423">
        <ele>71</ele>
        <time>2021-03-21T08:05:55.000Z</time>
      </trkpt>
      <trkpt lat="47.16725" lon="-1.62407">
        <ele>71</ele>
        <time>2021-03-21T08:05:57.000Z</time>
      </trkpt>
      <trkpt lat="47.16715" lon="-1.62395">
        <ele>72</ele>
        <time>2021-03-21T08:05:59.000Z</time>
      </trkpt>
      <trkpt lat="47.16707" lon="-1.62383">
        <ele>71</ele>
        <time>2021-03-21T08:06:01.000Z</time>
      </trkpt>
      <trkpt lat="47.16697" lon="-1.62371">
        <ele>71</ele>
        <time>2021-03-21T08:06:03.000Z</time>
      </trkpt>
      <trkpt lat="47.16686" lon="-1.62363">
        <ele>71</ele>
        <time>2021-03-21T08:06:05.000Z</time>
      </trkpt>
      <trkpt lat="47.16674" lon="-1.62359">
        <ele>71</ele>
        <time>2021-03-21T08:06:07.000Z</time>
      </trkpt>
      <trkpt lat="47.16661" lon="-1.62361">
        <ele>71</ele>
        <time>2021-03-21T08:06:09.000Z</time>
      </trkpt>
      <trkpt lat="47.16649" lon="-1.62366">
        <ele>71</ele>
        <time>2021-03-21T08:06:11.000Z</time>
      </trkpt>
      <trkpt lat="47.16638" lon="-1.62375">
        <ele>72</ele>
        <time>2021-03-21T08:06:13.000Z</time>
      </trkpt>
      <trkpt lat="47.16629" lon="-1.62386">
        <ele>72</ele>
        <time>2021-03-21T08:06:15.000Z</time>
      </trkpt>
      <trkpt lat="47.1662" lon="-1.624">
        <ele>72</ele>
        <time>2021-03-21T08:06:17.000Z</time>
      </trkpt>
      <trkpt lat="47.16612" lon="-1.62415">
        <ele>73</ele>
        <time>2021-03-21T08:06:19.000Z</time>
      </trkpt>
      <trkpt lat="47.16605" lon="-1.6243">
        <ele>73</ele>
        <time>2021-03-21T08:06:21.000Z</time>
      </trkpt>
      <trkpt lat="47.16599" lon="-1.62446">
        <ele>75</ele>
        <time>2021-03-21T08:06:23.000Z</time>
      </trkpt>
      <trkpt lat="47.16592" lon="-1.62463">
        <ele>76</ele>
        <time>2021-03-21T08:06:25.000Z</time>
      </trkpt>
      <trkpt lat="47.16585" lon="-1.62478">
        <ele>76</ele>
        <time>2021-03-21T08:06:27.000Z</time>
      </trkpt>
      <trkpt lat="47.1658" lon="-1.62494">
        <ele>77</ele>
        <time>2021-03-21T08:06:29.000Z</time>
      </trkpt>
      <trkpt lat="47.16574" lon="-1.62509">
        <ele>78</ele>
        <time>2021-03-21T08:06:31.000Z</time>
      </trkpt>
      <trkpt lat="47.16567" lon="-1.62524">
        <ele>78</ele>
        <time>2021-03-21T08:06:33.000Z</time>
      </trkpt>
      <trkpt lat="47.1656" lon="-1.62538">
        <ele>78</ele>
        <time>2021-03-21T08:06:35.000Z</time>
      </trkpt>
      <trkpt lat="47.16552" lon="-1.6255">
        <ele>78</ele>
        <time>2021-03-21T08:06:37.000Z</time>
      </trkpt>
      <trkpt lat="47.16542" lon="-1.6256">
        <ele>78</ele>
        <time>2021-03-21T08:06:39.000Z</time>
      </trkpt>
      <trkpt lat="47.1653" lon="-1.62566">
        <ele>78</ele>
        <time>2021-03-21T08:06:41.000Z</time>
      </trkpt>
      <trkpt lat="47.16517" lon="-1.62565">
        <ele>78</ele>
        <time>2021-03-21T08:06:43.000Z</time>
      </trkpt>
      <trkpt lat="47.16505" lon="-1.62562">
        <ele>78</ele>
        <time>2021-03-21T08:06:45.000Z</time>
      </trkpt>
      <trkpt lat="47.16494" lon="-1.62559">
        <ele>78</ele>
        <time>2021-03-21T08:06:47.000Z</time>
      </trkpt>
      <trkpt lat="47.16483" lon="-1.62556">
        <ele>78</ele>
        <time>2021-03-21T08:06:49.000Z</time>
      </trkpt>
      <trkpt lat="47.16472" lon="-1.62553">
        <ele>77</ele>
        <time>2021-03-21T08:06:51.000Z</time>
      </trkpt>
      <trkpt lat="47.16461" lon="-1.62549">
        <ele>77</ele>
        <time>2021-03-21T08:06:53.000Z</time>
      </trkpt>
      <trkpt lat="47.1645" lon="-1.62546">
        <ele>77</ele>
        <time>2021-03-21T08:06:55.000Z</time>
      </trkpt>
      <trkpt lat="47.16439" lon="-1.62544">
        <ele>77</ele>
        <time>2021-03-21T08:06:57.000Z</time>
      </trkpt>
      <trkpt lat="47.16428" lon="-1.6255">
        <ele>77</ele>
        <time>2021-03-21T08:06:59.000Z</time>
      </trkpt>
      <trkpt lat="47.16417" lon="-1.62558">
        <ele>77</ele>
        <time>2021-03-21T08:07:01.000Z</time>
      </trkpt>
      <trkpt lat="47.16406" lon="-1.62567">
        <ele>76</ele>
        <time>2021-03-21T08:07:03.000Z</time>
      </trkpt>
      <trkpt lat="47.16395" lon="-1.62576">
        <ele>76</ele>
        <time>2021-03-21T08:07:05.000Z</time>
      </trkpt>
      <trkpt lat="47.16382" lon="-1.62584">
        <ele>77</ele>
        <time>2021-03-21T08:07:07.000Z</time>
      </trkpt>
      <trkpt lat="47.16368" lon="-1.62586">
        <ele>75</ele>
        <time>2021-03-21T08:07:09.000Z</time>
      </trkpt>
      <trkpt lat="47.16355" lon="-1.62584">
        <ele>75</ele>
        <time>2021-03-21T08:07:11.000Z</time>
      </trkpt>
      <trkpt lat="47.16341" lon="-1.6258">
        <ele>75</ele>
        <time>2021-03-21T08:07:13.000Z</time>
      </trkpt>
      <trkpt lat="47.16328" lon="-1.62575">
        <ele>75</ele>
        <time>2021-03-21T08:07:15.000Z</time>
      </trkpt>
      <trkpt lat="47.16314" lon="-1.62572">
        <ele>75</ele>
        <time>2021-03-21T08:07:17.000Z</time>
      </trkpt>
      <trkpt lat="47.16302" lon="-1.62579">
        <ele>75</ele>
        <time>2021-03-21T08:07:19.000Z</time>
      </trkpt>
      <trkpt lat="47.16293" lon="-1.62592">
        <ele>75</ele>
        <time>2021-03-21T08:07:21.000Z</time>
      </trkpt>
      <trkpt lat="47.16287" lon="-1.62608">
        <ele>74</ele>
        <time>2021-03-21T08:07:23.000Z</time>
      </trkpt>
      <trkpt lat="47.16283" lon="-1.62626">
        <ele>74</ele>
        <time>2021-03-21T08:07:25.000Z</time>
      </trkpt>
      <trkpt lat="47.1628" lon="-1.62645">
        <ele>74</ele>
        <time>2021-03-21T08:07:27.000Z</time>
      </trkpt>
      <trkpt lat="47.16279" lon="-1.62663">
        <ele>74</ele>
        <time>2021-03-21T08:07:29.000Z</time>
      </trkpt>
      <trkpt lat="47.16279" lon="-1.6268">
        <ele>75</ele>
        <time>2021-03-21T08:07:31.000Z</time>
      </trkpt>
      <trkpt lat="47.16279" lon="-1.62697">
        <ele>76</ele>
        <time>2021-03-21T08:07:33.000Z</time>
      </trkpt>
      <trkpt lat="47.16282" lon="-1.62713">
        <ele>76</ele>
        <time>2021-03-21T08:07:35.000Z</time>
      </trkpt>
      <trkpt lat="47.16283" lon="-1.62727">
        <ele>75</ele>
        <time>2021-03-21T08:07:37.000Z</time>
      </trkpt>
      <trkpt lat="47.16275" lon="-1.62736">
        <ele>76</ele>
        <time>2021-03-21T08:07:39.000Z</time>
      </trkpt>
      <trkpt lat="47.16263" lon="-1.62739">
        <ele>77</ele>
        <time>2021-03-21T08:07:41.000Z</time>
      </trkpt>
      <trkpt lat="47.16252" lon="-1.62745">
        <ele>76</ele>
        <time>2021-03-21T08:07:43.000Z</time>
      </trkpt>
      <trkpt lat="47.16239" lon="-1.62753">
        <ele>75</ele>
        <time>2021-03-21T08:07:45.000Z</time>
      </trkpt>
      <trkpt lat="47.16225" lon="-1.6276">
        <ele>75</ele>
        <time>2021-03-21T08:07:47.000Z</time>
      </trkpt>
      <trkpt lat="47.16211" lon="-1.62767">
        <ele>73</ele>
        <time>2021-03-21T08:07:49.000Z</time>
      </trkpt>
      <trkpt lat="47.16198" lon="-1.62777">
        <ele>73</ele>
        <time>2021-03-21T08:07:51.000Z</time>
      </trkpt>
      <trkpt lat="47.16185" lon="-1.62788">
        <ele>72</ele>
        <time>2021-03-21T08:07:53.000Z</time>
      </trkpt>
      <trkpt lat="47.16171" lon="-1.628">
        <ele>72</ele>
        <time>2021-03-21T08:07:55.000Z</time>
      </trkpt>
      <trkpt lat="47.16157" lon="-1.62812">
        <ele>71</ele>
        <time>2021-03-21T08:07:57.000Z</time>
      </trkpt>
      <trkpt lat="47.16144" lon="-1.62823">
        <ele>71</ele>
        <time>2021-03-21T08:07:59.000Z</time>
      </trkpt>
      <trkpt lat="47.1613" lon="-1.62835">
        <ele>70</ele>
        <time>2021-03-21T08:08:01.000Z</time>
      </trkpt>
      <trkpt lat="47.16117" lon="-1.62846">
        <ele>70</ele>
        <time>2021-03-21T08:08:03.000Z</time>
      </trkpt>
      <trkpt lat="47.16104" lon="-1.62859">
        <ele>69</ele>
        <time>2021-03-21T08:08:05.000Z</time>
      </trkpt>
      <trkpt lat="47.1609" lon="-1.62871">
        <ele>68</ele>
        <time>2021-03-21T08:08:07.000Z</time>
      </trkpt>
      <trkpt lat="47.16076" lon="-1.62882">
        <ele>67</ele>
        <time>2021-03-21T08:08:09.000Z</time>
      </trkpt>
      <trkpt lat="47.16062" lon="-1.62893">
        <ele>67</ele>
        <time>2021-03-21T08:08:11.000Z</time>
      </trkpt>
      <trkpt lat="47.16049" lon="-1.62905">
        <ele>66</ele>
        <time>2021-03-21T08:08:13.000Z</time>
      </trkpt>
      <trkpt lat="47.16035" lon="-1.62917">
        <ele>65</ele>
        <time>2021-03-21T08:08:15.000Z</time>
      </trkpt>
      <trkpt lat="47.16022" lon="-1.62929">
        <ele>65</ele>
        <time>2021-03-21T08:08:17.000Z</time>
      </trkpt>
      <trkpt lat="47.16008" lon="-1.6294">
        <ele>64</ele>
        <time>2021-03-21T08:08:19.000Z</time>
      </trkpt>
      <trkpt lat="47.15994" lon="-1.62952">
        <ele>63</ele>
        <time>2021-03-21T08:08:21.000Z</time>
      </trkpt>
      <trkpt lat="47.15981" lon="-1.62964">
        <ele>63</ele>
        <time>2021-03-21T08:08:23.000Z</time>
      </trkpt>
      <trkpt lat="47.15968" lon="-1.62976">
        <ele>62</ele>
        <time>2021-03-21T08:08:25.000Z</time>
      </trkpt>
      <trkpt lat="47.15954" lon="-1.62988">
        <ele>61</ele>
        <time>2021-03-21T08:08:27.000Z</time>
      </trkpt>
      <trkpt lat="47.1594" lon="-1.63">
        <ele>60</ele>
        <time>2021-03-21T08:08:29.000Z</time>
      </trkpt>
      <trkpt lat="47.15927" lon="-1.63012">
        <ele>60</ele>
        <time>2021-03-21T08:08:31.000Z</time>
      </trkpt>
      <trkpt lat="47.15913" lon="-1.63024">
        <ele>59</ele>
        <time>2021-03-21T08:08:33.000Z</time>
      </trkpt>
      <trkpt lat="47.159" lon="-1.63036">
        <ele>59</ele>
        <time>2021-03-21T08:08:35.000Z</time>
      </trkpt>
      <trkpt lat="47.15887" lon="-1.63048">
        <ele>59</ele>
        <time>2021-03-21T08:08:37.000Z</time>
      </trkpt>
      <trkpt lat="47.15875" lon="-1.63059">
        <ele>59</ele>
        <time>2021-03-21T08:08:39.000Z</time>
      </trkpt>
      <trkpt lat="47.15863" lon="-1.6307">
        <ele>59</ele>
        <time>2021-03-21T08:08:41.000Z</time>
      </trkpt>
      <trkpt lat="47.15852" lon="-1.63081">
        <ele>60</ele>
        <time>2021-03-21T08:08:43.000Z</time>
      </trkpt>
      <trkpt lat="47.15841" lon="-1.63091">
        <ele>60</ele>
        <time>2021-03-21T08:08:45.000Z</time>
      </trkpt>
      <trkpt lat="47.1583" lon="-1.631">
        <ele>61</ele>
        <time>2021-03-21T08:08:47.000Z</time>
      </trkpt>
      <trkpt lat="47.15819" lon="-1.6311">
        <ele>62</ele>
        <time>2021-03-21T08:08:49.000Z</time>
      </trkpt>
      <trkpt lat="47.15808" lon="-1.6312">
        <ele>63</ele>
        <time>2021-03-21T08:08:51.000Z</time>
      </trkpt>
      <trkpt lat="47.15797" lon="-1.6313">
        <ele>63</ele>
        <time>2021-03-21T08:08:53.000Z</time>
      </trkpt>
      <trkpt lat="47.15787" lon="-1.6314">
        <ele>63</ele>
        <time>2021-03-21T08:08:55.000Z</time>
      </trkpt>
      <trkpt lat="47.15776" lon="-1.63149">
        <ele>64</ele>
        <time>2021-03-21T08:08:57.000Z</time>
      </trkpt>
      <trkpt lat="47.15766" lon="-1.63158">
        <ele>64</ele>
        <time>2021-03-21T08:08:59.000Z</time>
      </trkpt>
      <trkpt lat="47.15755" lon="-1.63168">
        <ele>65</ele>
        <time>2021-03-21T08:09:01.000Z</time>
      </trkpt>
      <trkpt lat="47.15744" lon="-1.63177">
        <ele>66</ele>
        <time>2021-03-21T08:09:03.000Z</time>
      </trkpt>
      <trkpt lat="47.15734" lon="-1.63187">
        <ele>66</ele>
        <time>2021-03-21T08:09:05.000Z</time>
      </trkpt>
      <trkpt lat="47.15723" lon="-1.63197">
        <ele>66</ele>
        <time>2021-03-21T08:09:07.000Z</time>
      </trkpt>
      <trkpt lat="47.15712" lon="-1.63206">
        <ele>66</ele>
        <time>2021-03-21T08:09:09.000Z</time>
      </trkpt>
      <trkpt lat="47.15701" lon="-1.63216">
        <ele>67</ele>
        <time>2021-03-21T08:09:11.000Z</time>
      </trkpt>
      <trkpt lat="47.1569" lon="-1.63225">
        <ele>67</ele>
        <time>2021-03-21T08:09:13.000Z</time>
      </trkpt>
      <trkpt lat="47.15679" lon="-1.63235">
        <ele>67</ele>
        <time>2021-03-21T08:09:15.000Z</time>
      </trkpt>
      <trkpt lat="47.15668" lon="-1.63245">
        <ele>67</ele>
        <time>2021-03-21T08:09:17.000Z</time>
      </trkpt>
      <trkpt lat="47.15656" lon="-1.63255">
        <ele>67</ele>
        <time>2021-03-21T08:09:19.000Z</time>
      </trkpt>
      <trkpt lat="47.15645" lon="-1.63265">
        <ele>67</ele>
        <time>2021-03-21T08:09:21.000Z</time>
      </trkpt>
      <trkpt lat="47.15633" lon="-1.63276">
        <ele>67</ele>
        <time>2021-03-21T08:09:23.000Z</time>
      </trkpt>
      <trkpt lat="47.15622" lon="-1.63286">
        <ele>67</ele>
        <time>2021-03-21T08:09:25.000Z</time>
      </trkpt>
      <trkpt lat="47.15611" lon="-1.63296">
        <ele>67</ele>
        <time>2021-03-21T08:09:27.000Z</time>
      </trkpt>
      <trkpt lat="47.15599" lon="-1.63306">
        <ele>67</ele>
        <time>2021-03-21T08:09:29.000Z</time>
      </trkpt>
      <trkpt lat="47.15588" lon="-1.63316">
        <ele>67</ele>
        <time>2021-03-21T08:09:31.000Z</time>
      </trkpt>
      <trkpt lat="47.15577" lon="-1.63326">
        <ele>68</ele>
        <time>2021-03-21T08:09:33.000Z</time>
      </trkpt>
      <trkpt lat="47.15565" lon="-1.63336">
        <ele>68</ele>
        <time>2021-03-21T08:09:35.000Z</time>
      </trkpt>
      <trkpt lat="47.15554" lon="-1.63345">
        <ele>68</ele>
        <time>2021-03-21T08:09:37.000Z</time>
      </trkpt>
      <trkpt lat="47.15543" lon="-1.63354">
        <ele>68</ele>
        <time>2021-03-21T08:09:39.000Z</time>
      </trkpt>
      <trkpt lat="47.15533" lon="-1.63364">
        <ele>68</ele>
        <time>2021-03-21T08:09:41.000Z</time>
      </trkpt>
      <trkpt lat="47.15523" lon="-1.63373">
        <ele>69</ele>
        <time>2021-03-21T08:09:43.000Z</time>
      </trkpt>
      <trkpt lat="47.15512" lon="-1.63382">
        <ele>69</ele>
        <time>2021-03-21T08:09:45.000Z</time>
      </trkpt>
      <trkpt lat="47.15502" lon="-1.63391">
        <ele>70</ele>
        <time>2021-03-21T08:09:47.000Z</time>
      </trkpt>
      <trkpt lat="47.15492" lon="-1.634">
        <ele>70</ele>
        <time>2021-03-21T08:09:49.000Z</time>
      </trkpt>
      <trkpt lat="47.15482" lon="-1.6341">
        <ele>71</ele>
        <time>2021-03-21T08:09:51.000Z</time>
      </trkpt>
      <trkpt lat="47.15472" lon="-1.63419">
        <ele>71</ele>
        <time>2021-03-21T08:09:53.000Z</time>
      </trkpt>
      <trkpt lat="47.15462" lon="-1.63429">
        <ele>71</ele>
        <time>2021-03-21T08:09:55.000Z</time>
      </trkpt>
      <trkpt lat="47.15452" lon="-1.63438">
        <ele>71</ele>
        <time>2021-03-21T08:09:57.000Z</time>
      </trkpt>
      <trkpt lat="47.15442" lon="-1.63448">
        <ele>72</ele>
        <time>2021-03-21T08:09:59.000Z</time>
      </trkpt>
      <trkpt lat="47.15432" lon="-1.63456">
        <ele>72</ele>
        <time>2021-03-21T08:10:01.000Z</time>
      </trkpt>
      <trkpt lat="47.15423" lon="-1.63466">
        <ele>72</ele>
        <time>2021-03-21T08:10:03.000Z</time>
      </trkpt>
      <trkpt lat="47.15413" lon="-1.63475">
        <ele>73</ele>
        <time>2021-03-21T08:10:05.000Z</time>
      </trkpt>
      <trkpt lat="47.15405" lon="-1.63485">
        <ele>73</ele>
        <time>2021-03-21T08:10:07.000Z</time>
      </trkpt>
      <trkpt lat="47.15398" lon="-1.63495">
        <ele>73</ele>
        <time>2021-03-21T08:10:09.000Z</time>
      </trkpt>
      <trkpt lat="47.15389" lon="-1.63505">
        <ele>74</ele>
        <time>2021-03-21T08:10:11.000Z</time>
      </trkpt>
      <trkpt lat="47.1538" lon="-1.63511">
        <ele>75</ele>
        <time>2021-03-21T08:10:13.000Z</time>
      </trkpt>
      <trkpt lat="47.1537" lon="-1.63515">
        <ele>75</ele>
        <time>2021-03-21T08:10:15.000Z</time>
      </trkpt>
      <trkpt lat="47.1536" lon="-1.63524">
        <ele>75</ele>
        <time>2021-03-21T08:10:17.000Z</time>
      </trkpt>
      <trkpt lat="47.1535" lon="-1.63534">
        <ele>74</ele>
        <time>2021-03-21T08:10:19.000Z</time>
      </trkpt>
      <trkpt lat="47.15339" lon="-1.63544">
        <ele>74</ele>
        <time>2021-03-21T08:10:21.000Z</time>
      </trkpt>
      <trkpt lat="47.15329" lon="-1.63553">
        <ele>74</ele>
        <time>2021-03-21T08:10:23.000Z</time>
      </trkpt>
      <trkpt lat="47.15319" lon="-1.6356">
        <ele>75</ele>
        <time>2021-03-21T08:10:25.000Z</time>
      </trkpt>
      <trkpt lat="47.15309" lon="-1.63566">
        <ele>75</ele>
        <time>2021-03-21T08:10:27.000Z</time>
      </trkpt>
      <trkpt lat="47.15298" lon="-1.63576">
        <ele>75</ele>
        <time>2021-03-21T08:10:29.000Z</time>
      </trkpt>
      <trkpt lat="47.15287" lon="-1.63587">
        <ele>74</ele>
        <time>2021-03-21T08:10:31.000Z</time>
      </trkpt>
      <trkpt lat="47.15277" lon="-1.63596">
        <ele>75</ele>
        <time>2021-03-21T08:10:33.000Z</time>
      </trkpt>
      <trkpt lat="47.15266" lon="-1.63604">
        <ele>75</ele>
        <time>2021-03-21T08:10:35.000Z</time>
      </trkpt>
      <trkpt lat="47.15255" lon="-1.63613">
        <ele>75</ele>
        <time>2021-03-21T08:10:37.000Z</time>
      </trkpt>
      <trkpt lat="47.15244" lon="-1.63622">
        <ele>74</ele>
        <time>2021-03-21T08:10:39.000Z</time>
      </trkpt>
      <trkpt lat="47.15233" lon="-1.63631">
        <ele>74</ele>
        <time>2021-03-21T08:10:41.000Z</time>
      </trkpt>
      <trkpt lat="47.15223" lon="-1.6364">
        <ele>74</ele>
        <time>2021-03-21T08:10:43.000Z</time>
      </trkpt>
      <trkpt lat="47.15212" lon="-1.63649">
        <ele>75</ele>
        <time>2021-03-21T08:10:45.000Z</time>
      </trkpt>
      <trkpt lat="47.15201" lon="-1.63658">
        <ele>75</ele>
        <time>2021-03-21T08:10:47.000Z</time>
      </trkpt>
      <trkpt lat="47.15189" lon="-1.63668">
        <ele>75</ele>
        <time>2021-03-21T08:10:49.000Z</time>
      </trkpt>
      <trkpt lat="47.15179" lon="-1.63678">
        <ele>75</ele>
        <time>2021-03-21T08:10:51.000Z</time>
      </trkpt>
      <trkpt lat="47.15168" lon="-1.63688">
        <ele>76</ele>
        <time>2021-03-21T08:10:53.000Z</time>
      </trkpt>
      <trkpt lat="47.15157" lon="-1.63698">
        <ele>76</ele>
        <time>2021-03-21T08:10:55.000Z</time>
      </trkpt>
      <trkpt lat="47.15147" lon="-1.63708">
        <ele>76</ele>
        <time>2021-03-21T08:10:57.000Z</time>
      </trkpt>
      <trkpt lat="47.15136" lon="-1.63718">
        <ele>76</ele>
        <time>2021-03-21T08:10:59.000Z</time>
      </trkpt>
      <trkpt lat="47.15125" lon="-1.6373">
        <ele>75</ele>
        <time>2021-03-21T08:11:01.000Z</time>
      </trkpt>
      <trkpt lat="47.15115" lon="-1.63741">
        <ele>75</ele>
        <time>2021-03-21T08:11:03.000Z</time>
      </trkpt>
      <trkpt lat="47.15104" lon="-1.63752">
        <ele>75</ele>
        <time>2021-03-21T08:11:05.000Z</time>
      </trkpt>
      <trkpt lat="47.15094" lon="-1.63764">
        <ele>75</ele>
        <time>2021-03-21T08:11:07.000Z</time>
      </trkpt>
      <trkpt lat="47.15084" lon="-1.63775">
        <ele>74</ele>
        <time>2021-03-21T08:11:09.000Z</time>
      </trkpt>
      <trkpt lat="47.15074" lon="-1.63788">
        <ele>74</ele>
        <time>2021-03-21T08:11:11.000Z</time>
      </trkpt>
      <trkpt lat="47.15064" lon="-1.638">
        <ele>74</ele>
        <time>2021-03-21T08:11:13.000Z</time>
      </trkpt>
      <trkpt lat="47.15055" lon="-1.63812">
        <ele>74</ele>
        <time>2021-03-21T08:11:15.000Z</time>
      </trkpt>
      <trkpt lat="47.15045" lon="-1.63825">
        <ele>75</ele>
        <time>2021-03-21T08:11:17.000Z</time>
      </trkpt>
      <trkpt lat="47.15035" lon="-1.63838">
        <ele>75</ele>
        <time>2021-03-21T08:11:19.000Z</time>
      </trkpt>
      <trkpt lat="47.15025" lon="-1.63852">
        <ele>75</ele>
        <time>2021-03-21T08:11:21.000Z</time>
      </trkpt>
      <trkpt lat="47.15016" lon="-1.63865">
        <ele>75</ele>
        <time>2021-03-21T08:11:23.000Z</time>
      </trkpt>
      <trkpt lat="47.15007" lon="-1.63879">
        <ele>75</ele>
        <time>2021-03-21T08:11:25.000Z</time>
      </trkpt>
      <trkpt lat="47.14998" lon="-1.63893">
        <ele>75</ele>
        <time>2021-03-21T08:11:27.000Z</time>
      </trkpt>
      <trkpt lat="47.1499" lon="-1.63906">
        <ele>75</ele>
        <time>2021-03-21T08:11:29.000Z</time>
      </trkpt>
      <trkpt lat="47.14982" lon="-1.63919">
        <ele>75</ele>
        <time>2021-03-21T08:11:31.000Z</time>
      </trkpt>
      <trkpt lat="47.14974" lon="-1.63932">
        <ele>76</ele>
        <time>2021-03-21T08:11:33.000Z</time>
      </trkpt>
      <trkpt lat="47.14966" lon="-1.63946">
        <ele>76</ele>
        <time>2021-03-21T08:11:35.000Z</time>
      </trkpt>
      <trkpt lat="47.14958" lon="-1.63959">
        <ele>77</ele>
        <time>2021-03-21T08:11:37.000Z</time>
      </trkpt>
      <trkpt lat="47.1495" lon="-1.63973">
        <ele>76</ele>
        <time>2021-03-21T08:11:39.000Z</time>
      </trkpt>
      <trkpt lat="47.14942" lon="-1.63986">
        <ele>76</ele>
        <time>2021-03-21T08:11:41.000Z</time>
      </trkpt>
      <trkpt lat="47.14933" lon="-1.63999">
        <ele>77</ele>
        <time>2021-03-21T08:11:43.000Z</time>
      </trkpt>
      <trkpt lat="47.14923" lon="-1.64012">
        <ele>77</ele>
        <time>2021-03-21T08:11:45.000Z</time>
      </trkpt>
      <trkpt lat="47.14915" lon="-1.64026">
        <ele>77</ele>
        <time>2021-03-21T08:11:47.000Z</time>
      </trkpt>
      <trkpt lat="47.14905" lon="-1.64039">
        <ele>77</ele>
        <time>2021-03-21T08:11:49.000Z</time>
      </trkpt>
      <trkpt lat="47.14891" lon="-1.6404">
        <ele>77</ele>
        <time>2021-03-21T08:11:51.000Z</time>
      </trkpt>
      <trkpt lat="47.14879" lon="-1.64026">
        <ele>76</ele>
        <time>2021-03-21T08:11:53.000Z</time>
      </trkpt>
      <trkpt lat="47.1487" lon="-1.64011">
        <ele>76</ele>
        <time>2021-03-21T08:11:55.000Z</time>
      </trkpt>
      <trkpt lat="47.14862" lon="-1.63996">
        <ele>76</ele>
        <time>2021-03-21T08:11:57.000Z</time>
      </trkpt>
      <trkpt lat="47.14849" lon="-1.63987">
        <ele>75</ele>
        <time>2021-03-21T08:11:59.000Z</time>
      </trkpt>
      <trkpt lat="47.14835" lon="-1.63985">
        <ele>74</ele>
        <time>2021-03-21T08:12:01.000Z</time>
      </trkpt>
      <trkpt lat="47.14821" lon="-1.63993">
        <ele>74</ele>
        <time>2021-03-21T08:12:03.000Z</time>
      </trkpt>
      <trkpt lat="47.1481" lon="-1.64005">
        <ele>73</ele>
        <time>2021-03-21T08:12:05.000Z</time>
      </trkpt>
      <trkpt lat="47.14799" lon="-1.64017">
        <ele>73</ele>
        <time>2021-03-21T08:12:07.000Z</time>
      </trkpt>
      <trkpt lat="47.14787" lon="-1.64028">
        <ele>74</ele>
        <time>2021-03-21T08:12:09.000Z</time>
      </trkpt>
      <trkpt lat="47.14776" lon="-1.64038">
        <ele>74</ele>
        <time>2021-03-21T08:12:11.000Z</time>
      </trkpt>
      <trkpt lat="47.14764" lon="-1.64047">
        <ele>74</ele>
        <time>2021-03-21T08:12:13.000Z</time>
      </trkpt>
      <trkpt lat="47.14751" lon="-1.64054">
        <ele>75</ele>
        <time>2021-03-21T08:12:15.000Z</time>
      </trkpt>
      <trkpt lat="47.14738" lon="-1.6406">
        <ele>75</ele>
        <time>2021-03-21T08:12:17.000Z</time>
      </trkpt>
      <trkpt lat="47.14725" lon="-1.64065">
        <ele>74</ele>
        <time>2021-03-21T08:12:19.000Z</time>
      </trkpt>
      <trkpt lat="47.14712" lon="-1.6407">
        <ele>74</ele>
        <time>2021-03-21T08:12:21.000Z</time>
      </trkpt>
      <trkpt lat="47.147" lon="-1.64074">
        <ele>74</ele>
        <time>2021-03-21T08:12:23.000Z</time>
      </trkpt>
      <trkpt lat="47.14687" lon="-1.64079">
        <ele>75</ele>
        <time>2021-03-21T08:12:25.000Z</time>
      </trkpt>
      <trkpt lat="47.14674" lon="-1.64085">
        <ele>75</ele>
        <time>2021-03-21T08:12:27.000Z</time>
      </trkpt>
      <trkpt lat="47.14661" lon="-1.64092">
        <ele>74</ele>
        <time>2021-03-21T08:12:29.000Z</time>
      </trkpt>
      <trkpt lat="47.14648" lon="-1.64099">
        <ele>74</ele>
        <time>2021-03-21T08:12:31.000Z</time>
      </trkpt>
      <trkpt lat="47.14635" lon="-1.64105">
        <ele>74</ele>
        <time>2021-03-21T08:12:33.000Z</time>
      </trkpt>
      <trkpt lat="47.14622" lon="-1.64112">
        <ele>74</ele>
        <time>2021-03-21T08:12:35.000Z</time>
      </trkpt>
      <trkpt lat="47.14609" lon="-1.6412">
        <ele>74</ele>
        <time>2021-03-21T08:12:37.000Z</time>
      </trkpt>
      <trkpt lat="47.14595" lon="-1.64127">
        <ele>74</ele>
        <time>2021-03-21T08:12:39.000Z</time>
      </trkpt>
      <trkpt lat="47.14581" lon="-1.64134">
        <ele>73</ele>
        <time>2021-03-21T08:12:41.000Z</time>
      </trkpt>
      <trkpt lat="47.14569" lon="-1.64142">
        <ele>73</ele>
        <time>2021-03-21T08:12:43.000Z</time>
      </trkpt>
      <trkpt lat="47.14556" lon="-1.64149">
        <ele>72</ele>
        <time>2021-03-21T08:12:45.000Z</time>
      </trkpt>
      <trkpt lat="47.14543" lon="-1.64158">
        <ele>72</ele>
        <time>2021-03-21T08:12:47.000Z</time>
      </trkpt>
      <trkpt lat="47.1453" lon="-1.64166">
        <ele>71</ele>
        <time>2021-03-21T08:12:49.000Z</time>
      </trkpt>
      <trkpt lat="47.14518" lon="-1.64175">
        <ele>71</ele>
        <time>2021-03-21T08:12:51.000Z</time>
      </trkpt>
      <trkpt lat="47.14506" lon="-1.64183">
        <ele>71</ele>
        <time>2021-03-21T08:12:53.000Z</time>
      </trkpt>
      <trkpt lat="47.14493" lon="-1.64191">
        <ele>71</ele>
        <time>2021-03-21T08:12:55.000Z</time>
      </trkpt>
      <trkpt lat="47.14481" lon="-1.64201">
        <ele>71</ele>
        <time>2021-03-21T08:12:57.000Z</time>
      </trkpt>
      <trkpt lat="47.14468" lon="-1.64208">
        <ele>70</ele>
        <time>2021-03-21T08:12:59.000Z</time>
      </trkpt>
      <trkpt lat="47.14454" lon="-1.64214">
        <ele>69</ele>
        <time>2021-03-21T08:13:01.000Z</time>
      </trkpt>
      <trkpt lat="47.1444" lon="-1.6422">
        <ele>70</ele>
        <time>2021-03-21T08:13:03.000Z</time>
      </trkpt>
      <trkpt lat="47.14427" lon="-1.64223">
        <ele>70</ele>
        <time>2021-03-21T08:13:05.000Z</time>
      </trkpt>
      <trkpt lat="47.14413" lon="-1.64226">
        <ele>69</ele>
        <time>2021-03-21T08:13:07.000Z</time>
      </trkpt>
      <trkpt lat="47.14399" lon="-1.64228">
        <ele>68</ele>
        <time>2021-03-21T08:13:09.000Z</time>
      </trkpt>
      <trkpt lat="47.14385" lon="-1.6423">
        <ele>68</ele>
        <time>2021-03-21T08:13:11.000Z</time>
      </trkpt>
      <trkpt lat="47.14372" lon="-1.64233">
        <ele>68</ele>
        <time>2021-03-21T08:13:13.000Z</time>
      </trkpt>
      <trkpt lat="47.14359" lon="-1.64235">
        <ele>67</ele>
        <time>2021-03-21T08:13:15.000Z</time>
      </trkpt>
      <trkpt lat="47.14348" lon="-1.64236">
        <ele>68</ele>
        <time>2021-03-21T08:13:17.000Z</time>
      </trkpt>
      <trkpt lat="47.14334" lon="-1.64237">
        <ele>68</ele>
        <time>2021-03-21T08:13:19.000Z</time>
      </trkpt>
      <trkpt lat="47.14319" lon="-1.6424">
        <ele>66</ele>
        <time>2021-03-21T08:13:21.000Z</time>
      </trkpt>
      <trkpt lat="47.14305" lon="-1.64242">
        <ele>68</ele>
        <time>2021-03-21T08:13:23.000Z</time>
      </trkpt>
      <trkpt lat="47.1429" lon="-1.64245">
        <ele>68</ele>
        <time>2021-03-21T08:13:25.000Z</time>
      </trkpt>
      <trkpt lat="47.14276" lon="-1.64252">
        <ele>67</ele>
        <time>2021-03-21T08:13:27.000Z</time>
      </trkpt>
      <trkpt lat="47.14263" lon="-1.6426">
        <ele>66</ele>
        <time>2021-03-21T08:13:29.000Z</time>
      </trkpt>
      <trkpt lat="47.14251" lon="-1.64268">
        <ele>67</ele>
        <time>2021-03-21T08:13:31.000Z</time>
      </trkpt>
      <trkpt lat="47.1424" lon="-1.64279">
        <ele>68</ele>
        <time>2021-03-21T08:13:33.000Z</time>
      </trkpt>
      <trkpt lat="47.14228" lon="-1.64291">
        <ele>69</ele>
        <time>2021-03-21T08:13:35.000Z</time>
      </trkpt>
      <trkpt lat="47.14216" lon="-1.64302">
        <ele>69</ele>
        <time>2021-03-21T08:13:37.000Z</time>
      </trkpt>
      <trkpt lat="47.14204" lon="-1.64314">
        <ele>67</ele>
        <time>2021-03-21T08:13:39.000Z</time>
      </trkpt>
      <trkpt lat="47.14193" lon="-1.64327">
        <ele>67</ele>
        <time>2021-03-21T08:13:41.000Z</time>
      </trkpt>
      <trkpt lat="47.14182" lon="-1.6434">
        <ele>67</ele>
        <time>2021-03-21T08:13:43.000Z</time>
      </trkpt>
      <trkpt lat="47.1417" lon="-1.64353">
        <ele>67</ele>
        <time>2021-03-21T08:13:45.000Z</time>
      </trkpt>
      <trkpt lat="47.14158" lon="-1.64365">
        <ele>67</ele>
        <time>2021-03-21T08:13:47.000Z</time>
      </trkpt>
      <trkpt lat="47.14146" lon="-1.64375">
        <ele>67</ele>
        <time>2021-03-21T08:13:49.000Z</time>
      </trkpt>
      <trkpt lat="47.14132" lon="-1.64385">
        <ele>67</ele>
        <time>2021-03-21T08:13:51.000Z</time>
      </trkpt>
      <trkpt lat="47.14119" lon="-1.64395">
        <ele>67</ele>
        <time>2021-03-21T08:13:53.000Z</time>
      </trkpt>
      <trkpt lat="47.14106" lon="-1.64404">
        <ele>67</ele>
        <time>2021-03-21T08:13:55.000Z</time>
      </trkpt>
      <trkpt lat="47.14094" lon="-1.64414">
        <ele>67</ele>
        <time>2021-03-21T08:13:57.000Z</time>
      </trkpt>
      <trkpt lat="47.14082" lon="-1.64423">
        <ele>66</ele>
        <time>2021-03-21T08:13:59.000Z</time>
      </trkpt>
      <trkpt lat="47.1407" lon="-1.64433">
        <ele>66</ele>
        <time>2021-03-21T08:14:01.000Z</time>
      </trkpt>
      <trkpt lat="47.14057" lon="-1.64443">
        <ele>66</ele>
        <time>2021-03-21T08:14:03.000Z</time>
      </trkpt>
      <trkpt lat="47.14044" lon="-1.64452">
        <ele>66</ele>
        <time>2021-03-21T08:14:05.000Z</time>
      </trkpt>
      <trkpt lat="47.14033" lon="-1.64461">
        <ele>66</ele>
        <time>2021-03-21T08:14:07.000Z</time>
      </trkpt>
      <trkpt lat="47.14022" lon="-1.6447">
        <ele>66</ele>
        <time>2021-03-21T08:14:09.000Z</time>
      </trkpt>
      <trkpt lat="47.1401" lon="-1.6448">
        <ele>66</ele>
        <time>2021-03-21T08:14:11.000Z</time>
      </trkpt>
      <trkpt lat="47.13998" lon="-1.6449">
        <ele>66</ele>
        <time>2021-03-21T08:14:13.000Z</time>
      </trkpt>
      <trkpt lat="47.13986" lon="-1.64501">
        <ele>66</ele>
        <time>2021-03-21T08:14:15.000Z</time>
      </trkpt>
      <trkpt lat="47.13972" lon="-1.64514">
        <ele>65</ele>
        <time>2021-03-21T08:14:17.000Z</time>
      </trkpt>
      <trkpt lat="47.1396" lon="-1.64527">
        <ele>65</ele>
        <time>2021-03-21T08:14:19.000Z</time>
      </trkpt>
      <trkpt lat="47.13948" lon="-1.64539">
        <ele>65</ele>
        <time>2021-03-21T08:14:21.000Z</time>
      </trkpt>
      <trkpt lat="47.13936" lon="-1.64551">
        <ele>65</ele>
        <time>2021-03-21T08:14:23.000Z</time>
      </trkpt>
      <trkpt lat="47.13925" lon="-1.64561">
        <ele>64</ele>
        <time>2021-03-21T08:14:25.000Z</time>
      </trkpt>
      <trkpt lat="47.13914" lon="-1.64572">
        <ele>64</ele>
        <time>2021-03-21T08:14:27.000Z</time>
      </trkpt>
      <trkpt lat="47.13903" lon="-1.64582">
        <ele>64</ele>
        <time>2021-03-21T08:14:29.000Z</time>
      </trkpt>
      <trkpt lat="47.13891" lon="-1.6459">
        <ele>63</ele>
        <time>2021-03-21T08:14:31.000Z</time>
      </trkpt>
      <trkpt lat="47.13877" lon="-1.64596">
        <ele>63</ele>
        <time>2021-03-21T08:14:33.000Z</time>
      </trkpt>
      <trkpt lat="47.13864" lon="-1.64599">
        <ele>63</ele>
        <time>2021-03-21T08:14:35.000Z</time>
      </trkpt>
      <trkpt lat="47.13851" lon="-1.64601">
        <ele>63</ele>
        <time>2021-03-21T08:14:37.000Z</time>
      </trkpt>
      <trkpt lat="47.13837" lon="-1.64602">
        <ele>63</ele>
        <time>2021-03-21T08:14:39.000Z</time>
      </trkpt>
      <trkpt lat="47.13823" lon="-1.64603">
        <ele>62</ele>
        <time>2021-03-21T08:14:41.000Z</time>
      </trkpt>
      <trkpt lat="47.13811" lon="-1.64602">
        <ele>62</ele>
        <time>2021-03-21T08:14:43.000Z</time>
      </trkpt>
      <trkpt lat="47.13799" lon="-1.64601">
        <ele>63</ele>
        <time>2021-03-21T08:14:45.000Z</time>
      </trkpt>
      <trkpt lat="47.13787" lon="-1.646">
        <ele>63</ele>
        <time>2021-03-21T08:14:47.000Z</time>
      </trkpt>
      <trkpt lat="47.13775" lon="-1.64598">
        <ele>62</ele>
        <time>2021-03-21T08:14:49.000Z</time>
      </trkpt>
      <trkpt lat="47.13762" lon="-1.64596">
        <ele>62</ele>
        <time>2021-03-21T08:14:51.000Z</time>
      </trkpt>
      <trkpt lat="47.13748" lon="-1.64593">
        <ele>62</ele>
        <time>2021-03-21T08:14:53.000Z</time>
      </trkpt>
      <trkpt lat="47.13735" lon="-1.6459">
        <ele>63</ele>
        <time>2021-03-21T08:14:55.000Z</time>
      </trkpt>
      <trkpt lat="47.13722" lon="-1.64587">
        <ele>63</ele>
        <time>2021-03-21T08:14:57.000Z</time>
      </trkpt>
      <trkpt lat="47.1371" lon="-1.64585">
        <ele>63</ele>
        <time>2021-03-21T08:14:59.000Z</time>
      </trkpt>
      <trkpt lat="47.13698" lon="-1.64582">
        <ele>64</ele>
        <time>2021-03-21T08:15:01.000Z</time>
      </trkpt>
      <trkpt lat="47.13686" lon="-1.64579">
        <ele>64</ele>
        <time>2021-03-21T08:15:03.000Z</time>
      </trkpt>
      <trkpt lat="47.13674" lon="-1.64575">
        <ele>65</ele>
        <time>2021-03-21T08:15:05.000Z</time>
      </trkpt>
      <trkpt lat="47.13662" lon="-1.64572">
        <ele>65</ele>
        <time>2021-03-21T08:15:07.000Z</time>
      </trkpt>
      <trkpt lat="47.1365" lon="-1.64569">
        <ele>66</ele>
        <time>2021-03-21T08:15:09.000Z</time>
      </trkpt>
      <trkpt lat="47.13639" lon="-1.64566">
        <ele>66</ele>
        <time>2021-03-21T08:15:11.000Z</time>
      </trkpt>
      <trkpt lat="47.13627" lon="-1.64562">
        <ele>66</ele>
        <time>2021-03-21T08:15:13.000Z</time>
      </trkpt>
      <trkpt lat="47.13615" lon="-1.64559">
        <ele>67</ele>
        <time>2021-03-21T08:15:15.000Z</time>
      </trkpt>
      <trkpt lat="47.13604" lon="-1.64558">
        <ele>68</ele>
        <time>2021-03-21T08:15:17.000Z</time>
      </trkpt>
      <trkpt lat="47.13593" lon="-1.64559">
        <ele>68</ele>
        <time>2021-03-21T08:15:19.000Z</time>
      </trkpt>
      <trkpt lat="47.13582" lon="-1.64562">
        <ele>68</ele>
        <time>2021-03-21T08:15:21.000Z</time>
      </trkpt>
      <trkpt lat="47.13572" lon="-1.64567">
        <ele>68</ele>
        <time>2021-03-21T08:15:23.000Z</time>
      </trkpt>
      <trkpt lat="47.13562" lon="-1.64574">
        <ele>69</ele>
        <time>2021-03-21T08:15:25.000Z</time>
      </trkpt>
      <trkpt lat="47.13552" lon="-1.64582">
        <ele>69</ele>
        <time>2021-03-21T08:15:27.000Z</time>
      </trkpt>
      <trkpt lat="47.13542" lon="-1.64592">
        <ele>69</ele>
        <time>2021-03-21T08:15:29.000Z</time>
      </trkpt>
      <trkpt lat="47.13532" lon="-1.64602">
        <ele>69</ele>
        <time>2021-03-21T08:15:31.000Z</time>
      </trkpt>
      <trkpt lat="47.13523" lon="-1.64612">
        <ele>69</ele>
        <time>2021-03-21T08:15:33.000Z</time>
      </trkpt>
      <trkpt lat="47.13513" lon="-1.64622">
        <ele>69</ele>
        <time>2021-03-21T08:15:35.000Z</time>
      </trkpt>
      <trkpt lat="47.13504" lon="-1.6463">
        <ele>70</ele>
        <time>2021-03-21T08:15:37.000Z</time>
      </trkpt>
      <trkpt lat="47.13494" lon="-1.64638">
        <ele>70</ele>
        <time>2021-03-21T08:15:39.000Z</time>
      </trkpt>
      <trkpt lat="47.13483" lon="-1.64644">
        <ele>70</ele>
        <time>2021-03-21T08:15:41.000Z</time>
      </trkpt>
      <trkpt lat="47.13473" lon="-1.64647">
        <ele>71</ele>
        <time>2021-03-21T08:15:43.000Z</time>
      </trkpt>
      <trkpt lat="47.13461" lon="-1.64648">
        <ele>70</ele>
        <time>2021-03-21T08:15:45.000Z</time>
      </trkpt>
      <trkpt lat="47.13449" lon="-1.64646">
        <ele>71</ele>
        <time>2021-03-21T08:15:47.000Z</time>
      </trkpt>
      <trkpt lat="47.13439" lon="-1.64645">
        <ele>71</ele>
        <time>2021-03-21T08:15:49.000Z</time>
      </trkpt>
      <trkpt lat="47.13428" lon="-1.64645">
        <ele>70</ele>
        <time>2021-03-21T08:15:51.000Z</time>
      </trkpt>
      <trkpt lat="47.13418" lon="-1.64644">
        <ele>70</ele>
        <time>2021-03-21T08:15:53.000Z</time>
      </trkpt>
      <trkpt lat="47.13407" lon="-1.64645">
        <ele>70</ele>
        <time>2021-03-21T08:15:56.000Z</time>
      </trkpt>
      <trkpt lat="47.13399" lon="-1.64632">
        <ele>70</ele>
        <time>2021-03-21T08:15:59.000Z</time>
      </trkpt>
      <trkpt lat="47.13395" lon="-1.64614">
        <ele>70</ele>
        <time>2021-03-21T08:16:01.000Z</time>
      </trkpt>
      <trkpt lat="47.13391" lon="-1.64595">
        <ele>71</ele>
        <time>2021-03-21T08:16:03.000Z</time>
      </trkpt>
      <trkpt lat="47.13388" lon="-1.64576">
        <ele>71</ele>
        <time>2021-03-21T08:16:05.000Z</time>
      </trkpt>
      <trkpt lat="47.13384" lon="-1.64557">
        <ele>71</ele>
        <time>2021-03-21T08:16:07.000Z</time>
      </trkpt>
      <trkpt lat="47.1338" lon="-1.64539">
        <ele>71</ele>
        <time>2021-03-21T08:16:09.000Z</time>
      </trkpt>
      <trkpt lat="47.13375" lon="-1.64521">
        <ele>71</ele>
        <time>2021-03-21T08:16:11.000Z</time>
      </trkpt>
      <trkpt lat="47.13368" lon="-1.64504">
        <ele>70</ele>
        <time>2021-03-21T08:16:13.000Z</time>
      </trkpt>
      <trkpt lat="47.13362" lon="-1.64486">
        <ele>70</ele>
        <time>2021-03-21T08:16:15.000Z</time>
      </trkpt>
      <trkpt lat="47.13354" lon="-1.64469">
        <ele>69</ele>
        <time>2021-03-21T08:16:17.000Z</time>
      </trkpt>
      <trkpt lat="47.13346" lon="-1.64452">
        <ele>68</ele>
        <time>2021-03-21T08:16:19.000Z</time>
      </trkpt>
      <trkpt lat="47.13338" lon="-1.64433">
        <ele>67</ele>
        <time>2021-03-21T08:16:21.000Z</time>
      </trkpt>
      <trkpt lat="47.13328" lon="-1.64415">
        <ele>66</ele>
        <time>2021-03-21T08:16:23.000Z</time>
      </trkpt>
      <trkpt lat="47.1332" lon="-1.64395">
        <ele>66</ele>
        <time>2021-03-21T08:16:25.000Z</time>
      </trkpt>
      <trkpt lat="47.1331" lon="-1.64377">
        <ele>65</ele>
        <time>2021-03-21T08:16:27.000Z</time>
      </trkpt>
      <trkpt lat="47.133" lon="-1.64356">
        <ele>65</ele>
        <time>2021-03-21T08:16:29.000Z</time>
      </trkpt>
      <trkpt lat="47.1329" lon="-1.64336">
        <ele>64</ele>
        <time>2021-03-21T08:16:31.000Z</time>
      </trkpt>
      <trkpt lat="47.13281" lon="-1.64316">
        <ele>63</ele>
        <time>2021-03-21T08:16:33.000Z</time>
      </trkpt>
      <trkpt lat="47.13272" lon="-1.64295">
        <ele>63</ele>
        <time>2021-03-21T08:16:35.000Z</time>
      </trkpt>
      <trkpt lat="47.13262" lon="-1.64276">
        <ele>63</ele>
        <time>2021-03-21T08:16:37.000Z</time>
      </trkpt>
      <trkpt lat="47.13253" lon="-1.64256">
        <ele>62</ele>
        <time>2021-03-21T08:16:39.000Z</time>
      </trkpt>
      <trkpt lat="47.13245" lon="-1.64236">
        <ele>62</ele>
        <time>2021-03-21T08:16:41.000Z</time>
      </trkpt>
      <trkpt lat="47.13236" lon="-1.64216">
        <ele>62</ele>
        <time>2021-03-21T08:16:43.000Z</time>
      </trkpt>
      <trkpt lat="47.13227" lon="-1.64197">
        <ele>62</ele>
        <time>2021-03-21T08:16:45.000Z</time>
      </trkpt>
      <trkpt lat="47.13217" lon="-1.64178">
        <ele>62</ele>
        <time>2021-03-21T08:16:47.000Z</time>
      </trkpt>
      <trkpt lat="47.13209" lon="-1.64159">
        <ele>62</ele>
        <time>2021-03-21T08:16:49.000Z</time>
      </trkpt>
      <trkpt lat="47.132" lon="-1.64139">
        <ele>63</ele>
        <time>2021-03-21T08:16:51.000Z</time>
      </trkpt>
      <trkpt lat="47.13191" lon="-1.64119">
        <ele>63</ele>
        <time>2021-03-21T08:16:53.000Z</time>
      </trkpt>
      <trkpt lat="47.13182" lon="-1.641">
        <ele>62</ele>
        <time>2021-03-21T08:16:55.000Z</time>
      </trkpt>
      <trkpt lat="47.13173" lon="-1.6408">
        <ele>62</ele>
        <time>2021-03-21T08:16:57.000Z</time>
      </trkpt>
      <trkpt lat="47.13165" lon="-1.6406">
        <ele>62</ele>
        <time>2021-03-21T08:16:59.000Z</time>
      </trkpt>
      <trkpt lat="47.13156" lon="-1.6404">
        <ele>62</ele>
        <time>2021-03-21T08:17:01.000Z</time>
      </trkpt>
      <trkpt lat="47.13148" lon="-1.6402">
        <ele>62</ele>
        <time>2021-03-21T08:17:03.000Z</time>
      </trkpt>
      <trkpt lat="47.1314" lon="-1.64">
        <ele>61</ele>
        <time>2021-03-21T08:17:05.000Z</time>
      </trkpt>
      <trkpt lat="47.13132" lon="-1.6398">
        <ele>62</ele>
        <time>2021-03-21T08:17:07.000Z</time>
      </trkpt>
      <trkpt lat="47.13124" lon="-1.63959">
        <ele>62</ele>
        <time>2021-03-21T08:17:09.000Z</time>
      </trkpt>
      <trkpt lat="47.13116" lon="-1.63938">
        <ele>61</ele>
        <time>2021-03-21T08:17:11.000Z</time>
      </trkpt>
      <trkpt lat="47.13109" lon="-1.63918">
        <ele>61</ele>
        <time>2021-03-21T08:17:13.000Z</time>
      </trkpt>
      <trkpt lat="47.13101" lon="-1.63899">
        <ele>61</ele>
        <time>2021-03-21T08:17:15.000Z</time>
      </trkpt>
      <trkpt lat="47.13093" lon="-1.63878">
        <ele>61</ele>
        <time>2021-03-21T08:17:17.000Z</time>
      </trkpt>
      <trkpt lat="47.13086" lon="-1.63859">
        <ele>61</ele>
        <time>2021-03-21T08:17:19.000Z</time>
      </trkpt>
      <trkpt lat="47.13077" lon="-1.63838">
        <ele>60</ele>
        <time>2021-03-21T08:17:21.000Z</time>
      </trkpt>
      <trkpt lat="47.1307" lon="-1.63818">
        <ele>60</ele>
        <time>2021-03-21T08:17:23.000Z</time>
      </trkpt>
      <trkpt lat="47.13061" lon="-1.63798">
        <ele>59</ele>
        <time>2021-03-21T08:17:25.000Z</time>
      </trkpt>
      <trkpt lat="47.13053" lon="-1.6378">
        <ele>59</ele>
        <time>2021-03-21T08:17:27.000Z</time>
      </trkpt>
      <trkpt lat="47.13044" lon="-1.63761">
        <ele>59</ele>
        <time>2021-03-21T08:17:29.000Z</time>
      </trkpt>
      <trkpt lat="47.13036" lon="-1.63742">
        <ele>59</ele>
        <time>2021-03-21T08:17:31.000Z</time>
      </trkpt>
      <trkpt lat="47.13027" lon="-1.63724">
        <ele>59</ele>
        <time>2021-03-21T08:17:33.000Z</time>
      </trkpt>
      <trkpt lat="47.13018" lon="-1.63706">
        <ele>59</ele>
        <time>2021-03-21T08:17:35.000Z</time>
      </trkpt>
      <trkpt lat="47.13009" lon="-1.63687">
        <ele>60</ele>
        <time>2021-03-21T08:17:37.000Z</time>
      </trkpt>
      <trkpt lat="47.12999" lon="-1.63669">
        <ele>60</ele>
        <time>2021-03-21T08:17:39.000Z</time>
      </trkpt>
      <trkpt lat="47.12991" lon="-1.63649">
        <ele>60</ele>
        <time>2021-03-21T08:17:41.000Z</time>
      </trkpt>
      <trkpt lat="47.12985" lon="-1.63628">
        <ele>58</ele>
        <time>2021-03-21T08:17:43.000Z</time>
      </trkpt>
      <trkpt lat="47.12979" lon="-1.63607">
        <ele>58</ele>
        <time>2021-03-21T08:17:45.000Z</time>
      </trkpt>
      <trkpt lat="47.12971" lon="-1.63588">
        <ele>58</ele>
        <time>2021-03-21T08:17:47.000Z</time>
      </trkpt>
      <trkpt lat="47.12963" lon="-1.63568">
        <ele>58</ele>
        <time>2021-03-21T08:17:49.000Z</time>
      </trkpt>
      <trkpt lat="47.12955" lon="-1.6355">
        <ele>58</ele>
        <time>2021-03-21T08:17:51.000Z</time>
      </trkpt>
      <trkpt lat="47.12948" lon="-1.6353">
        <ele>58</ele>
        <time>2021-03-21T08:17:53.000Z</time>
      </trkpt>
      <trkpt lat="47.1294" lon="-1.6351">
        <ele>58</ele>
        <time>2021-03-21T08:17:55.000Z</time>
      </trkpt>
      <trkpt lat="47.12933" lon="-1.63491">
        <ele>57</ele>
        <time>2021-03-21T08:17:57.000Z</time>
      </trkpt>
      <trkpt lat="47.12926" lon="-1.63472">
        <ele>57</ele>
        <time>2021-03-21T08:17:59.000Z</time>
      </trkpt>
      <trkpt lat="47.12919" lon="-1.63452">
        <ele>56</ele>
        <time>2021-03-21T08:18:01.000Z</time>
      </trkpt>
      <trkpt lat="47.12911" lon="-1.63434">
        <ele>57</ele>
        <time>2021-03-21T08:18:03.000Z</time>
      </trkpt>
      <trkpt lat="47.12903" lon="-1.63414">
        <ele>57</ele>
        <time>2021-03-21T08:18:05.000Z</time>
      </trkpt>
      <trkpt lat="47.12896" lon="-1.63395">
        <ele>56</ele>
        <time>2021-03-21T08:18:07.000Z</time>
      </trkpt>
      <trkpt lat="47.12888" lon="-1.63375">
        <ele>56</ele>
        <time>2021-03-21T08:18:09.000Z</time>
      </trkpt>
      <trkpt lat="47.1288" lon="-1.63355">
        <ele>56</ele>
        <time>2021-03-21T08:18:11.000Z</time>
      </trkpt>
      <trkpt lat="47.12873" lon="-1.63337">
        <ele>56</ele>
        <time>2021-03-21T08:18:13.000Z</time>
      </trkpt>
      <trkpt lat="47.12865" lon="-1.63317">
        <ele>56</ele>
        <time>2021-03-21T08:18:15.000Z</time>
      </trkpt>
      <trkpt lat="47.12857" lon="-1.63297">
        <ele>55</ele>
        <time>2021-03-21T08:18:17.000Z</time>
      </trkpt>
      <trkpt lat="47.1285" lon="-1.63278">
        <ele>55</ele>
        <time>2021-03-21T08:18:19.000Z</time>
      </trkpt>
      <trkpt lat="47.12842" lon="-1.63258">
        <ele>55</ele>
        <time>2021-03-21T08:18:21.000Z</time>
      </trkpt>
      <trkpt lat="47.12833" lon="-1.6324">
        <ele>55</ele>
        <time>2021-03-21T08:18:23.000Z</time>
      </trkpt>
      <trkpt lat="47.12825" lon="-1.63221">
        <ele>55</ele>
        <time>2021-03-21T08:18:25.000Z</time>
      </trkpt>
      <trkpt lat="47.12819" lon="-1.63202">
        <ele>55</ele>
        <time>2021-03-21T08:18:27.000Z</time>
      </trkpt>
      <trkpt lat="47.12812" lon="-1.63182">
        <ele>55</ele>
        <time>2021-03-21T08:18:29.000Z</time>
      </trkpt>
      <trkpt lat="47.12804" lon="-1.63164">
        <ele>55</ele>
        <time>2021-03-21T08:18:31.000Z</time>
      </trkpt>
      <trkpt lat="47.12797" lon="-1.63145">
        <ele>56</ele>
        <time>2021-03-21T08:18:33.000Z</time>
      </trkpt>
      <trkpt lat="47.12791" lon="-1.63126">
        <ele>55</ele>
        <time>2021-03-21T08:18:35.000Z</time>
      </trkpt>
      <trkpt lat="47.12783" lon="-1.63107">
        <ele>56</ele>
        <time>2021-03-21T08:18:37.000Z</time>
      </trkpt>
      <trkpt lat="47.12776" lon="-1.63089">
        <ele>56</ele>
        <time>2021-03-21T08:18:39.000Z</time>
      </trkpt>
      <trkpt lat="47.12769" lon="-1.6307">
        <ele>56</ele>
        <time>2021-03-21T08:18:41.000Z</time>
      </trkpt>
      <trkpt lat="47.12762" lon="-1.63053">
        <ele>56</ele>
        <time>2021-03-21T08:18:43.000Z</time>
      </trkpt>
      <trkpt lat="47.12756" lon="-1.63036">
        <ele>56</ele>
        <time>2021-03-21T08:18:45.000Z</time>
      </trkpt>
      <trkpt lat="47.12749" lon="-1.63018">
        <ele>55</ele>
        <time>2021-03-21T08:18:47.000Z</time>
      </trkpt>
      <trkpt lat="47.12742" lon="-1.63">
        <ele>55</ele>
        <time>2021-03-21T08:18:49.000Z</time>
      </trkpt>
      <trkpt lat="47.12735" lon="-1.62982">
        <ele>56</ele>
        <time>2021-03-21T08:18:51.000Z</time>
      </trkpt>
      <trkpt lat="47.12728" lon="-1.62964">
        <ele>56</ele>
        <time>2021-03-21T08:18:53.000Z</time>
      </trkpt>
      <trkpt lat="47.12721" lon="-1.62945">
        <ele>56</ele>
        <time>2021-03-21T08:18:55.000Z</time>
      </trkpt>
      <trkpt lat="47.12714" lon="-1.62928">
        <ele>57</ele>
        <time>2021-03-21T08:18:57.000Z</time>
      </trkpt>
      <trkpt lat="47.12707" lon="-1.6291">
        <ele>57</ele>
        <time>2021-03-21T08:18:59.000Z</time>
      </trkpt>
      <trkpt lat="47.127" lon="-1.62893">
        <ele>58</ele>
        <time>2021-03-21T08:19:01.000Z</time>
      </trkpt>
      <trkpt lat="47.12693" lon="-1.62875">
        <ele>58</ele>
        <time>2021-03-21T08:19:03.000Z</time>
      </trkpt>
      <trkpt lat="47.12686" lon="-1.62858">
        <ele>58</ele>
        <time>2021-03-21T08:19:05.000Z</time>
      </trkpt>
      <trkpt lat="47.12678" lon="-1.62841">
        <ele>59</ele>
        <time>2021-03-21T08:19:07.000Z</time>
      </trkpt>
      <trkpt lat="47.12669" lon="-1.62825">
        <ele>60</ele>
        <time>2021-03-21T08:19:09.000Z</time>
      </trkpt>
      <trkpt lat="47.1266" lon="-1.62809">
        <ele>60</ele>
        <time>2021-03-21T08:19:11.000Z</time>
      </trkpt>
      <trkpt lat="47.12656" lon="-1.62789">
        <ele>59</ele>
        <time>2021-03-21T08:19:13.000Z</time>
      </trkpt>
      <trkpt lat="47.1265" lon="-1.62769">
        <ele>60</ele>
        <time>2021-03-21T08:19:15.000Z</time>
      </trkpt>
      <trkpt lat="47.12642" lon="-1.62751">
        <ele>59</ele>
        <time>2021-03-21T08:19:17.000Z</time>
      </trkpt>
      <trkpt lat="47.12633" lon="-1.62735">
        <ele>58</ele>
        <time>2021-03-21T08:19:19.000Z</time>
      </trkpt>
      <trkpt lat="47.12624" lon="-1.62718">
        <ele>57</ele>
        <time>2021-03-21T08:19:21.000Z</time>
      </trkpt>
      <trkpt lat="47.12615" lon="-1.627">
        <ele>57</ele>
        <time>2021-03-21T08:19:23.000Z</time>
      </trkpt>
      <trkpt lat="47.12606" lon="-1.62682">
        <ele>56</ele>
        <time>2021-03-21T08:19:25.000Z</time>
      </trkpt>
      <trkpt lat="47.12598" lon="-1.62665">
        <ele>56</ele>
        <time>2021-03-21T08:19:27.000Z</time>
      </trkpt>
      <trkpt lat="47.12589" lon="-1.62647">
        <ele>56</ele>
        <time>2021-03-21T08:19:29.000Z</time>
      </trkpt>
      <trkpt lat="47.12582" lon="-1.62628">
        <ele>56</ele>
        <time>2021-03-21T08:19:31.000Z</time>
      </trkpt>
      <trkpt lat="47.12576" lon="-1.62608">
        <ele>56</ele>
        <time>2021-03-21T08:19:33.000Z</time>
      </trkpt>
      <trkpt lat="47.12571" lon="-1.62588">
        <ele>56</ele>
        <time>2021-03-21T08:19:35.000Z</time>
      </trkpt>
      <trkpt lat="47.12567" lon="-1.62567">
        <ele>56</ele>
        <time>2021-03-21T08:19:37.000Z</time>
      </trkpt>
      <trkpt lat="47.12563" lon="-1.62547">
        <ele>56</ele>
        <time>2021-03-21T08:19:39.000Z</time>
      </trkpt>
      <trkpt lat="47.12559" lon="-1.62526">
        <ele>56</ele>
        <time>2021-03-21T08:19:41.000Z</time>
      </trkpt>
      <trkpt lat="47.12555" lon="-1.62505">
        <ele>56</ele>
        <time>2021-03-21T08:19:43.000Z</time>
      </trkpt>
      <trkpt lat="47.12551" lon="-1.62484">
        <ele>56</ele>
        <time>2021-03-21T08:19:45.000Z</time>
      </trkpt>
      <trkpt lat="47.12546" lon="-1.62462">
        <ele>55</ele>
        <time>2021-03-21T08:19:47.000Z</time>
      </trkpt>
      <trkpt lat="47.12541" lon="-1.62442">
        <ele>55</ele>
        <time>2021-03-21T08:19:49.000Z</time>
      </trkpt>
      <trkpt lat="47.12535" lon="-1.62422">
        <ele>54</ele>
        <time>2021-03-21T08:19:51.000Z</time>
      </trkpt>
      <trkpt lat="47.12529" lon="-1.62403">
        <ele>54</ele>
        <time>2021-03-21T08:19:53.000Z</time>
      </trkpt>
      <trkpt lat="47.12522" lon="-1.62383">
        <ele>54</ele>
        <time>2021-03-21T08:19:55.000Z</time>
      </trkpt>
      <trkpt lat="47.12514" lon="-1.62365">
        <ele>54</ele>
        <time>2021-03-21T08:19:57.000Z</time>
      </trkpt>
      <trkpt lat="47.12506" lon="-1.62349">
        <ele>53</ele>
        <time>2021-03-21T08:19:59.000Z</time>
      </trkpt>
      <trkpt lat="47.12498" lon="-1.62331">
        <ele>52</ele>
        <time>2021-03-21T08:20:01.000Z</time>
      </trkpt>
      <trkpt lat="47.12489" lon="-1.62315">
        <ele>52</ele>
        <time>2021-03-21T08:20:03.000Z</time>
      </trkpt>
      <trkpt lat="47.12479" lon="-1.623">
        <ele>52</ele>
        <time>2021-03-21T08:20:05.000Z</time>
      </trkpt>
      <trkpt lat="47.1247" lon="-1.62285">
        <ele>52</ele>
        <time>2021-03-21T08:20:07.000Z</time>
      </trkpt>
      <trkpt lat="47.1246" lon="-1.6227">
        <ele>52</ele>
        <time>2021-03-21T08:20:09.000Z</time>
      </trkpt>
      <trkpt lat="47.12449" lon="-1.62256">
        <ele>53</ele>
        <time>2021-03-21T08:20:11.000Z</time>
      </trkpt>
      <trkpt lat="47.1244" lon="-1.62241">
        <ele>53</ele>
        <time>2021-03-21T08:20:13.000Z</time>
      </trkpt>
      <trkpt lat="47.1243" lon="-1.62227">
        <ele>53</ele>
        <time>2021-03-21T08:20:15.000Z</time>
      </trkpt>
      <trkpt lat="47.1242" lon="-1.62211">
        <ele>54</ele>
        <time>2021-03-21T08:20:17.000Z</time>
      </trkpt>
      <trkpt lat="47.12412" lon="-1.62195">
        <ele>54</ele>
        <time>2021-03-21T08:20:19.000Z</time>
      </trkpt>
      <trkpt lat="47.12404" lon="-1.62178">
        <ele>54</ele>
        <time>2021-03-21T08:20:21.000Z</time>
      </trkpt>
      <trkpt lat="47.12397" lon="-1.6216">
        <ele>55</ele>
        <time>2021-03-21T08:20:23.000Z</time>
      </trkpt>
      <trkpt lat="47.12392" lon="-1.62141">
        <ele>55</ele>
        <time>2021-03-21T08:20:25.000Z</time>
      </trkpt>
      <trkpt lat="47.12387" lon="-1.62123">
        <ele>56</ele>
        <time>2021-03-21T08:20:27.000Z</time>
      </trkpt>
      <trkpt lat="47.12384" lon="-1.62103">
        <ele>57</ele>
        <time>2021-03-21T08:20:29.000Z</time>
      </trkpt>
      <trkpt lat="47.12382" lon="-1.62082">
        <ele>57</ele>
        <time>2021-03-21T08:20:31.000Z</time>
      </trkpt>
      <trkpt lat="47.12382" lon="-1.62062">
        <ele>57</ele>
        <time>2021-03-21T08:20:33.000Z</time>
      </trkpt>
      <trkpt lat="47.12383" lon="-1.62042">
        <ele>57</ele>
        <time>2021-03-21T08:20:35.000Z</time>
      </trkpt>
      <trkpt lat="47.12385" lon="-1.62022">
        <ele>56</ele>
        <time>2021-03-21T08:20:37.000Z</time>
      </trkpt>
      <trkpt lat="47.12389" lon="-1.62002">
        <ele>56</ele>
        <time>2021-03-21T08:20:39.000Z</time>
      </trkpt>
      <trkpt lat="47.12393" lon="-1.61983">
        <ele>57</ele>
        <time>2021-03-21T08:20:41.000Z</time>
      </trkpt>
      <trkpt lat="47.12398" lon="-1.61964">
        <ele>57</ele>
        <time>2021-03-21T08:20:43.000Z</time>
      </trkpt>
      <trkpt lat="47.12404" lon="-1.61946">
        <ele>57</ele>
        <time>2021-03-21T08:20:45.000Z</time>
      </trkpt>
      <trkpt lat="47.12408" lon="-1.61928">
        <ele>57</ele>
        <time>2021-03-21T08:20:47.000Z</time>
      </trkpt>
      <trkpt lat="47.12413" lon="-1.6191">
        <ele>57</ele>
        <time>2021-03-21T08:20:49.000Z</time>
      </trkpt>
      <trkpt lat="47.12417" lon="-1.61892">
        <ele>58</ele>
        <time>2021-03-21T08:20:51.000Z</time>
      </trkpt>
      <trkpt lat="47.12423" lon="-1.61874">
        <ele>58</ele>
        <time>2021-03-21T08:20:53.000Z</time>
      </trkpt>
      <trkpt lat="47.12429" lon="-1.61858">
        <ele>59</ele>
        <time>2021-03-21T08:20:55.000Z</time>
      </trkpt>
      <trkpt lat="47.12433" lon="-1.61839">
        <ele>59</ele>
        <time>2021-03-21T08:20:57.000Z</time>
      </trkpt>
      <trkpt lat="47.12437" lon="-1.6182">
        <ele>59</ele>
        <time>2021-03-21T08:20:59.000Z</time>
      </trkpt>
      <trkpt lat="47.12441" lon="-1.61801">
        <ele>60</ele>
        <time>2021-03-21T08:21:01.000Z</time>
      </trkpt>
      <trkpt lat="47.12446" lon="-1.61782">
        <ele>59</ele>
        <time>2021-03-21T08:21:03.000Z</time>
      </trkpt>
      <trkpt lat="47.1245" lon="-1.61764">
        <ele>60</ele>
        <time>2021-03-21T08:21:05.000Z</time>
      </trkpt>
      <trkpt lat="47.12455" lon="-1.61745">
        <ele>60</ele>
        <time>2021-03-21T08:21:07.000Z</time>
      </trkpt>
      <trkpt lat="47.12459" lon="-1.61727">
        <ele>60</ele>
        <time>2021-03-21T08:21:09.000Z</time>
      </trkpt>
      <trkpt lat="47.12464" lon="-1.61709">
        <ele>60</ele>
        <time>2021-03-21T08:21:11.000Z</time>
      </trkpt>
      <trkpt lat="47.12468" lon="-1.61691">
        <ele>61</ele>
        <time>2021-03-21T08:21:13.000Z</time>
      </trkpt>
      <trkpt lat="47.12472" lon="-1.61671">
        <ele>61</ele>
        <time>2021-03-21T08:21:15.000Z</time>
      </trkpt>
      <trkpt lat="47.12475" lon="-1.61652">
        <ele>61</ele>
        <time>2021-03-21T08:21:17.000Z</time>
      </trkpt>
      <trkpt lat="47.12477" lon="-1.61633">
        <ele>61</ele>
        <time>2021-03-21T08:21:19.000Z</time>
      </trkpt>
      <trkpt lat="47.12477" lon="-1.61612">
        <ele>61</ele>
        <time>2021-03-21T08:21:21.000Z</time>
      </trkpt>
      <trkpt lat="47.12476" lon="-1.61593">
        <ele>61</ele>
        <time>2021-03-21T08:21:23.000Z</time>
      </trkpt>
      <trkpt lat="47.12474" lon="-1.61573">
        <ele>60</ele>
        <time>2021-03-21T08:21:25.000Z</time>
      </trkpt>
      <trkpt lat="47.12472" lon="-1.61553">
        <ele>60</ele>
        <time>2021-03-21T08:21:27.000Z</time>
      </trkpt>
      <trkpt lat="47.12469" lon="-1.61534">
        <ele>61</ele>
        <time>2021-03-21T08:21:29.000Z</time>
      </trkpt>
      <trkpt lat="47.12467" lon="-1.61514">
        <ele>61</ele>
        <time>2021-03-21T08:21:31.000Z</time>
      </trkpt>
      <trkpt lat="47.12465" lon="-1.61494">
        <ele>61</ele>
        <time>2021-03-21T08:21:33.000Z</time>
      </trkpt>
      <trkpt lat="47.12463" lon="-1.61475">
        <ele>61</ele>
        <time>2021-03-21T08:21:35.000Z</time>
      </trkpt>
      <trkpt lat="47.1246" lon="-1.61455">
        <ele>61</ele>
        <time>2021-03-21T08:21:37.000Z</time>
      </trkpt>
      <trkpt lat="47.12458" lon="-1.61435">
        <ele>61</ele>
        <time>2021-03-21T08:21:39.000Z</time>
      </trkpt>
      <trkpt lat="47.12456" lon="-1.61416">
        <ele>61</ele>
        <time>2021-03-21T08:21:41.000Z</time>
      </trkpt>
      <trkpt lat="47.12454" lon="-1.61395">
        <ele>61</ele>
        <time>2021-03-21T08:21:43.000Z</time>
      </trkpt>
      <trkpt lat="47.12453" lon="-1.61376">
        <ele>62</ele>
        <time>2021-03-21T08:21:45.000Z</time>
      </trkpt>
      <trkpt lat="47.12455" lon="-1.61356">
        <ele>62</ele>
        <time>2021-03-21T08:21:47.000Z</time>
      </trkpt>
      <trkpt lat="47.12459" lon="-1.61336">
        <ele>62</ele>
        <time>2021-03-21T08:21:49.000Z</time>
      </trkpt>
      <trkpt lat="47.12464" lon="-1.61317">
        <ele>62</ele>
        <time>2021-03-21T08:21:51.000Z</time>
      </trkpt>
      <trkpt lat="47.1247" lon="-1.61299">
        <ele>62</ele>
        <time>2021-03-21T08:21:53.000Z</time>
      </trkpt>
      <trkpt lat="47.12476" lon="-1.61281">
        <ele>62</ele>
        <time>2021-03-21T08:21:55.000Z</time>
      </trkpt>
      <trkpt lat="47.12483" lon="-1.61262">
        <ele>62</ele>
        <time>2021-03-21T08:21:57.000Z</time>
      </trkpt>
      <trkpt lat="47.12489" lon="-1.61244">
        <ele>62</ele>
        <time>2021-03-21T08:21:59.000Z</time>
      </trkpt>
      <trkpt lat="47.12494" lon="-1.61224">
        <ele>62</ele>
        <time>2021-03-21T08:22:01.000Z</time>
      </trkpt>
      <trkpt lat="47.12497" lon="-1.61205">
        <ele>61</ele>
        <time>2021-03-21T08:22:03.000Z</time>
      </trkpt>
      <trkpt lat="47.125" lon="-1.61185">
        <ele>62</ele>
        <time>2021-03-21T08:22:05.000Z</time>
      </trkpt>
      <trkpt lat="47.12503" lon="-1.61165">
        <ele>62</ele>
        <time>2021-03-21T08:22:07.000Z</time>
      </trkpt>
      <trkpt lat="47.12505" lon="-1.61144">
        <ele>62</ele>
        <time>2021-03-21T08:22:09.000Z</time>
      </trkpt>
      <trkpt lat="47.12507" lon="-1.61124">
        <ele>62</ele>
        <time>2021-03-21T08:22:11.000Z</time>
      </trkpt>
      <trkpt lat="47.12509" lon="-1.61103">
        <ele>62</ele>
        <time>2021-03-21T08:22:13.000Z</time>
      </trkpt>
      <trkpt lat="47.1251" lon="-1.61083">
        <ele>63</ele>
        <time>2021-03-21T08:22:15.000Z</time>
      </trkpt>
      <trkpt lat="47.12512" lon="-1.61062">
        <ele>62</ele>
        <time>2021-03-21T08:22:17.000Z</time>
      </trkpt>
      <trkpt lat="47.12514" lon="-1.61042">
        <ele>62</ele>
        <time>2021-03-21T08:22:19.000Z</time>
      </trkpt>
      <trkpt lat="47.12516" lon="-1.61021">
        <ele>62</ele>
        <time>2021-03-21T08:22:21.000Z</time>
      </trkpt>
      <trkpt lat="47.12518" lon="-1.61001">
        <ele>62</ele>
        <time>2021-03-21T08:22:23.000Z</time>
      </trkpt>
      <trkpt lat="47.12519" lon="-1.60981">
        <ele>62</ele>
        <time>2021-03-21T08:22:25.000Z</time>
      </trkpt>
      <trkpt lat="47.12521" lon="-1.60961">
        <ele>62</ele>
        <time>2021-03-21T08:22:27.000Z</time>
      </trkpt>
      <trkpt lat="47.12523" lon="-1.6094">
        <ele>62</ele>
        <time>2021-03-21T08:22:29.000Z</time>
      </trkpt>
      <trkpt lat="47.12525" lon="-1.6092">
        <ele>62</ele>
        <time>2021-03-21T08:22:31.000Z</time>
      </trkpt>
      <trkpt lat="47.12527" lon="-1.609">
        <ele>62</ele>
        <time>2021-03-21T08:22:33.000Z</time>
      </trkpt>
      <trkpt lat="47.12528" lon="-1.6088">
        <ele>62</ele>
        <time>2021-03-21T08:22:35.000Z</time>
      </trkpt>
      <trkpt lat="47.1253" lon="-1.60859">
        <ele>62</ele>
        <time>2021-03-21T08:22:37.000Z</time>
      </trkpt>
      <trkpt lat="47.12532" lon="-1.60839">
        <ele>62</ele>
        <time>2021-03-21T08:22:39.000Z</time>
      </trkpt>
      <trkpt lat="47.12534" lon="-1.60818">
        <ele>62</ele>
        <time>2021-03-21T08:22:41.000Z</time>
      </trkpt>
      <trkpt lat="47.12537" lon="-1.60797">
        <ele>61</ele>
        <time>2021-03-21T08:22:43.000Z</time>
      </trkpt>
      <trkpt lat="47.12539" lon="-1.60775">
        <ele>61</ele>
        <time>2021-03-21T08:22:45.000Z</time>
      </trkpt>
      <trkpt lat="47.1254" lon="-1.60754">
        <ele>61</ele>
        <time>2021-03-21T08:22:47.000Z</time>
      </trkpt>
      <trkpt lat="47.12541" lon="-1.60733">
        <ele>60</ele>
        <time>2021-03-21T08:22:49.000Z</time>
      </trkpt>
      <trkpt lat="47.12542" lon="-1.60712">
        <ele>60</ele>
        <time>2021-03-21T08:22:51.000Z</time>
      </trkpt>
      <trkpt lat="47.12542" lon="-1.60691">
        <ele>60</ele>
        <time>2021-03-21T08:22:53.000Z</time>
      </trkpt>
      <trkpt lat="47.12542" lon="-1.6067">
        <ele>60</ele>
        <time>2021-03-21T08:22:55.000Z</time>
      </trkpt>
      <trkpt lat="47.12541" lon="-1.6065">
        <ele>61</ele>
        <time>2021-03-21T08:22:57.000Z</time>
      </trkpt>
      <trkpt lat="47.12541" lon="-1.60628">
        <ele>61</ele>
        <time>2021-03-21T08:22:59.000Z</time>
      </trkpt>
      <trkpt lat="47.1254" lon="-1.60607">
        <ele>61</ele>
        <time>2021-03-21T08:23:01.000Z</time>
      </trkpt>
      <trkpt lat="47.12539" lon="-1.60587">
        <ele>60</ele>
        <time>2021-03-21T08:23:03.000Z</time>
      </trkpt>
      <trkpt lat="47.12539" lon="-1.60566">
        <ele>60</ele>
        <time>2021-03-21T08:23:05.000Z</time>
      </trkpt>
      <trkpt lat="47.12538" lon="-1.60546">
        <ele>60</ele>
        <time>2021-03-21T08:23:07.000Z</time>
      </trkpt>
      <trkpt lat="47.12537" lon="-1.60525">
        <ele>60</ele>
        <time>2021-03-21T08:23:09.000Z</time>
      </trkpt>
      <trkpt lat="47.12536" lon="-1.60505">
        <ele>60</ele>
        <time>2021-03-21T08:23:11.000Z</time>
      </trkpt>
      <trkpt lat="47.12534" lon="-1.60483">
        <ele>60</ele>
        <time>2021-03-21T08:23:13.000Z</time>
      </trkpt>
      <trkpt lat="47.12531" lon="-1.60462">
        <ele>59</ele>
        <time>2021-03-21T08:23:15.000Z</time>
      </trkpt>
      <trkpt lat="47.12528" lon="-1.60442">
        <ele>59</ele>
        <time>2021-03-21T08:23:17.000Z</time>
      </trkpt>
      <trkpt lat="47.12524" lon="-1.60422">
        <ele>58</ele>
        <time>2021-03-21T08:23:19.000Z</time>
      </trkpt>
      <trkpt lat="47.1252" lon="-1.60401">
        <ele>58</ele>
        <time>2021-03-21T08:23:21.000Z</time>
      </trkpt>
      <trkpt lat="47.12516" lon="-1.60381">
        <ele>58</ele>
        <time>2021-03-21T08:23:23.000Z</time>
      </trkpt>
      <trkpt lat="47.12512" lon="-1.6036">
        <ele>57</ele>
        <time>2021-03-21T08:23:25.000Z</time>
      </trkpt>
      <trkpt lat="47.12507" lon="-1.60338">
        <ele>57</ele>
        <time>2021-03-21T08:23:27.000Z</time>
      </trkpt>
      <trkpt lat="47.12503" lon="-1.60317">
        <ele>56</ele>
        <time>2021-03-21T08:23:29.000Z</time>
      </trkpt>
      <trkpt lat="47.12499" lon="-1.60296">
        <ele>56</ele>
        <time>2021-03-21T08:23:31.000Z</time>
      </trkpt>
      <trkpt lat="47.12494" lon="-1.60275">
        <ele>56</ele>
        <time>2021-03-21T08:23:33.000Z</time>
      </trkpt>
      <trkpt lat="47.12491" lon="-1.60254">
        <ele>55</ele>
        <time>2021-03-21T08:23:35.000Z</time>
      </trkpt>
      <trkpt lat="47.12487" lon="-1.60234">
        <ele>55</ele>
        <time>2021-03-21T08:23:37.000Z</time>
      </trkpt>
      <trkpt lat="47.12484" lon="-1.60214">
        <ele>55</ele>
        <time>2021-03-21T08:23:39.000Z</time>
      </trkpt>
      <trkpt lat="47.12481" lon="-1.60194">
        <ele>56</ele>
        <time>2021-03-21T08:23:41.000Z</time>
      </trkpt>
      <trkpt lat="47.12479" lon="-1.60174">
        <ele>56</ele>
        <time>2021-03-21T08:23:43.000Z</time>
      </trkpt>
      <trkpt lat="47.12478" lon="-1.60154">
        <ele>56</ele>
        <time>2021-03-21T08:23:45.000Z</time>
      </trkpt>
      <trkpt lat="47.12477" lon="-1.60135">
        <ele>57</ele>
        <time>2021-03-21T08:23:47.000Z</time>
      </trkpt>
      <trkpt lat="47.12476" lon="-1.60114">
        <ele>57</ele>
        <time>2021-03-21T08:23:49.000Z</time>
      </trkpt>
      <trkpt lat="47.12474" lon="-1.60095">
        <ele>57</ele>
        <time>2021-03-21T08:23:51.000Z</time>
      </trkpt>
      <trkpt lat="47.12474" lon="-1.60075">
        <ele>57</ele>
        <time>2021-03-21T08:23:53.000Z</time>
      </trkpt>
      <trkpt lat="47.12473" lon="-1.60055">
        <ele>58</ele>
        <time>2021-03-21T08:23:55.000Z</time>
      </trkpt>
      <trkpt lat="47.12472" lon="-1.60035">
        <ele>58</ele>
        <time>2021-03-21T08:23:57.000Z</time>
      </trkpt>
      <trkpt lat="47.1247" lon="-1.60015">
        <ele>58</ele>
        <time>2021-03-21T08:23:59.000Z</time>
      </trkpt>
      <trkpt lat="47.12469" lon="-1.59995">
        <ele>58</ele>
        <time>2021-03-21T08:24:01.000Z</time>
      </trkpt>
      <trkpt lat="47.12468" lon="-1.59975">
        <ele>59</ele>
        <time>2021-03-21T08:24:03.000Z</time>
      </trkpt>
      <trkpt lat="47.12466" lon="-1.59955">
        <ele>60</ele>
        <time>2021-03-21T08:24:05.000Z</time>
      </trkpt>
      <trkpt lat="47.12466" lon="-1.59934">
        <ele>60</ele>
        <time>2021-03-21T08:24:07.000Z</time>
      </trkpt>
      <trkpt lat="47.12465" lon="-1.59913">
        <ele>60</ele>
        <time>2021-03-21T08:24:09.000Z</time>
      </trkpt>
      <trkpt lat="47.12464" lon="-1.59892">
        <ele>60</ele>
        <time>2021-03-21T08:24:11.000Z</time>
      </trkpt>
      <trkpt lat="47.12463" lon="-1.59871">
        <ele>60</ele>
        <time>2021-03-21T08:24:13.000Z</time>
      </trkpt>
      <trkpt lat="47.12462" lon="-1.5985">
        <ele>60</ele>
        <time>2021-03-21T08:24:15.000Z</time>
      </trkpt>
      <trkpt lat="47.1246" lon="-1.5983">
        <ele>60</ele>
        <time>2021-03-21T08:24:17.000Z</time>
      </trkpt>
      <trkpt lat="47.1246" lon="-1.59808">
        <ele>60</ele>
        <time>2021-03-21T08:24:19.000Z</time>
      </trkpt>
      <trkpt lat="47.12459" lon="-1.59787">
        <ele>60</ele>
        <time>2021-03-21T08:24:21.000Z</time>
      </trkpt>
      <trkpt lat="47.12458" lon="-1.59766">
        <ele>60</ele>
        <time>2021-03-21T08:24:23.000Z</time>
      </trkpt>
      <trkpt lat="47.12457" lon="-1.59743">
        <ele>61</ele>
        <time>2021-03-21T08:24:25.000Z</time>
      </trkpt>
      <trkpt lat="47.12456" lon="-1.59722">
        <ele>61</ele>
        <time>2021-03-21T08:24:27.000Z</time>
      </trkpt>
      <trkpt lat="47.12455" lon="-1.59701">
        <ele>61</ele>
        <time>2021-03-21T08:24:29.000Z</time>
      </trkpt>
      <trkpt lat="47.12454" lon="-1.59682">
        <ele>61</ele>
        <time>2021-03-21T08:24:31.000Z</time>
      </trkpt>
      <trkpt lat="47.12453" lon="-1.59662">
        <ele>60</ele>
        <time>2021-03-21T08:24:33.000Z</time>
      </trkpt>
      <trkpt lat="47.12453" lon="-1.59641">
        <ele>60</ele>
        <time>2021-03-21T08:24:35.000Z</time>
      </trkpt>
      <trkpt lat="47.12452" lon="-1.5962">
        <ele>60</ele>
        <time>2021-03-21T08:24:37.000Z</time>
      </trkpt>
      <trkpt lat="47.12451" lon="-1.59599">
        <ele>59</ele>
        <time>2021-03-21T08:24:39.000Z</time>
      </trkpt>
      <trkpt lat="47.1245" lon="-1.59579">
        <ele>59</ele>
        <time>2021-03-21T08:24:41.000Z</time>
      </trkpt>
      <trkpt lat="47.12448" lon="-1.59558">
        <ele>59</ele>
        <time>2021-03-21T08:24:43.000Z</time>
      </trkpt>
      <trkpt lat="47.12448" lon="-1.59538">
        <ele>59</ele>
        <time>2021-03-21T08:24:45.000Z</time>
      </trkpt>
      <trkpt lat="47.12446" lon="-1.59517">
        <ele>59</ele>
        <time>2021-03-21T08:24:47.000Z</time>
      </trkpt>
      <trkpt lat="47.12445" lon="-1.59497">
        <ele>59</ele>
        <time>2021-03-21T08:24:49.000Z</time>
      </trkpt>
      <trkpt lat="47.12444" lon="-1.59476">
        <ele>59</ele>
        <time>2021-03-21T08:24:51.000Z</time>
      </trkpt>
      <trkpt lat="47.12443" lon="-1.59456">
        <ele>59</ele>
        <time>2021-03-21T08:24:53.000Z</time>
      </trkpt>
      <trkpt lat="47.12442" lon="-1.59436">
        <ele>59</ele>
        <time>2021-03-21T08:24:55.000Z</time>
      </trkpt>
      <trkpt lat="47.12441" lon="-1.59416">
        <ele>58</ele>
        <time>2021-03-21T08:24:57.000Z</time>
      </trkpt>
      <trkpt lat="47.1244" lon="-1.59395">
        <ele>58</ele>
        <time>2021-03-21T08:24:59.000Z</time>
      </trkpt>
      <trkpt lat="47.12439" lon="-1.59375">
        <ele>58</ele>
        <time>2021-03-21T08:25:01.000Z</time>
      </trkpt>
      <trkpt lat="47.12438" lon="-1.59354">
        <ele>58</ele>
        <time>2021-03-21T08:25:03.000Z</time>
      </trkpt>
      <trkpt lat="47.12437" lon="-1.59333">
        <ele>57</ele>
        <time>2021-03-21T08:25:05.000Z</time>
      </trkpt>
      <trkpt lat="47.12436" lon="-1.59313">
        <ele>57</ele>
        <time>2021-03-21T08:25:07.000Z</time>
      </trkpt>
      <trkpt lat="47.12435" lon="-1.59292">
        <ele>57</ele>
        <time>2021-03-21T08:25:09.000Z</time>
      </trkpt>
      <trkpt lat="47.12434" lon="-1.59271">
        <ele>57</ele>
        <time>2021-03-21T08:25:11.000Z</time>
      </trkpt>
      <trkpt lat="47.12433" lon="-1.59251">
        <ele>56</ele>
        <time>2021-03-21T08:25:13.000Z</time>
      </trkpt>
      <trkpt lat="47.12431" lon="-1.5923">
        <ele>56</ele>
        <time>2021-03-21T08:25:15.000Z</time>
      </trkpt>
      <trkpt lat="47.12428" lon="-1.5921">
        <ele>55</ele>
        <time>2021-03-21T08:25:17.000Z</time>
      </trkpt>
      <trkpt lat="47.12425" lon="-1.59189">
        <ele>55</ele>
        <time>2021-03-21T08:25:19.000Z</time>
      </trkpt>
      <trkpt lat="47.12427" lon="-1.59169">
        <ele>56</ele>
        <time>2021-03-21T08:25:21.000Z</time>
      </trkpt>
      <trkpt lat="47.12428" lon="-1.59148">
        <ele>56</ele>
        <time>2021-03-21T08:25:23.000Z</time>
      </trkpt>
      <trkpt lat="47.12428" lon="-1.59127">
        <ele>56</ele>
        <time>2021-03-21T08:25:25.000Z</time>
      </trkpt>
      <trkpt lat="47.12428" lon="-1.59106">
        <ele>56</ele>
        <time>2021-03-21T08:25:27.000Z</time>
      </trkpt>
      <trkpt lat="47.12427" lon="-1.59085">
        <ele>56</ele>
        <time>2021-03-21T08:25:29.000Z</time>
      </trkpt>
      <trkpt lat="47.12426" lon="-1.59064">
        <ele>56</ele>
        <time>2021-03-21T08:25:31.000Z</time>
      </trkpt>
      <trkpt lat="47.12425" lon="-1.59044">
        <ele>56</ele>
        <time>2021-03-21T08:25:33.000Z</time>
      </trkpt>
      <trkpt lat="47.12424" lon="-1.59026">
        <ele>56</ele>
        <time>2021-03-21T08:25:35.000Z</time>
      </trkpt>
      <trkpt lat="47.12423" lon="-1.59007">
        <ele>56</ele>
        <time>2021-03-21T08:25:37.000Z</time>
      </trkpt>
      <trkpt lat="47.12422" lon="-1.58989">
        <ele>57</ele>
        <time>2021-03-21T08:25:39.000Z</time>
      </trkpt>
      <trkpt lat="47.12421" lon="-1.58972">
        <ele>58</ele>
        <time>2021-03-21T08:25:41.000Z</time>
      </trkpt>
      <trkpt lat="47.1242" lon="-1.58955">
        <ele>58</ele>
        <time>2021-03-21T08:25:43.000Z</time>
      </trkpt>
      <trkpt lat="47.12419" lon="-1.58937">
        <ele>59</ele>
        <time>2021-03-21T08:25:45.000Z</time>
      </trkpt>
      <trkpt lat="47.12418" lon="-1.5892">
        <ele>60</ele>
        <time>2021-03-21T08:25:47.000Z</time>
      </trkpt>
      <trkpt lat="47.12416" lon="-1.58902">
        <ele>60</ele>
        <time>2021-03-21T08:25:49.000Z</time>
      </trkpt>
      <trkpt lat="47.12414" lon="-1.58885">
        <ele>60</ele>
        <time>2021-03-21T08:25:51.000Z</time>
      </trkpt>
      <trkpt lat="47.12413" lon="-1.58869">
        <ele>61</ele>
        <time>2021-03-21T08:25:53.000Z</time>
      </trkpt>
      <trkpt lat="47.12411" lon="-1.58851">
        <ele>61</ele>
        <time>2021-03-21T08:25:55.000Z</time>
      </trkpt>
      <trkpt lat="47.12409" lon="-1.58833">
        <ele>61</ele>
        <time>2021-03-21T08:25:57.000Z</time>
      </trkpt>
      <trkpt lat="47.12408" lon="-1.58815">
        <ele>61</ele>
        <time>2021-03-21T08:25:59.000Z</time>
      </trkpt>
      <trkpt lat="47.12406" lon="-1.58797">
        <ele>61</ele>
        <time>2021-03-21T08:26:01.000Z</time>
      </trkpt>
      <trkpt lat="47.12403" lon="-1.58778">
        <ele>61</ele>
        <time>2021-03-21T08:26:03.000Z</time>
      </trkpt>
      <trkpt lat="47.124" lon="-1.58761">
        <ele>61</ele>
        <time>2021-03-21T08:26:05.000Z</time>
      </trkpt>
      <trkpt lat="47.12396" lon="-1.58743">
        <ele>61</ele>
        <time>2021-03-21T08:26:07.000Z</time>
      </trkpt>
      <trkpt lat="47.12392" lon="-1.58725">
        <ele>60</ele>
        <time>2021-03-21T08:26:09.000Z</time>
      </trkpt>
      <trkpt lat="47.12388" lon="-1.58707">
        <ele>60</ele>
        <time>2021-03-21T08:26:11.000Z</time>
      </trkpt>
      <trkpt lat="47.12384" lon="-1.58689">
        <ele>60</ele>
        <time>2021-03-21T08:26:13.000Z</time>
      </trkpt>
      <trkpt lat="47.1238" lon="-1.5867">
        <ele>60</ele>
        <time>2021-03-21T08:26:15.000Z</time>
      </trkpt>
      <trkpt lat="47.12375" lon="-1.58652">
        <ele>60</ele>
        <time>2021-03-21T08:26:17.000Z</time>
      </trkpt>
      <trkpt lat="47.12371" lon="-1.58633">
        <ele>60</ele>
        <time>2021-03-21T08:26:19.000Z</time>
      </trkpt>
      <trkpt lat="47.12368" lon="-1.58613">
        <ele>60</ele>
        <time>2021-03-21T08:26:21.000Z</time>
      </trkpt>
      <trkpt lat="47.12363" lon="-1.58594">
        <ele>60</ele>
        <time>2021-03-21T08:26:23.000Z</time>
      </trkpt>
      <trkpt lat="47.12357" lon="-1.58575">
        <ele>60</ele>
        <time>2021-03-21T08:26:25.000Z</time>
      </trkpt>
      <trkpt lat="47.12353" lon="-1.58555">
        <ele>60</ele>
        <time>2021-03-21T08:26:27.000Z</time>
      </trkpt>
      <trkpt lat="47.12349" lon="-1.58536">
        <ele>60</ele>
        <time>2021-03-21T08:26:29.000Z</time>
      </trkpt>
      <trkpt lat="47.12345" lon="-1.58517">
        <ele>59</ele>
        <time>2021-03-21T08:26:31.000Z</time>
      </trkpt>
      <trkpt lat="47.12341" lon="-1.58497">
        <ele>59</ele>
        <time>2021-03-21T08:26:33.000Z</time>
      </trkpt>
      <trkpt lat="47.12337" lon="-1.58478">
        <ele>59</ele>
        <time>2021-03-21T08:26:35.000Z</time>
      </trkpt>
      <trkpt lat="47.12332" lon="-1.5846">
        <ele>59</ele>
        <time>2021-03-21T08:26:37.000Z</time>
      </trkpt>
      <trkpt lat="47.12325" lon="-1.58446">
        <ele>60</ele>
        <time>2021-03-21T08:26:39.000Z</time>
      </trkpt>
      <trkpt lat="47.12316" lon="-1.58432">
        <ele>60</ele>
        <time>2021-03-21T08:26:41.000Z</time>
      </trkpt>
      <trkpt lat="47.12309" lon="-1.58417">
        <ele>59</ele>
        <time>2021-03-21T08:26:43.000Z</time>
      </trkpt>
      <trkpt lat="47.12301" lon="-1.584">
        <ele>59</ele>
        <time>2021-03-21T08:26:45.000Z</time>
      </trkpt>
      <trkpt lat="47.12297" lon="-1.58382">
        <ele>58</ele>
        <time>2021-03-21T08:26:47.000Z</time>
      </trkpt>
      <trkpt lat="47.12295" lon="-1.58362">
        <ele>58</ele>
        <time>2021-03-21T08:26:49.000Z</time>
      </trkpt>
      <trkpt lat="47.12288" lon="-1.58343">
        <ele>58</ele>
        <time>2021-03-21T08:26:51.000Z</time>
      </trkpt>
      <trkpt lat="47.12277" lon="-1.58329">
        <ele>59</ele>
        <time>2021-03-21T08:26:53.000Z</time>
      </trkpt>
      <trkpt lat="47.12264" lon="-1.58317">
        <ele>58</ele>
        <time>2021-03-21T08:26:55.000Z</time>
      </trkpt>
      <trkpt lat="47.12251" lon="-1.58306">
        <ele>58</ele>
        <time>2021-03-21T08:26:57.000Z</time>
      </trkpt>
      <trkpt lat="47.12237" lon="-1.58294">
        <ele>57</ele>
        <time>2021-03-21T08:26:59.000Z</time>
      </trkpt>
      <trkpt lat="47.12226" lon="-1.58281">
        <ele>57</ele>
        <time>2021-03-21T08:27:01.000Z</time>
      </trkpt>
      <trkpt lat="47.12214" lon="-1.58269">
        <ele>57</ele>
        <time>2021-03-21T08:27:03.000Z</time>
      </trkpt>
      <trkpt lat="47.12204" lon="-1.58255">
        <ele>58</ele>
        <time>2021-03-21T08:27:05.000Z</time>
      </trkpt>
      <trkpt lat="47.12198" lon="-1.58238">
        <ele>58</ele>
        <time>2021-03-21T08:27:07.000Z</time>
      </trkpt>
      <trkpt lat="47.122" lon="-1.58215">
        <ele>59</ele>
        <time>2021-03-21T08:27:09.000Z</time>
      </trkpt>
      <trkpt lat="47.12202" lon="-1.5819">
        <ele>59</ele>
        <time>2021-03-21T08:27:11.000Z</time>
      </trkpt>
      <trkpt lat="47.12204" lon="-1.58168">
        <ele>59</ele>
        <time>2021-03-21T08:27:13.000Z</time>
      </trkpt>
      <trkpt lat="47.12208" lon="-1.58148">
        <ele>59</ele>
        <time>2021-03-21T08:27:15.000Z</time>
      </trkpt>
      <trkpt lat="47.12216" lon="-1.5813">
        <ele>59</ele>
        <time>2021-03-21T08:27:17.000Z</time>
      </trkpt>
      <trkpt lat="47.12224" lon="-1.58113">
        <ele>59</ele>
        <time>2021-03-21T08:27:19.000Z</time>
      </trkpt>
      <trkpt lat="47.12232" lon="-1.58095">
        <ele>58</ele>
        <time>2021-03-21T08:27:21.000Z</time>
      </trkpt>
      <trkpt lat="47.12238" lon="-1.58077">
        <ele>57</ele>
        <time>2021-03-21T08:27:23.000Z</time>
      </trkpt>
      <trkpt lat="47.12243" lon="-1.58058">
        <ele>57</ele>
        <time>2021-03-21T08:27:25.000Z</time>
      </trkpt>
      <trkpt lat="47.12244" lon="-1.58039">
        <ele>57</ele>
        <time>2021-03-21T08:27:27.000Z</time>
      </trkpt>
      <trkpt lat="47.12239" lon="-1.58022">
        <ele>57</ele>
        <time>2021-03-21T08:27:29.000Z</time>
      </trkpt>
      <trkpt lat="47.1223" lon="-1.58008">
        <ele>58</ele>
        <time>2021-03-21T08:27:31.000Z</time>
      </trkpt>
      <trkpt lat="47.12222" lon="-1.57993">
        <ele>58</ele>
        <time>2021-03-21T08:27:33.000Z</time>
      </trkpt>
      <trkpt lat="47.12214" lon="-1.57978">
        <ele>58</ele>
        <time>2021-03-21T08:27:35.000Z</time>
      </trkpt>
      <trkpt lat="47.12206" lon="-1.57965">
        <ele>58</ele>
        <time>2021-03-21T08:27:37.000Z</time>
      </trkpt>
      <trkpt lat="47.12198" lon="-1.57951">
        <ele>58</ele>
        <time>2021-03-21T08:27:39.000Z</time>
      </trkpt>
      <trkpt lat="47.12191" lon="-1.57937">
        <ele>58</ele>
        <time>2021-03-21T08:27:41.000Z</time>
      </trkpt>
      <trkpt lat="47.12187" lon="-1.5792">
        <ele>59</ele>
        <time>2021-03-21T08:27:43.000Z</time>
      </trkpt>
      <trkpt lat="47.12184" lon="-1.57904">
        <ele>59</ele>
        <time>2021-03-21T08:27:45.000Z</time>
      </trkpt>
      <trkpt lat="47.12181" lon="-1.57887">
        <ele>59</ele>
        <time>2021-03-21T08:27:47.000Z</time>
      </trkpt>
      <trkpt lat="47.1218" lon="-1.57868">
        <ele>59</ele>
        <time>2021-03-21T08:27:49.000Z</time>
      </trkpt>
      <trkpt lat="47.12179" lon="-1.5785">
        <ele>59</ele>
        <time>2021-03-21T08:27:51.000Z</time>
      </trkpt>
      <trkpt lat="47.12179" lon="-1.57833">
        <ele>60</ele>
        <time>2021-03-21T08:27:53.000Z</time>
      </trkpt>
      <trkpt lat="47.1218" lon="-1.57815">
        <ele>61</ele>
        <time>2021-03-21T08:27:55.000Z</time>
      </trkpt>
      <trkpt lat="47.12179" lon="-1.57797">
        <ele>62</ele>
        <time>2021-03-21T08:27:57.000Z</time>
      </trkpt>
      <trkpt lat="47.12179" lon="-1.57778">
        <ele>62</ele>
        <time>2021-03-21T08:27:59.000Z</time>
      </trkpt>
      <trkpt lat="47.12179" lon="-1.57761">
        <ele>62</ele>
        <time>2021-03-21T08:28:01.000Z</time>
      </trkpt>
      <trkpt lat="47.12178" lon="-1.57743">
        <ele>63</ele>
        <time>2021-03-21T08:28:03.000Z</time>
      </trkpt>
      <trkpt lat="47.12178" lon="-1.57725">
        <ele>63</ele>
        <time>2021-03-21T08:28:05.000Z</time>
      </trkpt>
      <trkpt lat="47.12178" lon="-1.57707">
        <ele>63</ele>
        <time>2021-03-21T08:28:07.000Z</time>
      </trkpt>
      <trkpt lat="47.12178" lon="-1.57689">
        <ele>63</ele>
        <time>2021-03-21T08:28:09.000Z</time>
      </trkpt>
      <trkpt lat="47.12178" lon="-1.57671">
        <ele>63</ele>
        <time>2021-03-21T08:28:11.000Z</time>
      </trkpt>
      <trkpt lat="47.12178" lon="-1.57652">
        <ele>64</ele>
        <time>2021-03-21T08:28:13.000Z</time>
      </trkpt>
      <trkpt lat="47.12178" lon="-1.57634">
        <ele>64</ele>
        <time>2021-03-21T08:28:15.000Z</time>
      </trkpt>
      <trkpt lat="47.12178" lon="-1.57615">
        <ele>64</ele>
        <time>2021-03-21T08:28:17.000Z</time>
      </trkpt>
      <trkpt lat="47.12178" lon="-1.57596">
        <ele>64</ele>
        <time>2021-03-21T08:28:19.000Z</time>
      </trkpt>
      <trkpt lat="47.12177" lon="-1.57578">
        <ele>64</ele>
        <time>2021-03-21T08:28:21.000Z</time>
      </trkpt>
      <trkpt lat="47.12176" lon="-1.57559">
        <ele>64</ele>
        <time>2021-03-21T08:28:23.000Z</time>
      </trkpt>
      <trkpt lat="47.12175" lon="-1.57539">
        <ele>64</ele>
        <time>2021-03-21T08:28:25.000Z</time>
      </trkpt>
      <trkpt lat="47.12173" lon="-1.5752">
        <ele>63</ele>
        <time>2021-03-21T08:28:27.000Z</time>
      </trkpt>
      <trkpt lat="47.12171" lon="-1.575">
        <ele>62</ele>
        <time>2021-03-21T08:28:29.000Z</time>
      </trkpt>
      <trkpt lat="47.12168" lon="-1.57481">
        <ele>61</ele>
        <time>2021-03-21T08:28:31.000Z</time>
      </trkpt>
      <trkpt lat="47.12165" lon="-1.57462">
        <ele>61</ele>
        <time>2021-03-21T08:28:33.000Z</time>
      </trkpt>
      <trkpt lat="47.12161" lon="-1.57443">
        <ele>61</ele>
        <time>2021-03-21T08:28:35.000Z</time>
      </trkpt>
      <trkpt lat="47.12157" lon="-1.57423">
        <ele>60</ele>
        <time>2021-03-21T08:28:37.000Z</time>
      </trkpt>
      <trkpt lat="47.12153" lon="-1.57403">
        <ele>60</ele>
        <time>2021-03-21T08:28:39.000Z</time>
      </trkpt>
      <trkpt lat="47.12149" lon="-1.57382">
        <ele>60</ele>
        <time>2021-03-21T08:28:41.000Z</time>
      </trkpt>
      <trkpt lat="47.12145" lon="-1.57363">
        <ele>59</ele>
        <time>2021-03-21T08:28:43.000Z</time>
      </trkpt>
      <trkpt lat="47.12141" lon="-1.57343">
        <ele>59</ele>
        <time>2021-03-21T08:28:45.000Z</time>
      </trkpt>
      <trkpt lat="47.12138" lon="-1.57322">
        <ele>59</ele>
        <time>2021-03-21T08:28:47.000Z</time>
      </trkpt>
      <trkpt lat="47.12135" lon="-1.57301">
        <ele>59</ele>
        <time>2021-03-21T08:28:49.000Z</time>
      </trkpt>
      <trkpt lat="47.12129" lon="-1.57281">
        <ele>58</ele>
        <time>2021-03-21T08:28:51.000Z</time>
      </trkpt>
      <trkpt lat="47.12125" lon="-1.5726">
        <ele>58</ele>
        <time>2021-03-21T08:28:53.000Z</time>
      </trkpt>
      <trkpt lat="47.12121" lon="-1.57239">
        <ele>58</ele>
        <time>2021-03-21T08:28:55.000Z</time>
      </trkpt>
      <trkpt lat="47.12118" lon="-1.57217">
        <ele>58</ele>
        <time>2021-03-21T08:28:57.000Z</time>
      </trkpt>
      <trkpt lat="47.12113" lon="-1.57195">
        <ele>57</ele>
        <time>2021-03-21T08:28:59.000Z</time>
      </trkpt>
      <trkpt lat="47.12109" lon="-1.57174">
        <ele>57</ele>
        <time>2021-03-21T08:29:01.000Z</time>
      </trkpt>
      <trkpt lat="47.12105" lon="-1.57152">
        <ele>57</ele>
        <time>2021-03-21T08:29:03.000Z</time>
      </trkpt>
      <trkpt lat="47.12101" lon="-1.57131">
        <ele>57</ele>
        <time>2021-03-21T08:29:05.000Z</time>
      </trkpt>
      <trkpt lat="47.12097" lon="-1.5711">
        <ele>56</ele>
        <time>2021-03-21T08:29:07.000Z</time>
      </trkpt>
      <trkpt lat="47.12093" lon="-1.57089">
        <ele>55</ele>
        <time>2021-03-21T08:29:09.000Z</time>
      </trkpt>
      <trkpt lat="47.12089" lon="-1.57068">
        <ele>55</ele>
        <time>2021-03-21T08:29:11.000Z</time>
      </trkpt>
      <trkpt lat="47.12085" lon="-1.57046">
        <ele>55</ele>
        <time>2021-03-21T08:29:13.000Z</time>
      </trkpt>
      <trkpt lat="47.1208" lon="-1.57026">
        <ele>55</ele>
        <time>2021-03-21T08:29:15.000Z</time>
      </trkpt>
      <trkpt lat="47.12077" lon="-1.57006">
        <ele>55</ele>
        <time>2021-03-21T08:29:17.000Z</time>
      </trkpt>
      <trkpt lat="47.12074" lon="-1.56985">
        <ele>55</ele>
        <time>2021-03-21T08:29:19.000Z</time>
      </trkpt>
      <trkpt lat="47.1207" lon="-1.56967">
        <ele>55</ele>
        <time>2021-03-21T08:29:21.000Z</time>
      </trkpt>
      <trkpt lat="47.12066" lon="-1.56948">
        <ele>56</ele>
        <time>2021-03-21T08:29:23.000Z</time>
      </trkpt>
      <trkpt lat="47.12063" lon="-1.5693">
        <ele>56</ele>
        <time>2021-03-21T08:29:25.000Z</time>
      </trkpt>
      <trkpt lat="47.12059" lon="-1.56915">
        <ele>56</ele>
        <time>2021-03-21T08:29:27.000Z</time>
      </trkpt>
      <trkpt lat="47.12055" lon="-1.56898">
        <ele>56</ele>
        <time>2021-03-21T08:29:29.000Z</time>
      </trkpt>
      <trkpt lat="47.12051" lon="-1.56883">
        <ele>56</ele>
        <time>2021-03-21T08:29:31.000Z</time>
      </trkpt>
      <trkpt lat="47.12049" lon="-1.56865">
        <ele>57</ele>
        <time>2021-03-21T08:29:33.000Z</time>
      </trkpt>
      <trkpt lat="47.12047" lon="-1.56848">
        <ele>57</ele>
        <time>2021-03-21T08:29:35.000Z</time>
      </trkpt>
      <trkpt lat="47.12044" lon="-1.56833">
        <ele>58</ele>
        <time>2021-03-21T08:29:37.000Z</time>
      </trkpt>
      <trkpt lat="47.12042" lon="-1.56816">
        <ele>58</ele>
        <time>2021-03-21T08:29:39.000Z</time>
      </trkpt>
      <trkpt lat="47.12039" lon="-1.568">
        <ele>58</ele>
        <time>2021-03-21T08:29:41.000Z</time>
      </trkpt>
      <trkpt lat="47.12036" lon="-1.56784">
        <ele>58</ele>
        <time>2021-03-21T08:29:43.000Z</time>
      </trkpt>
      <trkpt lat="47.12033" lon="-1.56769">
        <ele>58</ele>
        <time>2021-03-21T08:29:45.000Z</time>
      </trkpt>
      <trkpt lat="47.1203" lon="-1.56753">
        <ele>59</ele>
        <time>2021-03-21T08:29:47.000Z</time>
      </trkpt>
      <trkpt lat="47.12027" lon="-1.56737">
        <ele>59</ele>
        <time>2021-03-21T08:29:49.000Z</time>
      </trkpt>
      <trkpt lat="47.12024" lon="-1.56721">
        <ele>60</ele>
        <time>2021-03-21T08:29:51.000Z</time>
      </trkpt>
      <trkpt lat="47.12021" lon="-1.56705">
        <ele>60</ele>
        <time>2021-03-21T08:29:53.000Z</time>
      </trkpt>
      <trkpt lat="47.12018" lon="-1.56689">
        <ele>61</ele>
        <time>2021-03-21T08:29:55.000Z</time>
      </trkpt>
      <trkpt lat="47.12015" lon="-1.56674">
        <ele>61</ele>
        <time>2021-03-21T08:29:57.000Z</time>
      </trkpt>
      <trkpt lat="47.12012" lon="-1.56658">
        <ele>61</ele>
        <time>2021-03-21T08:29:59.000Z</time>
      </trkpt>
      <trkpt lat="47.12009" lon="-1.56643">
        <ele>62</ele>
        <time>2021-03-21T08:30:01.000Z</time>
      </trkpt>
      <trkpt lat="47.12006" lon="-1.56628">
        <ele>62</ele>
        <time>2021-03-21T08:30:03.000Z</time>
      </trkpt>
      <trkpt lat="47.12003" lon="-1.56612">
        <ele>63</ele>
        <time>2021-03-21T08:30:05.000Z</time>
      </trkpt>
      <trkpt lat="47.12" lon="-1.56597">
        <ele>63</ele>
        <time>2021-03-21T08:30:07.000Z</time>
      </trkpt>
      <trkpt lat="47.11997" lon="-1.56581">
        <ele>63</ele>
        <time>2021-03-21T08:30:09.000Z</time>
      </trkpt>
      <trkpt lat="47.11993" lon="-1.56564">
        <ele>63</ele>
        <time>2021-03-21T08:30:11.000Z</time>
      </trkpt>
      <trkpt lat="47.1199" lon="-1.56548">
        <ele>63</ele>
        <time>2021-03-21T08:30:13.000Z</time>
      </trkpt>
      <trkpt lat="47.11987" lon="-1.56531">
        <ele>62</ele>
        <time>2021-03-21T08:30:15.000Z</time>
      </trkpt>
      <trkpt lat="47.11983" lon="-1.56515">
        <ele>62</ele>
        <time>2021-03-21T08:30:17.000Z</time>
      </trkpt>
      <trkpt lat="47.11979" lon="-1.56498">
        <ele>62</ele>
        <time>2021-03-21T08:30:19.000Z</time>
      </trkpt>
      <trkpt lat="47.11975" lon="-1.56481">
        <ele>62</ele>
        <time>2021-03-21T08:30:21.000Z</time>
      </trkpt>
      <trkpt lat="47.11971" lon="-1.56465">
        <ele>62</ele>
        <time>2021-03-21T08:30:23.000Z</time>
      </trkpt>
      <trkpt lat="47.11966" lon="-1.56448">
        <ele>62</ele>
        <time>2021-03-21T08:30:25.000Z</time>
      </trkpt>
      <trkpt lat="47.11961" lon="-1.5643">
        <ele>61</ele>
        <time>2021-03-21T08:30:27.000Z</time>
      </trkpt>
      <trkpt lat="47.11957" lon="-1.56413">
        <ele>61</ele>
        <time>2021-03-21T08:30:29.000Z</time>
      </trkpt>
      <trkpt lat="47.11952" lon="-1.56395">
        <ele>61</ele>
        <time>2021-03-21T08:30:31.000Z</time>
      </trkpt>
      <trkpt lat="47.11947" lon="-1.56377">
        <ele>61</ele>
        <time>2021-03-21T08:30:33.000Z</time>
      </trkpt>
      <trkpt lat="47.11942" lon="-1.56359">
        <ele>61</ele>
        <time>2021-03-21T08:30:35.000Z</time>
      </trkpt>
      <trkpt lat="47.11938" lon="-1.56341">
        <ele>61</ele>
        <time>2021-03-21T08:30:37.000Z</time>
      </trkpt>
      <trkpt lat="47.11933" lon="-1.56322">
        <ele>61</ele>
        <time>2021-03-21T08:30:39.000Z</time>
      </trkpt>
      <trkpt lat="47.11928" lon="-1.56303">
        <ele>61</ele>
        <time>2021-03-21T08:30:41.000Z</time>
      </trkpt>
      <trkpt lat="47.11924" lon="-1.56285">
        <ele>61</ele>
        <time>2021-03-21T08:30:43.000Z</time>
      </trkpt>
      <trkpt lat="47.11919" lon="-1.56266">
        <ele>61</ele>
        <time>2021-03-21T08:30:45.000Z</time>
      </trkpt>
      <trkpt lat="47.11915" lon="-1.56247">
        <ele>60</ele>
        <time>2021-03-21T08:30:47.000Z</time>
      </trkpt>
      <trkpt lat="47.1191" lon="-1.56229">
        <ele>60</ele>
        <time>2021-03-21T08:30:49.000Z</time>
      </trkpt>
      <trkpt lat="47.11905" lon="-1.56211">
        <ele>60</ele>
        <time>2021-03-21T08:30:51.000Z</time>
      </trkpt>
      <trkpt lat="47.11901" lon="-1.56192">
        <ele>61</ele>
        <time>2021-03-21T08:30:53.000Z</time>
      </trkpt>
      <trkpt lat="47.11896" lon="-1.56174">
        <ele>61</ele>
        <time>2021-03-21T08:30:55.000Z</time>
      </trkpt>
      <trkpt lat="47.11891" lon="-1.56156">
        <ele>61</ele>
        <time>2021-03-21T08:30:57.000Z</time>
      </trkpt>
      <trkpt lat="47.11886" lon="-1.56138">
        <ele>62</ele>
        <time>2021-03-21T08:30:59.000Z</time>
      </trkpt>
      <trkpt lat="47.11882" lon="-1.56121">
        <ele>62</ele>
        <time>2021-03-21T08:31:01.000Z</time>
      </trkpt>
      <trkpt lat="47.11878" lon="-1.56102">
        <ele>62</ele>
        <time>2021-03-21T08:31:03.000Z</time>
      </trkpt>
      <trkpt lat="47.11874" lon="-1.56084">
        <ele>62</ele>
        <time>2021-03-21T08:31:05.000Z</time>
      </trkpt>
      <trkpt lat="47.1187" lon="-1.56066">
        <ele>62</ele>
        <time>2021-03-21T08:31:07.000Z</time>
      </trkpt>
      <trkpt lat="47.11868" lon="-1.56048">
        <ele>62</ele>
        <time>2021-03-21T08:31:09.000Z</time>
      </trkpt>
      <trkpt lat="47.11865" lon="-1.56029">
        <ele>62</ele>
        <time>2021-03-21T08:31:11.000Z</time>
      </trkpt>
      <trkpt lat="47.11863" lon="-1.56009">
        <ele>62</ele>
        <time>2021-03-21T08:31:13.000Z</time>
      </trkpt>
      <trkpt lat="47.11861" lon="-1.5599">
        <ele>62</ele>
        <time>2021-03-21T08:31:15.000Z</time>
      </trkpt>
      <trkpt lat="47.11859" lon="-1.55971">
        <ele>62</ele>
        <time>2021-03-21T08:31:17.000Z</time>
      </trkpt>
      <trkpt lat="47.11857" lon="-1.55952">
        <ele>62</ele>
        <time>2021-03-21T08:31:19.000Z</time>
      </trkpt>
      <trkpt lat="47.11856" lon="-1.55932">
        <ele>62</ele>
        <time>2021-03-21T08:31:21.000Z</time>
      </trkpt>
      <trkpt lat="47.11855" lon="-1.55913">
        <ele>62</ele>
        <time>2021-03-21T08:31:23.000Z</time>
      </trkpt>
      <trkpt lat="47.11854" lon="-1.55894">
        <ele>62</ele>
        <time>2021-03-21T08:31:25.000Z</time>
      </trkpt>
      <trkpt lat="47.11852" lon="-1.55874">
        <ele>63</ele>
        <time>2021-03-21T08:31:27.000Z</time>
      </trkpt>
      <trkpt lat="47.11851" lon="-1.55854">
        <ele>63</ele>
        <time>2021-03-21T08:31:29.000Z</time>
      </trkpt>
      <trkpt lat="47.11849" lon="-1.55834">
        <ele>63</ele>
        <time>2021-03-21T08:31:31.000Z</time>
      </trkpt>
      <trkpt lat="47.11848" lon="-1.55815">
        <ele>63</ele>
        <time>2021-03-21T08:31:33.000Z</time>
      </trkpt>
      <trkpt lat="47.11846" lon="-1.55795">
        <ele>63</ele>
        <time>2021-03-21T08:31:35.000Z</time>
      </trkpt>
      <trkpt lat="47.11845" lon="-1.55775">
        <ele>63</ele>
        <time>2021-03-21T08:31:37.000Z</time>
      </trkpt>
      <trkpt lat="47.11843" lon="-1.55756">
        <ele>64</ele>
        <time>2021-03-21T08:31:39.000Z</time>
      </trkpt>
      <trkpt lat="47.11842" lon="-1.55736">
        <ele>64</ele>
        <time>2021-03-21T08:31:41.000Z</time>
      </trkpt>
      <trkpt lat="47.1184" lon="-1.55716">
        <ele>65</ele>
        <time>2021-03-21T08:31:43.000Z</time>
      </trkpt>
      <trkpt lat="47.11839" lon="-1.55696">
        <ele>64</ele>
        <time>2021-03-21T08:31:45.000Z</time>
      </trkpt>
      <trkpt lat="47.11837" lon="-1.55677">
        <ele>64</ele>
        <time>2021-03-21T08:31:47.000Z</time>
      </trkpt>
      <trkpt lat="47.11836" lon="-1.55658">
        <ele>65</ele>
        <time>2021-03-21T08:31:49.000Z</time>
      </trkpt>
      <trkpt lat="47.11835" lon="-1.55638">
        <ele>65</ele>
        <time>2021-03-21T08:31:51.000Z</time>
      </trkpt>
      <trkpt lat="47.11833" lon="-1.55619">
        <ele>65</ele>
        <time>2021-03-21T08:31:53.000Z</time>
      </trkpt>
      <trkpt lat="47.11832" lon="-1.55599">
        <ele>65</ele>
        <time>2021-03-21T08:31:55.000Z</time>
      </trkpt>
      <trkpt lat="47.1183" lon="-1.55578">
        <ele>65</ele>
        <time>2021-03-21T08:31:57.000Z</time>
      </trkpt>
      <trkpt lat="47.11829" lon="-1.55558">
        <ele>65</ele>
        <time>2021-03-21T08:31:59.000Z</time>
      </trkpt>
      <trkpt lat="47.11827" lon="-1.55538">
        <ele>65</ele>
        <time>2021-03-21T08:32:01.000Z</time>
      </trkpt>
      <trkpt lat="47.11826" lon="-1.55517">
        <ele>65</ele>
        <time>2021-03-21T08:32:03.000Z</time>
      </trkpt>
      <trkpt lat="47.11824" lon="-1.55497">
        <ele>65</ele>
        <time>2021-03-21T08:32:05.000Z</time>
      </trkpt>
      <trkpt lat="47.11823" lon="-1.55478">
        <ele>66</ele>
        <time>2021-03-21T08:32:07.000Z</time>
      </trkpt>
      <trkpt lat="47.11821" lon="-1.55458">
        <ele>66</ele>
        <time>2021-03-21T08:32:09.000Z</time>
      </trkpt>
      <trkpt lat="47.1182" lon="-1.55439">
        <ele>66</ele>
        <time>2021-03-21T08:32:11.000Z</time>
      </trkpt>
      <trkpt lat="47.11819" lon="-1.55418">
        <ele>66</ele>
        <time>2021-03-21T08:32:13.000Z</time>
      </trkpt>
      <trkpt lat="47.11819" lon="-1.55398">
        <ele>65</ele>
        <time>2021-03-21T08:32:15.000Z</time>
      </trkpt>
      <trkpt lat="47.11819" lon="-1.55378">
        <ele>65</ele>
        <time>2021-03-21T08:32:17.000Z</time>
      </trkpt>
      <trkpt lat="47.11819" lon="-1.55358">
        <ele>66</ele>
        <time>2021-03-21T08:32:19.000Z</time>
      </trkpt>
      <trkpt lat="47.11819" lon="-1.55339">
        <ele>65</ele>
        <time>2021-03-21T08:32:21.000Z</time>
      </trkpt>
      <trkpt lat="47.11819" lon="-1.55319">
        <ele>65</ele>
        <time>2021-03-21T08:32:23.000Z</time>
      </trkpt>
      <trkpt lat="47.11818" lon="-1.55299">
        <ele>66</ele>
        <time>2021-03-21T08:32:25.000Z</time>
      </trkpt>
      <trkpt lat="47.11818" lon="-1.55279">
        <ele>66</ele>
        <time>2021-03-21T08:32:27.000Z</time>
      </trkpt>
      <trkpt lat="47.11817" lon="-1.5526">
        <ele>66</ele>
        <time>2021-03-21T08:32:29.000Z</time>
      </trkpt>
      <trkpt lat="47.11816" lon="-1.5524">
        <ele>66</ele>
        <time>2021-03-21T08:32:31.000Z</time>
      </trkpt>
      <trkpt lat="47.11816" lon="-1.55219">
        <ele>66</ele>
        <time>2021-03-21T08:32:33.000Z</time>
      </trkpt>
      <trkpt lat="47.11815" lon="-1.55199">
        <ele>66</ele>
        <time>2021-03-21T08:32:35.000Z</time>
      </trkpt>
      <trkpt lat="47.11814" lon="-1.55178">
        <ele>66</ele>
        <time>2021-03-21T08:32:37.000Z</time>
      </trkpt>
      <trkpt lat="47.11813" lon="-1.55158">
        <ele>66</ele>
        <time>2021-03-21T08:32:39.000Z</time>
      </trkpt>
      <trkpt lat="47.11812" lon="-1.55138">
        <ele>66</ele>
        <time>2021-03-21T08:32:41.000Z</time>
      </trkpt>
      <trkpt lat="47.1181" lon="-1.55118">
        <ele>67</ele>
        <time>2021-03-21T08:32:43.000Z</time>
      </trkpt>
      <trkpt lat="47.11808" lon="-1.55097">
        <ele>67</ele>
        <time>2021-03-21T08:32:45.000Z</time>
      </trkpt>
      <trkpt lat="47.11806" lon="-1.55078">
        <ele>67</ele>
        <time>2021-03-21T08:32:47.000Z</time>
      </trkpt>
      <trkpt lat="47.11803" lon="-1.55058">
        <ele>67</ele>
        <time>2021-03-21T08:32:49.000Z</time>
      </trkpt>
      <trkpt lat="47.118" lon="-1.55039">
        <ele>67</ele>
        <time>2021-03-21T08:32:51.000Z</time>
      </trkpt>
      <trkpt lat="47.11797" lon="-1.55019">
        <ele>67</ele>
        <time>2021-03-21T08:32:53.000Z</time>
      </trkpt>
      <trkpt lat="47.11793" lon="-1.55">
        <ele>67</ele>
        <time>2021-03-21T08:32:55.000Z</time>
      </trkpt>
      <trkpt lat="47.11788" lon="-1.54981">
        <ele>67</ele>
        <time>2021-03-21T08:32:57.000Z</time>
      </trkpt>
      <trkpt lat="47.11784" lon="-1.54961">
        <ele>67</ele>
        <time>2021-03-21T08:32:59.000Z</time>
      </trkpt>
      <trkpt lat="47.11779" lon="-1.54942">
        <ele>67</ele>
        <time>2021-03-21T08:33:01.000Z</time>
      </trkpt>
      <trkpt lat="47.11774" lon="-1.54923">
        <ele>66</ele>
        <time>2021-03-21T08:33:03.000Z</time>
      </trkpt>
      <trkpt lat="47.11769" lon="-1.54904">
        <ele>67</ele>
        <time>2021-03-21T08:33:05.000Z</time>
      </trkpt>
      <trkpt lat="47.11764" lon="-1.54885">
        <ele>67</ele>
        <time>2021-03-21T08:33:07.000Z</time>
      </trkpt>
      <trkpt lat="47.11758" lon="-1.54867">
        <ele>67</ele>
        <time>2021-03-21T08:33:09.000Z</time>
      </trkpt>
      <trkpt lat="47.11752" lon="-1.54849">
        <ele>67</ele>
        <time>2021-03-21T08:33:11.000Z</time>
      </trkpt>
      <trkpt lat="47.11747" lon="-1.5483">
        <ele>67</ele>
        <time>2021-03-21T08:33:13.000Z</time>
      </trkpt>
      <trkpt lat="47.11741" lon="-1.54813">
        <ele>67</ele>
        <time>2021-03-21T08:33:15.000Z</time>
      </trkpt>
      <trkpt lat="47.11736" lon="-1.54795">
        <ele>67</ele>
        <time>2021-03-21T08:33:17.000Z</time>
      </trkpt>
      <trkpt lat="47.1173" lon="-1.54776">
        <ele>67</ele>
        <time>2021-03-21T08:33:19.000Z</time>
      </trkpt>
      <trkpt lat="47.11725" lon="-1.54758">
        <ele>67</ele>
        <time>2021-03-21T08:33:21.000Z</time>
      </trkpt>
      <trkpt lat="47.1172" lon="-1.5474">
        <ele>67</ele>
        <time>2021-03-21T08:33:23.000Z</time>
      </trkpt>
      <trkpt lat="47.11714" lon="-1.54722">
        <ele>68</ele>
        <time>2021-03-21T08:33:25.000Z</time>
      </trkpt>
      <trkpt lat="47.11709" lon="-1.54704">
        <ele>68</ele>
        <time>2021-03-21T08:33:27.000Z</time>
      </trkpt>
      <trkpt lat="47.11704" lon="-1.54687">
        <ele>67</ele>
        <time>2021-03-21T08:33:29.000Z</time>
      </trkpt>
      <trkpt lat="47.11698" lon="-1.5467">
        <ele>68</ele>
        <time>2021-03-21T08:33:31.000Z</time>
      </trkpt>
      <trkpt lat="47.11693" lon="-1.54652">
        <ele>68</ele>
        <time>2021-03-21T08:33:33.000Z</time>
      </trkpt>
      <trkpt lat="47.11688" lon="-1.54635">
        <ele>68</ele>
        <time>2021-03-21T08:33:35.000Z</time>
      </trkpt>
      <trkpt lat="47.11682" lon="-1.54617">
        <ele>68</ele>
        <time>2021-03-21T08:33:37.000Z</time>
      </trkpt>
      <trkpt lat="47.11677" lon="-1.546">
        <ele>68</ele>
        <time>2021-03-21T08:33:39.000Z</time>
      </trkpt>
      <trkpt lat="47.11671" lon="-1.54583">
        <ele>69</ele>
        <time>2021-03-21T08:33:41.000Z</time>
      </trkpt>
      <trkpt lat="47.11665" lon="-1.54566">
        <ele>69</ele>
        <time>2021-03-21T08:33:43.000Z</time>
      </trkpt>
      <trkpt lat="47.11659" lon="-1.54549">
        <ele>69</ele>
        <time>2021-03-21T08:33:45.000Z</time>
      </trkpt>
      <trkpt lat="47.11653" lon="-1.54532">
        <ele>69</ele>
        <time>2021-03-21T08:33:47.000Z</time>
      </trkpt>
      <trkpt lat="47.11648" lon="-1.54515">
        <ele>70</ele>
        <time>2021-03-21T08:33:49.000Z</time>
      </trkpt>
      <trkpt lat="47.11642" lon="-1.54499">
        <ele>70</ele>
        <time>2021-03-21T08:33:51.000Z</time>
      </trkpt>
      <trkpt lat="47.11637" lon="-1.54482">
        <ele>70</ele>
        <time>2021-03-21T08:33:53.000Z</time>
      </trkpt>
      <trkpt lat="47.11631" lon="-1.54465">
        <ele>70</ele>
        <time>2021-03-21T08:33:55.000Z</time>
      </trkpt>
      <trkpt lat="47.11625" lon="-1.54448">
        <ele>71</ele>
        <time>2021-03-21T08:33:57.000Z</time>
      </trkpt>
      <trkpt lat="47.1162" lon="-1.54431">
        <ele>71</ele>
        <time>2021-03-21T08:33:59.000Z</time>
      </trkpt>
      <trkpt lat="47.11612" lon="-1.54406">
        <ele>71</ele>
        <time>2021-03-21T08:34:02.000Z</time>
      </trkpt>
      <trkpt lat="47.11606" lon="-1.5439">
        <ele>71</ele>
        <time>2021-03-21T08:34:04.000Z</time>
      </trkpt>
      <trkpt lat="47.11601" lon="-1.54373">
        <ele>71</ele>
        <time>2021-03-21T08:34:06.000Z</time>
      </trkpt>
      <trkpt lat="47.11595" lon="-1.54356">
        <ele>70</ele>
        <time>2021-03-21T08:34:08.000Z</time>
      </trkpt>
      <trkpt lat="47.1159" lon="-1.5434">
        <ele>71</ele>
        <time>2021-03-21T08:34:10.000Z</time>
      </trkpt>
      <trkpt lat="47.11584" lon="-1.54324">
        <ele>71</ele>
        <time>2021-03-21T08:34:12.000Z</time>
      </trkpt>
      <trkpt lat="47.11578" lon="-1.54309">
        <ele>71</ele>
        <time>2021-03-21T08:34:14.000Z</time>
      </trkpt>
      <trkpt lat="47.11573" lon="-1.54293">
        <ele>72</ele>
        <time>2021-03-21T08:34:16.000Z</time>
      </trkpt>
      <trkpt lat="47.11567" lon="-1.5428">
        <ele>71</ele>
        <time>2021-03-21T08:34:18.000Z</time>
      </trkpt>
      <trkpt lat="47.11566" lon="-1.54265">
        <ele>72</ele>
        <time>2021-03-21T08:34:20.000Z</time>
      </trkpt>
      <trkpt lat="47.11574" lon="-1.54253">
        <ele>72</ele>
        <time>2021-03-21T08:34:22.000Z</time>
      </trkpt>
      <trkpt lat="47.11585" lon="-1.54244">
        <ele>72</ele>
        <time>2021-03-21T08:34:24.000Z</time>
      </trkpt>
      <trkpt lat="47.116" lon="-1.54232">
        <ele>73</ele>
        <time>2021-03-21T08:34:27.000Z</time>
      </trkpt>
      <trkpt lat="47.11611" lon="-1.54224">
        <ele>74</ele>
        <time>2021-03-21T08:34:29.000Z</time>
      </trkpt>
      <trkpt lat="47.11622" lon="-1.54217">
        <ele>74</ele>
        <time>2021-03-21T08:34:31.000Z</time>
      </trkpt>
      <trkpt lat="47.11632" lon="-1.54207">
        <ele>75</ele>
        <time>2021-03-21T08:34:33.000Z</time>
      </trkpt>
      <trkpt lat="47.1164" lon="-1.54195">
        <ele>75</ele>
        <time>2021-03-21T08:34:35.000Z</time>
      </trkpt>
      <trkpt lat="47.11645" lon="-1.54179">
        <ele>75</ele>
        <time>2021-03-21T08:34:37.000Z</time>
      </trkpt>
      <trkpt lat="47.11649" lon="-1.54162">
        <ele>75</ele>
        <time>2021-03-21T08:34:39.000Z</time>
      </trkpt>
      <trkpt lat="47.11658" lon="-1.5415">
        <ele>75</ele>
        <time>2021-03-21T08:34:41.000Z</time>
      </trkpt>
      <trkpt lat="47.1167" lon="-1.54145">
        <ele>76</ele>
        <time>2021-03-21T08:34:43.000Z</time>
      </trkpt>
      <trkpt lat="47.1168" lon="-1.54137">
        <ele>76</ele>
        <time>2021-03-21T08:34:45.000Z</time>
      </trkpt>
      <trkpt lat="47.11694" lon="-1.5412">
        <ele>76</ele>
        <time>2021-03-21T08:34:48.000Z</time>
      </trkpt>
      <trkpt lat="47.11702" lon="-1.54106">
        <ele>76</ele>
        <time>2021-03-21T08:34:50.000Z</time>
      </trkpt>
      <trkpt lat="47.11708" lon="-1.54091">
        <ele>76</ele>
        <time>2021-03-21T08:34:52.000Z</time>
      </trkpt>
      <trkpt lat="47.11715" lon="-1.54074">
        <ele>76</ele>
        <time>2021-03-21T08:34:54.000Z</time>
      </trkpt>
      <trkpt lat="47.11722" lon="-1.54059">
        <ele>77</ele>
        <time>2021-03-21T08:34:56.000Z</time>
      </trkpt>
      <trkpt lat="47.11728" lon="-1.54043">
        <ele>77</ele>
        <time>2021-03-21T08:34:58.000Z</time>
      </trkpt>
      <trkpt lat="47.11734" lon="-1.54027">
        <ele>77</ele>
        <time>2021-03-21T08:35:00.000Z</time>
      </trkpt>
      <trkpt lat="47.11741" lon="-1.54012">
        <ele>77</ele>
        <time>2021-03-21T08:35:02.000Z</time>
      </trkpt>
      <trkpt lat="47.11747" lon="-1.53997">
        <ele>77</ele>
        <time>2021-03-21T08:35:04.000Z</time>
      </trkpt>
      <trkpt lat="47.11753" lon="-1.5398">
        <ele>76</ele>
        <time>2021-03-21T08:35:06.000Z</time>
      </trkpt>
      <trkpt lat="47.1176" lon="-1.53964">
        <ele>76</ele>
        <time>2021-03-21T08:35:08.000Z</time>
      </trkpt>
      <trkpt lat="47.11769" lon="-1.53938">
        <ele>74</ele>
        <time>2021-03-21T08:35:11.000Z</time>
      </trkpt>
      <trkpt lat="47.11776" lon="-1.5392">
        <ele>74</ele>
        <time>2021-03-21T08:35:13.000Z</time>
      </trkpt>
      <trkpt lat="47.11784" lon="-1.53902">
        <ele>73</ele>
        <time>2021-03-21T08:35:15.000Z</time>
      </trkpt>
      <trkpt lat="47.11793" lon="-1.53884">
        <ele>73</ele>
        <time>2021-03-21T08:35:17.000Z</time>
      </trkpt>
      <trkpt lat="47.11804" lon="-1.53868">
        <ele>72</ele>
        <time>2021-03-21T08:35:19.000Z</time>
      </trkpt>
      <trkpt lat="47.11814" lon="-1.53851">
        <ele>71</ele>
        <time>2021-03-21T08:35:21.000Z</time>
      </trkpt>
      <trkpt lat="47.11824" lon="-1.53833">
        <ele>71</ele>
        <time>2021-03-21T08:35:23.000Z</time>
      </trkpt>
      <trkpt lat="47.11838" lon="-1.53807">
        <ele>70</ele>
        <time>2021-03-21T08:35:26.000Z</time>
      </trkpt>
      <trkpt lat="47.11848" lon="-1.53787">
        <ele>69</ele>
        <time>2021-03-21T08:35:28.000Z</time>
      </trkpt>
      <trkpt lat="47.11856" lon="-1.53769">
        <ele>69</ele>
        <time>2021-03-21T08:35:30.000Z</time>
      </trkpt>
      <trkpt lat="47.11863" lon="-1.5375">
        <ele>69</ele>
        <time>2021-03-21T08:35:32.000Z</time>
      </trkpt>
      <trkpt lat="47.11871" lon="-1.53729">
        <ele>68</ele>
        <time>2021-03-21T08:35:34.000Z</time>
      </trkpt>
      <trkpt lat="47.11878" lon="-1.53709">
        <ele>68</ele>
        <time>2021-03-21T08:35:36.000Z</time>
      </trkpt>
      <trkpt lat="47.11886" lon="-1.5369">
        <ele>68</ele>
        <time>2021-03-21T08:35:38.000Z</time>
      </trkpt>
      <trkpt lat="47.11895" lon="-1.53673">
        <ele>67</ele>
        <time>2021-03-21T08:35:40.000Z</time>
      </trkpt>
      <trkpt lat="47.11905" lon="-1.53656">
        <ele>67</ele>
        <time>2021-03-21T08:35:42.000Z</time>
      </trkpt>
      <trkpt lat="47.11913" lon="-1.53639">
        <ele>67</ele>
        <time>2021-03-21T08:35:44.000Z</time>
      </trkpt>
      <trkpt lat="47.11922" lon="-1.53623">
        <ele>67</ele>
        <time>2021-03-21T08:35:46.000Z</time>
      </trkpt>
      <trkpt lat="47.11931" lon="-1.53605">
        <ele>66</ele>
        <time>2021-03-21T08:35:48.000Z</time>
      </trkpt>
      <trkpt lat="47.11941" lon="-1.53588">
        <ele>65</ele>
        <time>2021-03-21T08:35:50.000Z</time>
      </trkpt>
      <trkpt lat="47.1195" lon="-1.53572">
        <ele>65</ele>
        <time>2021-03-21T08:35:52.000Z</time>
      </trkpt>
      <trkpt lat="47.11959" lon="-1.53555">
        <ele>65</ele>
        <time>2021-03-21T08:35:54.000Z</time>
      </trkpt>
      <trkpt lat="47.11968" lon="-1.53538">
        <ele>65</ele>
        <time>2021-03-21T08:35:56.000Z</time>
      </trkpt>
      <trkpt lat="47.11976" lon="-1.53521">
        <ele>65</ele>
        <time>2021-03-21T08:35:58.000Z</time>
      </trkpt>
      <trkpt lat="47.11985" lon="-1.53504">
        <ele>65</ele>
        <time>2021-03-21T08:36:00.000Z</time>
      </trkpt>
      <trkpt lat="47.11994" lon="-1.53488">
        <ele>64</ele>
        <time>2021-03-21T08:36:02.000Z</time>
      </trkpt>
      <trkpt lat="47.12003" lon="-1.53472">
        <ele>64</ele>
        <time>2021-03-21T08:36:04.000Z</time>
      </trkpt>
      <trkpt lat="47.12017" lon="-1.53448">
        <ele>63</ele>
        <time>2021-03-21T08:36:07.000Z</time>
      </trkpt>
      <trkpt lat="47.12026" lon="-1.53431">
        <ele>63</ele>
        <time>2021-03-21T08:36:09.000Z</time>
      </trkpt>
      <trkpt lat="47.12035" lon="-1.53414">
        <ele>63</ele>
        <time>2021-03-21T08:36:11.000Z</time>
      </trkpt>
      <trkpt lat="47.12043" lon="-1.53397">
        <ele>63</ele>
        <time>2021-03-21T08:36:13.000Z</time>
      </trkpt>
      <trkpt lat="47.12052" lon="-1.5338">
        <ele>63</ele>
        <time>2021-03-21T08:36:15.000Z</time>
      </trkpt>
      <trkpt lat="47.12065" lon="-1.53355">
        <ele>63</ele>
        <time>2021-03-21T08:36:18.000Z</time>
      </trkpt>
      <trkpt lat="47.12074" lon="-1.53337">
        <ele>62</ele>
        <time>2021-03-21T08:36:20.000Z</time>
      </trkpt>
      <trkpt lat="47.12084" lon="-1.5332">
        <ele>61</ele>
        <time>2021-03-21T08:36:22.000Z</time>
      </trkpt>
      <trkpt lat="47.12093" lon="-1.53303">
        <ele>61</ele>
        <time>2021-03-21T08:36:24.000Z</time>
      </trkpt>
      <trkpt lat="47.12101" lon="-1.53286">
        <ele>61</ele>
        <time>2021-03-21T08:36:26.000Z</time>
      </trkpt>
      <trkpt lat="47.1211" lon="-1.53269">
        <ele>60</ele>
        <time>2021-03-21T08:36:28.000Z</time>
      </trkpt>
      <trkpt lat="47.12119" lon="-1.53251">
        <ele>60</ele>
        <time>2021-03-21T08:36:30.000Z</time>
      </trkpt>
      <trkpt lat="47.12128" lon="-1.53235">
        <ele>60</ele>
        <time>2021-03-21T08:36:32.000Z</time>
      </trkpt>
      <trkpt lat="47.12137" lon="-1.53219">
        <ele>60</ele>
        <time>2021-03-21T08:36:34.000Z</time>
      </trkpt>
      <trkpt lat="47.12146" lon="-1.53202">
        <ele>60</ele>
        <time>2021-03-21T08:36:36.000Z</time>
      </trkpt>
      <trkpt lat="47.12154" lon="-1.53187">
        <ele>60</ele>
        <time>2021-03-21T08:36:38.000Z</time>
      </trkpt>
      <trkpt lat="47.12167" lon="-1.53163">
        <ele>61</ele>
        <time>2021-03-21T08:36:41.000Z</time>
      </trkpt>
      <trkpt lat="47.12175" lon="-1.53148">
        <ele>60</ele>
        <time>2021-03-21T08:36:43.000Z</time>
      </trkpt>
      <trkpt lat="47.12183" lon="-1.53132">
        <ele>60</ele>
        <time>2021-03-21T08:36:45.000Z</time>
      </trkpt>
      <trkpt lat="47.12191" lon="-1.53117">
        <ele>60</ele>
        <time>2021-03-21T08:36:47.000Z</time>
      </trkpt>
      <trkpt lat="47.12198" lon="-1.53102">
        <ele>60</ele>
        <time>2021-03-21T08:36:49.000Z</time>
      </trkpt>
      <trkpt lat="47.12206" lon="-1.53087">
        <ele>60</ele>
        <time>2021-03-21T08:36:51.000Z</time>
      </trkpt>
      <trkpt lat="47.12214" lon="-1.53072">
        <ele>61</ele>
        <time>2021-03-21T08:36:53.000Z</time>
      </trkpt>
      <trkpt lat="47.12222" lon="-1.53058">
        <ele>61</ele>
        <time>2021-03-21T08:36:55.000Z</time>
      </trkpt>
      <trkpt lat="47.1223" lon="-1.53044">
        <ele>61</ele>
        <time>2021-03-21T08:36:57.000Z</time>
      </trkpt>
      <trkpt lat="47.12237" lon="-1.53029">
        <ele>61</ele>
        <time>2021-03-21T08:36:59.000Z</time>
      </trkpt>
      <trkpt lat="47.12245" lon="-1.53015">
        <ele>62</ele>
        <time>2021-03-21T08:37:01.000Z</time>
      </trkpt>
      <trkpt lat="47.12256" lon="-1.52995">
        <ele>62</ele>
        <time>2021-03-21T08:37:04.000Z</time>
      </trkpt>
      <trkpt lat="47.12263" lon="-1.52981">
        <ele>62</ele>
        <time>2021-03-21T08:37:06.000Z</time>
      </trkpt>
      <trkpt lat="47.1227" lon="-1.52968">
        <ele>62</ele>
        <time>2021-03-21T08:37:08.000Z</time>
      </trkpt>
      <trkpt lat="47.12277" lon="-1.52955">
        <ele>62</ele>
        <time>2021-03-21T08:37:10.000Z</time>
      </trkpt>
      <trkpt lat="47.12284" lon="-1.52941">
        <ele>62</ele>
        <time>2021-03-21T08:37:12.000Z</time>
      </trkpt>
      <trkpt lat="47.1229" lon="-1.52929">
        <ele>63</ele>
        <time>2021-03-21T08:37:14.000Z</time>
      </trkpt>
      <trkpt lat="47.12297" lon="-1.52917">
        <ele>64</ele>
        <time>2021-03-21T08:37:16.000Z</time>
      </trkpt>
      <trkpt lat="47.12304" lon="-1.52905">
        <ele>64</ele>
        <time>2021-03-21T08:37:18.000Z</time>
      </trkpt>
      <trkpt lat="47.12311" lon="-1.52894">
        <ele>64</ele>
        <time>2021-03-21T08:37:20.000Z</time>
      </trkpt>
      <trkpt lat="47.12318" lon="-1.52882">
        <ele>64</ele>
        <time>2021-03-21T08:37:22.000Z</time>
      </trkpt>
      <trkpt lat="47.12325" lon="-1.52871">
        <ele>64</ele>
        <time>2021-03-21T08:37:24.000Z</time>
      </trkpt>
      <trkpt lat="47.12333" lon="-1.5286">
        <ele>64</ele>
        <time>2021-03-21T08:37:26.000Z</time>
      </trkpt>
      <trkpt lat="47.12341" lon="-1.5285">
        <ele>64</ele>
        <time>2021-03-21T08:37:28.000Z</time>
      </trkpt>
      <trkpt lat="47.12349" lon="-1.5284">
        <ele>65</ele>
        <time>2021-03-21T08:37:30.000Z</time>
      </trkpt>
      <trkpt lat="47.12357" lon="-1.52831">
        <ele>65</ele>
        <time>2021-03-21T08:37:32.000Z</time>
      </trkpt>
      <trkpt lat="47.12366" lon="-1.52823">
        <ele>66</ele>
        <time>2021-03-21T08:37:34.000Z</time>
      </trkpt>
      <trkpt lat="47.12374" lon="-1.52814">
        <ele>66</ele>
        <time>2021-03-21T08:37:36.000Z</time>
      </trkpt>
      <trkpt lat="47.12383" lon="-1.52805">
        <ele>67</ele>
        <time>2021-03-21T08:37:38.000Z</time>
      </trkpt>
      <trkpt lat="47.12392" lon="-1.52797">
        <ele>67</ele>
        <time>2021-03-21T08:37:40.000Z</time>
      </trkpt>
      <trkpt lat="47.124" lon="-1.52789">
        <ele>68</ele>
        <time>2021-03-21T08:37:42.000Z</time>
      </trkpt>
      <trkpt lat="47.12408" lon="-1.52781">
        <ele>68</ele>
        <time>2021-03-21T08:37:44.000Z</time>
      </trkpt>
      <trkpt lat="47.12417" lon="-1.52771">
        <ele>68</ele>
        <time>2021-03-21T08:37:46.000Z</time>
      </trkpt>
      <trkpt lat="47.12425" lon="-1.52762">
        <ele>69</ele>
        <time>2021-03-21T08:37:48.000Z</time>
      </trkpt>
      <trkpt lat="47.12435" lon="-1.52753">
        <ele>69</ele>
        <time>2021-03-21T08:37:50.000Z</time>
      </trkpt>
      <trkpt lat="47.12445" lon="-1.52746">
        <ele>69</ele>
        <time>2021-03-21T08:37:52.000Z</time>
      </trkpt>
      <trkpt lat="47.12456" lon="-1.5274">
        <ele>70</ele>
        <time>2021-03-21T08:37:54.000Z</time>
      </trkpt>
      <trkpt lat="47.12466" lon="-1.52735">
        <ele>70</ele>
        <time>2021-03-21T08:37:56.000Z</time>
      </trkpt>
      <trkpt lat="47.12476" lon="-1.5273">
        <ele>70</ele>
        <time>2021-03-21T08:37:58.000Z</time>
      </trkpt>
      <trkpt lat="47.12487" lon="-1.52727">
        <ele>71</ele>
        <time>2021-03-21T08:38:00.000Z</time>
      </trkpt>
      <trkpt lat="47.12497" lon="-1.52726">
        <ele>71</ele>
        <time>2021-03-21T08:38:02.000Z</time>
      </trkpt>
      <trkpt lat="47.12506" lon="-1.52722">
        <ele>71</ele>
        <time>2021-03-21T08:38:04.000Z</time>
      </trkpt>
      <trkpt lat="47.12508" lon="-1.52709">
        <ele>72</ele>
        <time>2021-03-21T08:38:07.000Z</time>
      </trkpt>
      <trkpt lat="47.12498" lon="-1.52703">
        <ele>73</ele>
        <time>2021-03-21T08:38:10.000Z</time>
      </trkpt>
      <trkpt lat="47.12489" lon="-1.527">
        <ele>73</ele>
        <time>2021-03-21T08:38:12.000Z</time>
      </trkpt>
      <trkpt lat="47.12479" lon="-1.52698">
        <ele>74</ele>
        <time>2021-03-21T08:38:14.000Z</time>
      </trkpt>
      <trkpt lat="47.12468" lon="-1.52696">
        <ele>74</ele>
        <time>2021-03-21T08:38:16.000Z</time>
      </trkpt>
      <trkpt lat="47.12457" lon="-1.52694">
        <ele>74</ele>
        <time>2021-03-21T08:38:18.000Z</time>
      </trkpt>
      <trkpt lat="47.12446" lon="-1.52691">
        <ele>74</ele>
        <time>2021-03-21T08:38:20.000Z</time>
      </trkpt>
      <trkpt lat="47.12435" lon="-1.52688">
        <ele>74</ele>
        <time>2021-03-21T08:38:22.000Z</time>
      </trkpt>
      <trkpt lat="47.12424" lon="-1.52686">
        <ele>74</ele>
        <time>2021-03-21T08:38:24.000Z</time>
      </trkpt>
      <trkpt lat="47.12413" lon="-1.52684">
        <ele>74</ele>
        <time>2021-03-21T08:38:26.000Z</time>
      </trkpt>
      <trkpt lat="47.12401" lon="-1.52683">
        <ele>73</ele>
        <time>2021-03-21T08:38:28.000Z</time>
      </trkpt>
      <trkpt lat="47.12388" lon="-1.5268">
        <ele>73</ele>
        <time>2021-03-21T08:38:30.000Z</time>
      </trkpt>
      <trkpt lat="47.12375" lon="-1.52677">
        <ele>72</ele>
        <time>2021-03-21T08:38:32.000Z</time>
      </trkpt>
      <trkpt lat="47.1236" lon="-1.52674">
        <ele>72</ele>
        <time>2021-03-21T08:38:34.000Z</time>
      </trkpt>
      <trkpt lat="47.12345" lon="-1.5267">
        <ele>71</ele>
        <time>2021-03-21T08:38:36.000Z</time>
      </trkpt>
      <trkpt lat="47.12329" lon="-1.52665">
        <ele>70</ele>
        <time>2021-03-21T08:38:38.000Z</time>
      </trkpt>
      <trkpt lat="47.12312" lon="-1.52658">
        <ele>69</ele>
        <time>2021-03-21T08:38:40.000Z</time>
      </trkpt>
      <trkpt lat="47.12296" lon="-1.5265">
        <ele>68</ele>
        <time>2021-03-21T08:38:42.000Z</time>
      </trkpt>
      <trkpt lat="47.1228" lon="-1.52641">
        <ele>68</ele>
        <time>2021-03-21T08:38:44.000Z</time>
      </trkpt>
      <trkpt lat="47.12265" lon="-1.52633">
        <ele>68</ele>
        <time>2021-03-21T08:38:46.000Z</time>
      </trkpt>
      <trkpt lat="47.1225" lon="-1.52624">
        <ele>68</ele>
        <time>2021-03-21T08:38:48.000Z</time>
      </trkpt>
      <trkpt lat="47.12235" lon="-1.52616">
        <ele>68</ele>
        <time>2021-03-21T08:38:50.000Z</time>
      </trkpt>
      <trkpt lat="47.1222" lon="-1.52609">
        <ele>67</ele>
        <time>2021-03-21T08:38:52.000Z</time>
      </trkpt>
      <trkpt lat="47.12206" lon="-1.52604">
        <ele>67</ele>
        <time>2021-03-21T08:38:54.000Z</time>
      </trkpt>
      <trkpt lat="47.12191" lon="-1.52598">
        <ele>67</ele>
        <time>2021-03-21T08:38:56.000Z</time>
      </trkpt>
      <trkpt lat="47.12176" lon="-1.52595">
        <ele>66</ele>
        <time>2021-03-21T08:38:58.000Z</time>
      </trkpt>
      <trkpt lat="47.1216" lon="-1.52595">
        <ele>66</ele>
        <time>2021-03-21T08:39:00.000Z</time>
      </trkpt>
      <trkpt lat="47.12145" lon="-1.52595">
        <ele>66</ele>
        <time>2021-03-21T08:39:02.000Z</time>
      </trkpt>
      <trkpt lat="47.1213" lon="-1.52595">
        <ele>66</ele>
        <time>2021-03-21T08:39:04.000Z</time>
      </trkpt>
      <trkpt lat="47.12116" lon="-1.52596">
        <ele>66</ele>
        <time>2021-03-21T08:39:06.000Z</time>
      </trkpt>
      <trkpt lat="47.12101" lon="-1.52596">
        <ele>66</ele>
        <time>2021-03-21T08:39:08.000Z</time>
      </trkpt>
      <trkpt lat="47.12087" lon="-1.52597">
        <ele>67</ele>
        <time>2021-03-21T08:39:10.000Z</time>
      </trkpt>
      <trkpt lat="47.12072" lon="-1.52597">
        <ele>66</ele>
        <time>2021-03-21T08:39:12.000Z</time>
      </trkpt>
      <trkpt lat="47.12057" lon="-1.52597">
        <ele>65</ele>
        <time>2021-03-21T08:39:14.000Z</time>
      </trkpt>
      <trkpt lat="47.12042" lon="-1.52597">
        <ele>65</ele>
        <time>2021-03-21T08:39:16.000Z</time>
      </trkpt>
      <trkpt lat="47.12027" lon="-1.52595">
        <ele>64</ele>
        <time>2021-03-21T08:39:18.000Z</time>
      </trkpt>
      <trkpt lat="47.12013" lon="-1.52593">
        <ele>64</ele>
        <time>2021-03-21T08:39:20.000Z</time>
      </trkpt>
      <trkpt lat="47.11999" lon="-1.5259">
        <ele>64</ele>
        <time>2021-03-21T08:39:22.000Z</time>
      </trkpt>
      <trkpt lat="47.11985" lon="-1.52584">
        <ele>64</ele>
        <time>2021-03-21T08:39:24.000Z</time>
      </trkpt>
      <trkpt lat="47.11971" lon="-1.52578">
        <ele>64</ele>
        <time>2021-03-21T08:39:26.000Z</time>
      </trkpt>
      <trkpt lat="47.11958" lon="-1.52571">
        <ele>64</ele>
        <time>2021-03-21T08:39:28.000Z</time>
      </trkpt>
      <trkpt lat="47.11944" lon="-1.52563">
        <ele>63</ele>
        <time>2021-03-21T08:39:30.000Z</time>
      </trkpt>
      <trkpt lat="47.11929" lon="-1.52554">
        <ele>62</ele>
        <time>2021-03-21T08:39:32.000Z</time>
      </trkpt>
      <trkpt lat="47.11915" lon="-1.52545">
        <ele>62</ele>
        <time>2021-03-21T08:39:34.000Z</time>
      </trkpt>
      <trkpt lat="47.11901" lon="-1.52532">
        <ele>62</ele>
        <time>2021-03-21T08:39:36.000Z</time>
      </trkpt>
      <trkpt lat="47.11889" lon="-1.52517">
        <ele>61</ele>
        <time>2021-03-21T08:39:38.000Z</time>
      </trkpt>
      <trkpt lat="47.11878" lon="-1.52502">
        <ele>61</ele>
        <time>2021-03-21T08:39:40.000Z</time>
      </trkpt>
      <trkpt lat="47.11868" lon="-1.52489">
        <ele>62</ele>
        <time>2021-03-21T08:39:42.000Z</time>
      </trkpt>
      <trkpt lat="47.11858" lon="-1.52476">
        <ele>62</ele>
        <time>2021-03-21T08:39:44.000Z</time>
      </trkpt>
      <trkpt lat="47.11848" lon="-1.52463">
        <ele>62</ele>
        <time>2021-03-21T08:39:46.000Z</time>
      </trkpt>
      <trkpt lat="47.11838" lon="-1.5245">
        <ele>63</ele>
        <time>2021-03-21T08:39:48.000Z</time>
      </trkpt>
      <trkpt lat="47.11829" lon="-1.52437">
        <ele>63</ele>
        <time>2021-03-21T08:39:50.000Z</time>
      </trkpt>
      <trkpt lat="47.11819" lon="-1.52423">
        <ele>64</ele>
        <time>2021-03-21T08:39:52.000Z</time>
      </trkpt>
      <trkpt lat="47.11809" lon="-1.52409">
        <ele>64</ele>
        <time>2021-03-21T08:39:54.000Z</time>
      </trkpt>
      <trkpt lat="47.118" lon="-1.52397">
        <ele>64</ele>
        <time>2021-03-21T08:39:56.000Z</time>
      </trkpt>
      <trkpt lat="47.1179" lon="-1.52385">
        <ele>65</ele>
        <time>2021-03-21T08:39:58.000Z</time>
      </trkpt>
      <trkpt lat="47.11782" lon="-1.52373">
        <ele>65</ele>
        <time>2021-03-21T08:40:00.000Z</time>
      </trkpt>
      <trkpt lat="47.11772" lon="-1.52361">
        <ele>66</ele>
        <time>2021-03-21T08:40:02.000Z</time>
      </trkpt>
      <trkpt lat="47.11762" lon="-1.52348">
        <ele>67</ele>
        <time>2021-03-21T08:40:04.000Z</time>
      </trkpt>
      <trkpt lat="47.11753" lon="-1.52336">
        <ele>67</ele>
        <time>2021-03-21T08:40:06.000Z</time>
      </trkpt>
      <trkpt lat="47.11745" lon="-1.52324">
        <ele>66</ele>
        <time>2021-03-21T08:40:08.000Z</time>
      </trkpt>
      <trkpt lat="47.11735" lon="-1.52312">
        <ele>66</ele>
        <time>2021-03-21T08:40:10.000Z</time>
      </trkpt>
      <trkpt lat="47.11725" lon="-1.52302">
        <ele>66</ele>
        <time>2021-03-21T08:40:12.000Z</time>
      </trkpt>
      <trkpt lat="47.11715" lon="-1.52295">
        <ele>67</ele>
        <time>2021-03-21T08:40:14.000Z</time>
      </trkpt>
      <trkpt lat="47.11704" lon="-1.52288">
        <ele>67</ele>
        <time>2021-03-21T08:40:16.000Z</time>
      </trkpt>
      <trkpt lat="47.11693" lon="-1.52281">
        <ele>67</ele>
        <time>2021-03-21T08:40:18.000Z</time>
      </trkpt>
      <trkpt lat="47.1168" lon="-1.52274">
        <ele>66</ele>
        <time>2021-03-21T08:40:20.000Z</time>
      </trkpt>
      <trkpt lat="47.11666" lon="-1.52266">
        <ele>66</ele>
        <time>2021-03-21T08:40:22.000Z</time>
      </trkpt>
      <trkpt lat="47.11652" lon="-1.52258">
        <ele>66</ele>
        <time>2021-03-21T08:40:24.000Z</time>
      </trkpt>
      <trkpt lat="47.11638" lon="-1.52248">
        <ele>65</ele>
        <time>2021-03-21T08:40:26.000Z</time>
      </trkpt>
      <trkpt lat="47.11622" lon="-1.52239">
        <ele>64</ele>
        <time>2021-03-21T08:40:28.000Z</time>
      </trkpt>
      <trkpt lat="47.11607" lon="-1.52229">
        <ele>63</ele>
        <time>2021-03-21T08:40:30.000Z</time>
      </trkpt>
      <trkpt lat="47.11593" lon="-1.52217">
        <ele>63</ele>
        <time>2021-03-21T08:40:32.000Z</time>
      </trkpt>
      <trkpt lat="47.1158" lon="-1.52201">
        <ele>62</ele>
        <time>2021-03-21T08:40:34.000Z</time>
      </trkpt>
      <trkpt lat="47.11568" lon="-1.52184">
        <ele>62</ele>
        <time>2021-03-21T08:40:36.000Z</time>
      </trkpt>
      <trkpt lat="47.11557" lon="-1.52164">
        <ele>62</ele>
        <time>2021-03-21T08:40:38.000Z</time>
      </trkpt>
      <trkpt lat="47.11546" lon="-1.52145">
        <ele>61</ele>
        <time>2021-03-21T08:40:40.000Z</time>
      </trkpt>
      <trkpt lat="47.11536" lon="-1.52126">
        <ele>61</ele>
        <time>2021-03-21T08:40:42.000Z</time>
      </trkpt>
      <trkpt lat="47.11526" lon="-1.52108">
        <ele>60</ele>
        <time>2021-03-21T08:40:44.000Z</time>
      </trkpt>
      <trkpt lat="47.11515" lon="-1.5209">
        <ele>60</ele>
        <time>2021-03-21T08:40:46.000Z</time>
      </trkpt>
      <trkpt lat="47.11505" lon="-1.52071">
        <ele>59</ele>
        <time>2021-03-21T08:40:48.000Z</time>
      </trkpt>
      <trkpt lat="47.11495" lon="-1.52054">
        <ele>59</ele>
        <time>2021-03-21T08:40:50.000Z</time>
      </trkpt>
      <trkpt lat="47.11485" lon="-1.52036">
        <ele>59</ele>
        <time>2021-03-21T08:40:52.000Z</time>
      </trkpt>
      <trkpt lat="47.11475" lon="-1.52018">
        <ele>58</ele>
        <time>2021-03-21T08:40:54.000Z</time>
      </trkpt>
      <trkpt lat="47.11466" lon="-1.52002">
        <ele>58</ele>
        <time>2021-03-21T08:40:56.000Z</time>
      </trkpt>
      <trkpt lat="47.11457" lon="-1.51985">
        <ele>58</ele>
        <time>2021-03-21T08:40:58.000Z</time>
      </trkpt>
      <trkpt lat="47.11448" lon="-1.51968">
        <ele>58</ele>
        <time>2021-03-21T08:41:00.000Z</time>
      </trkpt>
      <trkpt lat="47.11438" lon="-1.51952">
        <ele>58</ele>
        <time>2021-03-21T08:41:02.000Z</time>
      </trkpt>
      <trkpt lat="47.11429" lon="-1.51936">
        <ele>58</ele>
        <time>2021-03-21T08:41:04.000Z</time>
      </trkpt>
      <trkpt lat="47.11419" lon="-1.51919">
        <ele>58</ele>
        <time>2021-03-21T08:41:06.000Z</time>
      </trkpt>
      <trkpt lat="47.11411" lon="-1.51903">
        <ele>58</ele>
        <time>2021-03-21T08:41:08.000Z</time>
      </trkpt>
      <trkpt lat="47.11401" lon="-1.51886">
        <ele>58</ele>
        <time>2021-03-21T08:41:10.000Z</time>
      </trkpt>
      <trkpt lat="47.11393" lon="-1.51869">
        <ele>58</ele>
        <time>2021-03-21T08:41:12.000Z</time>
      </trkpt>
      <trkpt lat="47.11384" lon="-1.51853">
        <ele>58</ele>
        <time>2021-03-21T08:41:14.000Z</time>
      </trkpt>
      <trkpt lat="47.11375" lon="-1.51837">
        <ele>58</ele>
        <time>2021-03-21T08:41:16.000Z</time>
      </trkpt>
      <trkpt lat="47.11366" lon="-1.5182">
        <ele>57</ele>
        <time>2021-03-21T08:41:18.000Z</time>
      </trkpt>
      <trkpt lat="47.11356" lon="-1.51806">
        <ele>57</ele>
        <time>2021-03-21T08:41:20.000Z</time>
      </trkpt>
      <trkpt lat="47.11345" lon="-1.51793">
        <ele>56</ele>
        <time>2021-03-21T08:41:22.000Z</time>
      </trkpt>
      <trkpt lat="47.11333" lon="-1.51783">
        <ele>56</ele>
        <time>2021-03-21T08:41:24.000Z</time>
      </trkpt>
      <trkpt lat="47.11321" lon="-1.51772">
        <ele>57</ele>
        <time>2021-03-21T08:41:26.000Z</time>
      </trkpt>
      <trkpt lat="47.11309" lon="-1.51762">
        <ele>57</ele>
        <time>2021-03-21T08:41:28.000Z</time>
      </trkpt>
      <trkpt lat="47.11298" lon="-1.51752">
        <ele>57</ele>
        <time>2021-03-21T08:41:30.000Z</time>
      </trkpt>
      <trkpt lat="47.11287" lon="-1.51743">
        <ele>57</ele>
        <time>2021-03-21T08:41:32.000Z</time>
      </trkpt>
      <trkpt lat="47.11275" lon="-1.51733">
        <ele>58</ele>
        <time>2021-03-21T08:41:34.000Z</time>
      </trkpt>
      <trkpt lat="47.11263" lon="-1.51723">
        <ele>58</ele>
        <time>2021-03-21T08:41:36.000Z</time>
      </trkpt>
      <trkpt lat="47.11252" lon="-1.51713">
        <ele>58</ele>
        <time>2021-03-21T08:41:38.000Z</time>
      </trkpt>
      <trkpt lat="47.11241" lon="-1.51703">
        <ele>59</ele>
        <time>2021-03-21T08:41:40.000Z</time>
      </trkpt>
      <trkpt lat="47.1123" lon="-1.51693">
        <ele>59</ele>
        <time>2021-03-21T08:41:42.000Z</time>
      </trkpt>
      <trkpt lat="47.1122" lon="-1.51684">
        <ele>59</ele>
        <time>2021-03-21T08:41:44.000Z</time>
      </trkpt>
      <trkpt lat="47.11209" lon="-1.51675">
        <ele>60</ele>
        <time>2021-03-21T08:41:46.000Z</time>
      </trkpt>
      <trkpt lat="47.11199" lon="-1.51665">
        <ele>61</ele>
        <time>2021-03-21T08:41:48.000Z</time>
      </trkpt>
      <trkpt lat="47.1119" lon="-1.51654">
        <ele>62</ele>
        <time>2021-03-21T08:41:50.000Z</time>
      </trkpt>
      <trkpt lat="47.1118" lon="-1.51643">
        <ele>62</ele>
        <time>2021-03-21T08:41:52.000Z</time>
      </trkpt>
      <trkpt lat="47.11172" lon="-1.51629">
        <ele>63</ele>
        <time>2021-03-21T08:41:54.000Z</time>
      </trkpt>
      <trkpt lat="47.11163" lon="-1.51616">
        <ele>64</ele>
        <time>2021-03-21T08:41:56.000Z</time>
      </trkpt>
      <trkpt lat="47.11155" lon="-1.51603">
        <ele>64</ele>
        <time>2021-03-21T08:41:58.000Z</time>
      </trkpt>
      <trkpt lat="47.11146" lon="-1.51589">
        <ele>65</ele>
        <time>2021-03-21T08:42:00.000Z</time>
      </trkpt>
      <trkpt lat="47.11138" lon="-1.51576">
        <ele>66</ele>
        <time>2021-03-21T08:42:02.000Z</time>
      </trkpt>
      <trkpt lat="47.1113" lon="-1.51563">
        <ele>66</ele>
        <time>2021-03-21T08:42:04.000Z</time>
      </trkpt>
      <trkpt lat="47.11122" lon="-1.5155">
        <ele>66</ele>
        <time>2021-03-21T08:42:06.000Z</time>
      </trkpt>
      <trkpt lat="47.11113" lon="-1.51537">
        <ele>66</ele>
        <time>2021-03-21T08:42:08.000Z</time>
      </trkpt>
      <trkpt lat="47.11105" lon="-1.51524">
        <ele>67</ele>
        <time>2021-03-21T08:42:10.000Z</time>
      </trkpt>
      <trkpt lat="47.11096" lon="-1.51511">
        <ele>67</ele>
        <time>2021-03-21T08:42:12.000Z</time>
      </trkpt>
      <trkpt lat="47.11087" lon="-1.51498">
        <ele>67</ele>
        <time>2021-03-21T08:42:14.000Z</time>
      </trkpt>
      <trkpt lat="47.11078" lon="-1.51488">
        <ele>68</ele>
        <time>2021-03-21T08:42:16.000Z</time>
      </trkpt>
      <trkpt lat="47.11068" lon="-1.51477">
        <ele>68</ele>
        <time>2021-03-21T08:42:18.000Z</time>
      </trkpt>
      <trkpt lat="47.11058" lon="-1.51467">
        <ele>68</ele>
        <time>2021-03-21T08:42:20.000Z</time>
      </trkpt>
      <trkpt lat="47.11047" lon="-1.51457">
        <ele>68</ele>
        <time>2021-03-21T08:42:22.000Z</time>
      </trkpt>
      <trkpt lat="47.11037" lon="-1.51447">
        <ele>68</ele>
        <time>2021-03-21T08:42:24.000Z</time>
      </trkpt>
      <trkpt lat="47.11027" lon="-1.51437">
        <ele>68</ele>
        <time>2021-03-21T08:42:26.000Z</time>
      </trkpt>
      <trkpt lat="47.11016" lon="-1.51427">
        <ele>69</ele>
        <time>2021-03-21T08:42:28.000Z</time>
      </trkpt>
      <trkpt lat="47.11006" lon="-1.51418">
        <ele>68</ele>
        <time>2021-03-21T08:42:30.000Z</time>
      </trkpt>
      <trkpt lat="47.10996" lon="-1.51407">
        <ele>68</ele>
        <time>2021-03-21T08:42:32.000Z</time>
      </trkpt>
      <trkpt lat="47.10985" lon="-1.51398">
        <ele>68</ele>
        <time>2021-03-21T08:42:34.000Z</time>
      </trkpt>
      <trkpt lat="47.10975" lon="-1.51388">
        <ele>68</ele>
        <time>2021-03-21T08:42:36.000Z</time>
      </trkpt>
      <trkpt lat="47.10965" lon="-1.51379">
        <ele>68</ele>
        <time>2021-03-21T08:42:38.000Z</time>
      </trkpt>
      <trkpt lat="47.10955" lon="-1.51369">
        <ele>68</ele>
        <time>2021-03-21T08:42:40.000Z</time>
      </trkpt>
      <trkpt lat="47.10945" lon="-1.51358">
        <ele>68</ele>
        <time>2021-03-21T08:42:42.000Z</time>
      </trkpt>
      <trkpt lat="47.10934" lon="-1.51348">
        <ele>68</ele>
        <time>2021-03-21T08:42:44.000Z</time>
      </trkpt>
      <trkpt lat="47.10923" lon="-1.51338">
        <ele>68</ele>
        <time>2021-03-21T08:42:46.000Z</time>
      </trkpt>
      <trkpt lat="47.10912" lon="-1.51328">
        <ele>68</ele>
        <time>2021-03-21T08:42:48.000Z</time>
      </trkpt>
      <trkpt lat="47.10901" lon="-1.51317">
        <ele>68</ele>
        <time>2021-03-21T08:42:50.000Z</time>
      </trkpt>
      <trkpt lat="47.10891" lon="-1.51307">
        <ele>68</ele>
        <time>2021-03-21T08:42:52.000Z</time>
      </trkpt>
      <trkpt lat="47.1088" lon="-1.51296">
        <ele>68</ele>
        <time>2021-03-21T08:42:54.000Z</time>
      </trkpt>
      <trkpt lat="47.10869" lon="-1.51286">
        <ele>68</ele>
        <time>2021-03-21T08:42:56.000Z</time>
      </trkpt>
      <trkpt lat="47.10859" lon="-1.51275">
        <ele>68</ele>
        <time>2021-03-21T08:42:58.000Z</time>
      </trkpt>
      <trkpt lat="47.10848" lon="-1.51265">
        <ele>68</ele>
        <time>2021-03-21T08:43:00.000Z</time>
      </trkpt>
      <trkpt lat="47.10837" lon="-1.51256">
        <ele>68</ele>
        <time>2021-03-21T08:43:02.000Z</time>
      </trkpt>
      <trkpt lat="47.10826" lon="-1.51246">
        <ele>68</ele>
        <time>2021-03-21T08:43:04.000Z</time>
      </trkpt>
      <trkpt lat="47.10816" lon="-1.51236">
        <ele>68</ele>
        <time>2021-03-21T08:43:06.000Z</time>
      </trkpt>
      <trkpt lat="47.10805" lon="-1.51225">
        <ele>68</ele>
        <time>2021-03-21T08:43:08.000Z</time>
      </trkpt>
      <trkpt lat="47.10794" lon="-1.51214">
        <ele>68</ele>
        <time>2021-03-21T08:43:10.000Z</time>
      </trkpt>
      <trkpt lat="47.10784" lon="-1.51204">
        <ele>68</ele>
        <time>2021-03-21T08:43:12.000Z</time>
      </trkpt>
      <trkpt lat="47.10773" lon="-1.51194">
        <ele>68</ele>
        <time>2021-03-21T08:43:14.000Z</time>
      </trkpt>
      <trkpt lat="47.10762" lon="-1.51183">
        <ele>67</ele>
        <time>2021-03-21T08:43:16.000Z</time>
      </trkpt>
      <trkpt lat="47.10751" lon="-1.51173">
        <ele>67</ele>
        <time>2021-03-21T08:43:18.000Z</time>
      </trkpt>
      <trkpt lat="47.10741" lon="-1.51162">
        <ele>67</ele>
        <time>2021-03-21T08:43:20.000Z</time>
      </trkpt>
      <trkpt lat="47.1073" lon="-1.51152">
        <ele>67</ele>
        <time>2021-03-21T08:43:22.000Z</time>
      </trkpt>
      <trkpt lat="47.10718" lon="-1.51142">
        <ele>67</ele>
        <time>2021-03-21T08:43:24.000Z</time>
      </trkpt>
      <trkpt lat="47.10707" lon="-1.51131">
        <ele>67</ele>
        <time>2021-03-21T08:43:26.000Z</time>
      </trkpt>
      <trkpt lat="47.10696" lon="-1.51119">
        <ele>67</ele>
        <time>2021-03-21T08:43:28.000Z</time>
      </trkpt>
      <trkpt lat="47.10687" lon="-1.51103">
        <ele>67</ele>
        <time>2021-03-21T08:43:30.000Z</time>
      </trkpt>
      <trkpt lat="47.10679" lon="-1.51085">
        <ele>67</ele>
        <time>2021-03-21T08:43:32.000Z</time>
      </trkpt>
      <trkpt lat="47.10673" lon="-1.51064">
        <ele>66</ele>
        <time>2021-03-21T08:43:34.000Z</time>
      </trkpt>
      <trkpt lat="47.10666" lon="-1.51043">
        <ele>66</ele>
        <time>2021-03-21T08:43:36.000Z</time>
      </trkpt>
      <trkpt lat="47.10658" lon="-1.51023">
        <ele>65</ele>
        <time>2021-03-21T08:43:38.000Z</time>
      </trkpt>
      <trkpt lat="47.10649" lon="-1.51003">
        <ele>64</ele>
        <time>2021-03-21T08:43:40.000Z</time>
      </trkpt>
      <trkpt lat="47.10637" lon="-1.50987">
        <ele>63</ele>
        <time>2021-03-21T08:43:42.000Z</time>
      </trkpt>
      <trkpt lat="47.10624" lon="-1.50971">
        <ele>62</ele>
        <time>2021-03-21T08:43:44.000Z</time>
      </trkpt>
      <trkpt lat="47.10611" lon="-1.50957">
        <ele>61</ele>
        <time>2021-03-21T08:43:46.000Z</time>
      </trkpt>
      <trkpt lat="47.10597" lon="-1.50942">
        <ele>61</ele>
        <time>2021-03-21T08:43:48.000Z</time>
      </trkpt>
      <trkpt lat="47.10584" lon="-1.50927">
        <ele>61</ele>
        <time>2021-03-21T08:43:50.000Z</time>
      </trkpt>
      <trkpt lat="47.1057" lon="-1.50912">
        <ele>60</ele>
        <time>2021-03-21T08:43:52.000Z</time>
      </trkpt>
      <trkpt lat="47.10557" lon="-1.50898">
        <ele>61</ele>
        <time>2021-03-21T08:43:54.000Z</time>
      </trkpt>
      <trkpt lat="47.10544" lon="-1.50883">
        <ele>61</ele>
        <time>2021-03-21T08:43:56.000Z</time>
      </trkpt>
      <trkpt lat="47.10532" lon="-1.50868">
        <ele>61</ele>
        <time>2021-03-21T08:43:58.000Z</time>
      </trkpt>
      <trkpt lat="47.10522" lon="-1.5085">
        <ele>61</ele>
        <time>2021-03-21T08:44:00.000Z</time>
      </trkpt>
      <trkpt lat="47.10512" lon="-1.50832">
        <ele>62</ele>
        <time>2021-03-21T08:44:02.000Z</time>
      </trkpt>
      <trkpt lat="47.10501" lon="-1.50812">
        <ele>61</ele>
        <time>2021-03-21T08:44:04.000Z</time>
      </trkpt>
      <trkpt lat="47.10489" lon="-1.50793">
        <ele>61</ele>
        <time>2021-03-21T08:44:06.000Z</time>
      </trkpt>
      <trkpt lat="47.10479" lon="-1.50774">
        <ele>60</ele>
        <time>2021-03-21T08:44:08.000Z</time>
      </trkpt>
      <trkpt lat="47.1047" lon="-1.50754">
        <ele>60</ele>
        <time>2021-03-21T08:44:10.000Z</time>
      </trkpt>
      <trkpt lat="47.10464" lon="-1.50732">
        <ele>60</ele>
        <time>2021-03-21T08:44:12.000Z</time>
      </trkpt>
      <trkpt lat="47.10458" lon="-1.5071">
        <ele>60</ele>
        <time>2021-03-21T08:44:14.000Z</time>
      </trkpt>
      <trkpt lat="47.10453" lon="-1.50689">
        <ele>59</ele>
        <time>2021-03-21T08:44:16.000Z</time>
      </trkpt>
      <trkpt lat="47.10447" lon="-1.50669">
        <ele>59</ele>
        <time>2021-03-21T08:44:18.000Z</time>
      </trkpt>
      <trkpt lat="47.10439" lon="-1.50651">
        <ele>59</ele>
        <time>2021-03-21T08:44:20.000Z</time>
      </trkpt>
      <trkpt lat="47.10429" lon="-1.50638">
        <ele>58</ele>
        <time>2021-03-21T08:44:22.000Z</time>
      </trkpt>
      <trkpt lat="47.10417" lon="-1.50626">
        <ele>58</ele>
        <time>2021-03-21T08:44:24.000Z</time>
      </trkpt>
      <trkpt lat="47.10404" lon="-1.50617">
        <ele>58</ele>
        <time>2021-03-21T08:44:26.000Z</time>
      </trkpt>
      <trkpt lat="47.10392" lon="-1.50607">
        <ele>59</ele>
        <time>2021-03-21T08:44:28.000Z</time>
      </trkpt>
      <trkpt lat="47.10382" lon="-1.50594">
        <ele>59</ele>
        <time>2021-03-21T08:44:30.000Z</time>
      </trkpt>
      <trkpt lat="47.10372" lon="-1.5058">
        <ele>59</ele>
        <time>2021-03-21T08:44:32.000Z</time>
      </trkpt>
      <trkpt lat="47.10362" lon="-1.50564">
        <ele>59</ele>
        <time>2021-03-21T08:44:34.000Z</time>
      </trkpt>
      <trkpt lat="47.10353" lon="-1.50549">
        <ele>59</ele>
        <time>2021-03-21T08:44:36.000Z</time>
      </trkpt>
      <trkpt lat="47.10344" lon="-1.50534">
        <ele>59</ele>
        <time>2021-03-21T08:44:38.000Z</time>
      </trkpt>
      <trkpt lat="47.10335" lon="-1.50519">
        <ele>60</ele>
        <time>2021-03-21T08:44:40.000Z</time>
      </trkpt>
      <trkpt lat="47.10326" lon="-1.50504">
        <ele>60</ele>
        <time>2021-03-21T08:44:42.000Z</time>
      </trkpt>
      <trkpt lat="47.10317" lon="-1.50489">
        <ele>60</ele>
        <time>2021-03-21T08:44:44.000Z</time>
      </trkpt>
      <trkpt lat="47.10308" lon="-1.50475">
        <ele>60</ele>
        <time>2021-03-21T08:44:46.000Z</time>
      </trkpt>
      <trkpt lat="47.10299" lon="-1.50461">
        <ele>60</ele>
        <time>2021-03-21T08:44:48.000Z</time>
      </trkpt>
      <trkpt lat="47.10291" lon="-1.50446">
        <ele>60</ele>
        <time>2021-03-21T08:44:50.000Z</time>
      </trkpt>
      <trkpt lat="47.10282" lon="-1.50432">
        <ele>61</ele>
        <time>2021-03-21T08:44:52.000Z</time>
      </trkpt>
      <trkpt lat="47.10274" lon="-1.50418">
        <ele>61</ele>
        <time>2021-03-21T08:44:54.000Z</time>
      </trkpt>
      <trkpt lat="47.10265" lon="-1.50403">
        <ele>62</ele>
        <time>2021-03-21T08:44:56.000Z</time>
      </trkpt>
      <trkpt lat="47.10258" lon="-1.5039">
        <ele>62</ele>
        <time>2021-03-21T08:44:58.000Z</time>
      </trkpt>
      <trkpt lat="47.10249" lon="-1.50376">
        <ele>62</ele>
        <time>2021-03-21T08:45:00.000Z</time>
      </trkpt>
      <trkpt lat="47.10241" lon="-1.50363">
        <ele>62</ele>
        <time>2021-03-21T08:45:02.000Z</time>
      </trkpt>
      <trkpt lat="47.10233" lon="-1.5035">
        <ele>63</ele>
        <time>2021-03-21T08:45:04.000Z</time>
      </trkpt>
      <trkpt lat="47.10225" lon="-1.50338">
        <ele>63</ele>
        <time>2021-03-21T08:45:06.000Z</time>
      </trkpt>
      <trkpt lat="47.10218" lon="-1.50325">
        <ele>64</ele>
        <time>2021-03-21T08:45:08.000Z</time>
      </trkpt>
      <trkpt lat="47.10209" lon="-1.50314">
        <ele>65</ele>
        <time>2021-03-21T08:45:10.000Z</time>
      </trkpt>
      <trkpt lat="47.10201" lon="-1.50305">
        <ele>66</ele>
        <time>2021-03-21T08:45:12.000Z</time>
      </trkpt>
      <trkpt lat="47.10191" lon="-1.50297">
        <ele>66</ele>
        <time>2021-03-21T08:45:14.000Z</time>
      </trkpt>
      <trkpt lat="47.1018" lon="-1.50288">
        <ele>66</ele>
        <time>2021-03-21T08:45:16.000Z</time>
      </trkpt>
      <trkpt lat="47.1017" lon="-1.50281">
        <ele>66</ele>
        <time>2021-03-21T08:45:18.000Z</time>
      </trkpt>
      <trkpt lat="47.1016" lon="-1.50273">
        <ele>67</ele>
        <time>2021-03-21T08:45:20.000Z</time>
      </trkpt>
      <trkpt lat="47.1015" lon="-1.50266">
        <ele>67</ele>
        <time>2021-03-21T08:45:22.000Z</time>
      </trkpt>
      <trkpt lat="47.10139" lon="-1.50258">
        <ele>67</ele>
        <time>2021-03-21T08:45:24.000Z</time>
      </trkpt>
      <trkpt lat="47.10129" lon="-1.5025">
        <ele>67</ele>
        <time>2021-03-21T08:45:26.000Z</time>
      </trkpt>
      <trkpt lat="47.10119" lon="-1.50242">
        <ele>67</ele>
        <time>2021-03-21T08:45:28.000Z</time>
      </trkpt>
      <trkpt lat="47.1011" lon="-1.50234">
        <ele>67</ele>
        <time>2021-03-21T08:45:30.000Z</time>
      </trkpt>
      <trkpt lat="47.101" lon="-1.50224">
        <ele>68</ele>
        <time>2021-03-21T08:45:32.000Z</time>
      </trkpt>
      <trkpt lat="47.10093" lon="-1.50213">
        <ele>68</ele>
        <time>2021-03-21T08:45:34.000Z</time>
      </trkpt>
      <trkpt lat="47.10088" lon="-1.50198">
        <ele>68</ele>
        <time>2021-03-21T08:45:36.000Z</time>
      </trkpt>
      <trkpt lat="47.10084" lon="-1.50183">
        <ele>68</ele>
        <time>2021-03-21T08:45:38.000Z</time>
      </trkpt>
      <trkpt lat="47.10082" lon="-1.50166">
        <ele>68</ele>
        <time>2021-03-21T08:45:40.000Z</time>
      </trkpt>
      <trkpt lat="47.10081" lon="-1.50148">
        <ele>69</ele>
        <time>2021-03-21T08:45:42.000Z</time>
      </trkpt>
      <trkpt lat="47.10081" lon="-1.50131">
        <ele>68</ele>
        <time>2021-03-21T08:45:44.000Z</time>
      </trkpt>
      <trkpt lat="47.1008" lon="-1.50115">
        <ele>69</ele>
        <time>2021-03-21T08:45:46.000Z</time>
      </trkpt>
      <trkpt lat="47.1008" lon="-1.50098">
        <ele>69</ele>
        <time>2021-03-21T08:45:48.000Z</time>
      </trkpt>
      <trkpt lat="47.10079" lon="-1.50082">
        <ele>69</ele>
        <time>2021-03-21T08:45:50.000Z</time>
      </trkpt>
      <trkpt lat="47.10079" lon="-1.50065">
        <ele>69</ele>
        <time>2021-03-21T08:45:52.000Z</time>
      </trkpt>
      <trkpt lat="47.10078" lon="-1.50049">
        <ele>70</ele>
        <time>2021-03-21T08:45:54.000Z</time>
      </trkpt>
      <trkpt lat="47.10078" lon="-1.50033">
        <ele>70</ele>
        <time>2021-03-21T08:45:56.000Z</time>
      </trkpt>
      <trkpt lat="47.10077" lon="-1.50015">
        <ele>70</ele>
        <time>2021-03-21T08:45:58.000Z</time>
      </trkpt>
      <trkpt lat="47.10076" lon="-1.49999">
        <ele>71</ele>
        <time>2021-03-21T08:46:00.000Z</time>
      </trkpt>
      <trkpt lat="47.10076" lon="-1.49982">
        <ele>70</ele>
        <time>2021-03-21T08:46:02.000Z</time>
      </trkpt>
      <trkpt lat="47.10075" lon="-1.49965">
        <ele>70</ele>
        <time>2021-03-21T08:46:04.000Z</time>
      </trkpt>
      <trkpt lat="47.10074" lon="-1.49948">
        <ele>70</ele>
        <time>2021-03-21T08:46:06.000Z</time>
      </trkpt>
      <trkpt lat="47.10073" lon="-1.49931">
        <ele>70</ele>
        <time>2021-03-21T08:46:08.000Z</time>
      </trkpt>
      <trkpt lat="47.10071" lon="-1.49912">
        <ele>69</ele>
        <time>2021-03-21T08:46:10.000Z</time>
      </trkpt>
      <trkpt lat="47.10067" lon="-1.49895">
        <ele>69</ele>
        <time>2021-03-21T08:46:12.000Z</time>
      </trkpt>
      <trkpt lat="47.10062" lon="-1.49877">
        <ele>69</ele>
        <time>2021-03-21T08:46:14.000Z</time>
      </trkpt>
      <trkpt lat="47.10057" lon="-1.4986">
        <ele>68</ele>
        <time>2021-03-21T08:46:16.000Z</time>
      </trkpt>
      <trkpt lat="47.1005" lon="-1.49842">
        <ele>67</ele>
        <time>2021-03-21T08:46:18.000Z</time>
      </trkpt>
      <trkpt lat="47.10042" lon="-1.49825">
        <ele>67</ele>
        <time>2021-03-21T08:46:20.000Z</time>
      </trkpt>
      <trkpt lat="47.10035" lon="-1.49808">
        <ele>68</ele>
        <time>2021-03-21T08:46:22.000Z</time>
      </trkpt>
      <trkpt lat="47.10027" lon="-1.49792">
        <ele>67</ele>
        <time>2021-03-21T08:46:24.000Z</time>
      </trkpt>
      <trkpt lat="47.1002" lon="-1.49776">
        <ele>67</ele>
        <time>2021-03-21T08:46:26.000Z</time>
      </trkpt>
      <trkpt lat="47.10013" lon="-1.49759">
        <ele>67</ele>
        <time>2021-03-21T08:46:28.000Z</time>
      </trkpt>
      <trkpt lat="47.10006" lon="-1.49741">
        <ele>67</ele>
        <time>2021-03-21T08:46:30.000Z</time>
      </trkpt>
      <trkpt lat="47.09998" lon="-1.49725">
        <ele>67</ele>
        <time>2021-03-21T08:46:32.000Z</time>
      </trkpt>
      <trkpt lat="47.09991" lon="-1.4971">
        <ele>67</ele>
        <time>2021-03-21T08:46:34.000Z</time>
      </trkpt>
      <trkpt lat="47.09984" lon="-1.49695">
        <ele>67</ele>
        <time>2021-03-21T08:46:36.000Z</time>
      </trkpt>
      <trkpt lat="47.09978" lon="-1.4968">
        <ele>67</ele>
        <time>2021-03-21T08:46:38.000Z</time>
      </trkpt>
      <trkpt lat="47.09971" lon="-1.49664">
        <ele>68</ele>
        <time>2021-03-21T08:46:40.000Z</time>
      </trkpt>
      <trkpt lat="47.09964" lon="-1.49649">
        <ele>68</ele>
        <time>2021-03-21T08:46:42.000Z</time>
      </trkpt>
      <trkpt lat="47.09957" lon="-1.49634">
        <ele>69</ele>
        <time>2021-03-21T08:46:44.000Z</time>
      </trkpt>
      <trkpt lat="47.0995" lon="-1.49619">
        <ele>69</ele>
        <time>2021-03-21T08:46:46.000Z</time>
      </trkpt>
      <trkpt lat="47.09944" lon="-1.49604">
        <ele>69</ele>
        <time>2021-03-21T08:46:48.000Z</time>
      </trkpt>
      <trkpt lat="47.09937" lon="-1.49589">
        <ele>69</ele>
        <time>2021-03-21T08:46:50.000Z</time>
      </trkpt>
      <trkpt lat="47.09931" lon="-1.49574">
        <ele>70</ele>
        <time>2021-03-21T08:46:52.000Z</time>
      </trkpt>
      <trkpt lat="47.09924" lon="-1.49558">
        <ele>70</ele>
        <time>2021-03-21T08:46:54.000Z</time>
      </trkpt>
      <trkpt lat="47.09917" lon="-1.49543">
        <ele>71</ele>
        <time>2021-03-21T08:46:56.000Z</time>
      </trkpt>
      <trkpt lat="47.09911" lon="-1.49528">
        <ele>71</ele>
        <time>2021-03-21T08:46:58.000Z</time>
      </trkpt>
      <trkpt lat="47.09905" lon="-1.49512">
        <ele>70</ele>
        <time>2021-03-21T08:47:00.000Z</time>
      </trkpt>
      <trkpt lat="47.09899" lon="-1.49498">
        <ele>70</ele>
        <time>2021-03-21T08:47:02.000Z</time>
      </trkpt>
      <trkpt lat="47.09893" lon="-1.49482">
        <ele>70</ele>
        <time>2021-03-21T08:47:04.000Z</time>
      </trkpt>
      <trkpt lat="47.09887" lon="-1.49467">
        <ele>70</ele>
        <time>2021-03-21T08:47:06.000Z</time>
      </trkpt>
      <trkpt lat="47.09883" lon="-1.49452">
        <ele>70</ele>
        <time>2021-03-21T08:47:08.000Z</time>
      </trkpt>
      <trkpt lat="47.09878" lon="-1.49439">
        <ele>71</ele>
        <time>2021-03-21T08:47:10.000Z</time>
      </trkpt>
      <trkpt lat="47.09877" lon="-1.49422">
        <ele>71</ele>
        <time>2021-03-21T08:47:12.000Z</time>
      </trkpt>
      <trkpt lat="47.09874" lon="-1.49405">
        <ele>71</ele>
        <time>2021-03-21T08:47:14.000Z</time>
      </trkpt>
      <trkpt lat="47.09872" lon="-1.49387">
        <ele>72</ele>
        <time>2021-03-21T08:47:16.000Z</time>
      </trkpt>
      <trkpt lat="47.09869" lon="-1.49371">
        <ele>72</ele>
        <time>2021-03-21T08:47:18.000Z</time>
      </trkpt>
      <trkpt lat="47.09866" lon="-1.49354">
        <ele>72</ele>
        <time>2021-03-21T08:47:20.000Z</time>
      </trkpt>
      <trkpt lat="47.09865" lon="-1.49337">
        <ele>72</ele>
        <time>2021-03-21T08:47:22.000Z</time>
      </trkpt>
      <trkpt lat="47.09862" lon="-1.49321">
        <ele>72</ele>
        <time>2021-03-21T08:47:24.000Z</time>
      </trkpt>
      <trkpt lat="47.0986" lon="-1.49304">
        <ele>72</ele>
        <time>2021-03-21T08:47:26.000Z</time>
      </trkpt>
      <trkpt lat="47.09859" lon="-1.49288">
        <ele>72</ele>
        <time>2021-03-21T08:47:28.000Z</time>
      </trkpt>
      <trkpt lat="47.09858" lon="-1.49271">
        <ele>73</ele>
        <time>2021-03-21T08:47:30.000Z</time>
      </trkpt>
      <trkpt lat="47.09857" lon="-1.49255">
        <ele>73</ele>
        <time>2021-03-21T08:47:32.000Z</time>
      </trkpt>
      <trkpt lat="47.09857" lon="-1.49238">
        <ele>72</ele>
        <time>2021-03-21T08:47:34.000Z</time>
      </trkpt>
      <trkpt lat="47.09856" lon="-1.49221">
        <ele>72</ele>
        <time>2021-03-21T08:47:36.000Z</time>
      </trkpt>
      <trkpt lat="47.09855" lon="-1.49203">
        <ele>72</ele>
        <time>2021-03-21T08:47:38.000Z</time>
      </trkpt>
      <trkpt lat="47.09855" lon="-1.49186">
        <ele>71</ele>
        <time>2021-03-21T08:47:40.000Z</time>
      </trkpt>
      <trkpt lat="47.09854" lon="-1.49168">
        <ele>71</ele>
        <time>2021-03-21T08:47:42.000Z</time>
      </trkpt>
      <trkpt lat="47.09854" lon="-1.4915">
        <ele>72</ele>
        <time>2021-03-21T08:47:44.000Z</time>
      </trkpt>
      <trkpt lat="47.09853" lon="-1.49131">
        <ele>71</ele>
        <time>2021-03-21T08:47:46.000Z</time>
      </trkpt>
      <trkpt lat="47.09854" lon="-1.49114">
        <ele>71</ele>
        <time>2021-03-21T08:47:48.000Z</time>
      </trkpt>
      <trkpt lat="47.09855" lon="-1.49095">
        <ele>71</ele>
        <time>2021-03-21T08:47:50.000Z</time>
      </trkpt>
      <trkpt lat="47.09856" lon="-1.49078">
        <ele>71</ele>
        <time>2021-03-21T08:47:52.000Z</time>
      </trkpt>
      <trkpt lat="47.09854" lon="-1.4906">
        <ele>71</ele>
        <time>2021-03-21T08:47:54.000Z</time>
      </trkpt>
      <trkpt lat="47.09851" lon="-1.49044">
        <ele>71</ele>
        <time>2021-03-21T08:47:56.000Z</time>
      </trkpt>
      <trkpt lat="47.09844" lon="-1.49031">
        <ele>69</ele>
        <time>2021-03-21T08:47:58.000Z</time>
      </trkpt>
      <trkpt lat="47.09836" lon="-1.49017">
        <ele>69</ele>
        <time>2021-03-21T08:48:00.000Z</time>
      </trkpt>
      <trkpt lat="47.0983" lon="-1.49001">
        <ele>69</ele>
        <time>2021-03-21T08:48:02.000Z</time>
      </trkpt>
      <trkpt lat="47.09824" lon="-1.48985">
        <ele>68</ele>
        <time>2021-03-21T08:48:04.000Z</time>
      </trkpt>
      <trkpt lat="47.0982" lon="-1.4897">
        <ele>68</ele>
        <time>2021-03-21T08:48:06.000Z</time>
      </trkpt>
      <trkpt lat="47.09814" lon="-1.48959">
        <ele>68</ele>
        <time>2021-03-21T08:48:08.000Z</time>
      </trkpt>
      <trkpt lat="47.09803" lon="-1.48964">
        <ele>69</ele>
        <time>2021-03-21T08:48:10.000Z</time>
      </trkpt>
      <trkpt lat="47.09795" lon="-1.48955">
        <ele>69</ele>
        <time>2021-03-21T08:48:12.000Z</time>
      </trkpt>
      <trkpt lat="47.09793" lon="-1.48939">
        <ele>70</ele>
        <time>2021-03-21T08:48:14.000Z</time>
      </trkpt>
      <trkpt lat="47.09794" lon="-1.48923">
        <ele>70</ele>
        <time>2021-03-21T08:48:16.000Z</time>
      </trkpt>
      <trkpt lat="47.09798" lon="-1.48906">
        <ele>69</ele>
        <time>2021-03-21T08:48:18.000Z</time>
      </trkpt>
      <trkpt lat="47.09795" lon="-1.48889">
        <ele>69</ele>
        <time>2021-03-21T08:48:20.000Z</time>
      </trkpt>
      <trkpt lat="47.09789" lon="-1.48871">
        <ele>69</ele>
        <time>2021-03-21T08:48:22.000Z</time>
      </trkpt>
      <trkpt lat="47.09783" lon="-1.48854">
        <ele>70</ele>
        <time>2021-03-21T08:48:24.000Z</time>
      </trkpt>
      <trkpt lat="47.09778" lon="-1.48838">
        <ele>69</ele>
        <time>2021-03-21T08:48:26.000Z</time>
      </trkpt>
      <trkpt lat="47.09772" lon="-1.48821">
        <ele>68</ele>
        <time>2021-03-21T08:48:28.000Z</time>
      </trkpt>
      <trkpt lat="47.09767" lon="-1.48803">
        <ele>69</ele>
        <time>2021-03-21T08:48:30.000Z</time>
      </trkpt>
      <trkpt lat="47.09764" lon="-1.48787">
        <ele>68</ele>
        <time>2021-03-21T08:48:32.000Z</time>
      </trkpt>
      <trkpt lat="47.09763" lon="-1.48769">
        <ele>68</ele>
        <time>2021-03-21T08:48:34.000Z</time>
      </trkpt>
      <trkpt lat="47.09768" lon="-1.48752">
        <ele>68</ele>
        <time>2021-03-21T08:48:36.000Z</time>
      </trkpt>
      <trkpt lat="47.09779" lon="-1.4874">
        <ele>68</ele>
        <time>2021-03-21T08:48:38.000Z</time>
      </trkpt>
      <trkpt lat="47.09789" lon="-1.48727">
        <ele>67</ele>
        <time>2021-03-21T08:48:40.000Z</time>
      </trkpt>
      <trkpt lat="47.09797" lon="-1.48712">
        <ele>67</ele>
        <time>2021-03-21T08:48:42.000Z</time>
      </trkpt>
      <trkpt lat="47.09804" lon="-1.48698">
        <ele>67</ele>
        <time>2021-03-21T08:48:44.000Z</time>
      </trkpt>
      <trkpt lat="47.09811" lon="-1.48684">
        <ele>67</ele>
        <time>2021-03-21T08:48:46.000Z</time>
      </trkpt>
      <trkpt lat="47.09818" lon="-1.48669">
        <ele>67</ele>
        <time>2021-03-21T08:48:48.000Z</time>
      </trkpt>
      <trkpt lat="47.09827" lon="-1.48655">
        <ele>67</ele>
        <time>2021-03-21T08:48:50.000Z</time>
      </trkpt>
      <trkpt lat="47.09835" lon="-1.48642">
        <ele>68</ele>
        <time>2021-03-21T08:48:52.000Z</time>
      </trkpt>
      <trkpt lat="47.09843" lon="-1.48628">
        <ele>68</ele>
        <time>2021-03-21T08:48:54.000Z</time>
      </trkpt>
      <trkpt lat="47.0985" lon="-1.48614">
        <ele>68</ele>
        <time>2021-03-21T08:48:56.000Z</time>
      </trkpt>
      <trkpt lat="47.09857" lon="-1.486">
        <ele>68</ele>
        <time>2021-03-21T08:48:58.000Z</time>
      </trkpt>
      <trkpt lat="47.09861" lon="-1.48584">
        <ele>67</ele>
        <time>2021-03-21T08:49:00.000Z</time>
      </trkpt>
      <trkpt lat="47.09866" lon="-1.48566">
        <ele>67</ele>
        <time>2021-03-21T08:49:02.000Z</time>
      </trkpt>
      <trkpt lat="47.09867" lon="-1.48547">
        <ele>68</ele>
        <time>2021-03-21T08:49:04.000Z</time>
      </trkpt>
      <trkpt lat="47.09868" lon="-1.48529">
        <ele>69</ele>
        <time>2021-03-21T08:49:06.000Z</time>
      </trkpt>
      <trkpt lat="47.09868" lon="-1.48511">
        <ele>68</ele>
        <time>2021-03-21T08:49:08.000Z</time>
      </trkpt>
      <trkpt lat="47.09868" lon="-1.48493">
        <ele>68</ele>
        <time>2021-03-21T08:49:10.000Z</time>
      </trkpt>
      <trkpt lat="47.09866" lon="-1.48476">
        <ele>68</ele>
        <time>2021-03-21T08:49:12.000Z</time>
      </trkpt>
      <trkpt lat="47.09864" lon="-1.48458">
        <ele>68</ele>
        <time>2021-03-21T08:49:14.000Z</time>
      </trkpt>
      <trkpt lat="47.09862" lon="-1.4844">
        <ele>68</ele>
        <time>2021-03-21T08:49:16.000Z</time>
      </trkpt>
      <trkpt lat="47.0986" lon="-1.48423">
        <ele>68</ele>
        <time>2021-03-21T08:49:18.000Z</time>
      </trkpt>
      <trkpt lat="47.09858" lon="-1.48404">
        <ele>68</ele>
        <time>2021-03-21T08:49:20.000Z</time>
      </trkpt>
      <trkpt lat="47.09857" lon="-1.48387">
        <ele>68</ele>
        <time>2021-03-21T08:49:22.000Z</time>
      </trkpt>
      <trkpt lat="47.09855" lon="-1.48369">
        <ele>69</ele>
        <time>2021-03-21T08:49:24.000Z</time>
      </trkpt>
      <trkpt lat="47.09853" lon="-1.48352">
        <ele>69</ele>
        <time>2021-03-21T08:49:26.000Z</time>
      </trkpt>
      <trkpt lat="47.09852" lon="-1.48334">
        <ele>69</ele>
        <time>2021-03-21T08:49:28.000Z</time>
      </trkpt>
      <trkpt lat="47.09851" lon="-1.48316">
        <ele>69</ele>
        <time>2021-03-21T08:49:30.000Z</time>
      </trkpt>
      <trkpt lat="47.09849" lon="-1.48298">
        <ele>69</ele>
        <time>2021-03-21T08:49:32.000Z</time>
      </trkpt>
      <trkpt lat="47.09847" lon="-1.48281">
        <ele>69</ele>
        <time>2021-03-21T08:49:34.000Z</time>
      </trkpt>
      <trkpt lat="47.09844" lon="-1.48264">
        <ele>69</ele>
        <time>2021-03-21T08:49:36.000Z</time>
      </trkpt>
      <trkpt lat="47.09842" lon="-1.48247">
        <ele>68</ele>
        <time>2021-03-21T08:49:38.000Z</time>
      </trkpt>
      <trkpt lat="47.0984" lon="-1.4823">
        <ele>68</ele>
        <time>2021-03-21T08:49:40.000Z</time>
      </trkpt>
      <trkpt lat="47.09838" lon="-1.48212">
        <ele>68</ele>
        <time>2021-03-21T08:49:42.000Z</time>
      </trkpt>
      <trkpt lat="47.09838" lon="-1.48194">
        <ele>68</ele>
        <time>2021-03-21T08:49:44.000Z</time>
      </trkpt>
      <trkpt lat="47.09839" lon="-1.48175">
        <ele>69</ele>
        <time>2021-03-21T08:49:46.000Z</time>
      </trkpt>
      <trkpt lat="47.0984" lon="-1.48157">
        <ele>68</ele>
        <time>2021-03-21T08:49:48.000Z</time>
      </trkpt>
      <trkpt lat="47.09841" lon="-1.4814">
        <ele>68</ele>
        <time>2021-03-21T08:49:50.000Z</time>
      </trkpt>
      <trkpt lat="47.09842" lon="-1.48122">
        <ele>69</ele>
        <time>2021-03-21T08:49:52.000Z</time>
      </trkpt>
      <trkpt lat="47.09842" lon="-1.48104">
        <ele>69</ele>
        <time>2021-03-21T08:49:54.000Z</time>
      </trkpt>
      <trkpt lat="47.09841" lon="-1.48086">
        <ele>69</ele>
        <time>2021-03-21T08:49:56.000Z</time>
      </trkpt>
      <trkpt lat="47.0984" lon="-1.48068">
        <ele>69</ele>
        <time>2021-03-21T08:49:58.000Z</time>
      </trkpt>
      <trkpt lat="47.09838" lon="-1.48049">
        <ele>69</ele>
        <time>2021-03-21T08:50:00.000Z</time>
      </trkpt>
      <trkpt lat="47.09837" lon="-1.48031">
        <ele>69</ele>
        <time>2021-03-21T08:50:02.000Z</time>
      </trkpt>
      <trkpt lat="47.09835" lon="-1.48013">
        <ele>69</ele>
        <time>2021-03-21T08:50:04.000Z</time>
      </trkpt>
      <trkpt lat="47.09834" lon="-1.47994">
        <ele>69</ele>
        <time>2021-03-21T08:50:06.000Z</time>
      </trkpt>
      <trkpt lat="47.09832" lon="-1.47976">
        <ele>69</ele>
        <time>2021-03-21T08:50:08.000Z</time>
      </trkpt>
      <trkpt lat="47.09831" lon="-1.47958">
        <ele>69</ele>
        <time>2021-03-21T08:50:10.000Z</time>
      </trkpt>
      <trkpt lat="47.09829" lon="-1.47939">
        <ele>69</ele>
        <time>2021-03-21T08:50:12.000Z</time>
      </trkpt>
      <trkpt lat="47.09828" lon="-1.4792">
        <ele>69</ele>
        <time>2021-03-21T08:50:14.000Z</time>
      </trkpt>
      <trkpt lat="47.09828" lon="-1.47901">
        <ele>69</ele>
        <time>2021-03-21T08:50:16.000Z</time>
      </trkpt>
      <trkpt lat="47.09827" lon="-1.47883">
        <ele>69</ele>
        <time>2021-03-21T08:50:18.000Z</time>
      </trkpt>
      <trkpt lat="47.09825" lon="-1.47866">
        <ele>69</ele>
        <time>2021-03-21T08:50:20.000Z</time>
      </trkpt>
      <trkpt lat="47.09824" lon="-1.47848">
        <ele>69</ele>
        <time>2021-03-21T08:50:22.000Z</time>
      </trkpt>
      <trkpt lat="47.09822" lon="-1.4783">
        <ele>69</ele>
        <time>2021-03-21T08:50:24.000Z</time>
      </trkpt>
      <trkpt lat="47.09821" lon="-1.47813">
        <ele>70</ele>
        <time>2021-03-21T08:50:26.000Z</time>
      </trkpt>
      <trkpt lat="47.09819" lon="-1.47795">
        <ele>70</ele>
        <time>2021-03-21T08:50:28.000Z</time>
      </trkpt>
      <trkpt lat="47.09818" lon="-1.47777">
        <ele>70</ele>
        <time>2021-03-21T08:50:30.000Z</time>
      </trkpt>
      <trkpt lat="47.09817" lon="-1.47761">
        <ele>70</ele>
        <time>2021-03-21T08:50:32.000Z</time>
      </trkpt>
      <trkpt lat="47.09816" lon="-1.47743">
        <ele>70</ele>
        <time>2021-03-21T08:50:34.000Z</time>
      </trkpt>
      <trkpt lat="47.09816" lon="-1.47726">
        <ele>71</ele>
        <time>2021-03-21T08:50:36.000Z</time>
      </trkpt>
      <trkpt lat="47.09817" lon="-1.47708">
        <ele>71</ele>
        <time>2021-03-21T08:50:38.000Z</time>
      </trkpt>
      <trkpt lat="47.09818" lon="-1.47689">
        <ele>72</ele>
        <time>2021-03-21T08:50:40.000Z</time>
      </trkpt>
      <trkpt lat="47.09819" lon="-1.47672">
        <ele>71</ele>
        <time>2021-03-21T08:50:42.000Z</time>
      </trkpt>
      <trkpt lat="47.09821" lon="-1.47656">
        <ele>72</ele>
        <time>2021-03-21T08:50:44.000Z</time>
      </trkpt>
      <trkpt lat="47.09823" lon="-1.4764">
        <ele>72</ele>
        <time>2021-03-21T08:50:46.000Z</time>
      </trkpt>
      <trkpt lat="47.09826" lon="-1.47624">
        <ele>72</ele>
        <time>2021-03-21T08:50:48.000Z</time>
      </trkpt>
      <trkpt lat="47.09828" lon="-1.4761">
        <ele>73</ele>
        <time>2021-03-21T08:50:50.000Z</time>
      </trkpt>
      <trkpt lat="47.09832" lon="-1.47596">
        <ele>73</ele>
        <time>2021-03-21T08:50:52.000Z</time>
      </trkpt>
      <trkpt lat="47.09836" lon="-1.47582">
        <ele>74</ele>
        <time>2021-03-21T08:50:54.000Z</time>
      </trkpt>
      <trkpt lat="47.09841" lon="-1.47569">
        <ele>74</ele>
        <time>2021-03-21T08:50:56.000Z</time>
      </trkpt>
      <trkpt lat="47.09846" lon="-1.47557">
        <ele>74</ele>
        <time>2021-03-21T08:50:58.000Z</time>
      </trkpt>
      <trkpt lat="47.0985" lon="-1.47544">
        <ele>75</ele>
        <time>2021-03-21T08:51:00.000Z</time>
      </trkpt>
      <trkpt lat="47.09855" lon="-1.47532">
        <ele>76</ele>
        <time>2021-03-21T08:51:02.000Z</time>
      </trkpt>
      <trkpt lat="47.09861" lon="-1.47521">
        <ele>77</ele>
        <time>2021-03-21T08:51:04.000Z</time>
      </trkpt>
      <trkpt lat="47.09867" lon="-1.47509">
        <ele>78</ele>
        <time>2021-03-21T08:51:06.000Z</time>
      </trkpt>
      <trkpt lat="47.09872" lon="-1.47497">
        <ele>78</ele>
        <time>2021-03-21T08:51:08.000Z</time>
      </trkpt>
      <trkpt lat="47.09878" lon="-1.47486">
        <ele>78</ele>
        <time>2021-03-21T08:51:10.000Z</time>
      </trkpt>
      <trkpt lat="47.09885" lon="-1.47474">
        <ele>79</ele>
        <time>2021-03-21T08:51:12.000Z</time>
      </trkpt>
      <trkpt lat="47.09891" lon="-1.47463">
        <ele>80</ele>
        <time>2021-03-21T08:51:14.000Z</time>
      </trkpt>
      <trkpt lat="47.09896" lon="-1.47451">
        <ele>80</ele>
        <time>2021-03-21T08:51:16.000Z</time>
      </trkpt>
      <trkpt lat="47.09903" lon="-1.47441">
        <ele>81</ele>
        <time>2021-03-21T08:51:18.000Z</time>
      </trkpt>
      <trkpt lat="47.09909" lon="-1.4743">
        <ele>80</ele>
        <time>2021-03-21T08:51:20.000Z</time>
      </trkpt>
      <trkpt lat="47.09916" lon="-1.47418">
        <ele>81</ele>
        <time>2021-03-21T08:51:22.000Z</time>
      </trkpt>
      <trkpt lat="47.09921" lon="-1.47407">
        <ele>81</ele>
        <time>2021-03-21T08:51:24.000Z</time>
      </trkpt>
      <trkpt lat="47.09928" lon="-1.47395">
        <ele>81</ele>
        <time>2021-03-21T08:51:26.000Z</time>
      </trkpt>
      <trkpt lat="47.09934" lon="-1.47384">
        <ele>82</ele>
        <time>2021-03-21T08:51:28.000Z</time>
      </trkpt>
      <trkpt lat="47.0994" lon="-1.47373">
        <ele>82</ele>
        <time>2021-03-21T08:51:30.000Z</time>
      </trkpt>
      <trkpt lat="47.09946" lon="-1.47362">
        <ele>83</ele>
        <time>2021-03-21T08:51:32.000Z</time>
      </trkpt>
      <trkpt lat="47.09951" lon="-1.47352">
        <ele>83</ele>
        <time>2021-03-21T08:51:34.000Z</time>
      </trkpt>
      <trkpt lat="47.09957" lon="-1.47341">
        <ele>83</ele>
        <time>2021-03-21T08:51:36.000Z</time>
      </trkpt>
      <trkpt lat="47.09962" lon="-1.4733">
        <ele>83</ele>
        <time>2021-03-21T08:51:38.000Z</time>
      </trkpt>
      <trkpt lat="47.0997" lon="-1.47316">
        <ele>83</ele>
        <time>2021-03-21T08:51:41.000Z</time>
      </trkpt>
      <trkpt lat="47.09976" lon="-1.47305">
        <ele>83</ele>
        <time>2021-03-21T08:51:43.000Z</time>
      </trkpt>
      <trkpt lat="47.09982" lon="-1.47295">
        <ele>83</ele>
        <time>2021-03-21T08:51:45.000Z</time>
      </trkpt>
      <trkpt lat="47.09987" lon="-1.47283">
        <ele>83</ele>
        <time>2021-03-21T08:51:47.000Z</time>
      </trkpt>
      <trkpt lat="47.09993" lon="-1.47272">
        <ele>82</ele>
        <time>2021-03-21T08:51:49.000Z</time>
      </trkpt>
      <trkpt lat="47.09999" lon="-1.47261">
        <ele>82</ele>
        <time>2021-03-21T08:51:51.000Z</time>
      </trkpt>
      <trkpt lat="47.10005" lon="-1.4725">
        <ele>82</ele>
        <time>2021-03-21T08:51:53.000Z</time>
      </trkpt>
      <trkpt lat="47.10012" lon="-1.47239">
        <ele>82</ele>
        <time>2021-03-21T08:51:55.000Z</time>
      </trkpt>
      <trkpt lat="47.10018" lon="-1.47226">
        <ele>82</ele>
        <time>2021-03-21T08:51:57.000Z</time>
      </trkpt>
      <trkpt lat="47.10025" lon="-1.47214">
        <ele>81</ele>
        <time>2021-03-21T08:51:59.000Z</time>
      </trkpt>
      <trkpt lat="47.10032" lon="-1.472">
        <ele>81</ele>
        <time>2021-03-21T08:52:01.000Z</time>
      </trkpt>
      <trkpt lat="47.10039" lon="-1.47186">
        <ele>81</ele>
        <time>2021-03-21T08:52:03.000Z</time>
      </trkpt>
      <trkpt lat="47.10046" lon="-1.47173">
        <ele>81</ele>
        <time>2021-03-21T08:52:05.000Z</time>
      </trkpt>
      <trkpt lat="47.10053" lon="-1.47158">
        <ele>81</ele>
        <time>2021-03-21T08:52:07.000Z</time>
      </trkpt>
      <trkpt lat="47.1006" lon="-1.47143">
        <ele>81</ele>
        <time>2021-03-21T08:52:09.000Z</time>
      </trkpt>
      <trkpt lat="47.10067" lon="-1.47127">
        <ele>80</ele>
        <time>2021-03-21T08:52:11.000Z</time>
      </trkpt>
      <trkpt lat="47.10073" lon="-1.4711">
        <ele>80</ele>
        <time>2021-03-21T08:52:13.000Z</time>
      </trkpt>
      <trkpt lat="47.10079" lon="-1.47094">
        <ele>80</ele>
        <time>2021-03-21T08:52:15.000Z</time>
      </trkpt>
      <trkpt lat="47.10084" lon="-1.47077">
        <ele>79</ele>
        <time>2021-03-21T08:52:17.000Z</time>
      </trkpt>
      <trkpt lat="47.10089" lon="-1.4706">
        <ele>79</ele>
        <time>2021-03-21T08:52:19.000Z</time>
      </trkpt>
      <trkpt lat="47.10094" lon="-1.47043">
        <ele>79</ele>
        <time>2021-03-21T08:52:21.000Z</time>
      </trkpt>
      <trkpt lat="47.10098" lon="-1.47025">
        <ele>79</ele>
        <time>2021-03-21T08:52:23.000Z</time>
      </trkpt>
      <trkpt lat="47.10103" lon="-1.47008">
        <ele>79</ele>
        <time>2021-03-21T08:52:25.000Z</time>
      </trkpt>
      <trkpt lat="47.10107" lon="-1.46992">
        <ele>79</ele>
        <time>2021-03-21T08:52:27.000Z</time>
      </trkpt>
      <trkpt lat="47.10111" lon="-1.46976">
        <ele>80</ele>
        <time>2021-03-21T08:52:29.000Z</time>
      </trkpt>
      <trkpt lat="47.10115" lon="-1.46961">
        <ele>80</ele>
        <time>2021-03-21T08:52:31.000Z</time>
      </trkpt>
      <trkpt lat="47.10119" lon="-1.46946">
        <ele>81</ele>
        <time>2021-03-21T08:52:33.000Z</time>
      </trkpt>
      <trkpt lat="47.10123" lon="-1.4693">
        <ele>81</ele>
        <time>2021-03-21T08:52:35.000Z</time>
      </trkpt>
      <trkpt lat="47.10127" lon="-1.46915">
        <ele>81</ele>
        <time>2021-03-21T08:52:37.000Z</time>
      </trkpt>
      <trkpt lat="47.10132" lon="-1.46899">
        <ele>81</ele>
        <time>2021-03-21T08:52:39.000Z</time>
      </trkpt>
      <trkpt lat="47.10135" lon="-1.46884">
        <ele>82</ele>
        <time>2021-03-21T08:52:41.000Z</time>
      </trkpt>
      <trkpt lat="47.10139" lon="-1.46869">
        <ele>82</ele>
        <time>2021-03-21T08:52:43.000Z</time>
      </trkpt>
      <trkpt lat="47.10143" lon="-1.46854">
        <ele>83</ele>
        <time>2021-03-21T08:52:45.000Z</time>
      </trkpt>
      <trkpt lat="47.10146" lon="-1.46839">
        <ele>83</ele>
        <time>2021-03-21T08:52:47.000Z</time>
      </trkpt>
      <trkpt lat="47.1015" lon="-1.46823">
        <ele>83</ele>
        <time>2021-03-21T08:52:49.000Z</time>
      </trkpt>
      <trkpt lat="47.10154" lon="-1.46808">
        <ele>84</ele>
        <time>2021-03-21T08:52:51.000Z</time>
      </trkpt>
      <trkpt lat="47.10157" lon="-1.46793">
        <ele>84</ele>
        <time>2021-03-21T08:52:53.000Z</time>
      </trkpt>
      <trkpt lat="47.1016" lon="-1.46778">
        <ele>85</ele>
        <time>2021-03-21T08:52:55.000Z</time>
      </trkpt>
      <trkpt lat="47.10163" lon="-1.46763">
        <ele>85</ele>
        <time>2021-03-21T08:52:57.000Z</time>
      </trkpt>
      <trkpt lat="47.10166" lon="-1.46747">
        <ele>86</ele>
        <time>2021-03-21T08:52:59.000Z</time>
      </trkpt>
      <trkpt lat="47.10168" lon="-1.46732">
        <ele>87</ele>
        <time>2021-03-21T08:53:01.000Z</time>
      </trkpt>
      <trkpt lat="47.10171" lon="-1.46716">
        <ele>87</ele>
        <time>2021-03-21T08:53:03.000Z</time>
      </trkpt>
      <trkpt lat="47.10173" lon="-1.46701">
        <ele>88</ele>
        <time>2021-03-21T08:53:05.000Z</time>
      </trkpt>
      <trkpt lat="47.10175" lon="-1.46686">
        <ele>88</ele>
        <time>2021-03-21T08:53:07.000Z</time>
      </trkpt>
      <trkpt lat="47.10177" lon="-1.4667">
        <ele>88</ele>
        <time>2021-03-21T08:53:09.000Z</time>
      </trkpt>
      <trkpt lat="47.1018" lon="-1.46655">
        <ele>89</ele>
        <time>2021-03-21T08:53:11.000Z</time>
      </trkpt>
      <trkpt lat="47.10181" lon="-1.46641">
        <ele>89</ele>
        <time>2021-03-21T08:53:13.000Z</time>
      </trkpt>
      <trkpt lat="47.10183" lon="-1.46626">
        <ele>89</ele>
        <time>2021-03-21T08:53:15.000Z</time>
      </trkpt>
      <trkpt lat="47.10185" lon="-1.4661">
        <ele>90</ele>
        <time>2021-03-21T08:53:17.000Z</time>
      </trkpt>
      <trkpt lat="47.10187" lon="-1.46595">
        <ele>90</ele>
        <time>2021-03-21T08:53:19.000Z</time>
      </trkpt>
      <trkpt lat="47.10189" lon="-1.46581">
        <ele>90</ele>
        <time>2021-03-21T08:53:21.000Z</time>
      </trkpt>
      <trkpt lat="47.10191" lon="-1.46566">
        <ele>91</ele>
        <time>2021-03-21T08:53:23.000Z</time>
      </trkpt>
      <trkpt lat="47.10192" lon="-1.46551">
        <ele>91</ele>
        <time>2021-03-21T08:53:25.000Z</time>
      </trkpt>
      <trkpt lat="47.10193" lon="-1.46536">
        <ele>91</ele>
        <time>2021-03-21T08:53:27.000Z</time>
      </trkpt>
      <trkpt lat="47.10195" lon="-1.4652">
        <ele>91</ele>
        <time>2021-03-21T08:53:29.000Z</time>
      </trkpt>
      <trkpt lat="47.10196" lon="-1.46505">
        <ele>91</ele>
        <time>2021-03-21T08:53:31.000Z</time>
      </trkpt>
      <trkpt lat="47.10197" lon="-1.4649">
        <ele>92</ele>
        <time>2021-03-21T08:53:33.000Z</time>
      </trkpt>
      <trkpt lat="47.10198" lon="-1.46476">
        <ele>92</ele>
        <time>2021-03-21T08:53:35.000Z</time>
      </trkpt>
      <trkpt lat="47.10199" lon="-1.46461">
        <ele>93</ele>
        <time>2021-03-21T08:53:37.000Z</time>
      </trkpt>
      <trkpt lat="47.102" lon="-1.46447">
        <ele>93</ele>
        <time>2021-03-21T08:53:39.000Z</time>
      </trkpt>
      <trkpt lat="47.102" lon="-1.46432">
        <ele>94</ele>
        <time>2021-03-21T08:53:41.000Z</time>
      </trkpt>
      <trkpt lat="47.10201" lon="-1.46417">
        <ele>94</ele>
        <time>2021-03-21T08:53:43.000Z</time>
      </trkpt>
      <trkpt lat="47.10203" lon="-1.46403">
        <ele>94</ele>
        <time>2021-03-21T08:53:45.000Z</time>
      </trkpt>
      <trkpt lat="47.10204" lon="-1.46388">
        <ele>94</ele>
        <time>2021-03-21T08:53:47.000Z</time>
      </trkpt>
      <trkpt lat="47.10207" lon="-1.46375">
        <ele>95</ele>
        <time>2021-03-21T08:53:49.000Z</time>
      </trkpt>
      <trkpt lat="47.1021" lon="-1.46361">
        <ele>95</ele>
        <time>2021-03-21T08:53:51.000Z</time>
      </trkpt>
      <trkpt lat="47.10215" lon="-1.46348">
        <ele>96</ele>
        <time>2021-03-21T08:53:53.000Z</time>
      </trkpt>
      <trkpt lat="47.10221" lon="-1.46337">
        <ele>96</ele>
        <time>2021-03-21T08:53:55.000Z</time>
      </trkpt>
      <trkpt lat="47.10227" lon="-1.46326">
        <ele>96</ele>
        <time>2021-03-21T08:53:57.000Z</time>
      </trkpt>
      <trkpt lat="47.10234" lon="-1.46315">
        <ele>96</ele>
        <time>2021-03-21T08:53:59.000Z</time>
      </trkpt>
      <trkpt lat="47.1024" lon="-1.46304">
        <ele>96</ele>
        <time>2021-03-21T08:54:01.000Z</time>
      </trkpt>
      <trkpt lat="47.10247" lon="-1.46293">
        <ele>97</ele>
        <time>2021-03-21T08:54:03.000Z</time>
      </trkpt>
      <trkpt lat="47.10254" lon="-1.46283">
        <ele>97</ele>
        <time>2021-03-21T08:54:05.000Z</time>
      </trkpt>
      <trkpt lat="47.10261" lon="-1.46273">
        <ele>97</ele>
        <time>2021-03-21T08:54:07.000Z</time>
      </trkpt>
      <trkpt lat="47.10268" lon="-1.46263">
        <ele>97</ele>
        <time>2021-03-21T08:54:09.000Z</time>
      </trkpt>
      <trkpt lat="47.10274" lon="-1.46252">
        <ele>96</ele>
        <time>2021-03-21T08:54:11.000Z</time>
      </trkpt>
      <trkpt lat="47.1028" lon="-1.46242">
        <ele>97</ele>
        <time>2021-03-21T08:54:13.000Z</time>
      </trkpt>
      <trkpt lat="47.10286" lon="-1.46232">
        <ele>97</ele>
        <time>2021-03-21T08:54:15.000Z</time>
      </trkpt>
      <trkpt lat="47.1029" lon="-1.46215">
        <ele>97</ele>
        <time>2021-03-21T08:54:18.000Z</time>
      </trkpt>
      <trkpt lat="47.10281" lon="-1.46199">
        <ele>98</ele>
        <time>2021-03-21T08:54:21.000Z</time>
      </trkpt>
      <trkpt lat="47.10275" lon="-1.46187">
        <ele>98</ele>
        <time>2021-03-21T08:54:23.000Z</time>
      </trkpt>
      <trkpt lat="47.10268" lon="-1.46175">
        <ele>99</ele>
        <time>2021-03-21T08:54:25.000Z</time>
      </trkpt>
      <trkpt lat="47.10262" lon="-1.46163">
        <ele>99</ele>
        <time>2021-03-21T08:54:27.000Z</time>
      </trkpt>
      <trkpt lat="47.10255" lon="-1.46151">
        <ele>99</ele>
        <time>2021-03-21T08:54:29.000Z</time>
      </trkpt>
      <trkpt lat="47.10248" lon="-1.4614">
        <ele>99</ele>
        <time>2021-03-21T08:54:31.000Z</time>
      </trkpt>
      <trkpt lat="47.10242" lon="-1.46128">
        <ele>100</ele>
        <time>2021-03-21T08:54:33.000Z</time>
      </trkpt>
      <trkpt lat="47.10235" lon="-1.46117">
        <ele>99</ele>
        <time>2021-03-21T08:54:35.000Z</time>
      </trkpt>
      <trkpt lat="47.10229" lon="-1.46104">
        <ele>100</ele>
        <time>2021-03-21T08:54:37.000Z</time>
      </trkpt>
      <trkpt lat="47.10222" lon="-1.46092">
        <ele>100</ele>
        <time>2021-03-21T08:54:39.000Z</time>
      </trkpt>
      <trkpt lat="47.10216" lon="-1.4608">
        <ele>100</ele>
        <time>2021-03-21T08:54:41.000Z</time>
      </trkpt>
      <trkpt lat="47.10209" lon="-1.46068">
        <ele>100</ele>
        <time>2021-03-21T08:54:43.000Z</time>
      </trkpt>
      <trkpt lat="47.10202" lon="-1.46056">
        <ele>100</ele>
        <time>2021-03-21T08:54:45.000Z</time>
      </trkpt>
      <trkpt lat="47.10196" lon="-1.46044">
        <ele>101</ele>
        <time>2021-03-21T08:54:47.000Z</time>
      </trkpt>
      <trkpt lat="47.10189" lon="-1.46032">
        <ele>101</ele>
        <time>2021-03-21T08:54:49.000Z</time>
      </trkpt>
      <trkpt lat="47.10182" lon="-1.46019">
        <ele>101</ele>
        <time>2021-03-21T08:54:51.000Z</time>
      </trkpt>
      <trkpt lat="47.10175" lon="-1.46007">
        <ele>102</ele>
        <time>2021-03-21T08:54:53.000Z</time>
      </trkpt>
      <trkpt lat="47.10168" lon="-1.45994">
        <ele>101</ele>
        <time>2021-03-21T08:54:55.000Z</time>
      </trkpt>
      <trkpt lat="47.10161" lon="-1.45982">
        <ele>101</ele>
        <time>2021-03-21T08:54:57.000Z</time>
      </trkpt>
      <trkpt lat="47.10155" lon="-1.45969">
        <ele>101</ele>
        <time>2021-03-21T08:54:59.000Z</time>
      </trkpt>
      <trkpt lat="47.10148" lon="-1.45957">
        <ele>101</ele>
        <time>2021-03-21T08:55:01.000Z</time>
      </trkpt>
      <trkpt lat="47.10141" lon="-1.45945">
        <ele>101</ele>
        <time>2021-03-21T08:55:03.000Z</time>
      </trkpt>
      <trkpt lat="47.10135" lon="-1.45933">
        <ele>101</ele>
        <time>2021-03-21T08:55:05.000Z</time>
      </trkpt>
      <trkpt lat="47.10128" lon="-1.45921">
        <ele>101</ele>
        <time>2021-03-21T08:55:07.000Z</time>
      </trkpt>
      <trkpt lat="47.10121" lon="-1.45909">
        <ele>101</ele>
        <time>2021-03-21T08:55:09.000Z</time>
      </trkpt>
      <trkpt lat="47.10114" lon="-1.45896">
        <ele>101</ele>
        <time>2021-03-21T08:55:11.000Z</time>
      </trkpt>
      <trkpt lat="47.10107" lon="-1.45883">
        <ele>101</ele>
        <time>2021-03-21T08:55:13.000Z</time>
      </trkpt>
      <trkpt lat="47.10099" lon="-1.45869">
        <ele>100</ele>
        <time>2021-03-21T08:55:15.000Z</time>
      </trkpt>
      <trkpt lat="47.10092" lon="-1.45855">
        <ele>100</ele>
        <time>2021-03-21T08:55:17.000Z</time>
      </trkpt>
      <trkpt lat="47.10084" lon="-1.45841">
        <ele>100</ele>
        <time>2021-03-21T08:55:19.000Z</time>
      </trkpt>
      <trkpt lat="47.10076" lon="-1.45827">
        <ele>100</ele>
        <time>2021-03-21T08:55:21.000Z</time>
      </trkpt>
      <trkpt lat="47.10069" lon="-1.45812">
        <ele>100</ele>
        <time>2021-03-21T08:55:23.000Z</time>
      </trkpt>
      <trkpt lat="47.10061" lon="-1.45797">
        <ele>99</ele>
        <time>2021-03-21T08:55:25.000Z</time>
      </trkpt>
      <trkpt lat="47.10053" lon="-1.45783">
        <ele>99</ele>
        <time>2021-03-21T08:55:27.000Z</time>
      </trkpt>
      <trkpt lat="47.10046" lon="-1.45768">
        <ele>99</ele>
        <time>2021-03-21T08:55:29.000Z</time>
      </trkpt>
      <trkpt lat="47.10038" lon="-1.45753">
        <ele>99</ele>
        <time>2021-03-21T08:55:31.000Z</time>
      </trkpt>
      <trkpt lat="47.1003" lon="-1.45737">
        <ele>99</ele>
        <time>2021-03-21T08:55:33.000Z</time>
      </trkpt>
      <trkpt lat="47.10022" lon="-1.45722">
        <ele>99</ele>
        <time>2021-03-21T08:55:35.000Z</time>
      </trkpt>
      <trkpt lat="47.10015" lon="-1.45706">
        <ele>98</ele>
        <time>2021-03-21T08:55:37.000Z</time>
      </trkpt>
      <trkpt lat="47.10007" lon="-1.45691">
        <ele>98</ele>
        <time>2021-03-21T08:55:39.000Z</time>
      </trkpt>
      <trkpt lat="47.09999" lon="-1.45676">
        <ele>98</ele>
        <time>2021-03-21T08:55:41.000Z</time>
      </trkpt>
      <trkpt lat="47.09991" lon="-1.45661">
        <ele>98</ele>
        <time>2021-03-21T08:55:43.000Z</time>
      </trkpt>
      <trkpt lat="47.09983" lon="-1.45646">
        <ele>99</ele>
        <time>2021-03-21T08:55:45.000Z</time>
      </trkpt>
      <trkpt lat="47.09976" lon="-1.45631">
        <ele>99</ele>
        <time>2021-03-21T08:55:47.000Z</time>
      </trkpt>
      <trkpt lat="47.09968" lon="-1.45616">
        <ele>99</ele>
        <time>2021-03-21T08:55:49.000Z</time>
      </trkpt>
      <trkpt lat="47.09961" lon="-1.45602">
        <ele>98</ele>
        <time>2021-03-21T08:55:51.000Z</time>
      </trkpt>
      <trkpt lat="47.09953" lon="-1.45588">
        <ele>98</ele>
        <time>2021-03-21T08:55:53.000Z</time>
      </trkpt>
      <trkpt lat="47.09946" lon="-1.45573">
        <ele>98</ele>
        <time>2021-03-21T08:55:55.000Z</time>
      </trkpt>
      <trkpt lat="47.09938" lon="-1.45558">
        <ele>98</ele>
        <time>2021-03-21T08:55:57.000Z</time>
      </trkpt>
      <trkpt lat="47.09931" lon="-1.45543">
        <ele>99</ele>
        <time>2021-03-21T08:55:59.000Z</time>
      </trkpt>
      <trkpt lat="47.09924" lon="-1.45527">
        <ele>99</ele>
        <time>2021-03-21T08:56:01.000Z</time>
      </trkpt>
      <trkpt lat="47.09917" lon="-1.45512">
        <ele>99</ele>
        <time>2021-03-21T08:56:03.000Z</time>
      </trkpt>
      <trkpt lat="47.0991" lon="-1.45496">
        <ele>98</ele>
        <time>2021-03-21T08:56:05.000Z</time>
      </trkpt>
      <trkpt lat="47.09903" lon="-1.4548">
        <ele>98</ele>
        <time>2021-03-21T08:56:07.000Z</time>
      </trkpt>
      <trkpt lat="47.09896" lon="-1.45465">
        <ele>97</ele>
        <time>2021-03-21T08:56:09.000Z</time>
      </trkpt>
      <trkpt lat="47.09889" lon="-1.45448">
        <ele>98</ele>
        <time>2021-03-21T08:56:11.000Z</time>
      </trkpt>
      <trkpt lat="47.09882" lon="-1.45433">
        <ele>98</ele>
        <time>2021-03-21T08:56:13.000Z</time>
      </trkpt>
      <trkpt lat="47.09875" lon="-1.45417">
        <ele>98</ele>
        <time>2021-03-21T08:56:15.000Z</time>
      </trkpt>
      <trkpt lat="47.09868" lon="-1.45401">
        <ele>97</ele>
        <time>2021-03-21T08:56:17.000Z</time>
      </trkpt>
      <trkpt lat="47.09861" lon="-1.45385">
        <ele>97</ele>
        <time>2021-03-21T08:56:19.000Z</time>
      </trkpt>
      <trkpt lat="47.09854" lon="-1.4537">
        <ele>98</ele>
        <time>2021-03-21T08:56:21.000Z</time>
      </trkpt>
      <trkpt lat="47.09847" lon="-1.45354">
        <ele>98</ele>
        <time>2021-03-21T08:56:23.000Z</time>
      </trkpt>
      <trkpt lat="47.0984" lon="-1.45337">
        <ele>97</ele>
        <time>2021-03-21T08:56:25.000Z</time>
      </trkpt>
      <trkpt lat="47.09833" lon="-1.45321">
        <ele>97</ele>
        <time>2021-03-21T08:56:27.000Z</time>
      </trkpt>
      <trkpt lat="47.09826" lon="-1.45306">
        <ele>96</ele>
        <time>2021-03-21T08:56:29.000Z</time>
      </trkpt>
      <trkpt lat="47.0982" lon="-1.45289">
        <ele>96</ele>
        <time>2021-03-21T08:56:31.000Z</time>
      </trkpt>
      <trkpt lat="47.09812" lon="-1.45273">
        <ele>96</ele>
        <time>2021-03-21T08:56:33.000Z</time>
      </trkpt>
      <trkpt lat="47.09805" lon="-1.45257">
        <ele>96</ele>
        <time>2021-03-21T08:56:35.000Z</time>
      </trkpt>
      <trkpt lat="47.09798" lon="-1.45241">
        <ele>96</ele>
        <time>2021-03-21T08:56:37.000Z</time>
      </trkpt>
      <trkpt lat="47.09791" lon="-1.45226">
        <ele>96</ele>
        <time>2021-03-21T08:56:39.000Z</time>
      </trkpt>
      <trkpt lat="47.09784" lon="-1.45211">
        <ele>96</ele>
        <time>2021-03-21T08:56:41.000Z</time>
      </trkpt>
      <trkpt lat="47.09777" lon="-1.45195">
        <ele>96</ele>
        <time>2021-03-21T08:56:43.000Z</time>
      </trkpt>
      <trkpt lat="47.0977" lon="-1.4518">
        <ele>95</ele>
        <time>2021-03-21T08:56:45.000Z</time>
      </trkpt>
      <trkpt lat="47.09763" lon="-1.45164">
        <ele>96</ele>
        <time>2021-03-21T08:56:47.000Z</time>
      </trkpt>
      <trkpt lat="47.09756" lon="-1.45149">
        <ele>96</ele>
        <time>2021-03-21T08:56:49.000Z</time>
      </trkpt>
      <trkpt lat="47.09749" lon="-1.45133">
        <ele>96</ele>
        <time>2021-03-21T08:56:51.000Z</time>
      </trkpt>
      <trkpt lat="47.09742" lon="-1.45118">
        <ele>96</ele>
        <time>2021-03-21T08:56:53.000Z</time>
      </trkpt>
      <trkpt lat="47.09735" lon="-1.45102">
        <ele>96</ele>
        <time>2021-03-21T08:56:55.000Z</time>
      </trkpt>
      <trkpt lat="47.09727" lon="-1.45087">
        <ele>96</ele>
        <time>2021-03-21T08:56:57.000Z</time>
      </trkpt>
      <trkpt lat="47.0972" lon="-1.45072">
        <ele>96</ele>
        <time>2021-03-21T08:56:59.000Z</time>
      </trkpt>
      <trkpt lat="47.09713" lon="-1.45058">
        <ele>96</ele>
        <time>2021-03-21T08:57:01.000Z</time>
      </trkpt>
      <trkpt lat="47.09706" lon="-1.45043">
        <ele>96</ele>
        <time>2021-03-21T08:57:03.000Z</time>
      </trkpt>
      <trkpt lat="47.097" lon="-1.45028">
        <ele>96</ele>
        <time>2021-03-21T08:57:05.000Z</time>
      </trkpt>
      <trkpt lat="47.09693" lon="-1.45014">
        <ele>96</ele>
        <time>2021-03-21T08:57:07.000Z</time>
      </trkpt>
      <trkpt lat="47.09685" lon="-1.45">
        <ele>96</ele>
        <time>2021-03-21T08:57:09.000Z</time>
      </trkpt>
      <trkpt lat="47.09677" lon="-1.44987">
        <ele>96</ele>
        <time>2021-03-21T08:57:11.000Z</time>
      </trkpt>
      <trkpt lat="47.09669" lon="-1.44976">
        <ele>95</ele>
        <time>2021-03-21T08:57:13.000Z</time>
      </trkpt>
      <trkpt lat="47.09658" lon="-1.44967">
        <ele>95</ele>
        <time>2021-03-21T08:57:15.000Z</time>
      </trkpt>
      <trkpt lat="47.09647" lon="-1.44962">
        <ele>96</ele>
        <time>2021-03-21T08:57:17.000Z</time>
      </trkpt>
      <trkpt lat="47.09637" lon="-1.44954">
        <ele>95</ele>
        <time>2021-03-21T08:57:19.000Z</time>
      </trkpt>
      <trkpt lat="47.0963" lon="-1.44941">
        <ele>95</ele>
        <time>2021-03-21T08:57:21.000Z</time>
      </trkpt>
      <trkpt lat="47.09627" lon="-1.44925">
        <ele>96</ele>
        <time>2021-03-21T08:57:23.000Z</time>
      </trkpt>
      <trkpt lat="47.0963" lon="-1.44907">
        <ele>96</ele>
        <time>2021-03-21T08:57:25.000Z</time>
      </trkpt>
      <trkpt lat="47.09638" lon="-1.44891">
        <ele>96</ele>
        <time>2021-03-21T08:57:27.000Z</time>
      </trkpt>
      <trkpt lat="47.09651" lon="-1.44883">
        <ele>96</ele>
        <time>2021-03-21T08:57:29.000Z</time>
      </trkpt>
      <trkpt lat="47.09664" lon="-1.44876">
        <ele>96</ele>
        <time>2021-03-21T08:57:31.000Z</time>
      </trkpt>
      <trkpt lat="47.09672" lon="-1.44863">
        <ele>95</ele>
        <time>2021-03-21T08:57:33.000Z</time>
      </trkpt>
      <trkpt lat="47.0968" lon="-1.44846">
        <ele>94</ele>
        <time>2021-03-21T08:57:35.000Z</time>
      </trkpt>
      <trkpt lat="47.09686" lon="-1.44829">
        <ele>94</ele>
        <time>2021-03-21T08:57:37.000Z</time>
      </trkpt>
      <trkpt lat="47.09687" lon="-1.4481">
        <ele>94</ele>
        <time>2021-03-21T08:57:39.000Z</time>
      </trkpt>
      <trkpt lat="47.09686" lon="-1.44792">
        <ele>95</ele>
        <time>2021-03-21T08:57:41.000Z</time>
      </trkpt>
      <trkpt lat="47.09681" lon="-1.44775">
        <ele>95</ele>
        <time>2021-03-21T08:57:43.000Z</time>
      </trkpt>
      <trkpt lat="47.09673" lon="-1.44759">
        <ele>96</ele>
        <time>2021-03-21T08:57:45.000Z</time>
      </trkpt>
      <trkpt lat="47.09664" lon="-1.44745">
        <ele>95</ele>
        <time>2021-03-21T08:57:47.000Z</time>
      </trkpt>
      <trkpt lat="47.09657" lon="-1.44731">
        <ele>96</ele>
        <time>2021-03-21T08:57:49.000Z</time>
      </trkpt>
      <trkpt lat="47.09651" lon="-1.44716">
        <ele>96</ele>
        <time>2021-03-21T08:57:51.000Z</time>
      </trkpt>
      <trkpt lat="47.09648" lon="-1.44699">
        <ele>96</ele>
        <time>2021-03-21T08:57:53.000Z</time>
      </trkpt>
      <trkpt lat="47.09648" lon="-1.44681">
        <ele>97</ele>
        <time>2021-03-21T08:57:55.000Z</time>
      </trkpt>
      <trkpt lat="47.0965" lon="-1.44665">
        <ele>97</ele>
        <time>2021-03-21T08:57:57.000Z</time>
      </trkpt>
      <trkpt lat="47.09654" lon="-1.44649">
        <ele>97</ele>
        <time>2021-03-21T08:57:59.000Z</time>
      </trkpt>
      <trkpt lat="47.0966" lon="-1.44634">
        <ele>98</ele>
        <time>2021-03-21T08:58:01.000Z</time>
      </trkpt>
      <trkpt lat="47.09666" lon="-1.44622">
        <ele>98</ele>
        <time>2021-03-21T08:58:03.000Z</time>
      </trkpt>
      <trkpt lat="47.09675" lon="-1.44612">
        <ele>97</ele>
        <time>2021-03-21T08:58:05.000Z</time>
      </trkpt>
      <trkpt lat="47.09686" lon="-1.44603">
        <ele>96</ele>
        <time>2021-03-21T08:58:07.000Z</time>
      </trkpt>
      <trkpt lat="47.09697" lon="-1.44594">
        <ele>96</ele>
        <time>2021-03-21T08:58:09.000Z</time>
      </trkpt>
      <trkpt lat="47.09709" lon="-1.44587">
        <ele>95</ele>
        <time>2021-03-21T08:58:11.000Z</time>
      </trkpt>
      <trkpt lat="47.09721" lon="-1.44579">
        <ele>95</ele>
        <time>2021-03-21T08:58:13.000Z</time>
      </trkpt>
      <trkpt lat="47.09734" lon="-1.44572">
        <ele>95</ele>
        <time>2021-03-21T08:58:15.000Z</time>
      </trkpt>
      <trkpt lat="47.09747" lon="-1.44566">
        <ele>94</ele>
        <time>2021-03-21T08:58:17.000Z</time>
      </trkpt>
      <trkpt lat="47.09761" lon="-1.44559">
        <ele>94</ele>
        <time>2021-03-21T08:58:19.000Z</time>
      </trkpt>
      <trkpt lat="47.09774" lon="-1.44553">
        <ele>93</ele>
        <time>2021-03-21T08:58:21.000Z</time>
      </trkpt>
      <trkpt lat="47.09788" lon="-1.44547">
        <ele>93</ele>
        <time>2021-03-21T08:58:23.000Z</time>
      </trkpt>
      <trkpt lat="47.09802" lon="-1.44542">
        <ele>93</ele>
        <time>2021-03-21T08:58:25.000Z</time>
      </trkpt>
      <trkpt lat="47.09816" lon="-1.44537">
        <ele>92</ele>
        <time>2021-03-21T08:58:27.000Z</time>
      </trkpt>
      <trkpt lat="47.09831" lon="-1.44531">
        <ele>92</ele>
        <time>2021-03-21T08:58:29.000Z</time>
      </trkpt>
      <trkpt lat="47.09846" lon="-1.44525">
        <ele>91</ele>
        <time>2021-03-21T08:58:31.000Z</time>
      </trkpt>
      <trkpt lat="47.09861" lon="-1.4452">
        <ele>90</ele>
        <time>2021-03-21T08:58:33.000Z</time>
      </trkpt>
      <trkpt lat="47.09877" lon="-1.44514">
        <ele>89</ele>
        <time>2021-03-21T08:58:35.000Z</time>
      </trkpt>
      <trkpt lat="47.09892" lon="-1.44509">
        <ele>88</ele>
        <time>2021-03-21T08:58:37.000Z</time>
      </trkpt>
      <trkpt lat="47.09908" lon="-1.44503">
        <ele>87</ele>
        <time>2021-03-21T08:58:39.000Z</time>
      </trkpt>
      <trkpt lat="47.09925" lon="-1.44496">
        <ele>86</ele>
        <time>2021-03-21T08:58:41.000Z</time>
      </trkpt>
      <trkpt lat="47.09942" lon="-1.4449">
        <ele>85</ele>
        <time>2021-03-21T08:58:43.000Z</time>
      </trkpt>
      <trkpt lat="47.09951" lon="-1.44487">
        <ele>85</ele>
        <time>2021-03-21T08:58:44.000Z</time>
      </trkpt>
      <trkpt lat="47.09959" lon="-1.44483">
        <ele>84</ele>
        <time>2021-03-21T08:58:45.000Z</time>
      </trkpt>
      <trkpt lat="47.09968" lon="-1.44479">
        <ele>84</ele>
        <time>2021-03-21T08:58:46.000Z</time>
      </trkpt>
      <trkpt lat="47.09977" lon="-1.44476">
        <ele>83</ele>
        <time>2021-03-21T08:58:47.000Z</time>
      </trkpt>
      <trkpt lat="47.09986" lon="-1.44472">
        <ele>83</ele>
        <time>2021-03-21T08:58:48.000Z</time>
      </trkpt>
      <trkpt lat="47.09995" lon="-1.44469">
        <ele>82</ele>
        <time>2021-03-21T08:58:49.000Z</time>
      </trkpt>
      <trkpt lat="47.10004" lon="-1.44465">
        <ele>82</ele>
        <time>2021-03-21T08:58:50.000Z</time>
      </trkpt>
      <trkpt lat="47.10013" lon="-1.44462">
        <ele>82</ele>
        <time>2021-03-21T08:58:51.000Z</time>
      </trkpt>
      <trkpt lat="47.10022" lon="-1.44458">
        <ele>82</ele>
        <time>2021-03-21T08:58:52.000Z</time>
      </trkpt>
      <trkpt lat="47.1003" lon="-1.44454">
        <ele>82</ele>
        <time>2021-03-21T08:58:53.000Z</time>
      </trkpt>
      <trkpt lat="47.1004" lon="-1.4445">
        <ele>81</ele>
        <time>2021-03-21T08:58:54.000Z</time>
      </trkpt>
      <trkpt lat="47.10049" lon="-1.44447">
        <ele>81</ele>
        <time>2021-03-21T08:58:55.000Z</time>
      </trkpt>
      <trkpt lat="47.10058" lon="-1.44444">
        <ele>80</ele>
        <time>2021-03-21T08:58:56.000Z</time>
      </trkpt>
      <trkpt lat="47.10067" lon="-1.4444">
        <ele>80</ele>
        <time>2021-03-21T08:58:57.000Z</time>
      </trkpt>
      <trkpt lat="47.10076" lon="-1.44438">
        <ele>80</ele>
        <time>2021-03-21T08:58:58.000Z</time>
      </trkpt>
      <trkpt lat="47.10085" lon="-1.44435">
        <ele>79</ele>
        <time>2021-03-21T08:58:59.000Z</time>
      </trkpt>
      <trkpt lat="47.10095" lon="-1.44431">
        <ele>79</ele>
        <time>2021-03-21T08:59:00.000Z</time>
      </trkpt>
      <trkpt lat="47.10104" lon="-1.44428">
        <ele>78</ele>
        <time>2021-03-21T08:59:01.000Z</time>
      </trkpt>
      <trkpt lat="47.10112" lon="-1.44424">
        <ele>78</ele>
        <time>2021-03-21T08:59:02.000Z</time>
      </trkpt>
      <trkpt lat="47.10129" lon="-1.44415">
        <ele>77</ele>
        <time>2021-03-21T08:59:04.000Z</time>
      </trkpt>
      <trkpt lat="47.10144" lon="-1.44402">
        <ele>77</ele>
        <time>2021-03-21T08:59:06.000Z</time>
      </trkpt>
      <trkpt lat="47.10158" lon="-1.44386">
        <ele>77</ele>
        <time>2021-03-21T08:59:08.000Z</time>
      </trkpt>
      <trkpt lat="47.10171" lon="-1.44371">
        <ele>76</ele>
        <time>2021-03-21T08:59:10.000Z</time>
      </trkpt>
      <trkpt lat="47.10184" lon="-1.44356">
        <ele>76</ele>
        <time>2021-03-21T08:59:12.000Z</time>
      </trkpt>
      <trkpt lat="47.10196" lon="-1.44342">
        <ele>76</ele>
        <time>2021-03-21T08:59:14.000Z</time>
      </trkpt>
      <trkpt lat="47.10208" lon="-1.44328">
        <ele>76</ele>
        <time>2021-03-21T08:59:16.000Z</time>
      </trkpt>
      <trkpt lat="47.1022" lon="-1.44314">
        <ele>76</ele>
        <time>2021-03-21T08:59:18.000Z</time>
      </trkpt>
      <trkpt lat="47.10232" lon="-1.443">
        <ele>76</ele>
        <time>2021-03-21T08:59:20.000Z</time>
      </trkpt>
      <trkpt lat="47.10243" lon="-1.44286">
        <ele>76</ele>
        <time>2021-03-21T08:59:22.000Z</time>
      </trkpt>
      <trkpt lat="47.10255" lon="-1.44272">
        <ele>76</ele>
        <time>2021-03-21T08:59:24.000Z</time>
      </trkpt>
      <trkpt lat="47.10267" lon="-1.44258">
        <ele>76</ele>
        <time>2021-03-21T08:59:26.000Z</time>
      </trkpt>
      <trkpt lat="47.10279" lon="-1.44246">
        <ele>76</ele>
        <time>2021-03-21T08:59:28.000Z</time>
      </trkpt>
      <trkpt lat="47.10292" lon="-1.44236">
        <ele>76</ele>
        <time>2021-03-21T08:59:30.000Z</time>
      </trkpt>
      <trkpt lat="47.10305" lon="-1.44226">
        <ele>76</ele>
        <time>2021-03-21T08:59:32.000Z</time>
      </trkpt>
      <trkpt lat="47.1032" lon="-1.44219">
        <ele>77</ele>
        <time>2021-03-21T08:59:34.000Z</time>
      </trkpt>
      <trkpt lat="47.10334" lon="-1.44211">
        <ele>77</ele>
        <time>2021-03-21T08:59:36.000Z</time>
      </trkpt>
      <trkpt lat="47.10348" lon="-1.44205">
        <ele>77</ele>
        <time>2021-03-21T08:59:38.000Z</time>
      </trkpt>
      <trkpt lat="47.10361" lon="-1.44199">
        <ele>76</ele>
        <time>2021-03-21T08:59:40.000Z</time>
      </trkpt>
      <trkpt lat="47.10375" lon="-1.44192">
        <ele>77</ele>
        <time>2021-03-21T08:59:42.000Z</time>
      </trkpt>
      <trkpt lat="47.10389" lon="-1.44187">
        <ele>77</ele>
        <time>2021-03-21T08:59:44.000Z</time>
      </trkpt>
      <trkpt lat="47.10403" lon="-1.44181">
        <ele>77</ele>
        <time>2021-03-21T08:59:46.000Z</time>
      </trkpt>
      <trkpt lat="47.10417" lon="-1.44175">
        <ele>77</ele>
        <time>2021-03-21T08:59:48.000Z</time>
      </trkpt>
      <trkpt lat="47.1043" lon="-1.44168">
        <ele>77</ele>
        <time>2021-03-21T08:59:50.000Z</time>
      </trkpt>
      <trkpt lat="47.10444" lon="-1.44162">
        <ele>77</ele>
        <time>2021-03-21T08:59:52.000Z</time>
      </trkpt>
      <trkpt lat="47.10457" lon="-1.44156">
        <ele>78</ele>
        <time>2021-03-21T08:59:54.000Z</time>
      </trkpt>
      <trkpt lat="47.10469" lon="-1.4415">
        <ele>78</ele>
        <time>2021-03-21T08:59:56.000Z</time>
      </trkpt>
      <trkpt lat="47.10481" lon="-1.44143">
        <ele>78</ele>
        <time>2021-03-21T08:59:58.000Z</time>
      </trkpt>
      <trkpt lat="47.10494" lon="-1.44137">
        <ele>78</ele>
        <time>2021-03-21T09:00:00.000Z</time>
      </trkpt>
      <trkpt lat="47.10505" lon="-1.44129">
        <ele>79</ele>
        <time>2021-03-21T09:00:02.000Z</time>
      </trkpt>
      <trkpt lat="47.10517" lon="-1.4412">
        <ele>79</ele>
        <time>2021-03-21T09:00:04.000Z</time>
      </trkpt>
      <trkpt lat="47.10529" lon="-1.44111">
        <ele>79</ele>
        <time>2021-03-21T09:00:06.000Z</time>
      </trkpt>
      <trkpt lat="47.1054" lon="-1.44101">
        <ele>79</ele>
        <time>2021-03-21T09:00:08.000Z</time>
      </trkpt>
      <trkpt lat="47.10551" lon="-1.44092">
        <ele>79</ele>
        <time>2021-03-21T09:00:10.000Z</time>
      </trkpt>
      <trkpt lat="47.10562" lon="-1.44083">
        <ele>79</ele>
        <time>2021-03-21T09:00:12.000Z</time>
      </trkpt>
      <trkpt lat="47.10572" lon="-1.44072">
        <ele>80</ele>
        <time>2021-03-21T09:00:14.000Z</time>
      </trkpt>
      <trkpt lat="47.10582" lon="-1.44061">
        <ele>80</ele>
        <time>2021-03-21T09:00:16.000Z</time>
      </trkpt>
      <trkpt lat="47.10593" lon="-1.44051">
        <ele>80</ele>
        <time>2021-03-21T09:00:18.000Z</time>
      </trkpt>
      <trkpt lat="47.10604" lon="-1.44042">
        <ele>80</ele>
        <time>2021-03-21T09:00:20.000Z</time>
      </trkpt>
      <trkpt lat="47.10615" lon="-1.44034">
        <ele>80</ele>
        <time>2021-03-21T09:00:22.000Z</time>
      </trkpt>
      <trkpt lat="47.10627" lon="-1.44028">
        <ele>80</ele>
        <time>2021-03-21T09:00:24.000Z</time>
      </trkpt>
      <trkpt lat="47.10638" lon="-1.4402">
        <ele>81</ele>
        <time>2021-03-21T09:00:26.000Z</time>
      </trkpt>
      <trkpt lat="47.10649" lon="-1.44014">
        <ele>81</ele>
        <time>2021-03-21T09:00:28.000Z</time>
      </trkpt>
      <trkpt lat="47.1066" lon="-1.44007">
        <ele>82</ele>
        <time>2021-03-21T09:00:30.000Z</time>
      </trkpt>
      <trkpt lat="47.10672" lon="-1.44001">
        <ele>82</ele>
        <time>2021-03-21T09:00:32.000Z</time>
      </trkpt>
      <trkpt lat="47.10683" lon="-1.43995">
        <ele>82</ele>
        <time>2021-03-21T09:00:34.000Z</time>
      </trkpt>
      <trkpt lat="47.10694" lon="-1.43991">
        <ele>82</ele>
        <time>2021-03-21T09:00:36.000Z</time>
      </trkpt>
      <trkpt lat="47.10703" lon="-1.43984">
        <ele>82</ele>
        <time>2021-03-21T09:00:38.000Z</time>
      </trkpt>
      <trkpt lat="47.10713" lon="-1.43977">
        <ele>83</ele>
        <time>2021-03-21T09:00:40.000Z</time>
      </trkpt>
      <trkpt lat="47.10722" lon="-1.43968">
        <ele>84</ele>
        <time>2021-03-21T09:00:42.000Z</time>
      </trkpt>
      <trkpt lat="47.10731" lon="-1.4396">
        <ele>83</ele>
        <time>2021-03-21T09:00:44.000Z</time>
      </trkpt>
      <trkpt lat="47.10741" lon="-1.43949">
        <ele>84</ele>
        <time>2021-03-21T09:00:46.000Z</time>
      </trkpt>
      <trkpt lat="47.1075" lon="-1.4394">
        <ele>84</ele>
        <time>2021-03-21T09:00:48.000Z</time>
      </trkpt>
      <trkpt lat="47.10759" lon="-1.4393">
        <ele>84</ele>
        <time>2021-03-21T09:00:50.000Z</time>
      </trkpt>
      <trkpt lat="47.10769" lon="-1.43922">
        <ele>84</ele>
        <time>2021-03-21T09:00:52.000Z</time>
      </trkpt>
      <trkpt lat="47.10779" lon="-1.43913">
        <ele>84</ele>
        <time>2021-03-21T09:00:54.000Z</time>
      </trkpt>
      <trkpt lat="47.10789" lon="-1.43905">
        <ele>84</ele>
        <time>2021-03-21T09:00:56.000Z</time>
      </trkpt>
      <trkpt lat="47.10798" lon="-1.43896">
        <ele>85</ele>
        <time>2021-03-21T09:00:58.000Z</time>
      </trkpt>
      <trkpt lat="47.10807" lon="-1.43889">
        <ele>85</ele>
        <time>2021-03-21T09:01:00.000Z</time>
      </trkpt>
      <trkpt lat="47.10817" lon="-1.43881">
        <ele>85</ele>
        <time>2021-03-21T09:01:02.000Z</time>
      </trkpt>
      <trkpt lat="47.10826" lon="-1.43874">
        <ele>85</ele>
        <time>2021-03-21T09:01:04.000Z</time>
      </trkpt>
      <trkpt lat="47.10835" lon="-1.43866">
        <ele>85</ele>
        <time>2021-03-21T09:01:06.000Z</time>
      </trkpt>
      <trkpt lat="47.10843" lon="-1.43856">
        <ele>85</ele>
        <time>2021-03-21T09:01:08.000Z</time>
      </trkpt>
      <trkpt lat="47.10852" lon="-1.43847">
        <ele>86</ele>
        <time>2021-03-21T09:01:10.000Z</time>
      </trkpt>
      <trkpt lat="47.10861" lon="-1.43838">
        <ele>86</ele>
        <time>2021-03-21T09:01:12.000Z</time>
      </trkpt>
      <trkpt lat="47.1087" lon="-1.4383">
        <ele>87</ele>
        <time>2021-03-21T09:01:14.000Z</time>
      </trkpt>
      <trkpt lat="47.1088" lon="-1.43823">
        <ele>87</ele>
        <time>2021-03-21T09:01:16.000Z</time>
      </trkpt>
      <trkpt lat="47.1089" lon="-1.43814">
        <ele>87</ele>
        <time>2021-03-21T09:01:18.000Z</time>
      </trkpt>
      <trkpt lat="47.10899" lon="-1.43805">
        <ele>87</ele>
        <time>2021-03-21T09:01:20.000Z</time>
      </trkpt>
      <trkpt lat="47.10908" lon="-1.43796">
        <ele>88</ele>
        <time>2021-03-21T09:01:22.000Z</time>
      </trkpt>
      <trkpt lat="47.10917" lon="-1.43785">
        <ele>88</ele>
        <time>2021-03-21T09:01:24.000Z</time>
      </trkpt>
      <trkpt lat="47.10926" lon="-1.43776">
        <ele>88</ele>
        <time>2021-03-21T09:01:26.000Z</time>
      </trkpt>
      <trkpt lat="47.10935" lon="-1.43766">
        <ele>88</ele>
        <time>2021-03-21T09:01:28.000Z</time>
      </trkpt>
      <trkpt lat="47.10945" lon="-1.43757">
        <ele>89</ele>
        <time>2021-03-21T09:01:30.000Z</time>
      </trkpt>
      <trkpt lat="47.10954" lon="-1.43747">
        <ele>89</ele>
        <time>2021-03-21T09:01:32.000Z</time>
      </trkpt>
      <trkpt lat="47.10963" lon="-1.43739">
        <ele>88</ele>
        <time>2021-03-21T09:01:34.000Z</time>
      </trkpt>
      <trkpt lat="47.10972" lon="-1.4373">
        <ele>88</ele>
        <time>2021-03-21T09:01:36.000Z</time>
      </trkpt>
      <trkpt lat="47.10982" lon="-1.4372">
        <ele>89</ele>
        <time>2021-03-21T09:01:38.000Z</time>
      </trkpt>
      <trkpt lat="47.10991" lon="-1.43711">
        <ele>89</ele>
        <time>2021-03-21T09:01:40.000Z</time>
      </trkpt>
      <trkpt lat="47.11" lon="-1.437">
        <ele>89</ele>
        <time>2021-03-21T09:01:42.000Z</time>
      </trkpt>
      <trkpt lat="47.11008" lon="-1.4369">
        <ele>89</ele>
        <time>2021-03-21T09:01:44.000Z</time>
      </trkpt>
      <trkpt lat="47.11017" lon="-1.4368">
        <ele>89</ele>
        <time>2021-03-21T09:01:46.000Z</time>
      </trkpt>
      <trkpt lat="47.11026" lon="-1.4367">
        <ele>89</ele>
        <time>2021-03-21T09:01:48.000Z</time>
      </trkpt>
      <trkpt lat="47.11034" lon="-1.43661">
        <ele>89</ele>
        <time>2021-03-21T09:01:50.000Z</time>
      </trkpt>
      <trkpt lat="47.11041" lon="-1.4365">
        <ele>89</ele>
        <time>2021-03-21T09:01:52.000Z</time>
      </trkpt>
      <trkpt lat="47.11048" lon="-1.43638">
        <ele>90</ele>
        <time>2021-03-21T09:01:54.000Z</time>
      </trkpt>
      <trkpt lat="47.11056" lon="-1.43627">
        <ele>90</ele>
        <time>2021-03-21T09:01:56.000Z</time>
      </trkpt>
      <trkpt lat="47.11064" lon="-1.43618">
        <ele>90</ele>
        <time>2021-03-21T09:01:58.000Z</time>
      </trkpt>
      <trkpt lat="47.11073" lon="-1.43608">
        <ele>91</ele>
        <time>2021-03-21T09:02:00.000Z</time>
      </trkpt>
      <trkpt lat="47.11082" lon="-1.436">
        <ele>91</ele>
        <time>2021-03-21T09:02:02.000Z</time>
      </trkpt>
      <trkpt lat="47.11091" lon="-1.4359">
        <ele>92</ele>
        <time>2021-03-21T09:02:04.000Z</time>
      </trkpt>
      <trkpt lat="47.111" lon="-1.43582">
        <ele>92</ele>
        <time>2021-03-21T09:02:06.000Z</time>
      </trkpt>
      <trkpt lat="47.11108" lon="-1.43572">
        <ele>92</ele>
        <time>2021-03-21T09:02:08.000Z</time>
      </trkpt>
      <trkpt lat="47.11115" lon="-1.43561">
        <ele>92</ele>
        <time>2021-03-21T09:02:10.000Z</time>
      </trkpt>
      <trkpt lat="47.11122" lon="-1.43549">
        <ele>92</ele>
        <time>2021-03-21T09:02:12.000Z</time>
      </trkpt>
      <trkpt lat="47.11129" lon="-1.43537">
        <ele>92</ele>
        <time>2021-03-21T09:02:14.000Z</time>
      </trkpt>
      <trkpt lat="47.11137" lon="-1.43525">
        <ele>93</ele>
        <time>2021-03-21T09:02:16.000Z</time>
      </trkpt>
      <trkpt lat="47.11144" lon="-1.43512">
        <ele>93</ele>
        <time>2021-03-21T09:02:18.000Z</time>
      </trkpt>
      <trkpt lat="47.11151" lon="-1.43499">
        <ele>93</ele>
        <time>2021-03-21T09:02:20.000Z</time>
      </trkpt>
      <trkpt lat="47.11158" lon="-1.43487">
        <ele>93</ele>
        <time>2021-03-21T09:02:22.000Z</time>
      </trkpt>
      <trkpt lat="47.11165" lon="-1.43474">
        <ele>93</ele>
        <time>2021-03-21T09:02:24.000Z</time>
      </trkpt>
      <trkpt lat="47.11173" lon="-1.43461">
        <ele>93</ele>
        <time>2021-03-21T09:02:26.000Z</time>
      </trkpt>
      <trkpt lat="47.1118" lon="-1.43448">
        <ele>93</ele>
        <time>2021-03-21T09:02:28.000Z</time>
      </trkpt>
      <trkpt lat="47.11188" lon="-1.43436">
        <ele>93</ele>
        <time>2021-03-21T09:02:30.000Z</time>
      </trkpt>
      <trkpt lat="47.11195" lon="-1.43423">
        <ele>93</ele>
        <time>2021-03-21T09:02:32.000Z</time>
      </trkpt>
      <trkpt lat="47.11203" lon="-1.4341">
        <ele>93</ele>
        <time>2021-03-21T09:02:34.000Z</time>
      </trkpt>
      <trkpt lat="47.11211" lon="-1.43396">
        <ele>93</ele>
        <time>2021-03-21T09:02:36.000Z</time>
      </trkpt>
      <trkpt lat="47.11219" lon="-1.43382">
        <ele>92</ele>
        <time>2021-03-21T09:02:38.000Z</time>
      </trkpt>
      <trkpt lat="47.11227" lon="-1.43367">
        <ele>92</ele>
        <time>2021-03-21T09:02:40.000Z</time>
      </trkpt>
      <trkpt lat="47.11235" lon="-1.43353">
        <ele>92</ele>
        <time>2021-03-21T09:02:42.000Z</time>
      </trkpt>
      <trkpt lat="47.11243" lon="-1.4334">
        <ele>92</ele>
        <time>2021-03-21T09:02:44.000Z</time>
      </trkpt>
      <trkpt lat="47.11252" lon="-1.43326">
        <ele>91</ele>
        <time>2021-03-21T09:02:46.000Z</time>
      </trkpt>
      <trkpt lat="47.11261" lon="-1.43313">
        <ele>92</ele>
        <time>2021-03-21T09:02:48.000Z</time>
      </trkpt>
      <trkpt lat="47.11271" lon="-1.43301">
        <ele>93</ele>
        <time>2021-03-21T09:02:50.000Z</time>
      </trkpt>
      <trkpt lat="47.11281" lon="-1.43288">
        <ele>93</ele>
        <time>2021-03-21T09:02:52.000Z</time>
      </trkpt>
      <trkpt lat="47.11291" lon="-1.43276">
        <ele>93</ele>
        <time>2021-03-21T09:02:54.000Z</time>
      </trkpt>
      <trkpt lat="47.11301" lon="-1.43264">
        <ele>94</ele>
        <time>2021-03-21T09:02:56.000Z</time>
      </trkpt>
      <trkpt lat="47.11312" lon="-1.43252">
        <ele>94</ele>
        <time>2021-03-21T09:02:58.000Z</time>
      </trkpt>
      <trkpt lat="47.11322" lon="-1.4324">
        <ele>94</ele>
        <time>2021-03-21T09:03:00.000Z</time>
      </trkpt>
      <trkpt lat="47.11332" lon="-1.43227">
        <ele>94</ele>
        <time>2021-03-21T09:03:02.000Z</time>
      </trkpt>
      <trkpt lat="47.11342" lon="-1.43215">
        <ele>94</ele>
        <time>2021-03-21T09:03:04.000Z</time>
      </trkpt>
      <trkpt lat="47.11353" lon="-1.43202">
        <ele>93</ele>
        <time>2021-03-21T09:03:06.000Z</time>
      </trkpt>
      <trkpt lat="47.11363" lon="-1.4319">
        <ele>93</ele>
        <time>2021-03-21T09:03:08.000Z</time>
      </trkpt>
      <trkpt lat="47.11373" lon="-1.43177">
        <ele>92</ele>
        <time>2021-03-21T09:03:10.000Z</time>
      </trkpt>
      <trkpt lat="47.11383" lon="-1.43164">
        <ele>92</ele>
        <time>2021-03-21T09:03:12.000Z</time>
      </trkpt>
      <trkpt lat="47.11394" lon="-1.43151">
        <ele>92</ele>
        <time>2021-03-21T09:03:14.000Z</time>
      </trkpt>
      <trkpt lat="47.11404" lon="-1.43137">
        <ele>91</ele>
        <time>2021-03-21T09:03:16.000Z</time>
      </trkpt>
      <trkpt lat="47.11415" lon="-1.43122">
        <ele>92</ele>
        <time>2021-03-21T09:03:18.000Z</time>
      </trkpt>
      <trkpt lat="47.11427" lon="-1.43107">
        <ele>91</ele>
        <time>2021-03-21T09:03:20.000Z</time>
      </trkpt>
      <trkpt lat="47.11439" lon="-1.43093">
        <ele>91</ele>
        <time>2021-03-21T09:03:22.000Z</time>
      </trkpt>
      <trkpt lat="47.11451" lon="-1.43079">
        <ele>91</ele>
        <time>2021-03-21T09:03:24.000Z</time>
      </trkpt>
      <trkpt lat="47.11465" lon="-1.43066">
        <ele>90</ele>
        <time>2021-03-21T09:03:26.000Z</time>
      </trkpt>
      <trkpt lat="47.11479" lon="-1.43054">
        <ele>89</ele>
        <time>2021-03-21T09:03:28.000Z</time>
      </trkpt>
      <trkpt lat="47.11494" lon="-1.43041">
        <ele>88</ele>
        <time>2021-03-21T09:03:30.000Z</time>
      </trkpt>
      <trkpt lat="47.11509" lon="-1.43028">
        <ele>88</ele>
        <time>2021-03-21T09:03:32.000Z</time>
      </trkpt>
      <trkpt lat="47.11524" lon="-1.43015">
        <ele>87</ele>
        <time>2021-03-21T09:03:34.000Z</time>
      </trkpt>
      <trkpt lat="47.11539" lon="-1.43001">
        <ele>86</ele>
        <time>2021-03-21T09:03:36.000Z</time>
      </trkpt>
      <trkpt lat="47.11553" lon="-1.42987">
        <ele>86</ele>
        <time>2021-03-21T09:03:38.000Z</time>
      </trkpt>
      <trkpt lat="47.11567" lon="-1.42974">
        <ele>85</ele>
        <time>2021-03-21T09:03:40.000Z</time>
      </trkpt>
      <trkpt lat="47.11582" lon="-1.4296">
        <ele>84</ele>
        <time>2021-03-21T09:03:42.000Z</time>
      </trkpt>
      <trkpt lat="47.1159" lon="-1.42953">
        <ele>84</ele>
        <time>2021-03-21T09:03:43.000Z</time>
      </trkpt>
      <trkpt lat="47.11605" lon="-1.42939">
        <ele>84</ele>
        <time>2021-03-21T09:03:45.000Z</time>
      </trkpt>
      <trkpt lat="47.11618" lon="-1.42923">
        <ele>83</ele>
        <time>2021-03-21T09:03:47.000Z</time>
      </trkpt>
      <trkpt lat="47.1163" lon="-1.42905">
        <ele>81</ele>
        <time>2021-03-21T09:03:49.000Z</time>
      </trkpt>
      <trkpt lat="47.11641" lon="-1.42885">
        <ele>80</ele>
        <time>2021-03-21T09:03:51.000Z</time>
      </trkpt>
      <trkpt lat="47.1165" lon="-1.42864">
        <ele>79</ele>
        <time>2021-03-21T09:03:53.000Z</time>
      </trkpt>
      <trkpt lat="47.11658" lon="-1.42844">
        <ele>79</ele>
        <time>2021-03-21T09:03:55.000Z</time>
      </trkpt>
      <trkpt lat="47.11666" lon="-1.42826">
        <ele>80</ele>
        <time>2021-03-21T09:03:57.000Z</time>
      </trkpt>
      <trkpt lat="47.11673" lon="-1.42807">
        <ele>80</ele>
        <time>2021-03-21T09:03:59.000Z</time>
      </trkpt>
      <trkpt lat="47.11678" lon="-1.4279">
        <ele>80</ele>
        <time>2021-03-21T09:04:01.000Z</time>
      </trkpt>
      <trkpt lat="47.11682" lon="-1.42774">
        <ele>80</ele>
        <time>2021-03-21T09:04:03.000Z</time>
      </trkpt>
      <trkpt lat="47.11685" lon="-1.42757">
        <ele>81</ele>
        <time>2021-03-21T09:04:05.000Z</time>
      </trkpt>
      <trkpt lat="47.11688" lon="-1.42743">
        <ele>82</ele>
        <time>2021-03-21T09:04:07.000Z</time>
      </trkpt>
      <trkpt lat="47.11691" lon="-1.42729">
        <ele>83</ele>
        <time>2021-03-21T09:04:09.000Z</time>
      </trkpt>
      <trkpt lat="47.11695" lon="-1.42717">
        <ele>84</ele>
        <time>2021-03-21T09:04:11.000Z</time>
      </trkpt>
      <trkpt lat="47.11704" lon="-1.42701">
        <ele>85</ele>
        <time>2021-03-21T09:04:14.000Z</time>
      </trkpt>
      <trkpt lat="47.11714" lon="-1.42691">
        <ele>86</ele>
        <time>2021-03-21T09:04:17.000Z</time>
      </trkpt>
      <trkpt lat="47.11724" lon="-1.42685">
        <ele>87</ele>
        <time>2021-03-21T09:04:19.000Z</time>
      </trkpt>
      <trkpt lat="47.11733" lon="-1.4268">
        <ele>88</ele>
        <time>2021-03-21T09:04:21.000Z</time>
      </trkpt>
      <trkpt lat="47.11745" lon="-1.42672">
        <ele>89</ele>
        <time>2021-03-21T09:04:24.000Z</time>
      </trkpt>
      <trkpt lat="47.11754" lon="-1.42667">
        <ele>89</ele>
        <time>2021-03-21T09:04:26.000Z</time>
      </trkpt>
      <trkpt lat="47.11766" lon="-1.4266">
        <ele>90</ele>
        <time>2021-03-21T09:04:29.000Z</time>
      </trkpt>
      <trkpt lat="47.11775" lon="-1.42655">
        <ele>91</ele>
        <time>2021-03-21T09:04:31.000Z</time>
      </trkpt>
      <trkpt lat="47.11787" lon="-1.42648">
        <ele>92</ele>
        <time>2021-03-21T09:04:34.000Z</time>
      </trkpt>
      <trkpt lat="47.11799" lon="-1.42641">
        <ele>93</ele>
        <time>2021-03-21T09:04:37.000Z</time>
      </trkpt>
      <trkpt lat="47.1181" lon="-1.42634">
        <ele>94</ele>
        <time>2021-03-21T09:04:40.000Z</time>
      </trkpt>
      <trkpt lat="47.11822" lon="-1.42627">
        <ele>95</ele>
        <time>2021-03-21T09:04:43.000Z</time>
      </trkpt>
      <trkpt lat="47.11834" lon="-1.4262">
        <ele>96</ele>
        <time>2021-03-21T09:04:46.000Z</time>
      </trkpt>
      <trkpt lat="47.11845" lon="-1.42612">
        <ele>97</ele>
        <time>2021-03-21T09:04:49.000Z</time>
      </trkpt>
      <trkpt lat="47.11857" lon="-1.42605">
        <ele>98</ele>
        <time>2021-03-21T09:04:52.000Z</time>
      </trkpt>
      <trkpt lat="47.11868" lon="-1.42596">
        <ele>98</ele>
        <time>2021-03-21T09:04:55.000Z</time>
      </trkpt>
      <trkpt lat="47.11878" lon="-1.42587">
        <ele>99</ele>
        <time>2021-03-21T09:04:58.000Z</time>
      </trkpt>
      <trkpt lat="47.11888" lon="-1.42578">
        <ele>100</ele>
        <time>2021-03-21T09:05:01.000Z</time>
      </trkpt>
      <trkpt lat="47.11897" lon="-1.42568">
        <ele>100</ele>
        <time>2021-03-21T09:05:04.000Z</time>
      </trkpt>
      <trkpt lat="47.11907" lon="-1.42558">
        <ele>100</ele>
        <time>2021-03-21T09:05:07.000Z</time>
      </trkpt>
      <trkpt lat="47.11917" lon="-1.42548">
        <ele>101</ele>
        <time>2021-03-21T09:05:10.000Z</time>
      </trkpt>
      <trkpt lat="47.11927" lon="-1.42538">
        <ele>100</ele>
        <time>2021-03-21T09:05:13.000Z</time>
      </trkpt>
      <trkpt lat="47.11937" lon="-1.42528">
        <ele>100</ele>
        <time>2021-03-21T09:05:16.000Z</time>
      </trkpt>
      <trkpt lat="47.11948" lon="-1.42518">
        <ele>100</ele>
        <time>2021-03-21T09:05:19.000Z</time>
      </trkpt>
      <trkpt lat="47.11958" lon="-1.42507">
        <ele>101</ele>
        <time>2021-03-21T09:05:22.000Z</time>
      </trkpt>
      <trkpt lat="47.1197" lon="-1.42496">
        <ele>101</ele>
        <time>2021-03-21T09:05:25.000Z</time>
      </trkpt>
      <trkpt lat="47.11978" lon="-1.42489">
        <ele>101</ele>
        <time>2021-03-21T09:05:27.000Z</time>
      </trkpt>
      <trkpt lat="47.11985" lon="-1.42481">
        <ele>101</ele>
        <time>2021-03-21T09:05:29.000Z</time>
      </trkpt>
      <trkpt lat="47.11993" lon="-1.42473">
        <ele>101</ele>
        <time>2021-03-21T09:05:31.000Z</time>
      </trkpt>
      <trkpt lat="47.12001" lon="-1.42465">
        <ele>102</ele>
        <time>2021-03-21T09:05:33.000Z</time>
      </trkpt>
      <trkpt lat="47.12009" lon="-1.42457">
        <ele>102</ele>
        <time>2021-03-21T09:05:35.000Z</time>
      </trkpt>
      <trkpt lat="47.12017" lon="-1.42449">
        <ele>102</ele>
        <time>2021-03-21T09:05:37.000Z</time>
      </trkpt>
      <trkpt lat="47.12025" lon="-1.42441">
        <ele>102</ele>
        <time>2021-03-21T09:05:39.000Z</time>
      </trkpt>
      <trkpt lat="47.12033" lon="-1.42433">
        <ele>102</ele>
        <time>2021-03-21T09:05:41.000Z</time>
      </trkpt>
      <trkpt lat="47.12041" lon="-1.42426">
        <ele>103</ele>
        <time>2021-03-21T09:05:43.000Z</time>
      </trkpt>
      <trkpt lat="47.12048" lon="-1.42416">
        <ele>103</ele>
        <time>2021-03-21T09:05:45.000Z</time>
      </trkpt>
      <trkpt lat="47.12056" lon="-1.42404">
        <ele>103</ele>
        <time>2021-03-21T09:05:47.000Z</time>
      </trkpt>
      <trkpt lat="47.12062" lon="-1.42391">
        <ele>103</ele>
        <time>2021-03-21T09:05:49.000Z</time>
      </trkpt>
      <trkpt lat="47.12068" lon="-1.42376">
        <ele>102</ele>
        <time>2021-03-21T09:05:51.000Z</time>
      </trkpt>
      <trkpt lat="47.12073" lon="-1.4236">
        <ele>102</ele>
        <time>2021-03-21T09:05:53.000Z</time>
      </trkpt>
      <trkpt lat="47.12078" lon="-1.42343">
        <ele>102</ele>
        <time>2021-03-21T09:05:55.000Z</time>
      </trkpt>
      <trkpt lat="47.12083" lon="-1.42325">
        <ele>102</ele>
        <time>2021-03-21T09:05:57.000Z</time>
      </trkpt>
      <trkpt lat="47.12089" lon="-1.42306">
        <ele>102</ele>
        <time>2021-03-21T09:05:59.000Z</time>
      </trkpt>
      <trkpt lat="47.12095" lon="-1.42289">
        <ele>102</ele>
        <time>2021-03-21T09:06:01.000Z</time>
      </trkpt>
      <trkpt lat="47.121" lon="-1.42271">
        <ele>101</ele>
        <time>2021-03-21T09:06:03.000Z</time>
      </trkpt>
      <trkpt lat="47.12105" lon="-1.42253">
        <ele>101</ele>
        <time>2021-03-21T09:06:05.000Z</time>
      </trkpt>
      <trkpt lat="47.12111" lon="-1.42234">
        <ele>101</ele>
        <time>2021-03-21T09:06:07.000Z</time>
      </trkpt>
      <trkpt lat="47.12116" lon="-1.42217">
        <ele>101</ele>
        <time>2021-03-21T09:06:09.000Z</time>
      </trkpt>
      <trkpt lat="47.12122" lon="-1.42201">
        <ele>101</ele>
        <time>2021-03-21T09:06:11.000Z</time>
      </trkpt>
      <trkpt lat="47.1213" lon="-1.42187">
        <ele>101</ele>
        <time>2021-03-21T09:06:13.000Z</time>
      </trkpt>
      <trkpt lat="47.1214" lon="-1.42176">
        <ele>101</ele>
        <time>2021-03-21T09:06:15.000Z</time>
      </trkpt>
      <trkpt lat="47.12151" lon="-1.42166">
        <ele>101</ele>
        <time>2021-03-21T09:06:17.000Z</time>
      </trkpt>
      <trkpt lat="47.12162" lon="-1.42158">
        <ele>101</ele>
        <time>2021-03-21T09:06:19.000Z</time>
      </trkpt>
      <trkpt lat="47.12174" lon="-1.42152">
        <ele>101</ele>
        <time>2021-03-21T09:06:21.000Z</time>
      </trkpt>
      <trkpt lat="47.12186" lon="-1.42145">
        <ele>100</ele>
        <time>2021-03-21T09:06:23.000Z</time>
      </trkpt>
      <trkpt lat="47.12197" lon="-1.42139">
        <ele>100</ele>
        <time>2021-03-21T09:06:25.000Z</time>
      </trkpt>
      <trkpt lat="47.12209" lon="-1.42133">
        <ele>100</ele>
        <time>2021-03-21T09:06:27.000Z</time>
      </trkpt>
      <trkpt lat="47.1222" lon="-1.42126">
        <ele>100</ele>
        <time>2021-03-21T09:06:29.000Z</time>
      </trkpt>
      <trkpt lat="47.1223" lon="-1.42118">
        <ele>101</ele>
        <time>2021-03-21T09:06:31.000Z</time>
      </trkpt>
      <trkpt lat="47.1224" lon="-1.42108">
        <ele>100</ele>
        <time>2021-03-21T09:06:33.000Z</time>
      </trkpt>
      <trkpt lat="47.1225" lon="-1.421">
        <ele>100</ele>
        <time>2021-03-21T09:06:35.000Z</time>
      </trkpt>
      <trkpt lat="47.1226" lon="-1.4209">
        <ele>101</ele>
        <time>2021-03-21T09:06:37.000Z</time>
      </trkpt>
      <trkpt lat="47.1227" lon="-1.42081">
        <ele>101</ele>
        <time>2021-03-21T09:06:39.000Z</time>
      </trkpt>
      <trkpt lat="47.12281" lon="-1.42073">
        <ele>101</ele>
        <time>2021-03-21T09:06:41.000Z</time>
      </trkpt>
      <trkpt lat="47.12291" lon="-1.42063">
        <ele>101</ele>
        <time>2021-03-21T09:06:43.000Z</time>
      </trkpt>
      <trkpt lat="47.12301" lon="-1.42055">
        <ele>100</ele>
        <time>2021-03-21T09:06:45.000Z</time>
      </trkpt>
      <trkpt lat="47.12312" lon="-1.42048">
        <ele>100</ele>
        <time>2021-03-21T09:06:47.000Z</time>
      </trkpt>
      <trkpt lat="47.12322" lon="-1.4204">
        <ele>100</ele>
        <time>2021-03-21T09:06:49.000Z</time>
      </trkpt>
      <trkpt lat="47.12331" lon="-1.42037">
        <ele>100</ele>
        <time>2021-03-21T09:06:51.000Z</time>
      </trkpt>
      <trkpt lat="47.12338" lon="-1.42048">
        <ele>101</ele>
        <time>2021-03-21T09:06:53.000Z</time>
      </trkpt>
      <trkpt lat="47.12346" lon="-1.42061">
        <ele>101</ele>
        <time>2021-03-21T09:06:55.000Z</time>
      </trkpt>
      <trkpt lat="47.12353" lon="-1.42074">
        <ele>102</ele>
        <time>2021-03-21T09:06:57.000Z</time>
      </trkpt>
      <trkpt lat="47.1236" lon="-1.42088">
        <ele>102</ele>
        <time>2021-03-21T09:06:59.000Z</time>
      </trkpt>
      <trkpt lat="47.12368" lon="-1.42102">
        <ele>103</ele>
        <time>2021-03-21T09:07:01.000Z</time>
      </trkpt>
      <trkpt lat="47.12375" lon="-1.42115">
        <ele>102</ele>
        <time>2021-03-21T09:07:03.000Z</time>
      </trkpt>
      <trkpt lat="47.12382" lon="-1.42129">
        <ele>102</ele>
        <time>2021-03-21T09:07:05.000Z</time>
      </trkpt>
      <trkpt lat="47.12388" lon="-1.42143">
        <ele>103</ele>
        <time>2021-03-21T09:07:07.000Z</time>
      </trkpt>
      <trkpt lat="47.12393" lon="-1.42158">
        <ele>104</ele>
        <time>2021-03-21T09:07:09.000Z</time>
      </trkpt>
      <trkpt lat="47.12398" lon="-1.42172">
        <ele>104</ele>
        <time>2021-03-21T09:07:11.000Z</time>
      </trkpt>
      <trkpt lat="47.12401" lon="-1.42189">
        <ele>104</ele>
        <time>2021-03-21T09:07:13.000Z</time>
      </trkpt>
      <trkpt lat="47.12405" lon="-1.42206">
        <ele>104</ele>
        <time>2021-03-21T09:07:15.000Z</time>
      </trkpt>
      <trkpt lat="47.12408" lon="-1.42223">
        <ele>104</ele>
        <time>2021-03-21T09:07:17.000Z</time>
      </trkpt>
      <trkpt lat="47.12413" lon="-1.42241">
        <ele>104</ele>
        <time>2021-03-21T09:07:19.000Z</time>
      </trkpt>
      <trkpt lat="47.12417" lon="-1.42258">
        <ele>104</ele>
        <time>2021-03-21T09:07:21.000Z</time>
      </trkpt>
      <trkpt lat="47.1242" lon="-1.42275">
        <ele>104</ele>
        <time>2021-03-21T09:07:23.000Z</time>
      </trkpt>
      <trkpt lat="47.12424" lon="-1.42292">
        <ele>104</ele>
        <time>2021-03-21T09:07:25.000Z</time>
      </trkpt>
      <trkpt lat="47.12428" lon="-1.42309">
        <ele>105</ele>
        <time>2021-03-21T09:07:27.000Z</time>
      </trkpt>
      <trkpt lat="47.12431" lon="-1.42326">
        <ele>105</ele>
        <time>2021-03-21T09:07:29.000Z</time>
      </trkpt>
      <trkpt lat="47.12434" lon="-1.42342">
        <ele>105</ele>
        <time>2021-03-21T09:07:31.000Z</time>
      </trkpt>
      <trkpt lat="47.12438" lon="-1.42358">
        <ele>105</ele>
        <time>2021-03-21T09:07:33.000Z</time>
      </trkpt>
      <trkpt lat="47.12443" lon="-1.42373">
        <ele>105</ele>
        <time>2021-03-21T09:07:35.000Z</time>
      </trkpt>
      <trkpt lat="47.12447" lon="-1.42387">
        <ele>105</ele>
        <time>2021-03-21T09:07:37.000Z</time>
      </trkpt>
      <trkpt lat="47.12449" lon="-1.42402">
        <ele>105</ele>
        <time>2021-03-21T09:07:39.000Z</time>
      </trkpt>
      <trkpt lat="47.12448" lon="-1.4242">
        <ele>105</ele>
        <time>2021-03-21T09:07:41.000Z</time>
      </trkpt>
      <trkpt lat="47.1245" lon="-1.42438">
        <ele>105</ele>
        <time>2021-03-21T09:07:43.000Z</time>
      </trkpt>
      <trkpt lat="47.12453" lon="-1.42455">
        <ele>105</ele>
        <time>2021-03-21T09:07:45.000Z</time>
      </trkpt>
      <trkpt lat="47.12455" lon="-1.42472">
        <ele>105</ele>
        <time>2021-03-21T09:07:47.000Z</time>
      </trkpt>
      <trkpt lat="47.12457" lon="-1.42489">
        <ele>105</ele>
        <time>2021-03-21T09:07:49.000Z</time>
      </trkpt>
      <trkpt lat="47.12457" lon="-1.42507">
        <ele>105</ele>
        <time>2021-03-21T09:07:51.000Z</time>
      </trkpt>
      <trkpt lat="47.12458" lon="-1.42524">
        <ele>105</ele>
        <time>2021-03-21T09:07:53.000Z</time>
      </trkpt>
      <trkpt lat="47.12459" lon="-1.42542">
        <ele>106</ele>
        <time>2021-03-21T09:07:55.000Z</time>
      </trkpt>
      <trkpt lat="47.12459" lon="-1.42559">
        <ele>105</ele>
        <time>2021-03-21T09:07:57.000Z</time>
      </trkpt>
      <trkpt lat="47.1246" lon="-1.42576">
        <ele>105</ele>
        <time>2021-03-21T09:07:59.000Z</time>
      </trkpt>
      <trkpt lat="47.1246" lon="-1.42593">
        <ele>105</ele>
        <time>2021-03-21T09:08:01.000Z</time>
      </trkpt>
      <trkpt lat="47.12461" lon="-1.42609">
        <ele>105</ele>
        <time>2021-03-21T09:08:03.000Z</time>
      </trkpt>
      <trkpt lat="47.12462" lon="-1.42626">
        <ele>106</ele>
        <time>2021-03-21T09:08:05.000Z</time>
      </trkpt>
      <trkpt lat="47.12461" lon="-1.42643">
        <ele>106</ele>
        <time>2021-03-21T09:08:07.000Z</time>
      </trkpt>
      <trkpt lat="47.1246" lon="-1.4266">
        <ele>106</ele>
        <time>2021-03-21T09:08:09.000Z</time>
      </trkpt>
      <trkpt lat="47.12459" lon="-1.42677">
        <ele>107</ele>
        <time>2021-03-21T09:08:11.000Z</time>
      </trkpt>
      <trkpt lat="47.12458" lon="-1.42694">
        <ele>106</ele>
        <time>2021-03-21T09:08:13.000Z</time>
      </trkpt>
      <trkpt lat="47.12457" lon="-1.42712">
        <ele>107</ele>
        <time>2021-03-21T09:08:15.000Z</time>
      </trkpt>
      <trkpt lat="47.12458" lon="-1.4273">
        <ele>107</ele>
        <time>2021-03-21T09:08:17.000Z</time>
      </trkpt>
      <trkpt lat="47.12462" lon="-1.42746">
        <ele>107</ele>
        <time>2021-03-21T09:08:19.000Z</time>
      </trkpt>
      <trkpt lat="47.12467" lon="-1.42762">
        <ele>106</ele>
        <time>2021-03-21T09:08:21.000Z</time>
      </trkpt>
      <trkpt lat="47.12473" lon="-1.42777">
        <ele>106</ele>
        <time>2021-03-21T09:08:23.000Z</time>
      </trkpt>
      <trkpt lat="47.12479" lon="-1.42791">
        <ele>106</ele>
        <time>2021-03-21T09:08:25.000Z</time>
      </trkpt>
      <trkpt lat="47.12486" lon="-1.42804">
        <ele>106</ele>
        <time>2021-03-21T09:08:27.000Z</time>
      </trkpt>
      <trkpt lat="47.12492" lon="-1.42817">
        <ele>106</ele>
        <time>2021-03-21T09:08:29.000Z</time>
      </trkpt>
      <trkpt lat="47.12499" lon="-1.42831">
        <ele>106</ele>
        <time>2021-03-21T09:08:31.000Z</time>
      </trkpt>
      <trkpt lat="47.12506" lon="-1.42846">
        <ele>106</ele>
        <time>2021-03-21T09:08:33.000Z</time>
      </trkpt>
      <trkpt lat="47.12512" lon="-1.42859">
        <ele>106</ele>
        <time>2021-03-21T09:08:35.000Z</time>
      </trkpt>
      <trkpt lat="47.12519" lon="-1.42872">
        <ele>106</ele>
        <time>2021-03-21T09:08:37.000Z</time>
      </trkpt>
      <trkpt lat="47.12526" lon="-1.42886">
        <ele>107</ele>
        <time>2021-03-21T09:08:39.000Z</time>
      </trkpt>
      <trkpt lat="47.12533" lon="-1.429">
        <ele>107</ele>
        <time>2021-03-21T09:08:41.000Z</time>
      </trkpt>
      <trkpt lat="47.12539" lon="-1.42914">
        <ele>106</ele>
        <time>2021-03-21T09:08:43.000Z</time>
      </trkpt>
      <trkpt lat="47.12546" lon="-1.42928">
        <ele>107</ele>
        <time>2021-03-21T09:08:45.000Z</time>
      </trkpt>
      <trkpt lat="47.12553" lon="-1.42943">
        <ele>107</ele>
        <time>2021-03-21T09:08:47.000Z</time>
      </trkpt>
      <trkpt lat="47.1256" lon="-1.42956">
        <ele>107</ele>
        <time>2021-03-21T09:08:49.000Z</time>
      </trkpt>
      <trkpt lat="47.12566" lon="-1.4297">
        <ele>107</ele>
        <time>2021-03-21T09:08:51.000Z</time>
      </trkpt>
      <trkpt lat="47.12572" lon="-1.42984">
        <ele>108</ele>
        <time>2021-03-21T09:08:53.000Z</time>
      </trkpt>
      <trkpt lat="47.12578" lon="-1.42998">
        <ele>108</ele>
        <time>2021-03-21T09:08:55.000Z</time>
      </trkpt>
      <trkpt lat="47.12588" lon="-1.43019">
        <ele>107</ele>
        <time>2021-03-21T09:08:58.000Z</time>
      </trkpt>
      <trkpt lat="47.12594" lon="-1.43034">
        <ele>107</ele>
        <time>2021-03-21T09:09:00.000Z</time>
      </trkpt>
      <trkpt lat="47.126" lon="-1.43048">
        <ele>108</ele>
        <time>2021-03-21T09:09:02.000Z</time>
      </trkpt>
      <trkpt lat="47.12606" lon="-1.43062">
        <ele>107</ele>
        <time>2021-03-21T09:09:04.000Z</time>
      </trkpt>
      <trkpt lat="47.12612" lon="-1.43076">
        <ele>106</ele>
        <time>2021-03-21T09:09:06.000Z</time>
      </trkpt>
      <trkpt lat="47.12618" lon="-1.4309">
        <ele>106</ele>
        <time>2021-03-21T09:09:08.000Z</time>
      </trkpt>
      <trkpt lat="47.12625" lon="-1.43106">
        <ele>106</ele>
        <time>2021-03-21T09:09:10.000Z</time>
      </trkpt>
      <trkpt lat="47.12631" lon="-1.43121">
        <ele>106</ele>
        <time>2021-03-21T09:09:12.000Z</time>
      </trkpt>
      <trkpt lat="47.12637" lon="-1.43137">
        <ele>106</ele>
        <time>2021-03-21T09:09:14.000Z</time>
      </trkpt>
      <trkpt lat="47.12642" lon="-1.43152">
        <ele>106</ele>
        <time>2021-03-21T09:09:16.000Z</time>
      </trkpt>
      <trkpt lat="47.12647" lon="-1.43169">
        <ele>106</ele>
        <time>2021-03-21T09:09:18.000Z</time>
      </trkpt>
      <trkpt lat="47.12652" lon="-1.43185">
        <ele>106</ele>
        <time>2021-03-21T09:09:20.000Z</time>
      </trkpt>
      <trkpt lat="47.12656" lon="-1.432">
        <ele>106</ele>
        <time>2021-03-21T09:09:22.000Z</time>
      </trkpt>
      <trkpt lat="47.12659" lon="-1.43217">
        <ele>105</ele>
        <time>2021-03-21T09:09:24.000Z</time>
      </trkpt>
      <trkpt lat="47.12663" lon="-1.43233">
        <ele>105</ele>
        <time>2021-03-21T09:09:26.000Z</time>
      </trkpt>
      <trkpt lat="47.12666" lon="-1.43249">
        <ele>106</ele>
        <time>2021-03-21T09:09:28.000Z</time>
      </trkpt>
      <trkpt lat="47.1267" lon="-1.43266">
        <ele>106</ele>
        <time>2021-03-21T09:09:30.000Z</time>
      </trkpt>
      <trkpt lat="47.12675" lon="-1.43282">
        <ele>106</ele>
        <time>2021-03-21T09:09:32.000Z</time>
      </trkpt>
      <trkpt lat="47.12681" lon="-1.43298">
        <ele>106</ele>
        <time>2021-03-21T09:09:34.000Z</time>
      </trkpt>
      <trkpt lat="47.12687" lon="-1.43313">
        <ele>106</ele>
        <time>2021-03-21T09:09:36.000Z</time>
      </trkpt>
      <trkpt lat="47.12693" lon="-1.43329">
        <ele>107</ele>
        <time>2021-03-21T09:09:38.000Z</time>
      </trkpt>
      <trkpt lat="47.127" lon="-1.43345">
        <ele>107</ele>
        <time>2021-03-21T09:09:40.000Z</time>
      </trkpt>
      <trkpt lat="47.12706" lon="-1.4336">
        <ele>106</ele>
        <time>2021-03-21T09:09:42.000Z</time>
      </trkpt>
      <trkpt lat="47.12713" lon="-1.43376">
        <ele>106</ele>
        <time>2021-03-21T09:09:44.000Z</time>
      </trkpt>
      <trkpt lat="47.12721" lon="-1.43392">
        <ele>106</ele>
        <time>2021-03-21T09:09:46.000Z</time>
      </trkpt>
      <trkpt lat="47.12728" lon="-1.4341">
        <ele>105</ele>
        <time>2021-03-21T09:09:48.000Z</time>
      </trkpt>
      <trkpt lat="47.12736" lon="-1.43427">
        <ele>105</ele>
        <time>2021-03-21T09:09:50.000Z</time>
      </trkpt>
      <trkpt lat="47.12743" lon="-1.43444">
        <ele>105</ele>
        <time>2021-03-21T09:09:52.000Z</time>
      </trkpt>
      <trkpt lat="47.1275" lon="-1.43461">
        <ele>105</ele>
        <time>2021-03-21T09:09:54.000Z</time>
      </trkpt>
      <trkpt lat="47.12758" lon="-1.43478">
        <ele>104</ele>
        <time>2021-03-21T09:09:56.000Z</time>
      </trkpt>
      <trkpt lat="47.12764" lon="-1.43496">
        <ele>104</ele>
        <time>2021-03-21T09:09:58.000Z</time>
      </trkpt>
      <trkpt lat="47.12769" lon="-1.43512">
        <ele>104</ele>
        <time>2021-03-21T09:10:00.000Z</time>
      </trkpt>
      <trkpt lat="47.12775" lon="-1.43529">
        <ele>104</ele>
        <time>2021-03-21T09:10:02.000Z</time>
      </trkpt>
      <trkpt lat="47.1278" lon="-1.43546">
        <ele>104</ele>
        <time>2021-03-21T09:10:04.000Z</time>
      </trkpt>
      <trkpt lat="47.12786" lon="-1.43564">
        <ele>104</ele>
        <time>2021-03-21T09:10:06.000Z</time>
      </trkpt>
      <trkpt lat="47.12791" lon="-1.43583">
        <ele>104</ele>
        <time>2021-03-21T09:10:08.000Z</time>
      </trkpt>
      <trkpt lat="47.12796" lon="-1.43601">
        <ele>104</ele>
        <time>2021-03-21T09:10:10.000Z</time>
      </trkpt>
      <trkpt lat="47.12804" lon="-1.43627">
        <ele>104</ele>
        <time>2021-03-21T09:10:13.000Z</time>
      </trkpt>
      <trkpt lat="47.1281" lon="-1.43644">
        <ele>104</ele>
        <time>2021-03-21T09:10:15.000Z</time>
      </trkpt>
      <trkpt lat="47.12817" lon="-1.43661">
        <ele>104</ele>
        <time>2021-03-21T09:10:17.000Z</time>
      </trkpt>
      <trkpt lat="47.12824" lon="-1.43678">
        <ele>104</ele>
        <time>2021-03-21T09:10:19.000Z</time>
      </trkpt>
      <trkpt lat="47.1283" lon="-1.43694">
        <ele>103</ele>
        <time>2021-03-21T09:10:21.000Z</time>
      </trkpt>
      <trkpt lat="47.12836" lon="-1.43711">
        <ele>103</ele>
        <time>2021-03-21T09:10:23.000Z</time>
      </trkpt>
      <trkpt lat="47.12843" lon="-1.43728">
        <ele>104</ele>
        <time>2021-03-21T09:10:25.000Z</time>
      </trkpt>
      <trkpt lat="47.12849" lon="-1.43745">
        <ele>104</ele>
        <time>2021-03-21T09:10:27.000Z</time>
      </trkpt>
      <trkpt lat="47.12855" lon="-1.43762">
        <ele>104</ele>
        <time>2021-03-21T09:10:29.000Z</time>
      </trkpt>
      <trkpt lat="47.12862" lon="-1.43788">
        <ele>104</ele>
        <time>2021-03-21T09:10:32.000Z</time>
      </trkpt>
      <trkpt lat="47.12868" lon="-1.43805">
        <ele>104</ele>
        <time>2021-03-21T09:10:34.000Z</time>
      </trkpt>
      <trkpt lat="47.12873" lon="-1.43822">
        <ele>105</ele>
        <time>2021-03-21T09:10:36.000Z</time>
      </trkpt>
      <trkpt lat="47.12877" lon="-1.43839">
        <ele>105</ele>
        <time>2021-03-21T09:10:38.000Z</time>
      </trkpt>
      <trkpt lat="47.12883" lon="-1.43857">
        <ele>105</ele>
        <time>2021-03-21T09:10:40.000Z</time>
      </trkpt>
      <trkpt lat="47.12888" lon="-1.43875">
        <ele>105</ele>
        <time>2021-03-21T09:10:42.000Z</time>
      </trkpt>
      <trkpt lat="47.12897" lon="-1.439">
        <ele>104</ele>
        <time>2021-03-21T09:10:45.000Z</time>
      </trkpt>
      <trkpt lat="47.12906" lon="-1.43925">
        <ele>104</ele>
        <time>2021-03-21T09:10:48.000Z</time>
      </trkpt>
      <trkpt lat="47.12913" lon="-1.43941">
        <ele>103</ele>
        <time>2021-03-21T09:10:50.000Z</time>
      </trkpt>
      <trkpt lat="47.1292" lon="-1.43957">
        <ele>104</ele>
        <time>2021-03-21T09:10:52.000Z</time>
      </trkpt>
      <trkpt lat="47.12927" lon="-1.43973">
        <ele>104</ele>
        <time>2021-03-21T09:10:54.000Z</time>
      </trkpt>
      <trkpt lat="47.12934" lon="-1.43988">
        <ele>104</ele>
        <time>2021-03-21T09:10:56.000Z</time>
      </trkpt>
      <trkpt lat="47.12943" lon="-1.44012">
        <ele>104</ele>
        <time>2021-03-21T09:10:59.000Z</time>
      </trkpt>
      <trkpt lat="47.1295" lon="-1.44028">
        <ele>104</ele>
        <time>2021-03-21T09:11:01.000Z</time>
      </trkpt>
      <trkpt lat="47.12956" lon="-1.44044">
        <ele>104</ele>
        <time>2021-03-21T09:11:03.000Z</time>
      </trkpt>
      <trkpt lat="47.12963" lon="-1.4406">
        <ele>104</ele>
        <time>2021-03-21T09:11:05.000Z</time>
      </trkpt>
      <trkpt lat="47.12972" lon="-1.44084">
        <ele>103</ele>
        <time>2021-03-21T09:11:08.000Z</time>
      </trkpt>
      <trkpt lat="47.12978" lon="-1.441">
        <ele>103</ele>
        <time>2021-03-21T09:11:10.000Z</time>
      </trkpt>
      <trkpt lat="47.12988" lon="-1.44125">
        <ele>103</ele>
        <time>2021-03-21T09:11:13.000Z</time>
      </trkpt>
      <trkpt lat="47.12994" lon="-1.44141">
        <ele>103</ele>
        <time>2021-03-21T09:11:15.000Z</time>
      </trkpt>
      <trkpt lat="47.13" lon="-1.44157">
        <ele>103</ele>
        <time>2021-03-21T09:11:17.000Z</time>
      </trkpt>
      <trkpt lat="47.13009" lon="-1.44182">
        <ele>103</ele>
        <time>2021-03-21T09:11:20.000Z</time>
      </trkpt>
      <trkpt lat="47.13016" lon="-1.44207">
        <ele>103</ele>
        <time>2021-03-21T09:11:23.000Z</time>
      </trkpt>
      <trkpt lat="47.1302" lon="-1.44224">
        <ele>102</ele>
        <time>2021-03-21T09:11:25.000Z</time>
      </trkpt>
      <trkpt lat="47.13024" lon="-1.4424">
        <ele>103</ele>
        <time>2021-03-21T09:11:27.000Z</time>
      </trkpt>
      <trkpt lat="47.13029" lon="-1.44264">
        <ele>103</ele>
        <time>2021-03-21T09:11:30.000Z</time>
      </trkpt>
      <trkpt lat="47.13032" lon="-1.44279">
        <ele>103</ele>
        <time>2021-03-21T09:11:32.000Z</time>
      </trkpt>
      <trkpt lat="47.13036" lon="-1.44292">
        <ele>103</ele>
        <time>2021-03-21T09:11:34.000Z</time>
      </trkpt>
      <trkpt lat="47.13041" lon="-1.44308">
        <ele>103</ele>
        <time>2021-03-21T09:11:36.000Z</time>
      </trkpt>
      <trkpt lat="47.13045" lon="-1.44325">
        <ele>103</ele>
        <time>2021-03-21T09:11:38.000Z</time>
      </trkpt>
      <trkpt lat="47.13047" lon="-1.44344">
        <ele>103</ele>
        <time>2021-03-21T09:11:40.000Z</time>
      </trkpt>
      <trkpt lat="47.13049" lon="-1.44363">
        <ele>103</ele>
        <time>2021-03-21T09:11:42.000Z</time>
      </trkpt>
      <trkpt lat="47.13053" lon="-1.44391">
        <ele>103</ele>
        <time>2021-03-21T09:11:45.000Z</time>
      </trkpt>
      <trkpt lat="47.13057" lon="-1.44409">
        <ele>103</ele>
        <time>2021-03-21T09:11:47.000Z</time>
      </trkpt>
      <trkpt lat="47.13062" lon="-1.44426">
        <ele>103</ele>
        <time>2021-03-21T09:11:49.000Z</time>
      </trkpt>
      <trkpt lat="47.13068" lon="-1.44443">
        <ele>103</ele>
        <time>2021-03-21T09:11:51.000Z</time>
      </trkpt>
      <trkpt lat="47.13073" lon="-1.4446">
        <ele>103</ele>
        <time>2021-03-21T09:11:53.000Z</time>
      </trkpt>
      <trkpt lat="47.13078" lon="-1.44476">
        <ele>103</ele>
        <time>2021-03-21T09:11:55.000Z</time>
      </trkpt>
      <trkpt lat="47.13086" lon="-1.44502">
        <ele>103</ele>
        <time>2021-03-21T09:11:58.000Z</time>
      </trkpt>
      <trkpt lat="47.13092" lon="-1.44519">
        <ele>103</ele>
        <time>2021-03-21T09:12:00.000Z</time>
      </trkpt>
      <trkpt lat="47.13097" lon="-1.44537">
        <ele>103</ele>
        <time>2021-03-21T09:12:02.000Z</time>
      </trkpt>
      <trkpt lat="47.131" lon="-1.44556">
        <ele>103</ele>
        <time>2021-03-21T09:12:04.000Z</time>
      </trkpt>
      <trkpt lat="47.13102" lon="-1.44574">
        <ele>103</ele>
        <time>2021-03-21T09:12:06.000Z</time>
      </trkpt>
      <trkpt lat="47.13104" lon="-1.44593">
        <ele>103</ele>
        <time>2021-03-21T09:12:08.000Z</time>
      </trkpt>
      <trkpt lat="47.13106" lon="-1.44611">
        <ele>103</ele>
        <time>2021-03-21T09:12:10.000Z</time>
      </trkpt>
      <trkpt lat="47.13107" lon="-1.44631">
        <ele>103</ele>
        <time>2021-03-21T09:12:12.000Z</time>
      </trkpt>
      <trkpt lat="47.13108" lon="-1.4465">
        <ele>102</ele>
        <time>2021-03-21T09:12:14.000Z</time>
      </trkpt>
      <trkpt lat="47.13109" lon="-1.4467">
        <ele>102</ele>
        <time>2021-03-21T09:12:16.000Z</time>
      </trkpt>
      <trkpt lat="47.13111" lon="-1.44689">
        <ele>102</ele>
        <time>2021-03-21T09:12:18.000Z</time>
      </trkpt>
      <trkpt lat="47.13113" lon="-1.44706">
        <ele>102</ele>
        <time>2021-03-21T09:12:20.000Z</time>
      </trkpt>
      <trkpt lat="47.13116" lon="-1.44724">
        <ele>102</ele>
        <time>2021-03-21T09:12:22.000Z</time>
      </trkpt>
      <trkpt lat="47.13119" lon="-1.44741">
        <ele>102</ele>
        <time>2021-03-21T09:12:24.000Z</time>
      </trkpt>
      <trkpt lat="47.13124" lon="-1.44759">
        <ele>102</ele>
        <time>2021-03-21T09:12:26.000Z</time>
      </trkpt>
      <trkpt lat="47.13128" lon="-1.44778">
        <ele>102</ele>
        <time>2021-03-21T09:12:28.000Z</time>
      </trkpt>
      <trkpt lat="47.13132" lon="-1.44796">
        <ele>101</ele>
        <time>2021-03-21T09:12:30.000Z</time>
      </trkpt>
      <trkpt lat="47.13136" lon="-1.44823">
        <ele>101</ele>
        <time>2021-03-21T09:12:33.000Z</time>
      </trkpt>
      <trkpt lat="47.13136" lon="-1.44841">
        <ele>101</ele>
        <time>2021-03-21T09:12:35.000Z</time>
      </trkpt>
      <trkpt lat="47.13135" lon="-1.4486">
        <ele>102</ele>
        <time>2021-03-21T09:12:37.000Z</time>
      </trkpt>
      <trkpt lat="47.13132" lon="-1.44879">
        <ele>102</ele>
        <time>2021-03-21T09:12:39.000Z</time>
      </trkpt>
      <trkpt lat="47.1313" lon="-1.44897">
        <ele>102</ele>
        <time>2021-03-21T09:12:41.000Z</time>
      </trkpt>
      <trkpt lat="47.13127" lon="-1.44916">
        <ele>102</ele>
        <time>2021-03-21T09:12:43.000Z</time>
      </trkpt>
      <trkpt lat="47.13125" lon="-1.44933">
        <ele>102</ele>
        <time>2021-03-21T09:12:45.000Z</time>
      </trkpt>
      <trkpt lat="47.13123" lon="-1.44951">
        <ele>102</ele>
        <time>2021-03-21T09:12:47.000Z</time>
      </trkpt>
      <trkpt lat="47.1312" lon="-1.44969">
        <ele>102</ele>
        <time>2021-03-21T09:12:49.000Z</time>
      </trkpt>
      <trkpt lat="47.13119" lon="-1.44985">
        <ele>103</ele>
        <time>2021-03-21T09:12:51.000Z</time>
      </trkpt>
      <trkpt lat="47.13117" lon="-1.45003">
        <ele>102</ele>
        <time>2021-03-21T09:12:53.000Z</time>
      </trkpt>
      <trkpt lat="47.13115" lon="-1.45019">
        <ele>102</ele>
        <time>2021-03-21T09:12:55.000Z</time>
      </trkpt>
      <trkpt lat="47.13113" lon="-1.45036">
        <ele>102</ele>
        <time>2021-03-21T09:12:57.000Z</time>
      </trkpt>
      <trkpt lat="47.13112" lon="-1.45052">
        <ele>103</ele>
        <time>2021-03-21T09:12:59.000Z</time>
      </trkpt>
      <trkpt lat="47.1311" lon="-1.4507">
        <ele>103</ele>
        <time>2021-03-21T09:13:01.000Z</time>
      </trkpt>
      <trkpt lat="47.13109" lon="-1.45086">
        <ele>103</ele>
        <time>2021-03-21T09:13:03.000Z</time>
      </trkpt>
      <trkpt lat="47.13107" lon="-1.45102">
        <ele>103</ele>
        <time>2021-03-21T09:13:05.000Z</time>
      </trkpt>
      <trkpt lat="47.13105" lon="-1.45117">
        <ele>104</ele>
        <time>2021-03-21T09:13:07.000Z</time>
      </trkpt>
      <trkpt lat="47.13102" lon="-1.45132">
        <ele>104</ele>
        <time>2021-03-21T09:13:09.000Z</time>
      </trkpt>
      <trkpt lat="47.13098" lon="-1.45147">
        <ele>104</ele>
        <time>2021-03-21T09:13:11.000Z</time>
      </trkpt>
      <trkpt lat="47.13094" lon="-1.45162">
        <ele>104</ele>
        <time>2021-03-21T09:13:13.000Z</time>
      </trkpt>
      <trkpt lat="47.13091" lon="-1.45177">
        <ele>104</ele>
        <time>2021-03-21T09:13:15.000Z</time>
      </trkpt>
      <trkpt lat="47.13088" lon="-1.45193">
        <ele>104</ele>
        <time>2021-03-21T09:13:17.000Z</time>
      </trkpt>
      <trkpt lat="47.13086" lon="-1.4521">
        <ele>105</ele>
        <time>2021-03-21T09:13:19.000Z</time>
      </trkpt>
      <trkpt lat="47.13085" lon="-1.45226">
        <ele>105</ele>
        <time>2021-03-21T09:13:21.000Z</time>
      </trkpt>
      <trkpt lat="47.13083" lon="-1.45241">
        <ele>105</ele>
        <time>2021-03-21T09:13:23.000Z</time>
      </trkpt>
      <trkpt lat="47.13082" lon="-1.45257">
        <ele>105</ele>
        <time>2021-03-21T09:13:25.000Z</time>
      </trkpt>
      <trkpt lat="47.13082" lon="-1.45273">
        <ele>104</ele>
        <time>2021-03-21T09:13:27.000Z</time>
      </trkpt>
      <trkpt lat="47.13089" lon="-1.45286">
        <ele>105</ele>
        <time>2021-03-21T09:13:29.000Z</time>
      </trkpt>
      <trkpt lat="47.13099" lon="-1.45294">
        <ele>105</ele>
        <time>2021-03-21T09:13:31.000Z</time>
      </trkpt>
      <trkpt lat="47.13115" lon="-1.45306">
        <ele>105</ele>
        <time>2021-03-21T09:13:34.000Z</time>
      </trkpt>
      <trkpt lat="47.13126" lon="-1.45316">
        <ele>106</ele>
        <time>2021-03-21T09:13:36.000Z</time>
      </trkpt>
      <trkpt lat="47.13137" lon="-1.45325">
        <ele>105</ele>
        <time>2021-03-21T09:13:38.000Z</time>
      </trkpt>
      <trkpt lat="47.13147" lon="-1.45335">
        <ele>105</ele>
        <time>2021-03-21T09:13:40.000Z</time>
      </trkpt>
      <trkpt lat="47.13158" lon="-1.45344">
        <ele>106</ele>
        <time>2021-03-21T09:13:42.000Z</time>
      </trkpt>
      <trkpt lat="47.13173" lon="-1.4536">
        <ele>106</ele>
        <time>2021-03-21T09:13:45.000Z</time>
      </trkpt>
      <trkpt lat="47.13183" lon="-1.45372">
        <ele>107</ele>
        <time>2021-03-21T09:13:47.000Z</time>
      </trkpt>
      <trkpt lat="47.13193" lon="-1.45385">
        <ele>106</ele>
        <time>2021-03-21T09:13:49.000Z</time>
      </trkpt>
      <trkpt lat="47.13202" lon="-1.45397">
        <ele>106</ele>
        <time>2021-03-21T09:13:51.000Z</time>
      </trkpt>
      <trkpt lat="47.13211" lon="-1.45411">
        <ele>106</ele>
        <time>2021-03-21T09:13:53.000Z</time>
      </trkpt>
      <trkpt lat="47.13221" lon="-1.45424">
        <ele>106</ele>
        <time>2021-03-21T09:13:55.000Z</time>
      </trkpt>
      <trkpt lat="47.1323" lon="-1.45439">
        <ele>105</ele>
        <time>2021-03-21T09:13:57.000Z</time>
      </trkpt>
      <trkpt lat="47.13239" lon="-1.45452">
        <ele>104</ele>
        <time>2021-03-21T09:13:59.000Z</time>
      </trkpt>
      <trkpt lat="47.13247" lon="-1.45466">
        <ele>104</ele>
        <time>2021-03-21T09:14:01.000Z</time>
      </trkpt>
      <trkpt lat="47.13256" lon="-1.45481">
        <ele>104</ele>
        <time>2021-03-21T09:14:03.000Z</time>
      </trkpt>
      <trkpt lat="47.13266" lon="-1.45496">
        <ele>104</ele>
        <time>2021-03-21T09:14:05.000Z</time>
      </trkpt>
      <trkpt lat="47.13275" lon="-1.4551">
        <ele>104</ele>
        <time>2021-03-21T09:14:07.000Z</time>
      </trkpt>
      <trkpt lat="47.13284" lon="-1.45525">
        <ele>103</ele>
        <time>2021-03-21T09:14:09.000Z</time>
      </trkpt>
      <trkpt lat="47.13293" lon="-1.45539">
        <ele>103</ele>
        <time>2021-03-21T09:14:11.000Z</time>
      </trkpt>
      <trkpt lat="47.13302" lon="-1.45554">
        <ele>103</ele>
        <time>2021-03-21T09:14:13.000Z</time>
      </trkpt>
      <trkpt lat="47.13312" lon="-1.4557">
        <ele>102</ele>
        <time>2021-03-21T09:14:15.000Z</time>
      </trkpt>
      <trkpt lat="47.13322" lon="-1.45585">
        <ele>102</ele>
        <time>2021-03-21T09:14:17.000Z</time>
      </trkpt>
      <trkpt lat="47.13336" lon="-1.45608">
        <ele>102</ele>
        <time>2021-03-21T09:14:20.000Z</time>
      </trkpt>
      <trkpt lat="47.13346" lon="-1.45624">
        <ele>101</ele>
        <time>2021-03-21T09:14:22.000Z</time>
      </trkpt>
      <trkpt lat="47.13356" lon="-1.45639">
        <ele>101</ele>
        <time>2021-03-21T09:14:24.000Z</time>
      </trkpt>
      <trkpt lat="47.13365" lon="-1.45653">
        <ele>101</ele>
        <time>2021-03-21T09:14:26.000Z</time>
      </trkpt>
      <trkpt lat="47.13374" lon="-1.45667">
        <ele>101</ele>
        <time>2021-03-21T09:14:28.000Z</time>
      </trkpt>
      <trkpt lat="47.13383" lon="-1.4568">
        <ele>101</ele>
        <time>2021-03-21T09:14:30.000Z</time>
      </trkpt>
      <trkpt lat="47.13392" lon="-1.45694">
        <ele>101</ele>
        <time>2021-03-21T09:14:32.000Z</time>
      </trkpt>
      <trkpt lat="47.13401" lon="-1.45708">
        <ele>101</ele>
        <time>2021-03-21T09:14:34.000Z</time>
      </trkpt>
      <trkpt lat="47.13409" lon="-1.4572">
        <ele>101</ele>
        <time>2021-03-21T09:14:36.000Z</time>
      </trkpt>
      <trkpt lat="47.13417" lon="-1.45733">
        <ele>101</ele>
        <time>2021-03-21T09:14:38.000Z</time>
      </trkpt>
      <trkpt lat="47.13426" lon="-1.45746">
        <ele>102</ele>
        <time>2021-03-21T09:14:40.000Z</time>
      </trkpt>
      <trkpt lat="47.13434" lon="-1.45757">
        <ele>102</ele>
        <time>2021-03-21T09:14:42.000Z</time>
      </trkpt>
      <trkpt lat="47.13442" lon="-1.4577">
        <ele>103</ele>
        <time>2021-03-21T09:14:44.000Z</time>
      </trkpt>
      <trkpt lat="47.13451" lon="-1.45782">
        <ele>103</ele>
        <time>2021-03-21T09:14:46.000Z</time>
      </trkpt>
      <trkpt lat="47.13458" lon="-1.45793">
        <ele>103</ele>
        <time>2021-03-21T09:14:48.000Z</time>
      </trkpt>
      <trkpt lat="47.13467" lon="-1.45805">
        <ele>103</ele>
        <time>2021-03-21T09:14:50.000Z</time>
      </trkpt>
      <trkpt lat="47.13474" lon="-1.45817">
        <ele>104</ele>
        <time>2021-03-21T09:14:52.000Z</time>
      </trkpt>
      <trkpt lat="47.13482" lon="-1.45829">
        <ele>104</ele>
        <time>2021-03-21T09:14:54.000Z</time>
      </trkpt>
      <trkpt lat="47.13491" lon="-1.45842">
        <ele>104</ele>
        <time>2021-03-21T09:14:56.000Z</time>
      </trkpt>
      <trkpt lat="47.135" lon="-1.45854">
        <ele>105</ele>
        <time>2021-03-21T09:14:58.000Z</time>
      </trkpt>
      <trkpt lat="47.13508" lon="-1.45866">
        <ele>105</ele>
        <time>2021-03-21T09:15:00.000Z</time>
      </trkpt>
      <trkpt lat="47.13516" lon="-1.45878">
        <ele>105</ele>
        <time>2021-03-21T09:15:02.000Z</time>
      </trkpt>
      <trkpt lat="47.13524" lon="-1.45889">
        <ele>105</ele>
        <time>2021-03-21T09:15:04.000Z</time>
      </trkpt>
      <trkpt lat="47.13532" lon="-1.45902">
        <ele>105</ele>
        <time>2021-03-21T09:15:06.000Z</time>
      </trkpt>
      <trkpt lat="47.13541" lon="-1.45915">
        <ele>105</ele>
        <time>2021-03-21T09:15:08.000Z</time>
      </trkpt>
      <trkpt lat="47.13549" lon="-1.45928">
        <ele>106</ele>
        <time>2021-03-21T09:15:10.000Z</time>
      </trkpt>
      <trkpt lat="47.13555" lon="-1.45941">
        <ele>106</ele>
        <time>2021-03-21T09:15:12.000Z</time>
      </trkpt>
      <trkpt lat="47.13563" lon="-1.45954">
        <ele>106</ele>
        <time>2021-03-21T09:15:14.000Z</time>
      </trkpt>
      <trkpt lat="47.13568" lon="-1.45968">
        <ele>107</ele>
        <time>2021-03-21T09:15:16.000Z</time>
      </trkpt>
      <trkpt lat="47.13574" lon="-1.45983">
        <ele>107</ele>
        <time>2021-03-21T09:15:18.000Z</time>
      </trkpt>
      <trkpt lat="47.13579" lon="-1.45999">
        <ele>107</ele>
        <time>2021-03-21T09:15:20.000Z</time>
      </trkpt>
      <trkpt lat="47.13584" lon="-1.46015">
        <ele>107</ele>
        <time>2021-03-21T09:15:22.000Z</time>
      </trkpt>
      <trkpt lat="47.1359" lon="-1.46031">
        <ele>106</ele>
        <time>2021-03-21T09:15:24.000Z</time>
      </trkpt>
      <trkpt lat="47.13595" lon="-1.46048">
        <ele>106</ele>
        <time>2021-03-21T09:15:26.000Z</time>
      </trkpt>
      <trkpt lat="47.13599" lon="-1.46065">
        <ele>106</ele>
        <time>2021-03-21T09:15:28.000Z</time>
      </trkpt>
      <trkpt lat="47.13604" lon="-1.46081">
        <ele>105</ele>
        <time>2021-03-21T09:15:30.000Z</time>
      </trkpt>
      <trkpt lat="47.13609" lon="-1.46096">
        <ele>106</ele>
        <time>2021-03-21T09:15:32.000Z</time>
      </trkpt>
      <trkpt lat="47.13615" lon="-1.46112">
        <ele>106</ele>
        <time>2021-03-21T09:15:34.000Z</time>
      </trkpt>
      <trkpt lat="47.13619" lon="-1.46128">
        <ele>106</ele>
        <time>2021-03-21T09:15:36.000Z</time>
      </trkpt>
      <trkpt lat="47.13624" lon="-1.46145">
        <ele>106</ele>
        <time>2021-03-21T09:15:38.000Z</time>
      </trkpt>
      <trkpt lat="47.13629" lon="-1.46161">
        <ele>106</ele>
        <time>2021-03-21T09:15:40.000Z</time>
      </trkpt>
      <trkpt lat="47.13634" lon="-1.46177">
        <ele>106</ele>
        <time>2021-03-21T09:15:42.000Z</time>
      </trkpt>
      <trkpt lat="47.13639" lon="-1.46193">
        <ele>106</ele>
        <time>2021-03-21T09:15:44.000Z</time>
      </trkpt>
      <trkpt lat="47.13644" lon="-1.46208">
        <ele>105</ele>
        <time>2021-03-21T09:15:46.000Z</time>
      </trkpt>
      <trkpt lat="47.13649" lon="-1.46223">
        <ele>105</ele>
        <time>2021-03-21T09:15:48.000Z</time>
      </trkpt>
      <trkpt lat="47.13654" lon="-1.46238">
        <ele>105</ele>
        <time>2021-03-21T09:15:50.000Z</time>
      </trkpt>
      <trkpt lat="47.13659" lon="-1.46254">
        <ele>105</ele>
        <time>2021-03-21T09:15:52.000Z</time>
      </trkpt>
      <trkpt lat="47.13664" lon="-1.46269">
        <ele>105</ele>
        <time>2021-03-21T09:15:54.000Z</time>
      </trkpt>
      <trkpt lat="47.13669" lon="-1.46285">
        <ele>105</ele>
        <time>2021-03-21T09:15:56.000Z</time>
      </trkpt>
      <trkpt lat="47.13673" lon="-1.46302">
        <ele>105</ele>
        <time>2021-03-21T09:15:58.000Z</time>
      </trkpt>
      <trkpt lat="47.13675" lon="-1.46319">
        <ele>105</ele>
        <time>2021-03-21T09:16:00.000Z</time>
      </trkpt>
      <trkpt lat="47.13677" lon="-1.46336">
        <ele>105</ele>
        <time>2021-03-21T09:16:02.000Z</time>
      </trkpt>
      <trkpt lat="47.13679" lon="-1.46354">
        <ele>105</ele>
        <time>2021-03-21T09:16:04.000Z</time>
      </trkpt>
      <trkpt lat="47.1368" lon="-1.46371">
        <ele>105</ele>
        <time>2021-03-21T09:16:06.000Z</time>
      </trkpt>
      <trkpt lat="47.13679" lon="-1.46388">
        <ele>105</ele>
        <time>2021-03-21T09:16:08.000Z</time>
      </trkpt>
      <trkpt lat="47.13678" lon="-1.46405">
        <ele>105</ele>
        <time>2021-03-21T09:16:10.000Z</time>
      </trkpt>
      <trkpt lat="47.13677" lon="-1.46422">
        <ele>105</ele>
        <time>2021-03-21T09:16:12.000Z</time>
      </trkpt>
      <trkpt lat="47.13676" lon="-1.46439">
        <ele>105</ele>
        <time>2021-03-21T09:16:14.000Z</time>
      </trkpt>
      <trkpt lat="47.13677" lon="-1.46458">
        <ele>105</ele>
        <time>2021-03-21T09:16:16.000Z</time>
      </trkpt>
      <trkpt lat="47.1368" lon="-1.46476">
        <ele>105</ele>
        <time>2021-03-21T09:16:18.000Z</time>
      </trkpt>
      <trkpt lat="47.13685" lon="-1.46493">
        <ele>105</ele>
        <time>2021-03-21T09:16:20.000Z</time>
      </trkpt>
      <trkpt lat="47.1369" lon="-1.4651">
        <ele>105</ele>
        <time>2021-03-21T09:16:22.000Z</time>
      </trkpt>
      <trkpt lat="47.13696" lon="-1.46526">
        <ele>105</ele>
        <time>2021-03-21T09:16:24.000Z</time>
      </trkpt>
      <trkpt lat="47.13703" lon="-1.46542">
        <ele>104</ele>
        <time>2021-03-21T09:16:26.000Z</time>
      </trkpt>
      <trkpt lat="47.1371" lon="-1.46558">
        <ele>104</ele>
        <time>2021-03-21T09:16:28.000Z</time>
      </trkpt>
      <trkpt lat="47.13715" lon="-1.46574">
        <ele>104</ele>
        <time>2021-03-21T09:16:30.000Z</time>
      </trkpt>
      <trkpt lat="47.1372" lon="-1.46591">
        <ele>103</ele>
        <time>2021-03-21T09:16:32.000Z</time>
      </trkpt>
      <trkpt lat="47.13724" lon="-1.4661">
        <ele>102</ele>
        <time>2021-03-21T09:16:34.000Z</time>
      </trkpt>
      <trkpt lat="47.13727" lon="-1.46629">
        <ele>102</ele>
        <time>2021-03-21T09:16:36.000Z</time>
      </trkpt>
      <trkpt lat="47.13731" lon="-1.46648">
        <ele>102</ele>
        <time>2021-03-21T09:16:38.000Z</time>
      </trkpt>
      <trkpt lat="47.13735" lon="-1.46666">
        <ele>102</ele>
        <time>2021-03-21T09:16:40.000Z</time>
      </trkpt>
      <trkpt lat="47.13738" lon="-1.46685">
        <ele>102</ele>
        <time>2021-03-21T09:16:42.000Z</time>
      </trkpt>
      <trkpt lat="47.13742" lon="-1.46702">
        <ele>102</ele>
        <time>2021-03-21T09:16:44.000Z</time>
      </trkpt>
      <trkpt lat="47.13746" lon="-1.46719">
        <ele>101</ele>
        <time>2021-03-21T09:16:46.000Z</time>
      </trkpt>
      <trkpt lat="47.13749" lon="-1.46735">
        <ele>101</ele>
        <time>2021-03-21T09:16:48.000Z</time>
      </trkpt>
      <trkpt lat="47.13752" lon="-1.46749">
        <ele>102</ele>
        <time>2021-03-21T09:16:50.000Z</time>
      </trkpt>
      <trkpt lat="47.13756" lon="-1.46763">
        <ele>101</ele>
        <time>2021-03-21T09:16:53.000Z</time>
      </trkpt>
      <trkpt lat="47.13759" lon="-1.46776">
        <ele>101</ele>
        <time>2021-03-21T09:16:55.000Z</time>
      </trkpt>
      <trkpt lat="47.13761" lon="-1.46793">
        <ele>101</ele>
        <time>2021-03-21T09:16:57.000Z</time>
      </trkpt>
      <trkpt lat="47.13765" lon="-1.46812">
        <ele>100</ele>
        <time>2021-03-21T09:16:59.000Z</time>
      </trkpt>
      <trkpt lat="47.13768" lon="-1.46829">
        <ele>100</ele>
        <time>2021-03-21T09:17:01.000Z</time>
      </trkpt>
      <trkpt lat="47.13771" lon="-1.46847">
        <ele>99</ele>
        <time>2021-03-21T09:17:03.000Z</time>
      </trkpt>
      <trkpt lat="47.13774" lon="-1.46865">
        <ele>98</ele>
        <time>2021-03-21T09:17:05.000Z</time>
      </trkpt>
      <trkpt lat="47.13776" lon="-1.46884">
        <ele>98</ele>
        <time>2021-03-21T09:17:07.000Z</time>
      </trkpt>
      <trkpt lat="47.13778" lon="-1.46903">
        <ele>98</ele>
        <time>2021-03-21T09:17:09.000Z</time>
      </trkpt>
      <trkpt lat="47.1378" lon="-1.46922">
        <ele>98</ele>
        <time>2021-03-21T09:17:11.000Z</time>
      </trkpt>
      <trkpt lat="47.13782" lon="-1.46941">
        <ele>98</ele>
        <time>2021-03-21T09:17:13.000Z</time>
      </trkpt>
      <trkpt lat="47.13783" lon="-1.4696">
        <ele>99</ele>
        <time>2021-03-21T09:17:15.000Z</time>
      </trkpt>
      <trkpt lat="47.13785" lon="-1.46979">
        <ele>99</ele>
        <time>2021-03-21T09:17:17.000Z</time>
      </trkpt>
      <trkpt lat="47.13786" lon="-1.46999">
        <ele>99</ele>
        <time>2021-03-21T09:17:19.000Z</time>
      </trkpt>
      <trkpt lat="47.13787" lon="-1.47018">
        <ele>99</ele>
        <time>2021-03-21T09:17:21.000Z</time>
      </trkpt>
      <trkpt lat="47.13788" lon="-1.47038">
        <ele>98</ele>
        <time>2021-03-21T09:17:23.000Z</time>
      </trkpt>
      <trkpt lat="47.13787" lon="-1.47058">
        <ele>98</ele>
        <time>2021-03-21T09:17:25.000Z</time>
      </trkpt>
      <trkpt lat="47.13785" lon="-1.47076">
        <ele>98</ele>
        <time>2021-03-21T09:17:27.000Z</time>
      </trkpt>
      <trkpt lat="47.13785" lon="-1.47095">
        <ele>98</ele>
        <time>2021-03-21T09:17:29.000Z</time>
      </trkpt>
      <trkpt lat="47.13784" lon="-1.47114">
        <ele>98</ele>
        <time>2021-03-21T09:17:31.000Z</time>
      </trkpt>
      <trkpt lat="47.13783" lon="-1.47132">
        <ele>98</ele>
        <time>2021-03-21T09:17:33.000Z</time>
      </trkpt>
      <trkpt lat="47.13782" lon="-1.47151">
        <ele>97</ele>
        <time>2021-03-21T09:17:35.000Z</time>
      </trkpt>
      <trkpt lat="47.13782" lon="-1.4717">
        <ele>97</ele>
        <time>2021-03-21T09:17:37.000Z</time>
      </trkpt>
      <trkpt lat="47.13782" lon="-1.47187">
        <ele>97</ele>
        <time>2021-03-21T09:17:39.000Z</time>
      </trkpt>
      <trkpt lat="47.13784" lon="-1.47205">
        <ele>97</ele>
        <time>2021-03-21T09:17:41.000Z</time>
      </trkpt>
      <trkpt lat="47.13785" lon="-1.47224">
        <ele>97</ele>
        <time>2021-03-21T09:17:43.000Z</time>
      </trkpt>
      <trkpt lat="47.13788" lon="-1.47241">
        <ele>97</ele>
        <time>2021-03-21T09:17:45.000Z</time>
      </trkpt>
      <trkpt lat="47.13792" lon="-1.47258">
        <ele>97</ele>
        <time>2021-03-21T09:17:47.000Z</time>
      </trkpt>
      <trkpt lat="47.13797" lon="-1.47274">
        <ele>97</ele>
        <time>2021-03-21T09:17:49.000Z</time>
      </trkpt>
      <trkpt lat="47.13802" lon="-1.4729">
        <ele>97</ele>
        <time>2021-03-21T09:17:51.000Z</time>
      </trkpt>
      <trkpt lat="47.13806" lon="-1.47306">
        <ele>97</ele>
        <time>2021-03-21T09:17:53.000Z</time>
      </trkpt>
      <trkpt lat="47.13811" lon="-1.47321">
        <ele>97</ele>
        <time>2021-03-21T09:17:55.000Z</time>
      </trkpt>
      <trkpt lat="47.13816" lon="-1.47338">
        <ele>97</ele>
        <time>2021-03-21T09:17:57.000Z</time>
      </trkpt>
      <trkpt lat="47.1382" lon="-1.47354">
        <ele>97</ele>
        <time>2021-03-21T09:17:59.000Z</time>
      </trkpt>
      <trkpt lat="47.13825" lon="-1.47369">
        <ele>97</ele>
        <time>2021-03-21T09:18:01.000Z</time>
      </trkpt>
      <trkpt lat="47.13829" lon="-1.47385">
        <ele>97</ele>
        <time>2021-03-21T09:18:03.000Z</time>
      </trkpt>
      <trkpt lat="47.13834" lon="-1.47401">
        <ele>98</ele>
        <time>2021-03-21T09:18:05.000Z</time>
      </trkpt>
      <trkpt lat="47.13838" lon="-1.47417">
        <ele>98</ele>
        <time>2021-03-21T09:18:07.000Z</time>
      </trkpt>
      <trkpt lat="47.13842" lon="-1.47433">
        <ele>98</ele>
        <time>2021-03-21T09:18:09.000Z</time>
      </trkpt>
      <trkpt lat="47.13845" lon="-1.47449">
        <ele>99</ele>
        <time>2021-03-21T09:18:11.000Z</time>
      </trkpt>
      <trkpt lat="47.13848" lon="-1.47465">
        <ele>99</ele>
        <time>2021-03-21T09:18:13.000Z</time>
      </trkpt>
      <trkpt lat="47.13853" lon="-1.4748">
        <ele>99</ele>
        <time>2021-03-21T09:18:15.000Z</time>
      </trkpt>
      <trkpt lat="47.13857" lon="-1.47497">
        <ele>98</ele>
        <time>2021-03-21T09:18:17.000Z</time>
      </trkpt>
      <trkpt lat="47.13862" lon="-1.47514">
        <ele>98</ele>
        <time>2021-03-21T09:18:19.000Z</time>
      </trkpt>
      <trkpt lat="47.13867" lon="-1.4753">
        <ele>98</ele>
        <time>2021-03-21T09:18:21.000Z</time>
      </trkpt>
      <trkpt lat="47.13872" lon="-1.47546">
        <ele>98</ele>
        <time>2021-03-21T09:18:23.000Z</time>
      </trkpt>
      <trkpt lat="47.13876" lon="-1.47562">
        <ele>98</ele>
        <time>2021-03-21T09:18:25.000Z</time>
      </trkpt>
      <trkpt lat="47.13881" lon="-1.47579">
        <ele>98</ele>
        <time>2021-03-21T09:18:27.000Z</time>
      </trkpt>
      <trkpt lat="47.13885" lon="-1.47596">
        <ele>98</ele>
        <time>2021-03-21T09:18:29.000Z</time>
      </trkpt>
      <trkpt lat="47.13889" lon="-1.47613">
        <ele>98</ele>
        <time>2021-03-21T09:18:31.000Z</time>
      </trkpt>
      <trkpt lat="47.13894" lon="-1.47629">
        <ele>98</ele>
        <time>2021-03-21T09:18:33.000Z</time>
      </trkpt>
      <trkpt lat="47.13898" lon="-1.47646">
        <ele>98</ele>
        <time>2021-03-21T09:18:35.000Z</time>
      </trkpt>
      <trkpt lat="47.13902" lon="-1.47663">
        <ele>98</ele>
        <time>2021-03-21T09:18:37.000Z</time>
      </trkpt>
      <trkpt lat="47.13907" lon="-1.47679">
        <ele>98</ele>
        <time>2021-03-21T09:18:39.000Z</time>
      </trkpt>
      <trkpt lat="47.13911" lon="-1.47696">
        <ele>98</ele>
        <time>2021-03-21T09:18:41.000Z</time>
      </trkpt>
      <trkpt lat="47.13916" lon="-1.47712">
        <ele>97</ele>
        <time>2021-03-21T09:18:43.000Z</time>
      </trkpt>
      <trkpt lat="47.1392" lon="-1.4773">
        <ele>98</ele>
        <time>2021-03-21T09:18:45.000Z</time>
      </trkpt>
      <trkpt lat="47.13924" lon="-1.47747">
        <ele>97</ele>
        <time>2021-03-21T09:18:47.000Z</time>
      </trkpt>
      <trkpt lat="47.1393" lon="-1.47765">
        <ele>97</ele>
        <time>2021-03-21T09:18:49.000Z</time>
      </trkpt>
      <trkpt lat="47.13934" lon="-1.47783">
        <ele>98</ele>
        <time>2021-03-21T09:18:51.000Z</time>
      </trkpt>
      <trkpt lat="47.1394" lon="-1.478">
        <ele>98</ele>
        <time>2021-03-21T09:18:53.000Z</time>
      </trkpt>
      <trkpt lat="47.13944" lon="-1.47818">
        <ele>97</ele>
        <time>2021-03-21T09:18:55.000Z</time>
      </trkpt>
      <trkpt lat="47.13949" lon="-1.47835">
        <ele>98</ele>
        <time>2021-03-21T09:18:57.000Z</time>
      </trkpt>
      <trkpt lat="47.13954" lon="-1.47852">
        <ele>98</ele>
        <time>2021-03-21T09:18:59.000Z</time>
      </trkpt>
      <trkpt lat="47.13959" lon="-1.47869">
        <ele>98</ele>
        <time>2021-03-21T09:19:01.000Z</time>
      </trkpt>
      <trkpt lat="47.13964" lon="-1.47887">
        <ele>98</ele>
        <time>2021-03-21T09:19:03.000Z</time>
      </trkpt>
      <trkpt lat="47.13968" lon="-1.47903">
        <ele>98</ele>
        <time>2021-03-21T09:19:05.000Z</time>
      </trkpt>
      <trkpt lat="47.13972" lon="-1.47922">
        <ele>98</ele>
        <time>2021-03-21T09:19:07.000Z</time>
      </trkpt>
      <trkpt lat="47.13976" lon="-1.47941">
        <ele>98</ele>
        <time>2021-03-21T09:19:09.000Z</time>
      </trkpt>
      <trkpt lat="47.13979" lon="-1.4796">
        <ele>98</ele>
        <time>2021-03-21T09:19:11.000Z</time>
      </trkpt>
      <trkpt lat="47.13981" lon="-1.47979">
        <ele>97</ele>
        <time>2021-03-21T09:19:13.000Z</time>
      </trkpt>
      <trkpt lat="47.13983" lon="-1.47997">
        <ele>98</ele>
        <time>2021-03-21T09:19:15.000Z</time>
      </trkpt>
      <trkpt lat="47.13984" lon="-1.48016">
        <ele>98</ele>
        <time>2021-03-21T09:19:17.000Z</time>
      </trkpt>
      <trkpt lat="47.13985" lon="-1.48035">
        <ele>97</ele>
        <time>2021-03-21T09:19:19.000Z</time>
      </trkpt>
      <trkpt lat="47.13986" lon="-1.48054">
        <ele>97</ele>
        <time>2021-03-21T09:19:21.000Z</time>
      </trkpt>
      <trkpt lat="47.13986" lon="-1.48074">
        <ele>98</ele>
        <time>2021-03-21T09:19:23.000Z</time>
      </trkpt>
      <trkpt lat="47.13987" lon="-1.48093">
        <ele>98</ele>
        <time>2021-03-21T09:19:25.000Z</time>
      </trkpt>
      <trkpt lat="47.13987" lon="-1.48112">
        <ele>98</ele>
        <time>2021-03-21T09:19:27.000Z</time>
      </trkpt>
      <trkpt lat="47.13988" lon="-1.48131">
        <ele>98</ele>
        <time>2021-03-21T09:19:29.000Z</time>
      </trkpt>
      <trkpt lat="47.13989" lon="-1.4815">
        <ele>98</ele>
        <time>2021-03-21T09:19:31.000Z</time>
      </trkpt>
      <trkpt lat="47.13988" lon="-1.48169">
        <ele>97</ele>
        <time>2021-03-21T09:19:33.000Z</time>
      </trkpt>
      <trkpt lat="47.13989" lon="-1.48188">
        <ele>97</ele>
        <time>2021-03-21T09:19:35.000Z</time>
      </trkpt>
      <trkpt lat="47.1399" lon="-1.48207">
        <ele>97</ele>
        <time>2021-03-21T09:19:37.000Z</time>
      </trkpt>
      <trkpt lat="47.13991" lon="-1.48226">
        <ele>96</ele>
        <time>2021-03-21T09:19:39.000Z</time>
      </trkpt>
      <trkpt lat="47.13992" lon="-1.48245">
        <ele>96</ele>
        <time>2021-03-21T09:19:41.000Z</time>
      </trkpt>
      <trkpt lat="47.13993" lon="-1.48264">
        <ele>96</ele>
        <time>2021-03-21T09:19:43.000Z</time>
      </trkpt>
      <trkpt lat="47.13994" lon="-1.48283">
        <ele>96</ele>
        <time>2021-03-21T09:19:45.000Z</time>
      </trkpt>
      <trkpt lat="47.13994" lon="-1.48301">
        <ele>96</ele>
        <time>2021-03-21T09:19:47.000Z</time>
      </trkpt>
      <trkpt lat="47.13995" lon="-1.4832">
        <ele>96</ele>
        <time>2021-03-21T09:19:49.000Z</time>
      </trkpt>
      <trkpt lat="47.13995" lon="-1.4834">
        <ele>96</ele>
        <time>2021-03-21T09:19:51.000Z</time>
      </trkpt>
      <trkpt lat="47.13996" lon="-1.4836">
        <ele>96</ele>
        <time>2021-03-21T09:19:53.000Z</time>
      </trkpt>
      <trkpt lat="47.13997" lon="-1.48379">
        <ele>96</ele>
        <time>2021-03-21T09:19:55.000Z</time>
      </trkpt>
      <trkpt lat="47.13998" lon="-1.48398">
        <ele>95</ele>
        <time>2021-03-21T09:19:57.000Z</time>
      </trkpt>
      <trkpt lat="47.13998" lon="-1.48416">
        <ele>95</ele>
        <time>2021-03-21T09:19:59.000Z</time>
      </trkpt>
      <trkpt lat="47.14" lon="-1.48435">
        <ele>95</ele>
        <time>2021-03-21T09:20:01.000Z</time>
      </trkpt>
      <trkpt lat="47.14" lon="-1.48454">
        <ele>95</ele>
        <time>2021-03-21T09:20:03.000Z</time>
      </trkpt>
      <trkpt lat="47.14003" lon="-1.48472">
        <ele>95</ele>
        <time>2021-03-21T09:20:05.000Z</time>
      </trkpt>
      <trkpt lat="47.14005" lon="-1.48491">
        <ele>95</ele>
        <time>2021-03-21T09:20:07.000Z</time>
      </trkpt>
      <trkpt lat="47.14007" lon="-1.4851">
        <ele>95</ele>
        <time>2021-03-21T09:20:09.000Z</time>
      </trkpt>
      <trkpt lat="47.14011" lon="-1.48529">
        <ele>95</ele>
        <time>2021-03-21T09:20:11.000Z</time>
      </trkpt>
      <trkpt lat="47.14013" lon="-1.48547">
        <ele>95</ele>
        <time>2021-03-21T09:20:13.000Z</time>
      </trkpt>
      <trkpt lat="47.14016" lon="-1.48565">
        <ele>95</ele>
        <time>2021-03-21T09:20:15.000Z</time>
      </trkpt>
      <trkpt lat="47.14019" lon="-1.48583">
        <ele>95</ele>
        <time>2021-03-21T09:20:17.000Z</time>
      </trkpt>
      <trkpt lat="47.14022" lon="-1.48602">
        <ele>95</ele>
        <time>2021-03-21T09:20:19.000Z</time>
      </trkpt>
      <trkpt lat="47.14025" lon="-1.4862">
        <ele>95</ele>
        <time>2021-03-21T09:20:21.000Z</time>
      </trkpt>
      <trkpt lat="47.14028" lon="-1.48638">
        <ele>95</ele>
        <time>2021-03-21T09:20:23.000Z</time>
      </trkpt>
      <trkpt lat="47.14031" lon="-1.48656">
        <ele>94</ele>
        <time>2021-03-21T09:20:25.000Z</time>
      </trkpt>
      <trkpt lat="47.14034" lon="-1.48675">
        <ele>94</ele>
        <time>2021-03-21T09:20:27.000Z</time>
      </trkpt>
      <trkpt lat="47.14037" lon="-1.48693">
        <ele>94</ele>
        <time>2021-03-21T09:20:29.000Z</time>
      </trkpt>
      <trkpt lat="47.1404" lon="-1.48713">
        <ele>94</ele>
        <time>2021-03-21T09:20:31.000Z</time>
      </trkpt>
      <trkpt lat="47.14043" lon="-1.48732">
        <ele>94</ele>
        <time>2021-03-21T09:20:33.000Z</time>
      </trkpt>
      <trkpt lat="47.14046" lon="-1.48753">
        <ele>95</ele>
        <time>2021-03-21T09:20:35.000Z</time>
      </trkpt>
      <trkpt lat="47.14049" lon="-1.48771">
        <ele>95</ele>
        <time>2021-03-21T09:20:37.000Z</time>
      </trkpt>
      <trkpt lat="47.14051" lon="-1.4879">
        <ele>95</ele>
        <time>2021-03-21T09:20:39.000Z</time>
      </trkpt>
      <trkpt lat="47.14054" lon="-1.48809">
        <ele>95</ele>
        <time>2021-03-21T09:20:41.000Z</time>
      </trkpt>
      <trkpt lat="47.14057" lon="-1.48828">
        <ele>95</ele>
        <time>2021-03-21T09:20:43.000Z</time>
      </trkpt>
      <trkpt lat="47.14061" lon="-1.48847">
        <ele>96</ele>
        <time>2021-03-21T09:20:45.000Z</time>
      </trkpt>
      <trkpt lat="47.14065" lon="-1.48865">
        <ele>95</ele>
        <time>2021-03-21T09:20:47.000Z</time>
      </trkpt>
      <trkpt lat="47.14069" lon="-1.48885">
        <ele>94</ele>
        <time>2021-03-21T09:20:49.000Z</time>
      </trkpt>
      <trkpt lat="47.14073" lon="-1.48905">
        <ele>95</ele>
        <time>2021-03-21T09:20:51.000Z</time>
      </trkpt>
      <trkpt lat="47.14077" lon="-1.48925">
        <ele>95</ele>
        <time>2021-03-21T09:20:53.000Z</time>
      </trkpt>
      <trkpt lat="47.14082" lon="-1.48945">
        <ele>94</ele>
        <time>2021-03-21T09:20:55.000Z</time>
      </trkpt>
      <trkpt lat="47.14086" lon="-1.48965">
        <ele>94</ele>
        <time>2021-03-21T09:20:57.000Z</time>
      </trkpt>
      <trkpt lat="47.14091" lon="-1.48986">
        <ele>94</ele>
        <time>2021-03-21T09:20:59.000Z</time>
      </trkpt>
      <trkpt lat="47.14095" lon="-1.49005">
        <ele>94</ele>
        <time>2021-03-21T09:21:01.000Z</time>
      </trkpt>
      <trkpt lat="47.14099" lon="-1.49026">
        <ele>94</ele>
        <time>2021-03-21T09:21:03.000Z</time>
      </trkpt>
      <trkpt lat="47.14101" lon="-1.49047">
        <ele>94</ele>
        <time>2021-03-21T09:21:05.000Z</time>
      </trkpt>
      <trkpt lat="47.14103" lon="-1.49068">
        <ele>94</ele>
        <time>2021-03-21T09:21:07.000Z</time>
      </trkpt>
      <trkpt lat="47.14103" lon="-1.49089">
        <ele>94</ele>
        <time>2021-03-21T09:21:09.000Z</time>
      </trkpt>
      <trkpt lat="47.14102" lon="-1.4911">
        <ele>93</ele>
        <time>2021-03-21T09:21:11.000Z</time>
      </trkpt>
      <trkpt lat="47.14102" lon="-1.49131">
        <ele>93</ele>
        <time>2021-03-21T09:21:13.000Z</time>
      </trkpt>
      <trkpt lat="47.14102" lon="-1.49152">
        <ele>93</ele>
        <time>2021-03-21T09:21:15.000Z</time>
      </trkpt>
      <trkpt lat="47.14102" lon="-1.49173">
        <ele>93</ele>
        <time>2021-03-21T09:21:17.000Z</time>
      </trkpt>
      <trkpt lat="47.14102" lon="-1.49193">
        <ele>94</ele>
        <time>2021-03-21T09:21:19.000Z</time>
      </trkpt>
      <trkpt lat="47.14101" lon="-1.49213">
        <ele>94</ele>
        <time>2021-03-21T09:21:21.000Z</time>
      </trkpt>
      <trkpt lat="47.14102" lon="-1.49234">
        <ele>94</ele>
        <time>2021-03-21T09:21:23.000Z</time>
      </trkpt>
      <trkpt lat="47.14102" lon="-1.49254">
        <ele>94</ele>
        <time>2021-03-21T09:21:25.000Z</time>
      </trkpt>
      <trkpt lat="47.14102" lon="-1.49275">
        <ele>94</ele>
        <time>2021-03-21T09:21:27.000Z</time>
      </trkpt>
      <trkpt lat="47.14102" lon="-1.49295">
        <ele>94</ele>
        <time>2021-03-21T09:21:29.000Z</time>
      </trkpt>
      <trkpt lat="47.14102" lon="-1.49315">
        <ele>93</ele>
        <time>2021-03-21T09:21:31.000Z</time>
      </trkpt>
      <trkpt lat="47.14102" lon="-1.49335">
        <ele>93</ele>
        <time>2021-03-21T09:21:33.000Z</time>
      </trkpt>
      <trkpt lat="47.14102" lon="-1.49356">
        <ele>93</ele>
        <time>2021-03-21T09:21:35.000Z</time>
      </trkpt>
      <trkpt lat="47.14102" lon="-1.49375">
        <ele>93</ele>
        <time>2021-03-21T09:21:37.000Z</time>
      </trkpt>
      <trkpt lat="47.14102" lon="-1.49395">
        <ele>92</ele>
        <time>2021-03-21T09:21:39.000Z</time>
      </trkpt>
      <trkpt lat="47.14101" lon="-1.49415">
        <ele>92</ele>
        <time>2021-03-21T09:21:41.000Z</time>
      </trkpt>
      <trkpt lat="47.14102" lon="-1.49434">
        <ele>92</ele>
        <time>2021-03-21T09:21:43.000Z</time>
      </trkpt>
      <trkpt lat="47.14102" lon="-1.49453">
        <ele>91</ele>
        <time>2021-03-21T09:21:45.000Z</time>
      </trkpt>
      <trkpt lat="47.14102" lon="-1.49473">
        <ele>91</ele>
        <time>2021-03-21T09:21:47.000Z</time>
      </trkpt>
      <trkpt lat="47.14102" lon="-1.49494">
        <ele>90</ele>
        <time>2021-03-21T09:21:49.000Z</time>
      </trkpt>
      <trkpt lat="47.14102" lon="-1.49514">
        <ele>90</ele>
        <time>2021-03-21T09:21:51.000Z</time>
      </trkpt>
      <trkpt lat="47.14102" lon="-1.49534">
        <ele>90</ele>
        <time>2021-03-21T09:21:53.000Z</time>
      </trkpt>
      <trkpt lat="47.14101" lon="-1.49555">
        <ele>90</ele>
        <time>2021-03-21T09:21:55.000Z</time>
      </trkpt>
      <trkpt lat="47.141" lon="-1.49575">
        <ele>89</ele>
        <time>2021-03-21T09:21:57.000Z</time>
      </trkpt>
      <trkpt lat="47.141" lon="-1.49595">
        <ele>89</ele>
        <time>2021-03-21T09:21:59.000Z</time>
      </trkpt>
      <trkpt lat="47.141" lon="-1.49615">
        <ele>90</ele>
        <time>2021-03-21T09:22:01.000Z</time>
      </trkpt>
      <trkpt lat="47.141" lon="-1.49635">
        <ele>90</ele>
        <time>2021-03-21T09:22:03.000Z</time>
      </trkpt>
      <trkpt lat="47.141" lon="-1.49656">
        <ele>89</ele>
        <time>2021-03-21T09:22:05.000Z</time>
      </trkpt>
      <trkpt lat="47.141" lon="-1.49675">
        <ele>89</ele>
        <time>2021-03-21T09:22:07.000Z</time>
      </trkpt>
      <trkpt lat="47.14101" lon="-1.49695">
        <ele>89</ele>
        <time>2021-03-21T09:22:09.000Z</time>
      </trkpt>
      <trkpt lat="47.14101" lon="-1.49715">
        <ele>89</ele>
        <time>2021-03-21T09:22:11.000Z</time>
      </trkpt>
      <trkpt lat="47.14101" lon="-1.49736">
        <ele>90</ele>
        <time>2021-03-21T09:22:13.000Z</time>
      </trkpt>
      <trkpt lat="47.14101" lon="-1.49756">
        <ele>89</ele>
        <time>2021-03-21T09:22:15.000Z</time>
      </trkpt>
      <trkpt lat="47.14101" lon="-1.49777">
        <ele>89</ele>
        <time>2021-03-21T09:22:17.000Z</time>
      </trkpt>
      <trkpt lat="47.14101" lon="-1.49797">
        <ele>89</ele>
        <time>2021-03-21T09:22:19.000Z</time>
      </trkpt>
      <trkpt lat="47.14101" lon="-1.49816">
        <ele>89</ele>
        <time>2021-03-21T09:22:21.000Z</time>
      </trkpt>
      <trkpt lat="47.14102" lon="-1.49837">
        <ele>88</ele>
        <time>2021-03-21T09:22:23.000Z</time>
      </trkpt>
      <trkpt lat="47.14104" lon="-1.49858">
        <ele>88</ele>
        <time>2021-03-21T09:22:25.000Z</time>
      </trkpt>
      <trkpt lat="47.14106" lon="-1.49879">
        <ele>88</ele>
        <time>2021-03-21T09:22:27.000Z</time>
      </trkpt>
      <trkpt lat="47.14109" lon="-1.49899">
        <ele>87</ele>
        <time>2021-03-21T09:22:29.000Z</time>
      </trkpt>
      <trkpt lat="47.14113" lon="-1.49918">
        <ele>87</ele>
        <time>2021-03-21T09:22:31.000Z</time>
      </trkpt>
      <trkpt lat="47.14116" lon="-1.49938">
        <ele>86</ele>
        <time>2021-03-21T09:22:33.000Z</time>
      </trkpt>
      <trkpt lat="47.1412" lon="-1.49957">
        <ele>86</ele>
        <time>2021-03-21T09:22:35.000Z</time>
      </trkpt>
      <trkpt lat="47.14124" lon="-1.49977">
        <ele>86</ele>
        <time>2021-03-21T09:22:37.000Z</time>
      </trkpt>
      <trkpt lat="47.14127" lon="-1.49996">
        <ele>86</ele>
        <time>2021-03-21T09:22:39.000Z</time>
      </trkpt>
      <trkpt lat="47.14131" lon="-1.50016">
        <ele>85</ele>
        <time>2021-03-21T09:22:41.000Z</time>
      </trkpt>
      <trkpt lat="47.14134" lon="-1.50035">
        <ele>85</ele>
        <time>2021-03-21T09:22:43.000Z</time>
      </trkpt>
      <trkpt lat="47.14137" lon="-1.50054">
        <ele>84</ele>
        <time>2021-03-21T09:22:45.000Z</time>
      </trkpt>
      <trkpt lat="47.1414" lon="-1.50073">
        <ele>85</ele>
        <time>2021-03-21T09:22:47.000Z</time>
      </trkpt>
      <trkpt lat="47.14144" lon="-1.50093">
        <ele>85</ele>
        <time>2021-03-21T09:22:49.000Z</time>
      </trkpt>
      <trkpt lat="47.14147" lon="-1.50113">
        <ele>85</ele>
        <time>2021-03-21T09:22:51.000Z</time>
      </trkpt>
      <trkpt lat="47.1415" lon="-1.50132">
        <ele>85</ele>
        <time>2021-03-21T09:22:53.000Z</time>
      </trkpt>
      <trkpt lat="47.14154" lon="-1.5015">
        <ele>85</ele>
        <time>2021-03-21T09:22:55.000Z</time>
      </trkpt>
      <trkpt lat="47.14156" lon="-1.50169">
        <ele>85</ele>
        <time>2021-03-21T09:22:57.000Z</time>
      </trkpt>
      <trkpt lat="47.14159" lon="-1.50187">
        <ele>85</ele>
        <time>2021-03-21T09:22:59.000Z</time>
      </trkpt>
      <trkpt lat="47.14161" lon="-1.50207">
        <ele>85</ele>
        <time>2021-03-21T09:23:01.000Z</time>
      </trkpt>
      <trkpt lat="47.14163" lon="-1.50226">
        <ele>85</ele>
        <time>2021-03-21T09:23:03.000Z</time>
      </trkpt>
      <trkpt lat="47.14164" lon="-1.50246">
        <ele>85</ele>
        <time>2021-03-21T09:23:05.000Z</time>
      </trkpt>
      <trkpt lat="47.14164" lon="-1.50266">
        <ele>84</ele>
        <time>2021-03-21T09:23:07.000Z</time>
      </trkpt>
      <trkpt lat="47.14165" lon="-1.50286">
        <ele>84</ele>
        <time>2021-03-21T09:23:09.000Z</time>
      </trkpt>
      <trkpt lat="47.14166" lon="-1.50307">
        <ele>85</ele>
        <time>2021-03-21T09:23:11.000Z</time>
      </trkpt>
      <trkpt lat="47.14167" lon="-1.50326">
        <ele>85</ele>
        <time>2021-03-21T09:23:13.000Z</time>
      </trkpt>
      <trkpt lat="47.1417" lon="-1.50347">
        <ele>84</ele>
        <time>2021-03-21T09:23:15.000Z</time>
      </trkpt>
      <trkpt lat="47.14172" lon="-1.50368">
        <ele>84</ele>
        <time>2021-03-21T09:23:17.000Z</time>
      </trkpt>
      <trkpt lat="47.14176" lon="-1.50387">
        <ele>84</ele>
        <time>2021-03-21T09:23:19.000Z</time>
      </trkpt>
      <trkpt lat="47.1418" lon="-1.50407">
        <ele>84</ele>
        <time>2021-03-21T09:23:21.000Z</time>
      </trkpt>
      <trkpt lat="47.14184" lon="-1.50426">
        <ele>84</ele>
        <time>2021-03-21T09:23:23.000Z</time>
      </trkpt>
      <trkpt lat="47.14189" lon="-1.50446">
        <ele>85</ele>
        <time>2021-03-21T09:23:25.000Z</time>
      </trkpt>
      <trkpt lat="47.14193" lon="-1.50465">
        <ele>85</ele>
        <time>2021-03-21T09:23:27.000Z</time>
      </trkpt>
      <trkpt lat="47.14197" lon="-1.50484">
        <ele>85</ele>
        <time>2021-03-21T09:23:29.000Z</time>
      </trkpt>
      <trkpt lat="47.142" lon="-1.50503">
        <ele>85</ele>
        <time>2021-03-21T09:23:31.000Z</time>
      </trkpt>
      <trkpt lat="47.14204" lon="-1.50521">
        <ele>85</ele>
        <time>2021-03-21T09:23:33.000Z</time>
      </trkpt>
      <trkpt lat="47.14209" lon="-1.5054">
        <ele>85</ele>
        <time>2021-03-21T09:23:35.000Z</time>
      </trkpt>
      <trkpt lat="47.14213" lon="-1.50559">
        <ele>85</ele>
        <time>2021-03-21T09:23:37.000Z</time>
      </trkpt>
      <trkpt lat="47.14217" lon="-1.50578">
        <ele>85</ele>
        <time>2021-03-21T09:23:39.000Z</time>
      </trkpt>
      <trkpt lat="47.1422" lon="-1.50597">
        <ele>85</ele>
        <time>2021-03-21T09:23:41.000Z</time>
      </trkpt>
      <trkpt lat="47.14224" lon="-1.50617">
        <ele>86</ele>
        <time>2021-03-21T09:23:43.000Z</time>
      </trkpt>
      <trkpt lat="47.14228" lon="-1.50636">
        <ele>86</ele>
        <time>2021-03-21T09:23:45.000Z</time>
      </trkpt>
      <trkpt lat="47.14232" lon="-1.50657">
        <ele>86</ele>
        <time>2021-03-21T09:23:47.000Z</time>
      </trkpt>
      <trkpt lat="47.14236" lon="-1.50678">
        <ele>86</ele>
        <time>2021-03-21T09:23:49.000Z</time>
      </trkpt>
      <trkpt lat="47.1424" lon="-1.50697">
        <ele>85</ele>
        <time>2021-03-21T09:23:51.000Z</time>
      </trkpt>
      <trkpt lat="47.14244" lon="-1.50717">
        <ele>85</ele>
        <time>2021-03-21T09:23:53.000Z</time>
      </trkpt>
      <trkpt lat="47.14248" lon="-1.50736">
        <ele>85</ele>
        <time>2021-03-21T09:23:55.000Z</time>
      </trkpt>
      <trkpt lat="47.14252" lon="-1.50755">
        <ele>84</ele>
        <time>2021-03-21T09:23:57.000Z</time>
      </trkpt>
      <trkpt lat="47.14257" lon="-1.50774">
        <ele>84</ele>
        <time>2021-03-21T09:23:59.000Z</time>
      </trkpt>
      <trkpt lat="47.14262" lon="-1.50793">
        <ele>84</ele>
        <time>2021-03-21T09:24:01.000Z</time>
      </trkpt>
      <trkpt lat="47.14267" lon="-1.5081">
        <ele>84</ele>
        <time>2021-03-21T09:24:03.000Z</time>
      </trkpt>
      <trkpt lat="47.14272" lon="-1.50828">
        <ele>84</ele>
        <time>2021-03-21T09:24:05.000Z</time>
      </trkpt>
      <trkpt lat="47.14277" lon="-1.50847">
        <ele>83</ele>
        <time>2021-03-21T09:24:07.000Z</time>
      </trkpt>
      <trkpt lat="47.14282" lon="-1.50866">
        <ele>83</ele>
        <time>2021-03-21T09:24:09.000Z</time>
      </trkpt>
      <trkpt lat="47.14287" lon="-1.50884">
        <ele>83</ele>
        <time>2021-03-21T09:24:11.000Z</time>
      </trkpt>
      <trkpt lat="47.14292" lon="-1.50902">
        <ele>83</ele>
        <time>2021-03-21T09:24:13.000Z</time>
      </trkpt>
      <trkpt lat="47.14297" lon="-1.50919">
        <ele>83</ele>
        <time>2021-03-21T09:24:15.000Z</time>
      </trkpt>
      <trkpt lat="47.14302" lon="-1.50938">
        <ele>83</ele>
        <time>2021-03-21T09:24:17.000Z</time>
      </trkpt>
      <trkpt lat="47.14308" lon="-1.50955">
        <ele>83</ele>
        <time>2021-03-21T09:24:19.000Z</time>
      </trkpt>
      <trkpt lat="47.14313" lon="-1.50973">
        <ele>84</ele>
        <time>2021-03-21T09:24:21.000Z</time>
      </trkpt>
      <trkpt lat="47.1432" lon="-1.50991">
        <ele>84</ele>
        <time>2021-03-21T09:24:23.000Z</time>
      </trkpt>
      <trkpt lat="47.14326" lon="-1.51009">
        <ele>84</ele>
        <time>2021-03-21T09:24:25.000Z</time>
      </trkpt>
      <trkpt lat="47.14332" lon="-1.51026">
        <ele>84</ele>
        <time>2021-03-21T09:24:27.000Z</time>
      </trkpt>
      <trkpt lat="47.14338" lon="-1.51043">
        <ele>84</ele>
        <time>2021-03-21T09:24:29.000Z</time>
      </trkpt>
      <trkpt lat="47.14344" lon="-1.5106">
        <ele>83</ele>
        <time>2021-03-21T09:24:31.000Z</time>
      </trkpt>
      <trkpt lat="47.14351" lon="-1.51077">
        <ele>84</ele>
        <time>2021-03-21T09:24:33.000Z</time>
      </trkpt>
      <trkpt lat="47.14358" lon="-1.51093">
        <ele>83</ele>
        <time>2021-03-21T09:24:35.000Z</time>
      </trkpt>
      <trkpt lat="47.14364" lon="-1.5111">
        <ele>83</ele>
        <time>2021-03-21T09:24:37.000Z</time>
      </trkpt>
      <trkpt lat="47.1437" lon="-1.51126">
        <ele>83</ele>
        <time>2021-03-21T09:24:39.000Z</time>
      </trkpt>
      <trkpt lat="47.14376" lon="-1.51142">
        <ele>83</ele>
        <time>2021-03-21T09:24:41.000Z</time>
      </trkpt>
      <trkpt lat="47.14382" lon="-1.51158">
        <ele>83</ele>
        <time>2021-03-21T09:24:43.000Z</time>
      </trkpt>
      <trkpt lat="47.14388" lon="-1.51175">
        <ele>83</ele>
        <time>2021-03-21T09:24:45.000Z</time>
      </trkpt>
      <trkpt lat="47.14393" lon="-1.51192">
        <ele>83</ele>
        <time>2021-03-21T09:24:47.000Z</time>
      </trkpt>
      <trkpt lat="47.14399" lon="-1.51208">
        <ele>83</ele>
        <time>2021-03-21T09:24:49.000Z</time>
      </trkpt>
      <trkpt lat="47.14405" lon="-1.51225">
        <ele>82</ele>
        <time>2021-03-21T09:24:51.000Z</time>
      </trkpt>
      <trkpt lat="47.14411" lon="-1.51241">
        <ele>82</ele>
        <time>2021-03-21T09:24:53.000Z</time>
      </trkpt>
      <trkpt lat="47.14418" lon="-1.51256">
        <ele>82</ele>
        <time>2021-03-21T09:24:55.000Z</time>
      </trkpt>
      <trkpt lat="47.14426" lon="-1.5127">
        <ele>82</ele>
        <time>2021-03-21T09:24:57.000Z</time>
      </trkpt>
      <trkpt lat="47.14436" lon="-1.51281">
        <ele>82</ele>
        <time>2021-03-21T09:24:59.000Z</time>
      </trkpt>
      <trkpt lat="47.14447" lon="-1.51291">
        <ele>82</ele>
        <time>2021-03-21T09:25:01.000Z</time>
      </trkpt>
      <trkpt lat="47.14459" lon="-1.51299">
        <ele>81</ele>
        <time>2021-03-21T09:25:03.000Z</time>
      </trkpt>
      <trkpt lat="47.14472" lon="-1.51303">
        <ele>80</ele>
        <time>2021-03-21T09:25:05.000Z</time>
      </trkpt>
      <trkpt lat="47.14485" lon="-1.51304">
        <ele>81</ele>
        <time>2021-03-21T09:25:07.000Z</time>
      </trkpt>
      <trkpt lat="47.14499" lon="-1.51305">
        <ele>81</ele>
        <time>2021-03-21T09:25:09.000Z</time>
      </trkpt>
      <trkpt lat="47.14513" lon="-1.51306">
        <ele>81</ele>
        <time>2021-03-21T09:25:11.000Z</time>
      </trkpt>
      <trkpt lat="47.14526" lon="-1.51306">
        <ele>81</ele>
        <time>2021-03-21T09:25:13.000Z</time>
      </trkpt>
      <trkpt lat="47.1454" lon="-1.51307">
        <ele>81</ele>
        <time>2021-03-21T09:25:15.000Z</time>
      </trkpt>
      <trkpt lat="47.14553" lon="-1.51308">
        <ele>81</ele>
        <time>2021-03-21T09:25:17.000Z</time>
      </trkpt>
      <trkpt lat="47.14567" lon="-1.51309">
        <ele>80</ele>
        <time>2021-03-21T09:25:19.000Z</time>
      </trkpt>
      <trkpt lat="47.1458" lon="-1.51309">
        <ele>80</ele>
        <time>2021-03-21T09:25:21.000Z</time>
      </trkpt>
      <trkpt lat="47.14593" lon="-1.51308">
        <ele>80</ele>
        <time>2021-03-21T09:25:23.000Z</time>
      </trkpt>
      <trkpt lat="47.14606" lon="-1.51306">
        <ele>81</ele>
        <time>2021-03-21T09:25:25.000Z</time>
      </trkpt>
      <trkpt lat="47.1462" lon="-1.51302">
        <ele>80</ele>
        <time>2021-03-21T09:25:27.000Z</time>
      </trkpt>
      <trkpt lat="47.14634" lon="-1.513">
        <ele>80</ele>
        <time>2021-03-21T09:25:29.000Z</time>
      </trkpt>
      <trkpt lat="47.14646" lon="-1.51297">
        <ele>80</ele>
        <time>2021-03-21T09:25:31.000Z</time>
      </trkpt>
      <trkpt lat="47.14659" lon="-1.51295">
        <ele>80</ele>
        <time>2021-03-21T09:25:33.000Z</time>
      </trkpt>
      <trkpt lat="47.1467" lon="-1.51291">
        <ele>80</ele>
        <time>2021-03-21T09:25:35.000Z</time>
      </trkpt>
      <trkpt lat="47.14681" lon="-1.5129">
        <ele>81</ele>
        <time>2021-03-21T09:25:37.000Z</time>
      </trkpt>
      <trkpt lat="47.14691" lon="-1.51293">
        <ele>81</ele>
        <time>2021-03-21T09:25:39.000Z</time>
      </trkpt>
      <trkpt lat="47.14698" lon="-1.51305">
        <ele>81</ele>
        <time>2021-03-21T09:25:41.000Z</time>
      </trkpt>
      <trkpt lat="47.14695" lon="-1.51322">
        <ele>82</ele>
        <time>2021-03-21T09:25:43.000Z</time>
      </trkpt>
      <trkpt lat="47.14689" lon="-1.51337">
        <ele>81</ele>
        <time>2021-03-21T09:25:45.000Z</time>
      </trkpt>
      <trkpt lat="47.14681" lon="-1.51352">
        <ele>82</ele>
        <time>2021-03-21T09:25:47.000Z</time>
      </trkpt>
      <trkpt lat="47.14672" lon="-1.51368">
        <ele>82</ele>
        <time>2021-03-21T09:25:49.000Z</time>
      </trkpt>
      <trkpt lat="47.14665" lon="-1.51384">
        <ele>82</ele>
        <time>2021-03-21T09:25:51.000Z</time>
      </trkpt>
      <trkpt lat="47.14657" lon="-1.51399">
        <ele>83</ele>
        <time>2021-03-21T09:25:53.000Z</time>
      </trkpt>
      <trkpt lat="47.1465" lon="-1.51414">
        <ele>83</ele>
        <time>2021-03-21T09:25:55.000Z</time>
      </trkpt>
      <trkpt lat="47.14642" lon="-1.51429">
        <ele>83</ele>
        <time>2021-03-21T09:25:57.000Z</time>
      </trkpt>
      <trkpt lat="47.14635" lon="-1.51442">
        <ele>83</ele>
        <time>2021-03-21T09:25:59.000Z</time>
      </trkpt>
      <trkpt lat="47.14627" lon="-1.51457">
        <ele>84</ele>
        <time>2021-03-21T09:26:01.000Z</time>
      </trkpt>
      <trkpt lat="47.1462" lon="-1.51471">
        <ele>84</ele>
        <time>2021-03-21T09:26:03.000Z</time>
      </trkpt>
      <trkpt lat="47.14613" lon="-1.51485">
        <ele>84</ele>
        <time>2021-03-21T09:26:05.000Z</time>
      </trkpt>
      <trkpt lat="47.14605" lon="-1.51501">
        <ele>84</ele>
        <time>2021-03-21T09:26:07.000Z</time>
      </trkpt>
      <trkpt lat="47.14598" lon="-1.51517">
        <ele>83</ele>
        <time>2021-03-21T09:26:09.000Z</time>
      </trkpt>
      <trkpt lat="47.1459" lon="-1.51532">
        <ele>83</ele>
        <time>2021-03-21T09:26:11.000Z</time>
      </trkpt>
      <trkpt lat="47.14582" lon="-1.51548">
        <ele>82</ele>
        <time>2021-03-21T09:26:13.000Z</time>
      </trkpt>
      <trkpt lat="47.14573" lon="-1.51564">
        <ele>82</ele>
        <time>2021-03-21T09:26:15.000Z</time>
      </trkpt>
      <trkpt lat="47.14563" lon="-1.51578">
        <ele>81</ele>
        <time>2021-03-21T09:26:17.000Z</time>
      </trkpt>
      <trkpt lat="47.14553" lon="-1.51593">
        <ele>82</ele>
        <time>2021-03-21T09:26:19.000Z</time>
      </trkpt>
      <trkpt lat="47.14542" lon="-1.51607">
        <ele>82</ele>
        <time>2021-03-21T09:26:21.000Z</time>
      </trkpt>
      <trkpt lat="47.14532" lon="-1.51619">
        <ele>82</ele>
        <time>2021-03-21T09:26:23.000Z</time>
      </trkpt>
      <trkpt lat="47.14522" lon="-1.51631">
        <ele>82</ele>
        <time>2021-03-21T09:26:25.000Z</time>
      </trkpt>
      <trkpt lat="47.14513" lon="-1.51642">
        <ele>82</ele>
        <time>2021-03-21T09:26:27.000Z</time>
      </trkpt>
      <trkpt lat="47.14503" lon="-1.51653">
        <ele>82</ele>
        <time>2021-03-21T09:26:29.000Z</time>
      </trkpt>
      <trkpt lat="47.14494" lon="-1.51663">
        <ele>83</ele>
        <time>2021-03-21T09:26:31.000Z</time>
      </trkpt>
      <trkpt lat="47.14484" lon="-1.51673">
        <ele>83</ele>
        <time>2021-03-21T09:26:33.000Z</time>
      </trkpt>
      <trkpt lat="47.14474" lon="-1.51682">
        <ele>84</ele>
        <time>2021-03-21T09:26:35.000Z</time>
      </trkpt>
      <trkpt lat="47.14465" lon="-1.51692">
        <ele>84</ele>
        <time>2021-03-21T09:26:37.000Z</time>
      </trkpt>
      <trkpt lat="47.14455" lon="-1.51702">
        <ele>83</ele>
        <time>2021-03-21T09:26:39.000Z</time>
      </trkpt>
      <trkpt lat="47.14446" lon="-1.51712">
        <ele>84</ele>
        <time>2021-03-21T09:26:41.000Z</time>
      </trkpt>
      <trkpt lat="47.14436" lon="-1.51721">
        <ele>84</ele>
        <time>2021-03-21T09:26:43.000Z</time>
      </trkpt>
      <trkpt lat="47.14427" lon="-1.51731">
        <ele>84</ele>
        <time>2021-03-21T09:26:45.000Z</time>
      </trkpt>
      <trkpt lat="47.14418" lon="-1.5174">
        <ele>84</ele>
        <time>2021-03-21T09:26:47.000Z</time>
      </trkpt>
      <trkpt lat="47.14409" lon="-1.51749">
        <ele>84</ele>
        <time>2021-03-21T09:26:49.000Z</time>
      </trkpt>
      <trkpt lat="47.14399" lon="-1.51759">
        <ele>84</ele>
        <time>2021-03-21T09:26:51.000Z</time>
      </trkpt>
      <trkpt lat="47.1439" lon="-1.51768">
        <ele>85</ele>
        <time>2021-03-21T09:26:53.000Z</time>
      </trkpt>
      <trkpt lat="47.14381" lon="-1.51778">
        <ele>84</ele>
        <time>2021-03-21T09:26:55.000Z</time>
      </trkpt>
      <trkpt lat="47.14372" lon="-1.51787">
        <ele>85</ele>
        <time>2021-03-21T09:26:57.000Z</time>
      </trkpt>
      <trkpt lat="47.14362" lon="-1.51796">
        <ele>85</ele>
        <time>2021-03-21T09:26:59.000Z</time>
      </trkpt>
      <trkpt lat="47.14353" lon="-1.51805">
        <ele>85</ele>
        <time>2021-03-21T09:27:01.000Z</time>
      </trkpt>
      <trkpt lat="47.14343" lon="-1.51815">
        <ele>85</ele>
        <time>2021-03-21T09:27:03.000Z</time>
      </trkpt>
      <trkpt lat="47.14334" lon="-1.51824">
        <ele>85</ele>
        <time>2021-03-21T09:27:05.000Z</time>
      </trkpt>
      <trkpt lat="47.14325" lon="-1.51834">
        <ele>85</ele>
        <time>2021-03-21T09:27:07.000Z</time>
      </trkpt>
      <trkpt lat="47.14316" lon="-1.51844">
        <ele>85</ele>
        <time>2021-03-21T09:27:09.000Z</time>
      </trkpt>
      <trkpt lat="47.14306" lon="-1.51853">
        <ele>85</ele>
        <time>2021-03-21T09:27:11.000Z</time>
      </trkpt>
      <trkpt lat="47.14297" lon="-1.51863">
        <ele>85</ele>
        <time>2021-03-21T09:27:13.000Z</time>
      </trkpt>
      <trkpt lat="47.14287" lon="-1.51872">
        <ele>86</ele>
        <time>2021-03-21T09:27:15.000Z</time>
      </trkpt>
      <trkpt lat="47.14278" lon="-1.51882">
        <ele>86</ele>
        <time>2021-03-21T09:27:17.000Z</time>
      </trkpt>
      <trkpt lat="47.14268" lon="-1.51892">
        <ele>86</ele>
        <time>2021-03-21T09:27:19.000Z</time>
      </trkpt>
      <trkpt lat="47.14258" lon="-1.51901">
        <ele>86</ele>
        <time>2021-03-21T09:27:21.000Z</time>
      </trkpt>
      <trkpt lat="47.14249" lon="-1.5191">
        <ele>87</ele>
        <time>2021-03-21T09:27:23.000Z</time>
      </trkpt>
      <trkpt lat="47.14239" lon="-1.5192">
        <ele>87</ele>
        <time>2021-03-21T09:27:25.000Z</time>
      </trkpt>
      <trkpt lat="47.14231" lon="-1.5193">
        <ele>87</ele>
        <time>2021-03-21T09:27:27.000Z</time>
      </trkpt>
      <trkpt lat="47.14222" lon="-1.51939">
        <ele>88</ele>
        <time>2021-03-21T09:27:29.000Z</time>
      </trkpt>
      <trkpt lat="47.14212" lon="-1.51949">
        <ele>88</ele>
        <time>2021-03-21T09:27:31.000Z</time>
      </trkpt>
      <trkpt lat="47.14202" lon="-1.51959">
        <ele>88</ele>
        <time>2021-03-21T09:27:33.000Z</time>
      </trkpt>
      <trkpt lat="47.14192" lon="-1.51967">
        <ele>89</ele>
        <time>2021-03-21T09:27:35.000Z</time>
      </trkpt>
      <trkpt lat="47.14182" lon="-1.51976">
        <ele>88</ele>
        <time>2021-03-21T09:27:37.000Z</time>
      </trkpt>
      <trkpt lat="47.14172" lon="-1.51986">
        <ele>88</ele>
        <time>2021-03-21T09:27:39.000Z</time>
      </trkpt>
      <trkpt lat="47.14162" lon="-1.51994">
        <ele>89</ele>
        <time>2021-03-21T09:27:41.000Z</time>
      </trkpt>
      <trkpt lat="47.14152" lon="-1.52003">
        <ele>88</ele>
        <time>2021-03-21T09:27:43.000Z</time>
      </trkpt>
      <trkpt lat="47.14142" lon="-1.52012">
        <ele>88</ele>
        <time>2021-03-21T09:27:45.000Z</time>
      </trkpt>
      <trkpt lat="47.14132" lon="-1.52022">
        <ele>88</ele>
        <time>2021-03-21T09:27:47.000Z</time>
      </trkpt>
      <trkpt lat="47.14121" lon="-1.52032">
        <ele>88</ele>
        <time>2021-03-21T09:27:49.000Z</time>
      </trkpt>
      <trkpt lat="47.14111" lon="-1.52042">
        <ele>87</ele>
        <time>2021-03-21T09:27:51.000Z</time>
      </trkpt>
      <trkpt lat="47.14101" lon="-1.52052">
        <ele>87</ele>
        <time>2021-03-21T09:27:53.000Z</time>
      </trkpt>
      <trkpt lat="47.14091" lon="-1.52062">
        <ele>87</ele>
        <time>2021-03-21T09:27:55.000Z</time>
      </trkpt>
      <trkpt lat="47.14082" lon="-1.52073">
        <ele>87</ele>
        <time>2021-03-21T09:27:57.000Z</time>
      </trkpt>
      <trkpt lat="47.14074" lon="-1.52086">
        <ele>87</ele>
        <time>2021-03-21T09:27:59.000Z</time>
      </trkpt>
      <trkpt lat="47.14068" lon="-1.52098">
        <ele>87</ele>
        <time>2021-03-21T09:28:01.000Z</time>
      </trkpt>
      <trkpt lat="47.14063" lon="-1.5211">
        <ele>87</ele>
        <time>2021-03-21T09:28:03.000Z</time>
      </trkpt>
      <trkpt lat="47.14057" lon="-1.52121">
        <ele>87</ele>
        <time>2021-03-21T09:28:06.000Z</time>
      </trkpt>
      <trkpt lat="47.14049" lon="-1.5213">
        <ele>87</ele>
        <time>2021-03-21T09:28:09.000Z</time>
      </trkpt>
      <trkpt lat="47.14039" lon="-1.52137">
        <ele>87</ele>
        <time>2021-03-21T09:28:11.000Z</time>
      </trkpt>
      <trkpt lat="47.14027" lon="-1.52143">
        <ele>87</ele>
        <time>2021-03-21T09:28:13.000Z</time>
      </trkpt>
      <trkpt lat="47.14016" lon="-1.5215">
        <ele>86</ele>
        <time>2021-03-21T09:28:15.000Z</time>
      </trkpt>
      <trkpt lat="47.14004" lon="-1.52158">
        <ele>86</ele>
        <time>2021-03-21T09:28:17.000Z</time>
      </trkpt>
      <trkpt lat="47.13994" lon="-1.52168">
        <ele>86</ele>
        <time>2021-03-21T09:28:19.000Z</time>
      </trkpt>
      <trkpt lat="47.13984" lon="-1.5218">
        <ele>85</ele>
        <time>2021-03-21T09:28:21.000Z</time>
      </trkpt>
      <trkpt lat="47.13976" lon="-1.52193">
        <ele>84</ele>
        <time>2021-03-21T09:28:23.000Z</time>
      </trkpt>
      <trkpt lat="47.13967" lon="-1.52205">
        <ele>84</ele>
        <time>2021-03-21T09:28:25.000Z</time>
      </trkpt>
      <trkpt lat="47.13958" lon="-1.52218">
        <ele>84</ele>
        <time>2021-03-21T09:28:27.000Z</time>
      </trkpt>
      <trkpt lat="47.13949" lon="-1.52231">
        <ele>84</ele>
        <time>2021-03-21T09:28:29.000Z</time>
      </trkpt>
      <trkpt lat="47.1394" lon="-1.52244">
        <ele>84</ele>
        <time>2021-03-21T09:28:31.000Z</time>
      </trkpt>
      <trkpt lat="47.13931" lon="-1.52257">
        <ele>84</ele>
        <time>2021-03-21T09:28:33.000Z</time>
      </trkpt>
      <trkpt lat="47.13922" lon="-1.52269">
        <ele>84</ele>
        <time>2021-03-21T09:28:35.000Z</time>
      </trkpt>
      <trkpt lat="47.13913" lon="-1.52282">
        <ele>84</ele>
        <time>2021-03-21T09:28:37.000Z</time>
      </trkpt>
      <trkpt lat="47.13905" lon="-1.52295">
        <ele>83</ele>
        <time>2021-03-21T09:28:39.000Z</time>
      </trkpt>
      <trkpt lat="47.13897" lon="-1.52307">
        <ele>83</ele>
        <time>2021-03-21T09:28:41.000Z</time>
      </trkpt>
      <trkpt lat="47.1389" lon="-1.52322">
        <ele>84</ele>
        <time>2021-03-21T09:28:43.000Z</time>
      </trkpt>
      <trkpt lat="47.13884" lon="-1.52336">
        <ele>84</ele>
        <time>2021-03-21T09:28:45.000Z</time>
      </trkpt>
      <trkpt lat="47.13876" lon="-1.52347">
        <ele>84</ele>
        <time>2021-03-21T09:28:47.000Z</time>
      </trkpt>
      <trkpt lat="47.13867" lon="-1.52357">
        <ele>84</ele>
        <time>2021-03-21T09:28:49.000Z</time>
      </trkpt>
      <trkpt lat="47.13857" lon="-1.52368">
        <ele>84</ele>
        <time>2021-03-21T09:28:51.000Z</time>
      </trkpt>
      <trkpt lat="47.13848" lon="-1.52379">
        <ele>83</ele>
        <time>2021-03-21T09:28:53.000Z</time>
      </trkpt>
      <trkpt lat="47.13839" lon="-1.52392">
        <ele>83</ele>
        <time>2021-03-21T09:28:55.000Z</time>
      </trkpt>
      <trkpt lat="47.1383" lon="-1.52404">
        <ele>83</ele>
        <time>2021-03-21T09:28:57.000Z</time>
      </trkpt>
      <trkpt lat="47.13822" lon="-1.52417">
        <ele>84</ele>
        <time>2021-03-21T09:28:59.000Z</time>
      </trkpt>
      <trkpt lat="47.13814" lon="-1.52431">
        <ele>84</ele>
        <time>2021-03-21T09:29:01.000Z</time>
      </trkpt>
      <trkpt lat="47.13805" lon="-1.52444">
        <ele>84</ele>
        <time>2021-03-21T09:29:03.000Z</time>
      </trkpt>
      <trkpt lat="47.13796" lon="-1.52456">
        <ele>84</ele>
        <time>2021-03-21T09:29:05.000Z</time>
      </trkpt>
      <trkpt lat="47.13788" lon="-1.52469">
        <ele>85</ele>
        <time>2021-03-21T09:29:07.000Z</time>
      </trkpt>
      <trkpt lat="47.1378" lon="-1.52482">
        <ele>85</ele>
        <time>2021-03-21T09:29:09.000Z</time>
      </trkpt>
      <trkpt lat="47.13771" lon="-1.52495">
        <ele>84</ele>
        <time>2021-03-21T09:29:11.000Z</time>
      </trkpt>
      <trkpt lat="47.13763" lon="-1.52507">
        <ele>84</ele>
        <time>2021-03-21T09:29:13.000Z</time>
      </trkpt>
      <trkpt lat="47.13754" lon="-1.52521">
        <ele>84</ele>
        <time>2021-03-21T09:29:15.000Z</time>
      </trkpt>
      <trkpt lat="47.13747" lon="-1.52535">
        <ele>85</ele>
        <time>2021-03-21T09:29:17.000Z</time>
      </trkpt>
      <trkpt lat="47.13738" lon="-1.52547">
        <ele>84</ele>
        <time>2021-03-21T09:29:19.000Z</time>
      </trkpt>
      <trkpt lat="47.1373" lon="-1.5256">
        <ele>85</ele>
        <time>2021-03-21T09:29:21.000Z</time>
      </trkpt>
      <trkpt lat="47.13722" lon="-1.52573">
        <ele>85</ele>
        <time>2021-03-21T09:29:23.000Z</time>
      </trkpt>
      <trkpt lat="47.13713" lon="-1.52586">
        <ele>85</ele>
        <time>2021-03-21T09:29:25.000Z</time>
      </trkpt>
      <trkpt lat="47.13705" lon="-1.526">
        <ele>85</ele>
        <time>2021-03-21T09:29:27.000Z</time>
      </trkpt>
      <trkpt lat="47.13697" lon="-1.52613">
        <ele>85</ele>
        <time>2021-03-21T09:29:29.000Z</time>
      </trkpt>
      <trkpt lat="47.13688" lon="-1.52626">
        <ele>85</ele>
        <time>2021-03-21T09:29:31.000Z</time>
      </trkpt>
      <trkpt lat="47.1368" lon="-1.5264">
        <ele>85</ele>
        <time>2021-03-21T09:29:33.000Z</time>
      </trkpt>
      <trkpt lat="47.13672" lon="-1.52654">
        <ele>85</ele>
        <time>2021-03-21T09:29:35.000Z</time>
      </trkpt>
      <trkpt lat="47.13664" lon="-1.52666">
        <ele>84</ele>
        <time>2021-03-21T09:29:37.000Z</time>
      </trkpt>
      <trkpt lat="47.13655" lon="-1.5268">
        <ele>84</ele>
        <time>2021-03-21T09:29:39.000Z</time>
      </trkpt>
      <trkpt lat="47.13647" lon="-1.52693">
        <ele>84</ele>
        <time>2021-03-21T09:29:41.000Z</time>
      </trkpt>
      <trkpt lat="47.13639" lon="-1.52706">
        <ele>84</ele>
        <time>2021-03-21T09:29:43.000Z</time>
      </trkpt>
      <trkpt lat="47.13631" lon="-1.5272">
        <ele>84</ele>
        <time>2021-03-21T09:29:45.000Z</time>
      </trkpt>
      <trkpt lat="47.13622" lon="-1.52734">
        <ele>84</ele>
        <time>2021-03-21T09:29:47.000Z</time>
      </trkpt>
      <trkpt lat="47.13613" lon="-1.52748">
        <ele>83</ele>
        <time>2021-03-21T09:29:49.000Z</time>
      </trkpt>
      <trkpt lat="47.13605" lon="-1.52762">
        <ele>83</ele>
        <time>2021-03-21T09:29:51.000Z</time>
      </trkpt>
      <trkpt lat="47.13597" lon="-1.52777">
        <ele>83</ele>
        <time>2021-03-21T09:29:53.000Z</time>
      </trkpt>
      <trkpt lat="47.1359" lon="-1.52793">
        <ele>83</ele>
        <time>2021-03-21T09:29:55.000Z</time>
      </trkpt>
      <trkpt lat="47.13583" lon="-1.52809">
        <ele>83</ele>
        <time>2021-03-21T09:29:57.000Z</time>
      </trkpt>
      <trkpt lat="47.13576" lon="-1.52824">
        <ele>83</ele>
        <time>2021-03-21T09:29:59.000Z</time>
      </trkpt>
      <trkpt lat="47.13569" lon="-1.52839">
        <ele>82</ele>
        <time>2021-03-21T09:30:01.000Z</time>
      </trkpt>
      <trkpt lat="47.13562" lon="-1.52855">
        <ele>82</ele>
        <time>2021-03-21T09:30:03.000Z</time>
      </trkpt>
      <trkpt lat="47.13555" lon="-1.52871">
        <ele>82</ele>
        <time>2021-03-21T09:30:05.000Z</time>
      </trkpt>
      <trkpt lat="47.13548" lon="-1.52885">
        <ele>81</ele>
        <time>2021-03-21T09:30:07.000Z</time>
      </trkpt>
      <trkpt lat="47.13541" lon="-1.52901">
        <ele>81</ele>
        <time>2021-03-21T09:30:09.000Z</time>
      </trkpt>
      <trkpt lat="47.13534" lon="-1.52917">
        <ele>81</ele>
        <time>2021-03-21T09:30:11.000Z</time>
      </trkpt>
      <trkpt lat="47.13527" lon="-1.52932">
        <ele>81</ele>
        <time>2021-03-21T09:30:13.000Z</time>
      </trkpt>
      <trkpt lat="47.1352" lon="-1.52948">
        <ele>81</ele>
        <time>2021-03-21T09:30:15.000Z</time>
      </trkpt>
      <trkpt lat="47.13513" lon="-1.52963">
        <ele>81</ele>
        <time>2021-03-21T09:30:17.000Z</time>
      </trkpt>
      <trkpt lat="47.13506" lon="-1.52979">
        <ele>81</ele>
        <time>2021-03-21T09:30:19.000Z</time>
      </trkpt>
      <trkpt lat="47.13499" lon="-1.52994">
        <ele>82</ele>
        <time>2021-03-21T09:30:21.000Z</time>
      </trkpt>
      <trkpt lat="47.13492" lon="-1.53008">
        <ele>82</ele>
        <time>2021-03-21T09:30:23.000Z</time>
      </trkpt>
      <trkpt lat="47.13486" lon="-1.53023">
        <ele>81</ele>
        <time>2021-03-21T09:30:25.000Z</time>
      </trkpt>
      <trkpt lat="47.13479" lon="-1.53038">
        <ele>81</ele>
        <time>2021-03-21T09:30:27.000Z</time>
      </trkpt>
      <trkpt lat="47.13473" lon="-1.53052">
        <ele>81</ele>
        <time>2021-03-21T09:30:29.000Z</time>
      </trkpt>
      <trkpt lat="47.13468" lon="-1.53066">
        <ele>81</ele>
        <time>2021-03-21T09:30:31.000Z</time>
      </trkpt>
      <trkpt lat="47.13462" lon="-1.53078">
        <ele>81</ele>
        <time>2021-03-21T09:30:33.000Z</time>
      </trkpt>
      <trkpt lat="47.13455" lon="-1.53093">
        <ele>81</ele>
        <time>2021-03-21T09:30:36.000Z</time>
      </trkpt>
      <trkpt lat="47.1345" lon="-1.53107">
        <ele>81</ele>
        <time>2021-03-21T09:30:39.000Z</time>
      </trkpt>
      <trkpt lat="47.13443" lon="-1.53119">
        <ele>81</ele>
        <time>2021-03-21T09:30:42.000Z</time>
      </trkpt>
      <trkpt lat="47.13439" lon="-1.53132">
        <ele>81</ele>
        <time>2021-03-21T09:30:45.000Z</time>
      </trkpt>
      <trkpt lat="47.13431" lon="-1.53147">
        <ele>81</ele>
        <time>2021-03-21T09:30:48.000Z</time>
      </trkpt>
      <trkpt lat="47.1342" lon="-1.53151">
        <ele>81</ele>
        <time>2021-03-21T09:30:50.000Z</time>
      </trkpt>
      <trkpt lat="47.13407" lon="-1.5315">
        <ele>80</ele>
        <time>2021-03-21T09:30:52.000Z</time>
      </trkpt>
      <trkpt lat="47.13394" lon="-1.53149">
        <ele>80</ele>
        <time>2021-03-21T09:30:54.000Z</time>
      </trkpt>
      <trkpt lat="47.13381" lon="-1.53149">
        <ele>81</ele>
        <time>2021-03-21T09:30:56.000Z</time>
      </trkpt>
      <trkpt lat="47.13369" lon="-1.53149">
        <ele>81</ele>
        <time>2021-03-21T09:30:58.000Z</time>
      </trkpt>
      <trkpt lat="47.13356" lon="-1.53151">
        <ele>81</ele>
        <time>2021-03-21T09:31:00.000Z</time>
      </trkpt>
      <trkpt lat="47.13343" lon="-1.53153">
        <ele>80</ele>
        <time>2021-03-21T09:31:02.000Z</time>
      </trkpt>
      <trkpt lat="47.1333" lon="-1.53157">
        <ele>80</ele>
        <time>2021-03-21T09:31:04.000Z</time>
      </trkpt>
      <trkpt lat="47.13318" lon="-1.53162">
        <ele>79</ele>
        <time>2021-03-21T09:31:06.000Z</time>
      </trkpt>
      <trkpt lat="47.13306" lon="-1.53168">
        <ele>79</ele>
        <time>2021-03-21T09:31:08.000Z</time>
      </trkpt>
      <trkpt lat="47.13294" lon="-1.53173">
        <ele>78</ele>
        <time>2021-03-21T09:31:10.000Z</time>
      </trkpt>
      <trkpt lat="47.13281" lon="-1.53176">
        <ele>78</ele>
        <time>2021-03-21T09:31:12.000Z</time>
      </trkpt>
      <trkpt lat="47.13268" lon="-1.53181">
        <ele>79</ele>
        <time>2021-03-21T09:31:14.000Z</time>
      </trkpt>
      <trkpt lat="47.13255" lon="-1.53186">
        <ele>78</ele>
        <time>2021-03-21T09:31:16.000Z</time>
      </trkpt>
      <trkpt lat="47.13242" lon="-1.53191">
        <ele>78</ele>
        <time>2021-03-21T09:31:18.000Z</time>
      </trkpt>
      <trkpt lat="47.13229" lon="-1.53196">
        <ele>77</ele>
        <time>2021-03-21T09:31:20.000Z</time>
      </trkpt>
      <trkpt lat="47.13217" lon="-1.53201">
        <ele>77</ele>
        <time>2021-03-21T09:31:22.000Z</time>
      </trkpt>
      <trkpt lat="47.13204" lon="-1.53206">
        <ele>77</ele>
        <time>2021-03-21T09:31:24.000Z</time>
      </trkpt>
      <trkpt lat="47.13192" lon="-1.53211">
        <ele>76</ele>
        <time>2021-03-21T09:31:26.000Z</time>
      </trkpt>
      <trkpt lat="47.1318" lon="-1.53216">
        <ele>76</ele>
        <time>2021-03-21T09:31:28.000Z</time>
      </trkpt>
      <trkpt lat="47.13168" lon="-1.53223">
        <ele>76</ele>
        <time>2021-03-21T09:31:30.000Z</time>
      </trkpt>
      <trkpt lat="47.13163" lon="-1.5324">
        <ele>76</ele>
        <time>2021-03-21T09:31:32.000Z</time>
      </trkpt>
      <trkpt lat="47.13168" lon="-1.53259">
        <ele>76</ele>
        <time>2021-03-21T09:31:34.000Z</time>
      </trkpt>
      <trkpt lat="47.13174" lon="-1.53275">
        <ele>76</ele>
        <time>2021-03-21T09:31:36.000Z</time>
      </trkpt>
      <trkpt lat="47.13179" lon="-1.53292">
        <ele>76</ele>
        <time>2021-03-21T09:31:38.000Z</time>
      </trkpt>
      <trkpt lat="47.13185" lon="-1.53309">
        <ele>76</ele>
        <time>2021-03-21T09:31:40.000Z</time>
      </trkpt>
      <trkpt lat="47.13191" lon="-1.53326">
        <ele>76</ele>
        <time>2021-03-21T09:31:42.000Z</time>
      </trkpt>
      <trkpt lat="47.13197" lon="-1.53344">
        <ele>76</ele>
        <time>2021-03-21T09:31:44.000Z</time>
      </trkpt>
      <trkpt lat="47.13203" lon="-1.53361">
        <ele>77</ele>
        <time>2021-03-21T09:31:46.000Z</time>
      </trkpt>
      <trkpt lat="47.13208" lon="-1.53379">
        <ele>76</ele>
        <time>2021-03-21T09:31:48.000Z</time>
      </trkpt>
      <trkpt lat="47.13213" lon="-1.53396">
        <ele>77</ele>
        <time>2021-03-21T09:31:50.000Z</time>
      </trkpt>
      <trkpt lat="47.13219" lon="-1.53414">
        <ele>77</ele>
        <time>2021-03-21T09:31:52.000Z</time>
      </trkpt>
      <trkpt lat="47.13224" lon="-1.5343">
        <ele>77</ele>
        <time>2021-03-21T09:31:54.000Z</time>
      </trkpt>
      <trkpt lat="47.13229" lon="-1.53448">
        <ele>77</ele>
        <time>2021-03-21T09:31:56.000Z</time>
      </trkpt>
      <trkpt lat="47.13235" lon="-1.53464">
        <ele>77</ele>
        <time>2021-03-21T09:31:58.000Z</time>
      </trkpt>
      <trkpt lat="47.1324" lon="-1.5348">
        <ele>77</ele>
        <time>2021-03-21T09:32:00.000Z</time>
      </trkpt>
      <trkpt lat="47.13246" lon="-1.53497">
        <ele>77</ele>
        <time>2021-03-21T09:32:02.000Z</time>
      </trkpt>
      <trkpt lat="47.13251" lon="-1.53514">
        <ele>77</ele>
        <time>2021-03-21T09:32:04.000Z</time>
      </trkpt>
      <trkpt lat="47.13256" lon="-1.53531">
        <ele>76</ele>
        <time>2021-03-21T09:32:06.000Z</time>
      </trkpt>
      <trkpt lat="47.13262" lon="-1.53548">
        <ele>76</ele>
        <time>2021-03-21T09:32:08.000Z</time>
      </trkpt>
      <trkpt lat="47.13267" lon="-1.53564">
        <ele>76</ele>
        <time>2021-03-21T09:32:10.000Z</time>
      </trkpt>
      <trkpt lat="47.13273" lon="-1.53581">
        <ele>77</ele>
        <time>2021-03-21T09:32:12.000Z</time>
      </trkpt>
      <trkpt lat="47.13279" lon="-1.53599">
        <ele>76</ele>
        <time>2021-03-21T09:32:14.000Z</time>
      </trkpt>
      <trkpt lat="47.13284" lon="-1.53616">
        <ele>76</ele>
        <time>2021-03-21T09:32:16.000Z</time>
      </trkpt>
      <trkpt lat="47.13289" lon="-1.53633">
        <ele>77</ele>
        <time>2021-03-21T09:32:18.000Z</time>
      </trkpt>
      <trkpt lat="47.13295" lon="-1.5365">
        <ele>76</ele>
        <time>2021-03-21T09:32:20.000Z</time>
      </trkpt>
      <trkpt lat="47.133" lon="-1.53667">
        <ele>77</ele>
        <time>2021-03-21T09:32:22.000Z</time>
      </trkpt>
      <trkpt lat="47.13307" lon="-1.53684">
        <ele>76</ele>
        <time>2021-03-21T09:32:24.000Z</time>
      </trkpt>
      <trkpt lat="47.13314" lon="-1.537">
        <ele>76</ele>
        <time>2021-03-21T09:32:26.000Z</time>
      </trkpt>
      <trkpt lat="47.13321" lon="-1.53716">
        <ele>76</ele>
        <time>2021-03-21T09:32:28.000Z</time>
      </trkpt>
      <trkpt lat="47.13327" lon="-1.53731">
        <ele>76</ele>
        <time>2021-03-21T09:32:30.000Z</time>
      </trkpt>
      <trkpt lat="47.13334" lon="-1.53745">
        <ele>76</ele>
        <time>2021-03-21T09:32:32.000Z</time>
      </trkpt>
      <trkpt lat="47.13341" lon="-1.5376">
        <ele>76</ele>
        <time>2021-03-21T09:32:34.000Z</time>
      </trkpt>
      <trkpt lat="47.13348" lon="-1.53775">
        <ele>75</ele>
        <time>2021-03-21T09:32:36.000Z</time>
      </trkpt>
      <trkpt lat="47.13356" lon="-1.5379">
        <ele>75</ele>
        <time>2021-03-21T09:32:38.000Z</time>
      </trkpt>
      <trkpt lat="47.13364" lon="-1.53805">
        <ele>76</ele>
        <time>2021-03-21T09:32:40.000Z</time>
      </trkpt>
      <trkpt lat="47.13374" lon="-1.53821">
        <ele>76</ele>
        <time>2021-03-21T09:32:42.000Z</time>
      </trkpt>
      <trkpt lat="47.13382" lon="-1.53837">
        <ele>76</ele>
        <time>2021-03-21T09:32:44.000Z</time>
      </trkpt>
      <trkpt lat="47.1339" lon="-1.53853">
        <ele>76</ele>
        <time>2021-03-21T09:32:46.000Z</time>
      </trkpt>
      <trkpt lat="47.13398" lon="-1.53868">
        <ele>77</ele>
        <time>2021-03-21T09:32:48.000Z</time>
      </trkpt>
      <trkpt lat="47.13406" lon="-1.53883">
        <ele>76</ele>
        <time>2021-03-21T09:32:50.000Z</time>
      </trkpt>
      <trkpt lat="47.13416" lon="-1.53898">
        <ele>76</ele>
        <time>2021-03-21T09:32:52.000Z</time>
      </trkpt>
      <trkpt lat="47.13424" lon="-1.53914">
        <ele>76</ele>
        <time>2021-03-21T09:32:54.000Z</time>
      </trkpt>
      <trkpt lat="47.13431" lon="-1.53929">
        <ele>76</ele>
        <time>2021-03-21T09:32:56.000Z</time>
      </trkpt>
      <trkpt lat="47.13439" lon="-1.53944">
        <ele>76</ele>
        <time>2021-03-21T09:32:58.000Z</time>
      </trkpt>
      <trkpt lat="47.13446" lon="-1.53958">
        <ele>76</ele>
        <time>2021-03-21T09:33:00.000Z</time>
      </trkpt>
      <trkpt lat="47.13453" lon="-1.53972">
        <ele>76</ele>
        <time>2021-03-21T09:33:02.000Z</time>
      </trkpt>
      <trkpt lat="47.13461" lon="-1.53988">
        <ele>75</ele>
        <time>2021-03-21T09:33:04.000Z</time>
      </trkpt>
      <trkpt lat="47.13468" lon="-1.54002">
        <ele>76</ele>
        <time>2021-03-21T09:33:06.000Z</time>
      </trkpt>
      <trkpt lat="47.13476" lon="-1.54016">
        <ele>75</ele>
        <time>2021-03-21T09:33:08.000Z</time>
      </trkpt>
      <trkpt lat="47.13485" lon="-1.5403">
        <ele>74</ele>
        <time>2021-03-21T09:33:10.000Z</time>
      </trkpt>
      <trkpt lat="47.13493" lon="-1.54044">
        <ele>74</ele>
        <time>2021-03-21T09:33:12.000Z</time>
      </trkpt>
      <trkpt lat="47.13501" lon="-1.54056">
        <ele>74</ele>
        <time>2021-03-21T09:33:14.000Z</time>
      </trkpt>
      <trkpt lat="47.1351" lon="-1.54069">
        <ele>74</ele>
        <time>2021-03-21T09:33:16.000Z</time>
      </trkpt>
      <trkpt lat="47.13519" lon="-1.54082">
        <ele>73</ele>
        <time>2021-03-21T09:33:18.000Z</time>
      </trkpt>
      <trkpt lat="47.13527" lon="-1.54094">
        <ele>74</ele>
        <time>2021-03-21T09:33:20.000Z</time>
      </trkpt>
      <trkpt lat="47.13535" lon="-1.54109">
        <ele>74</ele>
        <time>2021-03-21T09:33:22.000Z</time>
      </trkpt>
      <trkpt lat="47.13544" lon="-1.54122">
        <ele>74</ele>
        <time>2021-03-21T09:33:24.000Z</time>
      </trkpt>
      <trkpt lat="47.13552" lon="-1.54135">
        <ele>74</ele>
        <time>2021-03-21T09:33:26.000Z</time>
      </trkpt>
      <trkpt lat="47.1356" lon="-1.54148">
        <ele>74</ele>
        <time>2021-03-21T09:33:28.000Z</time>
      </trkpt>
      <trkpt lat="47.13568" lon="-1.54161">
        <ele>74</ele>
        <time>2021-03-21T09:33:30.000Z</time>
      </trkpt>
      <trkpt lat="47.13578" lon="-1.54174">
        <ele>74</ele>
        <time>2021-03-21T09:33:32.000Z</time>
      </trkpt>
      <trkpt lat="47.13587" lon="-1.54185">
        <ele>75</ele>
        <time>2021-03-21T09:33:34.000Z</time>
      </trkpt>
      <trkpt lat="47.13597" lon="-1.54195">
        <ele>75</ele>
        <time>2021-03-21T09:33:36.000Z</time>
      </trkpt>
      <trkpt lat="47.13609" lon="-1.54203">
        <ele>75</ele>
        <time>2021-03-21T09:33:38.000Z</time>
      </trkpt>
      <trkpt lat="47.13622" lon="-1.54209">
        <ele>75</ele>
        <time>2021-03-21T09:33:40.000Z</time>
      </trkpt>
      <trkpt lat="47.13634" lon="-1.54215">
        <ele>75</ele>
        <time>2021-03-21T09:33:42.000Z</time>
      </trkpt>
      <trkpt lat="47.13646" lon="-1.54221">
        <ele>76</ele>
        <time>2021-03-21T09:33:44.000Z</time>
      </trkpt>
      <trkpt lat="47.13658" lon="-1.54226">
        <ele>76</ele>
        <time>2021-03-21T09:33:46.000Z</time>
      </trkpt>
      <trkpt lat="47.1367" lon="-1.54233">
        <ele>76</ele>
        <time>2021-03-21T09:33:48.000Z</time>
      </trkpt>
      <trkpt lat="47.13682" lon="-1.54239">
        <ele>76</ele>
        <time>2021-03-21T09:33:50.000Z</time>
      </trkpt>
      <trkpt lat="47.13694" lon="-1.54246">
        <ele>77</ele>
        <time>2021-03-21T09:33:52.000Z</time>
      </trkpt>
      <trkpt lat="47.13706" lon="-1.54252">
        <ele>77</ele>
        <time>2021-03-21T09:33:54.000Z</time>
      </trkpt>
      <trkpt lat="47.13718" lon="-1.54258">
        <ele>77</ele>
        <time>2021-03-21T09:33:56.000Z</time>
      </trkpt>
      <trkpt lat="47.1373" lon="-1.54263">
        <ele>77</ele>
        <time>2021-03-21T09:33:58.000Z</time>
      </trkpt>
      <trkpt lat="47.13742" lon="-1.54268">
        <ele>76</ele>
        <time>2021-03-21T09:34:00.000Z</time>
      </trkpt>
      <trkpt lat="47.13753" lon="-1.54273">
        <ele>75</ele>
        <time>2021-03-21T09:34:02.000Z</time>
      </trkpt>
      <trkpt lat="47.13764" lon="-1.54277">
        <ele>75</ele>
        <time>2021-03-21T09:34:04.000Z</time>
      </trkpt>
      <trkpt lat="47.13776" lon="-1.54282">
        <ele>74</ele>
        <time>2021-03-21T09:34:06.000Z</time>
      </trkpt>
      <trkpt lat="47.13788" lon="-1.54287">
        <ele>74</ele>
        <time>2021-03-21T09:34:08.000Z</time>
      </trkpt>
      <trkpt lat="47.13799" lon="-1.54292">
        <ele>74</ele>
        <time>2021-03-21T09:34:10.000Z</time>
      </trkpt>
      <trkpt lat="47.13812" lon="-1.54298">
        <ele>73</ele>
        <time>2021-03-21T09:34:12.000Z</time>
      </trkpt>
      <trkpt lat="47.13824" lon="-1.54305">
        <ele>74</ele>
        <time>2021-03-21T09:34:14.000Z</time>
      </trkpt>
      <trkpt lat="47.13836" lon="-1.54312">
        <ele>73</ele>
        <time>2021-03-21T09:34:16.000Z</time>
      </trkpt>
      <trkpt lat="47.13848" lon="-1.5432">
        <ele>74</ele>
        <time>2021-03-21T09:34:18.000Z</time>
      </trkpt>
      <trkpt lat="47.1386" lon="-1.54329">
        <ele>74</ele>
        <time>2021-03-21T09:34:20.000Z</time>
      </trkpt>
      <trkpt lat="47.13871" lon="-1.54339">
        <ele>74</ele>
        <time>2021-03-21T09:34:22.000Z</time>
      </trkpt>
      <trkpt lat="47.13883" lon="-1.54349">
        <ele>74</ele>
        <time>2021-03-21T09:34:24.000Z</time>
      </trkpt>
      <trkpt lat="47.13895" lon="-1.54358">
        <ele>74</ele>
        <time>2021-03-21T09:34:26.000Z</time>
      </trkpt>
      <trkpt lat="47.13906" lon="-1.54367">
        <ele>74</ele>
        <time>2021-03-21T09:34:28.000Z</time>
      </trkpt>
      <trkpt lat="47.13918" lon="-1.54376">
        <ele>73</ele>
        <time>2021-03-21T09:34:30.000Z</time>
      </trkpt>
      <trkpt lat="47.13929" lon="-1.54386">
        <ele>73</ele>
        <time>2021-03-21T09:34:32.000Z</time>
      </trkpt>
      <trkpt lat="47.1394" lon="-1.54395">
        <ele>73</ele>
        <time>2021-03-21T09:34:34.000Z</time>
      </trkpt>
      <trkpt lat="47.13951" lon="-1.54403">
        <ele>73</ele>
        <time>2021-03-21T09:34:36.000Z</time>
      </trkpt>
      <trkpt lat="47.13962" lon="-1.54413">
        <ele>72</ele>
        <time>2021-03-21T09:34:38.000Z</time>
      </trkpt>
      <trkpt lat="47.13974" lon="-1.54422">
        <ele>72</ele>
        <time>2021-03-21T09:34:40.000Z</time>
      </trkpt>
      <trkpt lat="47.13985" lon="-1.54431">
        <ele>73</ele>
        <time>2021-03-21T09:34:42.000Z</time>
      </trkpt>
      <trkpt lat="47.13996" lon="-1.54439">
        <ele>73</ele>
        <time>2021-03-21T09:34:44.000Z</time>
      </trkpt>
      <trkpt lat="47.14007" lon="-1.54449">
        <ele>73</ele>
        <time>2021-03-21T09:34:46.000Z</time>
      </trkpt>
      <trkpt lat="47.14019" lon="-1.54459">
        <ele>72</ele>
        <time>2021-03-21T09:34:48.000Z</time>
      </trkpt>
      <trkpt lat="47.14031" lon="-1.54469">
        <ele>72</ele>
        <time>2021-03-21T09:34:50.000Z</time>
      </trkpt>
      <trkpt lat="47.14043" lon="-1.54479">
        <ele>71</ele>
        <time>2021-03-21T09:34:52.000Z</time>
      </trkpt>
      <trkpt lat="47.14055" lon="-1.54489">
        <ele>71</ele>
        <time>2021-03-21T09:34:54.000Z</time>
      </trkpt>
      <trkpt lat="47.14066" lon="-1.54501">
        <ele>70</ele>
        <time>2021-03-21T09:34:56.000Z</time>
      </trkpt>
      <trkpt lat="47.14078" lon="-1.54512">
        <ele>70</ele>
        <time>2021-03-21T09:34:58.000Z</time>
      </trkpt>
      <trkpt lat="47.14088" lon="-1.54523">
        <ele>71</ele>
        <time>2021-03-21T09:35:00.000Z</time>
      </trkpt>
      <trkpt lat="47.14098" lon="-1.54536">
        <ele>71</ele>
        <time>2021-03-21T09:35:02.000Z</time>
      </trkpt>
      <trkpt lat="47.14108" lon="-1.54547">
        <ele>71</ele>
        <time>2021-03-21T09:35:04.000Z</time>
      </trkpt>
      <trkpt lat="47.14118" lon="-1.54558">
        <ele>71</ele>
        <time>2021-03-21T09:35:06.000Z</time>
      </trkpt>
      <trkpt lat="47.14127" lon="-1.5457">
        <ele>71</ele>
        <time>2021-03-21T09:35:08.000Z</time>
      </trkpt>
      <trkpt lat="47.14138" lon="-1.54583">
        <ele>71</ele>
        <time>2021-03-21T09:35:10.000Z</time>
      </trkpt>
      <trkpt lat="47.14148" lon="-1.54595">
        <ele>70</ele>
        <time>2021-03-21T09:35:12.000Z</time>
      </trkpt>
      <trkpt lat="47.14157" lon="-1.54608">
        <ele>70</ele>
        <time>2021-03-21T09:35:14.000Z</time>
      </trkpt>
      <trkpt lat="47.14167" lon="-1.5462">
        <ele>71</ele>
        <time>2021-03-21T09:35:16.000Z</time>
      </trkpt>
      <trkpt lat="47.14176" lon="-1.54632">
        <ele>71</ele>
        <time>2021-03-21T09:35:18.000Z</time>
      </trkpt>
      <trkpt lat="47.14185" lon="-1.54642">
        <ele>71</ele>
        <time>2021-03-21T09:35:20.000Z</time>
      </trkpt>
      <trkpt lat="47.14194" lon="-1.54651">
        <ele>71</ele>
        <time>2021-03-21T09:35:22.000Z</time>
      </trkpt>
      <trkpt lat="47.14201" lon="-1.5466">
        <ele>72</ele>
        <time>2021-03-21T09:35:24.000Z</time>
      </trkpt>
      <trkpt lat="47.14201" lon="-1.54676">
        <ele>71</ele>
        <time>2021-03-21T09:35:26.000Z</time>
      </trkpt>
      <trkpt lat="47.14197" lon="-1.54694">
        <ele>71</ele>
        <time>2021-03-21T09:35:28.000Z</time>
      </trkpt>
      <trkpt lat="47.14194" lon="-1.54712">
        <ele>70</ele>
        <time>2021-03-21T09:35:30.000Z</time>
      </trkpt>
      <trkpt lat="47.14196" lon="-1.5473">
        <ele>70</ele>
        <time>2021-03-21T09:35:32.000Z</time>
      </trkpt>
      <trkpt lat="47.14205" lon="-1.54742">
        <ele>69</ele>
        <time>2021-03-21T09:35:34.000Z</time>
      </trkpt>
      <trkpt lat="47.14217" lon="-1.54748">
        <ele>69</ele>
        <time>2021-03-21T09:35:36.000Z</time>
      </trkpt>
      <trkpt lat="47.14229" lon="-1.54755">
        <ele>70</ele>
        <time>2021-03-21T09:35:38.000Z</time>
      </trkpt>
      <trkpt lat="47.1424" lon="-1.54762">
        <ele>70</ele>
        <time>2021-03-21T09:35:40.000Z</time>
      </trkpt>
      <trkpt lat="47.14252" lon="-1.5477">
        <ele>69</ele>
        <time>2021-03-21T09:35:42.000Z</time>
      </trkpt>
      <trkpt lat="47.14263" lon="-1.5478">
        <ele>69</ele>
        <time>2021-03-21T09:35:44.000Z</time>
      </trkpt>
      <trkpt lat="47.14275" lon="-1.54789">
        <ele>69</ele>
        <time>2021-03-21T09:35:46.000Z</time>
      </trkpt>
      <trkpt lat="47.14286" lon="-1.54798">
        <ele>68</ele>
        <time>2021-03-21T09:35:48.000Z</time>
      </trkpt>
      <trkpt lat="47.14298" lon="-1.54806">
        <ele>68</ele>
        <time>2021-03-21T09:35:50.000Z</time>
      </trkpt>
      <trkpt lat="47.14309" lon="-1.54815">
        <ele>68</ele>
        <time>2021-03-21T09:35:52.000Z</time>
      </trkpt>
      <trkpt lat="47.14321" lon="-1.54824">
        <ele>69</ele>
        <time>2021-03-21T09:35:54.000Z</time>
      </trkpt>
      <trkpt lat="47.14332" lon="-1.54833">
        <ele>69</ele>
        <time>2021-03-21T09:35:56.000Z</time>
      </trkpt>
      <trkpt lat="47.14342" lon="-1.54842">
        <ele>68</ele>
        <time>2021-03-21T09:35:58.000Z</time>
      </trkpt>
      <trkpt lat="47.14352" lon="-1.54851">
        <ele>68</ele>
        <time>2021-03-21T09:36:00.000Z</time>
      </trkpt>
      <trkpt lat="47.14362" lon="-1.54861">
        <ele>69</ele>
        <time>2021-03-21T09:36:02.000Z</time>
      </trkpt>
      <trkpt lat="47.14372" lon="-1.54871">
        <ele>70</ele>
        <time>2021-03-21T09:36:04.000Z</time>
      </trkpt>
      <trkpt lat="47.14382" lon="-1.54881">
        <ele>70</ele>
        <time>2021-03-21T09:36:06.000Z</time>
      </trkpt>
      <trkpt lat="47.14392" lon="-1.54891">
        <ele>70</ele>
        <time>2021-03-21T09:36:08.000Z</time>
      </trkpt>
      <trkpt lat="47.14402" lon="-1.54902">
        <ele>70</ele>
        <time>2021-03-21T09:36:10.000Z</time>
      </trkpt>
      <trkpt lat="47.14411" lon="-1.54911">
        <ele>69</ele>
        <time>2021-03-21T09:36:12.000Z</time>
      </trkpt>
      <trkpt lat="47.14421" lon="-1.54921">
        <ele>69</ele>
        <time>2021-03-21T09:36:14.000Z</time>
      </trkpt>
      <trkpt lat="47.1443" lon="-1.54932">
        <ele>69</ele>
        <time>2021-03-21T09:36:16.000Z</time>
      </trkpt>
      <trkpt lat="47.1444" lon="-1.54941">
        <ele>69</ele>
        <time>2021-03-21T09:36:18.000Z</time>
      </trkpt>
      <trkpt lat="47.14451" lon="-1.54952">
        <ele>69</ele>
        <time>2021-03-21T09:36:20.000Z</time>
      </trkpt>
      <trkpt lat="47.1446" lon="-1.54962">
        <ele>70</ele>
        <time>2021-03-21T09:36:22.000Z</time>
      </trkpt>
      <trkpt lat="47.1447" lon="-1.54971">
        <ele>70</ele>
        <time>2021-03-21T09:36:24.000Z</time>
      </trkpt>
      <trkpt lat="47.1448" lon="-1.54981">
        <ele>71</ele>
        <time>2021-03-21T09:36:26.000Z</time>
      </trkpt>
      <trkpt lat="47.14489" lon="-1.54991">
        <ele>71</ele>
        <time>2021-03-21T09:36:28.000Z</time>
      </trkpt>
      <trkpt lat="47.14498" lon="-1.55005">
        <ele>71</ele>
        <time>2021-03-21T09:36:30.000Z</time>
      </trkpt>
      <trkpt lat="47.14507" lon="-1.55021">
        <ele>72</ele>
        <time>2021-03-21T09:36:32.000Z</time>
      </trkpt>
      <trkpt lat="47.14514" lon="-1.55037">
        <ele>71</ele>
        <time>2021-03-21T09:36:34.000Z</time>
      </trkpt>
      <trkpt lat="47.14522" lon="-1.55053">
        <ele>71</ele>
        <time>2021-03-21T09:36:36.000Z</time>
      </trkpt>
      <trkpt lat="47.14529" lon="-1.5507">
        <ele>71</ele>
        <time>2021-03-21T09:36:38.000Z</time>
      </trkpt>
      <trkpt lat="47.14535" lon="-1.55085">
        <ele>70</ele>
        <time>2021-03-21T09:36:40.000Z</time>
      </trkpt>
      <trkpt lat="47.14541" lon="-1.551">
        <ele>70</ele>
        <time>2021-03-21T09:36:42.000Z</time>
      </trkpt>
      <trkpt lat="47.14548" lon="-1.55114">
        <ele>71</ele>
        <time>2021-03-21T09:36:44.000Z</time>
      </trkpt>
      <trkpt lat="47.14554" lon="-1.55128">
        <ele>71</ele>
        <time>2021-03-21T09:36:46.000Z</time>
      </trkpt>
      <trkpt lat="47.14561" lon="-1.55142">
        <ele>71</ele>
        <time>2021-03-21T09:36:48.000Z</time>
      </trkpt>
      <trkpt lat="47.14569" lon="-1.55156">
        <ele>71</ele>
        <time>2021-03-21T09:36:50.000Z</time>
      </trkpt>
      <trkpt lat="47.14577" lon="-1.55171">
        <ele>71</ele>
        <time>2021-03-21T09:36:52.000Z</time>
      </trkpt>
      <trkpt lat="47.14585" lon="-1.55185">
        <ele>71</ele>
        <time>2021-03-21T09:36:54.000Z</time>
      </trkpt>
      <trkpt lat="47.14592" lon="-1.55198">
        <ele>71</ele>
        <time>2021-03-21T09:36:56.000Z</time>
      </trkpt>
      <trkpt lat="47.14599" lon="-1.55211">
        <ele>71</ele>
        <time>2021-03-21T09:36:58.000Z</time>
      </trkpt>
      <trkpt lat="47.14606" lon="-1.55225">
        <ele>71</ele>
        <time>2021-03-21T09:37:00.000Z</time>
      </trkpt>
      <trkpt lat="47.14614" lon="-1.55237">
        <ele>71</ele>
        <time>2021-03-21T09:37:02.000Z</time>
      </trkpt>
      <trkpt lat="47.14621" lon="-1.55249">
        <ele>71</ele>
        <time>2021-03-21T09:37:04.000Z</time>
      </trkpt>
      <trkpt lat="47.14629" lon="-1.55263">
        <ele>71</ele>
        <time>2021-03-21T09:37:06.000Z</time>
      </trkpt>
      <trkpt lat="47.14637" lon="-1.55276">
        <ele>71</ele>
        <time>2021-03-21T09:37:08.000Z</time>
      </trkpt>
      <trkpt lat="47.14646" lon="-1.55287">
        <ele>71</ele>
        <time>2021-03-21T09:37:10.000Z</time>
      </trkpt>
      <trkpt lat="47.14654" lon="-1.55298">
        <ele>71</ele>
        <time>2021-03-21T09:37:12.000Z</time>
      </trkpt>
      <trkpt lat="47.14662" lon="-1.5531">
        <ele>71</ele>
        <time>2021-03-21T09:37:14.000Z</time>
      </trkpt>
      <trkpt lat="47.1467" lon="-1.5532">
        <ele>71</ele>
        <time>2021-03-21T09:37:16.000Z</time>
      </trkpt>
      <trkpt lat="47.14678" lon="-1.5533">
        <ele>71</ele>
        <time>2021-03-21T09:37:18.000Z</time>
      </trkpt>
      <trkpt lat="47.14685" lon="-1.55341">
        <ele>71</ele>
        <time>2021-03-21T09:37:20.000Z</time>
      </trkpt>
      <trkpt lat="47.14694" lon="-1.55351">
        <ele>71</ele>
        <time>2021-03-21T09:37:22.000Z</time>
      </trkpt>
      <trkpt lat="47.14702" lon="-1.55362">
        <ele>72</ele>
        <time>2021-03-21T09:37:24.000Z</time>
      </trkpt>
      <trkpt lat="47.14711" lon="-1.55371">
        <ele>72</ele>
        <time>2021-03-21T09:37:26.000Z</time>
      </trkpt>
      <trkpt lat="47.1472" lon="-1.5538">
        <ele>72</ele>
        <time>2021-03-21T09:37:28.000Z</time>
      </trkpt>
      <trkpt lat="47.1473" lon="-1.55388">
        <ele>72</ele>
        <time>2021-03-21T09:37:30.000Z</time>
      </trkpt>
      <trkpt lat="47.1474" lon="-1.55396">
        <ele>73</ele>
        <time>2021-03-21T09:37:32.000Z</time>
      </trkpt>
      <trkpt lat="47.1475" lon="-1.55405">
        <ele>72</ele>
        <time>2021-03-21T09:37:34.000Z</time>
      </trkpt>
      <trkpt lat="47.14759" lon="-1.55413">
        <ele>73</ele>
        <time>2021-03-21T09:37:36.000Z</time>
      </trkpt>
      <trkpt lat="47.14768" lon="-1.55421">
        <ele>73</ele>
        <time>2021-03-21T09:37:38.000Z</time>
      </trkpt>
      <trkpt lat="47.14777" lon="-1.55431">
        <ele>73</ele>
        <time>2021-03-21T09:37:40.000Z</time>
      </trkpt>
      <trkpt lat="47.14787" lon="-1.55439">
        <ele>73</ele>
        <time>2021-03-21T09:37:42.000Z</time>
      </trkpt>
      <trkpt lat="47.14796" lon="-1.55448">
        <ele>73</ele>
        <time>2021-03-21T09:37:44.000Z</time>
      </trkpt>
      <trkpt lat="47.14805" lon="-1.55458">
        <ele>73</ele>
        <time>2021-03-21T09:37:46.000Z</time>
      </trkpt>
      <trkpt lat="47.14814" lon="-1.55467">
        <ele>73</ele>
        <time>2021-03-21T09:37:48.000Z</time>
      </trkpt>
      <trkpt lat="47.14822" lon="-1.55477">
        <ele>74</ele>
        <time>2021-03-21T09:37:50.000Z</time>
      </trkpt>
      <trkpt lat="47.14831" lon="-1.55489">
        <ele>74</ele>
        <time>2021-03-21T09:37:52.000Z</time>
      </trkpt>
      <trkpt lat="47.1484" lon="-1.55499">
        <ele>74</ele>
        <time>2021-03-21T09:37:54.000Z</time>
      </trkpt>
      <trkpt lat="47.14848" lon="-1.5551">
        <ele>74</ele>
        <time>2021-03-21T09:37:56.000Z</time>
      </trkpt>
      <trkpt lat="47.14858" lon="-1.55519">
        <ele>74</ele>
        <time>2021-03-21T09:37:58.000Z</time>
      </trkpt>
      <trkpt lat="47.14868" lon="-1.55525">
        <ele>73</ele>
        <time>2021-03-21T09:38:00.000Z</time>
      </trkpt>
      <trkpt lat="47.14879" lon="-1.55529">
        <ele>73</ele>
        <time>2021-03-21T09:38:02.000Z</time>
      </trkpt>
      <trkpt lat="47.1489" lon="-1.5553">
        <ele>73</ele>
        <time>2021-03-21T09:38:04.000Z</time>
      </trkpt>
      <trkpt lat="47.14902" lon="-1.55529">
        <ele>73</ele>
        <time>2021-03-21T09:38:06.000Z</time>
      </trkpt>
      <trkpt lat="47.14913" lon="-1.55526">
        <ele>73</ele>
        <time>2021-03-21T09:38:08.000Z</time>
      </trkpt>
      <trkpt lat="47.14925" lon="-1.55523">
        <ele>73</ele>
        <time>2021-03-21T09:38:10.000Z</time>
      </trkpt>
      <trkpt lat="47.14937" lon="-1.5552">
        <ele>73</ele>
        <time>2021-03-21T09:38:12.000Z</time>
      </trkpt>
      <trkpt lat="47.14948" lon="-1.55517">
        <ele>73</ele>
        <time>2021-03-21T09:38:14.000Z</time>
      </trkpt>
      <trkpt lat="47.14959" lon="-1.55514">
        <ele>73</ele>
        <time>2021-03-21T09:38:16.000Z</time>
      </trkpt>
      <trkpt lat="47.1497" lon="-1.55512">
        <ele>73</ele>
        <time>2021-03-21T09:38:18.000Z</time>
      </trkpt>
      <trkpt lat="47.14981" lon="-1.55508">
        <ele>73</ele>
        <time>2021-03-21T09:38:20.000Z</time>
      </trkpt>
      <trkpt lat="47.14993" lon="-1.55505">
        <ele>73</ele>
        <time>2021-03-21T09:38:22.000Z</time>
      </trkpt>
      <trkpt lat="47.15004" lon="-1.55502">
        <ele>73</ele>
        <time>2021-03-21T09:38:24.000Z</time>
      </trkpt>
      <trkpt lat="47.15014" lon="-1.55498">
        <ele>73</ele>
        <time>2021-03-21T09:38:26.000Z</time>
      </trkpt>
      <trkpt lat="47.15025" lon="-1.55496">
        <ele>73</ele>
        <time>2021-03-21T09:38:28.000Z</time>
      </trkpt>
      <trkpt lat="47.15036" lon="-1.55493">
        <ele>74</ele>
        <time>2021-03-21T09:38:30.000Z</time>
      </trkpt>
      <trkpt lat="47.15047" lon="-1.5549">
        <ele>73</ele>
        <time>2021-03-21T09:38:32.000Z</time>
      </trkpt>
      <trkpt lat="47.15058" lon="-1.55487">
        <ele>74</ele>
        <time>2021-03-21T09:38:34.000Z</time>
      </trkpt>
      <trkpt lat="47.15069" lon="-1.55484">
        <ele>73</ele>
        <time>2021-03-21T09:38:36.000Z</time>
      </trkpt>
      <trkpt lat="47.1508" lon="-1.55482">
        <ele>74</ele>
        <time>2021-03-21T09:38:38.000Z</time>
      </trkpt>
      <trkpt lat="47.15092" lon="-1.55478">
        <ele>74</ele>
        <time>2021-03-21T09:38:40.000Z</time>
      </trkpt>
      <trkpt lat="47.15104" lon="-1.55474">
        <ele>75</ele>
        <time>2021-03-21T09:38:42.000Z</time>
      </trkpt>
      <trkpt lat="47.15115" lon="-1.55471">
        <ele>75</ele>
        <time>2021-03-21T09:38:44.000Z</time>
      </trkpt>
      <trkpt lat="47.15126" lon="-1.55468">
        <ele>74</ele>
        <time>2021-03-21T09:38:46.000Z</time>
      </trkpt>
      <trkpt lat="47.15138" lon="-1.55465">
        <ele>75</ele>
        <time>2021-03-21T09:38:48.000Z</time>
      </trkpt>
      <trkpt lat="47.1515" lon="-1.55461">
        <ele>75</ele>
        <time>2021-03-21T09:38:50.000Z</time>
      </trkpt>
      <trkpt lat="47.15162" lon="-1.55459">
        <ele>75</ele>
        <time>2021-03-21T09:38:52.000Z</time>
      </trkpt>
      <trkpt lat="47.15173" lon="-1.55457">
        <ele>75</ele>
        <time>2021-03-21T09:38:54.000Z</time>
      </trkpt>
      <trkpt lat="47.15184" lon="-1.55457">
        <ele>75</ele>
        <time>2021-03-21T09:38:56.000Z</time>
      </trkpt>
      <trkpt lat="47.15194" lon="-1.55459">
        <ele>75</ele>
        <time>2021-03-21T09:38:58.000Z</time>
      </trkpt>
      <trkpt lat="47.15204" lon="-1.55466">
        <ele>75</ele>
        <time>2021-03-21T09:39:00.000Z</time>
      </trkpt>
      <trkpt lat="47.15213" lon="-1.55477">
        <ele>76</ele>
        <time>2021-03-21T09:39:02.000Z</time>
      </trkpt>
      <trkpt lat="47.15221" lon="-1.55491">
        <ele>76</ele>
        <time>2021-03-21T09:39:04.000Z</time>
      </trkpt>
      <trkpt lat="47.15227" lon="-1.55505">
        <ele>76</ele>
        <time>2021-03-21T09:39:06.000Z</time>
      </trkpt>
      <trkpt lat="47.15233" lon="-1.5552">
        <ele>76</ele>
        <time>2021-03-21T09:39:08.000Z</time>
      </trkpt>
      <trkpt lat="47.15238" lon="-1.55535">
        <ele>77</ele>
        <time>2021-03-21T09:39:10.000Z</time>
      </trkpt>
      <trkpt lat="47.15244" lon="-1.5555">
        <ele>77</ele>
        <time>2021-03-21T09:39:12.000Z</time>
      </trkpt>
      <trkpt lat="47.1525" lon="-1.55565">
        <ele>76</ele>
        <time>2021-03-21T09:39:14.000Z</time>
      </trkpt>
      <trkpt lat="47.15255" lon="-1.55582">
        <ele>76</ele>
        <time>2021-03-21T09:39:16.000Z</time>
      </trkpt>
      <trkpt lat="47.1526" lon="-1.55597">
        <ele>76</ele>
        <time>2021-03-21T09:39:18.000Z</time>
      </trkpt>
      <trkpt lat="47.15265" lon="-1.55612">
        <ele>77</ele>
        <time>2021-03-21T09:39:20.000Z</time>
      </trkpt>
      <trkpt lat="47.15271" lon="-1.55626">
        <ele>76</ele>
        <time>2021-03-21T09:39:22.000Z</time>
      </trkpt>
      <trkpt lat="47.15276" lon="-1.5564">
        <ele>77</ele>
        <time>2021-03-21T09:39:24.000Z</time>
      </trkpt>
      <trkpt lat="47.15283" lon="-1.55654">
        <ele>77</ele>
        <time>2021-03-21T09:39:26.000Z</time>
      </trkpt>
      <trkpt lat="47.1529" lon="-1.55667">
        <ele>78</ele>
        <time>2021-03-21T09:39:28.000Z</time>
      </trkpt>
      <trkpt lat="47.15297" lon="-1.55679">
        <ele>78</ele>
        <time>2021-03-21T09:39:30.000Z</time>
      </trkpt>
      <trkpt lat="47.15303" lon="-1.55693">
        <ele>78</ele>
        <time>2021-03-21T09:39:32.000Z</time>
      </trkpt>
      <trkpt lat="47.1531" lon="-1.55707">
        <ele>78</ele>
        <time>2021-03-21T09:39:34.000Z</time>
      </trkpt>
      <trkpt lat="47.15317" lon="-1.5572">
        <ele>78</ele>
        <time>2021-03-21T09:39:36.000Z</time>
      </trkpt>
      <trkpt lat="47.15323" lon="-1.55733">
        <ele>78</ele>
        <time>2021-03-21T09:39:38.000Z</time>
      </trkpt>
      <trkpt lat="47.1533" lon="-1.55747">
        <ele>78</ele>
        <time>2021-03-21T09:39:40.000Z</time>
      </trkpt>
      <trkpt lat="47.15337" lon="-1.5576">
        <ele>78</ele>
        <time>2021-03-21T09:39:42.000Z</time>
      </trkpt>
      <trkpt lat="47.15343" lon="-1.55773">
        <ele>78</ele>
        <time>2021-03-21T09:39:44.000Z</time>
      </trkpt>
      <trkpt lat="47.15349" lon="-1.55786">
        <ele>78</ele>
        <time>2021-03-21T09:39:46.000Z</time>
      </trkpt>
      <trkpt lat="47.15356" lon="-1.55799">
        <ele>79</ele>
        <time>2021-03-21T09:39:48.000Z</time>
      </trkpt>
      <trkpt lat="47.15363" lon="-1.55812">
        <ele>80</ele>
        <time>2021-03-21T09:39:50.000Z</time>
      </trkpt>
      <trkpt lat="47.15369" lon="-1.55825">
        <ele>80</ele>
        <time>2021-03-21T09:39:52.000Z</time>
      </trkpt>
      <trkpt lat="47.15376" lon="-1.55838">
        <ele>80</ele>
        <time>2021-03-21T09:39:54.000Z</time>
      </trkpt>
      <trkpt lat="47.15383" lon="-1.5585">
        <ele>80</ele>
        <time>2021-03-21T09:39:56.000Z</time>
      </trkpt>
      <trkpt lat="47.15388" lon="-1.5586">
        <ele>80</ele>
        <time>2021-03-21T09:39:58.000Z</time>
      </trkpt>
      <trkpt lat="47.15395" lon="-1.55872">
        <ele>80</ele>
        <time>2021-03-21T09:40:01.000Z</time>
      </trkpt>
      <trkpt lat="47.15404" lon="-1.55881">
        <ele>81</ele>
        <time>2021-03-21T09:40:04.000Z</time>
      </trkpt>
      <trkpt lat="47.15411" lon="-1.55891">
        <ele>80</ele>
        <time>2021-03-21T09:40:06.000Z</time>
      </trkpt>
      <trkpt lat="47.1542" lon="-1.55901">
        <ele>80</ele>
        <time>2021-03-21T09:40:08.000Z</time>
      </trkpt>
      <trkpt lat="47.15431" lon="-1.55908">
        <ele>80</ele>
        <time>2021-03-21T09:40:10.000Z</time>
      </trkpt>
      <trkpt lat="47.15441" lon="-1.55916">
        <ele>80</ele>
        <time>2021-03-21T09:40:12.000Z</time>
      </trkpt>
      <trkpt lat="47.15451" lon="-1.55923">
        <ele>80</ele>
        <time>2021-03-21T09:40:14.000Z</time>
      </trkpt>
      <trkpt lat="47.1546" lon="-1.5593">
        <ele>81</ele>
        <time>2021-03-21T09:40:16.000Z</time>
      </trkpt>
      <trkpt lat="47.15471" lon="-1.55937">
        <ele>80</ele>
        <time>2021-03-21T09:40:18.000Z</time>
      </trkpt>
      <trkpt lat="47.1548" lon="-1.55945">
        <ele>80</ele>
        <time>2021-03-21T09:40:20.000Z</time>
      </trkpt>
      <trkpt lat="47.15489" lon="-1.55953">
        <ele>80</ele>
        <time>2021-03-21T09:40:22.000Z</time>
      </trkpt>
      <trkpt lat="47.15499" lon="-1.55961">
        <ele>79</ele>
        <time>2021-03-21T09:40:24.000Z</time>
      </trkpt>
      <trkpt lat="47.15508" lon="-1.55969">
        <ele>79</ele>
        <time>2021-03-21T09:40:26.000Z</time>
      </trkpt>
      <trkpt lat="47.15519" lon="-1.55977">
        <ele>79</ele>
        <time>2021-03-21T09:40:28.000Z</time>
      </trkpt>
      <trkpt lat="47.15529" lon="-1.55985">
        <ele>79</ele>
        <time>2021-03-21T09:40:30.000Z</time>
      </trkpt>
      <trkpt lat="47.1554" lon="-1.55995">
        <ele>79</ele>
        <time>2021-03-21T09:40:32.000Z</time>
      </trkpt>
      <trkpt lat="47.1555" lon="-1.56003">
        <ele>79</ele>
        <time>2021-03-21T09:40:34.000Z</time>
      </trkpt>
      <trkpt lat="47.15561" lon="-1.56012">
        <ele>79</ele>
        <time>2021-03-21T09:40:36.000Z</time>
      </trkpt>
      <trkpt lat="47.1557" lon="-1.5602">
        <ele>79</ele>
        <time>2021-03-21T09:40:38.000Z</time>
      </trkpt>
      <trkpt lat="47.15579" lon="-1.56029">
        <ele>80</ele>
        <time>2021-03-21T09:40:40.000Z</time>
      </trkpt>
      <trkpt lat="47.15585" lon="-1.56042">
        <ele>80</ele>
        <time>2021-03-21T09:40:42.000Z</time>
      </trkpt>
      <trkpt lat="47.15583" lon="-1.5606">
        <ele>80</ele>
        <time>2021-03-21T09:40:44.000Z</time>
      </trkpt>
      <trkpt lat="47.15578" lon="-1.56077">
        <ele>80</ele>
        <time>2021-03-21T09:40:46.000Z</time>
      </trkpt>
      <trkpt lat="47.15577" lon="-1.56096">
        <ele>79</ele>
        <time>2021-03-21T09:40:48.000Z</time>
      </trkpt>
      <trkpt lat="47.15578" lon="-1.56114">
        <ele>79</ele>
        <time>2021-03-21T09:40:50.000Z</time>
      </trkpt>
      <trkpt lat="47.15582" lon="-1.56131">
        <ele>79</ele>
        <time>2021-03-21T09:40:52.000Z</time>
      </trkpt>
      <trkpt lat="47.15588" lon="-1.56145">
        <ele>79</ele>
        <time>2021-03-21T09:40:54.000Z</time>
      </trkpt>
      <trkpt lat="47.15594" lon="-1.56158">
        <ele>80</ele>
        <time>2021-03-21T09:40:56.000Z</time>
      </trkpt>
      <trkpt lat="47.15601" lon="-1.56173">
        <ele>80</ele>
        <time>2021-03-21T09:40:58.000Z</time>
      </trkpt>
      <trkpt lat="47.15607" lon="-1.56188">
        <ele>80</ele>
        <time>2021-03-21T09:41:00.000Z</time>
      </trkpt>
      <trkpt lat="47.15614" lon="-1.56203">
        <ele>80</ele>
        <time>2021-03-21T09:41:02.000Z</time>
      </trkpt>
      <trkpt lat="47.15622" lon="-1.56217">
        <ele>81</ele>
        <time>2021-03-21T09:41:04.000Z</time>
      </trkpt>
      <trkpt lat="47.15629" lon="-1.56233">
        <ele>81</ele>
        <time>2021-03-21T09:41:06.000Z</time>
      </trkpt>
      <trkpt lat="47.15636" lon="-1.56249">
        <ele>81</ele>
        <time>2021-03-21T09:41:08.000Z</time>
      </trkpt>
      <trkpt lat="47.15642" lon="-1.56265">
        <ele>81</ele>
        <time>2021-03-21T09:41:10.000Z</time>
      </trkpt>
      <trkpt lat="47.15648" lon="-1.5628">
        <ele>81</ele>
        <time>2021-03-21T09:41:12.000Z</time>
      </trkpt>
      <trkpt lat="47.15657" lon="-1.56294">
        <ele>80</ele>
        <time>2021-03-21T09:41:14.000Z</time>
      </trkpt>
      <trkpt lat="47.15667" lon="-1.56303">
        <ele>79</ele>
        <time>2021-03-21T09:41:16.000Z</time>
      </trkpt>
      <trkpt lat="47.15677" lon="-1.5631">
        <ele>80</ele>
        <time>2021-03-21T09:41:18.000Z</time>
      </trkpt>
      <trkpt lat="47.15686" lon="-1.56318">
        <ele>80</ele>
        <time>2021-03-21T09:41:20.000Z</time>
      </trkpt>
      <trkpt lat="47.15692" lon="-1.56336">
        <ele>81</ele>
        <time>2021-03-21T09:41:22.000Z</time>
      </trkpt>
      <trkpt lat="47.15694" lon="-1.56353">
        <ele>80</ele>
        <time>2021-03-21T09:41:24.000Z</time>
      </trkpt>
      <trkpt lat="47.15697" lon="-1.56371">
        <ele>80</ele>
        <time>2021-03-21T09:41:26.000Z</time>
      </trkpt>
      <trkpt lat="47.15702" lon="-1.56386">
        <ele>79</ele>
        <time>2021-03-21T09:41:28.000Z</time>
      </trkpt>
      <trkpt lat="47.15708" lon="-1.56401">
        <ele>80</ele>
        <time>2021-03-21T09:41:30.000Z</time>
      </trkpt>
      <trkpt lat="47.15716" lon="-1.56415">
        <ele>80</ele>
        <time>2021-03-21T09:41:32.000Z</time>
      </trkpt>
      <trkpt lat="47.15725" lon="-1.56427">
        <ele>80</ele>
        <time>2021-03-21T09:41:34.000Z</time>
      </trkpt>
      <trkpt lat="47.15732" lon="-1.5644">
        <ele>80</ele>
        <time>2021-03-21T09:41:36.000Z</time>
      </trkpt>
      <trkpt lat="47.1574" lon="-1.56454">
        <ele>80</ele>
        <time>2021-03-21T09:41:38.000Z</time>
      </trkpt>
      <trkpt lat="47.15744" lon="-1.5647">
        <ele>80</ele>
        <time>2021-03-21T09:41:40.000Z</time>
      </trkpt>
      <trkpt lat="47.15745" lon="-1.56488">
        <ele>80</ele>
        <time>2021-03-21T09:41:42.000Z</time>
      </trkpt>
      <trkpt lat="47.15745" lon="-1.56505">
        <ele>80</ele>
        <time>2021-03-21T09:41:44.000Z</time>
      </trkpt>
      <trkpt lat="47.15743" lon="-1.56522">
        <ele>79</ele>
        <time>2021-03-21T09:41:46.000Z</time>
      </trkpt>
      <trkpt lat="47.15739" lon="-1.5654">
        <ele>79</ele>
        <time>2021-03-21T09:41:48.000Z</time>
      </trkpt>
      <trkpt lat="47.15735" lon="-1.56557">
        <ele>79</ele>
        <time>2021-03-21T09:41:50.000Z</time>
      </trkpt>
      <trkpt lat="47.15729" lon="-1.56574">
        <ele>79</ele>
        <time>2021-03-21T09:41:52.000Z</time>
      </trkpt>
      <trkpt lat="47.15723" lon="-1.5659">
        <ele>80</ele>
        <time>2021-03-21T09:41:54.000Z</time>
      </trkpt>
      <trkpt lat="47.15717" lon="-1.56606">
        <ele>79</ele>
        <time>2021-03-21T09:41:56.000Z</time>
      </trkpt>
      <trkpt lat="47.15712" lon="-1.56624">
        <ele>79</ele>
        <time>2021-03-21T09:41:58.000Z</time>
      </trkpt>
      <trkpt lat="47.15708" lon="-1.5664">
        <ele>80</ele>
        <time>2021-03-21T09:42:00.000Z</time>
      </trkpt>
      <trkpt lat="47.15705" lon="-1.56659">
        <ele>81</ele>
        <time>2021-03-21T09:42:02.000Z</time>
      </trkpt>
      <trkpt lat="47.15703" lon="-1.56677">
        <ele>81</ele>
        <time>2021-03-21T09:42:04.000Z</time>
      </trkpt>
      <trkpt lat="47.15701" lon="-1.56696">
        <ele>81</ele>
        <time>2021-03-21T09:42:06.000Z</time>
      </trkpt>
      <trkpt lat="47.15702" lon="-1.56714">
        <ele>81</ele>
        <time>2021-03-21T09:42:08.000Z</time>
      </trkpt>
      <trkpt lat="47.15703" lon="-1.56732">
        <ele>80</ele>
        <time>2021-03-21T09:42:10.000Z</time>
      </trkpt>
      <trkpt lat="47.15704" lon="-1.5675">
        <ele>79</ele>
        <time>2021-03-21T09:42:12.000Z</time>
      </trkpt>
      <trkpt lat="47.15706" lon="-1.56769">
        <ele>79</ele>
        <time>2021-03-21T09:42:14.000Z</time>
      </trkpt>
      <trkpt lat="47.1571" lon="-1.56787">
        <ele>78</ele>
        <time>2021-03-21T09:42:16.000Z</time>
      </trkpt>
      <trkpt lat="47.15714" lon="-1.56804">
        <ele>78</ele>
        <time>2021-03-21T09:42:18.000Z</time>
      </trkpt>
      <trkpt lat="47.15717" lon="-1.56822">
        <ele>77</ele>
        <time>2021-03-21T09:42:20.000Z</time>
      </trkpt>
      <trkpt lat="47.15719" lon="-1.56841">
        <ele>76</ele>
        <time>2021-03-21T09:42:22.000Z</time>
      </trkpt>
      <trkpt lat="47.15722" lon="-1.5686">
        <ele>76</ele>
        <time>2021-03-21T09:42:24.000Z</time>
      </trkpt>
      <trkpt lat="47.15725" lon="-1.56879">
        <ele>76</ele>
        <time>2021-03-21T09:42:26.000Z</time>
      </trkpt>
      <trkpt lat="47.1573" lon="-1.56896">
        <ele>75</ele>
        <time>2021-03-21T09:42:28.000Z</time>
      </trkpt>
      <trkpt lat="47.15737" lon="-1.56913">
        <ele>75</ele>
        <time>2021-03-21T09:42:30.000Z</time>
      </trkpt>
      <trkpt lat="47.15743" lon="-1.56929">
        <ele>76</ele>
        <time>2021-03-21T09:42:32.000Z</time>
      </trkpt>
      <trkpt lat="47.15751" lon="-1.56944">
        <ele>75</ele>
        <time>2021-03-21T09:42:34.000Z</time>
      </trkpt>
      <trkpt lat="47.15757" lon="-1.5696">
        <ele>75</ele>
        <time>2021-03-21T09:42:36.000Z</time>
      </trkpt>
      <trkpt lat="47.15765" lon="-1.56975">
        <ele>75</ele>
        <time>2021-03-21T09:42:38.000Z</time>
      </trkpt>
      <trkpt lat="47.15772" lon="-1.5699">
        <ele>76</ele>
        <time>2021-03-21T09:42:40.000Z</time>
      </trkpt>
      <trkpt lat="47.15779" lon="-1.57005">
        <ele>76</ele>
        <time>2021-03-21T09:42:42.000Z</time>
      </trkpt>
      <trkpt lat="47.15787" lon="-1.57019">
        <ele>76</ele>
        <time>2021-03-21T09:42:44.000Z</time>
      </trkpt>
      <trkpt lat="47.15794" lon="-1.57033">
        <ele>76</ele>
        <time>2021-03-21T09:42:46.000Z</time>
      </trkpt>
      <trkpt lat="47.15802" lon="-1.57046">
        <ele>76</ele>
        <time>2021-03-21T09:42:48.000Z</time>
      </trkpt>
      <trkpt lat="47.15809" lon="-1.57058">
        <ele>76</ele>
        <time>2021-03-21T09:42:50.000Z</time>
      </trkpt>
      <trkpt lat="47.15816" lon="-1.5707">
        <ele>76</ele>
        <time>2021-03-21T09:42:52.000Z</time>
      </trkpt>
      <trkpt lat="47.15823" lon="-1.57084">
        <ele>76</ele>
        <time>2021-03-21T09:42:54.000Z</time>
      </trkpt>
      <trkpt lat="47.1583" lon="-1.57097">
        <ele>76</ele>
        <time>2021-03-21T09:42:56.000Z</time>
      </trkpt>
      <trkpt lat="47.15837" lon="-1.57111">
        <ele>76</ele>
        <time>2021-03-21T09:42:58.000Z</time>
      </trkpt>
      <trkpt lat="47.15844" lon="-1.57126">
        <ele>77</ele>
        <time>2021-03-21T09:43:00.000Z</time>
      </trkpt>
      <trkpt lat="47.15851" lon="-1.5714">
        <ele>78</ele>
        <time>2021-03-21T09:43:02.000Z</time>
      </trkpt>
      <trkpt lat="47.15858" lon="-1.57153">
        <ele>78</ele>
        <time>2021-03-21T09:43:04.000Z</time>
      </trkpt>
      <trkpt lat="47.15864" lon="-1.57166">
        <ele>78</ele>
        <time>2021-03-21T09:43:06.000Z</time>
      </trkpt>
      <trkpt lat="47.15871" lon="-1.5718">
        <ele>78</ele>
        <time>2021-03-21T09:43:08.000Z</time>
      </trkpt>
      <trkpt lat="47.15878" lon="-1.57193">
        <ele>79</ele>
        <time>2021-03-21T09:43:10.000Z</time>
      </trkpt>
      <trkpt lat="47.15885" lon="-1.57206">
        <ele>78</ele>
        <time>2021-03-21T09:43:12.000Z</time>
      </trkpt>
      <trkpt lat="47.15892" lon="-1.57218">
        <ele>79</ele>
        <time>2021-03-21T09:43:14.000Z</time>
      </trkpt>
      <trkpt lat="47.15898" lon="-1.57231">
        <ele>78</ele>
        <time>2021-03-21T09:43:16.000Z</time>
      </trkpt>
      <trkpt lat="47.15905" lon="-1.57244">
        <ele>78</ele>
        <time>2021-03-21T09:43:18.000Z</time>
      </trkpt>
      <trkpt lat="47.15912" lon="-1.57258">
        <ele>78</ele>
        <time>2021-03-21T09:43:20.000Z</time>
      </trkpt>
      <trkpt lat="47.15919" lon="-1.5727">
        <ele>78</ele>
        <time>2021-03-21T09:43:22.000Z</time>
      </trkpt>
      <trkpt lat="47.15927" lon="-1.57282">
        <ele>79</ele>
        <time>2021-03-21T09:43:24.000Z</time>
      </trkpt>
      <trkpt lat="47.15935" lon="-1.57294">
        <ele>79</ele>
        <time>2021-03-21T09:43:26.000Z</time>
      </trkpt>
      <trkpt lat="47.15943" lon="-1.57306">
        <ele>79</ele>
        <time>2021-03-21T09:43:28.000Z</time>
      </trkpt>
      <trkpt lat="47.15952" lon="-1.57319">
        <ele>79</ele>
        <time>2021-03-21T09:43:30.000Z</time>
      </trkpt>
      <trkpt lat="47.1596" lon="-1.57329">
        <ele>79</ele>
        <time>2021-03-21T09:43:32.000Z</time>
      </trkpt>
      <trkpt lat="47.15968" lon="-1.57341">
        <ele>79</ele>
        <time>2021-03-21T09:43:34.000Z</time>
      </trkpt>
      <trkpt lat="47.15978" lon="-1.57352">
        <ele>79</ele>
        <time>2021-03-21T09:43:36.000Z</time>
      </trkpt>
      <trkpt lat="47.1599" lon="-1.57359">
        <ele>79</ele>
        <time>2021-03-21T09:43:38.000Z</time>
      </trkpt>
      <trkpt lat="47.16" lon="-1.57364">
        <ele>80</ele>
        <time>2021-03-21T09:43:40.000Z</time>
      </trkpt>
      <trkpt lat="47.16011" lon="-1.57368">
        <ele>80</ele>
        <time>2021-03-21T09:43:42.000Z</time>
      </trkpt>
      <trkpt lat="47.16022" lon="-1.57373">
        <ele>80</ele>
        <time>2021-03-21T09:43:44.000Z</time>
      </trkpt>
      <trkpt lat="47.16033" lon="-1.57376">
        <ele>80</ele>
        <time>2021-03-21T09:43:46.000Z</time>
      </trkpt>
      <trkpt lat="47.16045" lon="-1.57379">
        <ele>80</ele>
        <time>2021-03-21T09:43:48.000Z</time>
      </trkpt>
      <trkpt lat="47.16057" lon="-1.57381">
        <ele>80</ele>
        <time>2021-03-21T09:43:50.000Z</time>
      </trkpt>
      <trkpt lat="47.16068" lon="-1.5738">
        <ele>80</ele>
        <time>2021-03-21T09:43:52.000Z</time>
      </trkpt>
      <trkpt lat="47.16079" lon="-1.57378">
        <ele>80</ele>
        <time>2021-03-21T09:43:54.000Z</time>
      </trkpt>
      <trkpt lat="47.16092" lon="-1.57376">
        <ele>80</ele>
        <time>2021-03-21T09:43:56.000Z</time>
      </trkpt>
      <trkpt lat="47.16103" lon="-1.57373">
        <ele>80</ele>
        <time>2021-03-21T09:43:58.000Z</time>
      </trkpt>
      <trkpt lat="47.16114" lon="-1.57369">
        <ele>80</ele>
        <time>2021-03-21T09:44:00.000Z</time>
      </trkpt>
      <trkpt lat="47.16125" lon="-1.57365">
        <ele>79</ele>
        <time>2021-03-21T09:44:02.000Z</time>
      </trkpt>
      <trkpt lat="47.16136" lon="-1.57362">
        <ele>79</ele>
        <time>2021-03-21T09:44:04.000Z</time>
      </trkpt>
      <trkpt lat="47.16147" lon="-1.57359">
        <ele>79</ele>
        <time>2021-03-21T09:44:06.000Z</time>
      </trkpt>
      <trkpt lat="47.16157" lon="-1.57355">
        <ele>79</ele>
        <time>2021-03-21T09:44:08.000Z</time>
      </trkpt>
      <trkpt lat="47.16166" lon="-1.57358">
        <ele>79</ele>
        <time>2021-03-21T09:44:10.000Z</time>
      </trkpt>
      <trkpt lat="47.16171" lon="-1.57377">
        <ele>79</ele>
        <time>2021-03-21T09:44:12.000Z</time>
      </trkpt>
      <trkpt lat="47.16172" lon="-1.57394">
        <ele>80</ele>
        <time>2021-03-21T09:44:14.000Z</time>
      </trkpt>
      <trkpt lat="47.16174" lon="-1.5741">
        <ele>79</ele>
        <time>2021-03-21T09:44:16.000Z</time>
      </trkpt>
      <trkpt lat="47.16175" lon="-1.57427">
        <ele>79</ele>
        <time>2021-03-21T09:44:18.000Z</time>
      </trkpt>
      <trkpt lat="47.16176" lon="-1.57444">
        <ele>80</ele>
        <time>2021-03-21T09:44:20.000Z</time>
      </trkpt>
      <trkpt lat="47.16176" lon="-1.57462">
        <ele>80</ele>
        <time>2021-03-21T09:44:22.000Z</time>
      </trkpt>
      <trkpt lat="47.16176" lon="-1.57478">
        <ele>81</ele>
        <time>2021-03-21T09:44:24.000Z</time>
      </trkpt>
      <trkpt lat="47.16175" lon="-1.57496">
        <ele>81</ele>
        <time>2021-03-21T09:44:26.000Z</time>
      </trkpt>
      <trkpt lat="47.16175" lon="-1.57513">
        <ele>80</ele>
        <time>2021-03-21T09:44:28.000Z</time>
      </trkpt>
      <trkpt lat="47.16176" lon="-1.57529">
        <ele>80</ele>
        <time>2021-03-21T09:44:30.000Z</time>
      </trkpt>
      <trkpt lat="47.16179" lon="-1.57545">
        <ele>80</ele>
        <time>2021-03-21T09:44:32.000Z</time>
      </trkpt>
      <trkpt lat="47.16184" lon="-1.5756">
        <ele>80</ele>
        <time>2021-03-21T09:44:34.000Z</time>
      </trkpt>
      <trkpt lat="47.16191" lon="-1.57575">
        <ele>80</ele>
        <time>2021-03-21T09:44:36.000Z</time>
      </trkpt>
      <trkpt lat="47.16197" lon="-1.57589">
        <ele>80</ele>
        <time>2021-03-21T09:44:38.000Z</time>
      </trkpt>
      <trkpt lat="47.16203" lon="-1.57602">
        <ele>81</ele>
        <time>2021-03-21T09:44:40.000Z</time>
      </trkpt>
      <trkpt lat="47.16211" lon="-1.57615">
        <ele>81</ele>
        <time>2021-03-21T09:44:42.000Z</time>
      </trkpt>
      <trkpt lat="47.16218" lon="-1.57627">
        <ele>81</ele>
        <time>2021-03-21T09:44:44.000Z</time>
      </trkpt>
      <trkpt lat="47.16227" lon="-1.57638">
        <ele>80</ele>
        <time>2021-03-21T09:44:46.000Z</time>
      </trkpt>
      <trkpt lat="47.16235" lon="-1.57648">
        <ele>80</ele>
        <time>2021-03-21T09:44:48.000Z</time>
      </trkpt>
      <trkpt lat="47.16245" lon="-1.57658">
        <ele>80</ele>
        <time>2021-03-21T09:44:50.000Z</time>
      </trkpt>
      <trkpt lat="47.16255" lon="-1.57668">
        <ele>80</ele>
        <time>2021-03-21T09:44:52.000Z</time>
      </trkpt>
      <trkpt lat="47.16264" lon="-1.57677">
        <ele>80</ele>
        <time>2021-03-21T09:44:54.000Z</time>
      </trkpt>
      <trkpt lat="47.16274" lon="-1.57687">
        <ele>80</ele>
        <time>2021-03-21T09:44:56.000Z</time>
      </trkpt>
      <trkpt lat="47.16283" lon="-1.57697">
        <ele>80</ele>
        <time>2021-03-21T09:44:58.000Z</time>
      </trkpt>
      <trkpt lat="47.1629" lon="-1.57708">
        <ele>81</ele>
        <time>2021-03-21T09:45:00.000Z</time>
      </trkpt>
      <trkpt lat="47.16298" lon="-1.5772">
        <ele>81</ele>
        <time>2021-03-21T09:45:02.000Z</time>
      </trkpt>
      <trkpt lat="47.16307" lon="-1.57731">
        <ele>81</ele>
        <time>2021-03-21T09:45:04.000Z</time>
      </trkpt>
      <trkpt lat="47.16314" lon="-1.57743">
        <ele>82</ele>
        <time>2021-03-21T09:45:06.000Z</time>
      </trkpt>
      <trkpt lat="47.16323" lon="-1.57755">
        <ele>82</ele>
        <time>2021-03-21T09:45:08.000Z</time>
      </trkpt>
      <trkpt lat="47.16331" lon="-1.57766">
        <ele>82</ele>
        <time>2021-03-21T09:45:10.000Z</time>
      </trkpt>
      <trkpt lat="47.16338" lon="-1.57777">
        <ele>83</ele>
        <time>2021-03-21T09:45:12.000Z</time>
      </trkpt>
      <trkpt lat="47.16346" lon="-1.57789">
        <ele>84</ele>
        <time>2021-03-21T09:45:14.000Z</time>
      </trkpt>
      <trkpt lat="47.16353" lon="-1.57802">
        <ele>85</ele>
        <time>2021-03-21T09:45:16.000Z</time>
      </trkpt>
      <trkpt lat="47.16362" lon="-1.57812">
        <ele>85</ele>
        <time>2021-03-21T09:45:18.000Z</time>
      </trkpt>
      <trkpt lat="47.16373" lon="-1.57823">
        <ele>84</ele>
        <time>2021-03-21T09:45:20.000Z</time>
      </trkpt>
      <trkpt lat="47.16384" lon="-1.57832">
        <ele>84</ele>
        <time>2021-03-21T09:45:22.000Z</time>
      </trkpt>
      <trkpt lat="47.16395" lon="-1.5784">
        <ele>84</ele>
        <time>2021-03-21T09:45:24.000Z</time>
      </trkpt>
      <trkpt lat="47.16405" lon="-1.57848">
        <ele>83</ele>
        <time>2021-03-21T09:45:26.000Z</time>
      </trkpt>
      <trkpt lat="47.16416" lon="-1.57856">
        <ele>83</ele>
        <time>2021-03-21T09:45:28.000Z</time>
      </trkpt>
      <trkpt lat="47.16427" lon="-1.57865">
        <ele>82</ele>
        <time>2021-03-21T09:45:30.000Z</time>
      </trkpt>
      <trkpt lat="47.16437" lon="-1.57873">
        <ele>82</ele>
        <time>2021-03-21T09:45:32.000Z</time>
      </trkpt>
      <trkpt lat="47.16447" lon="-1.57881">
        <ele>82</ele>
        <time>2021-03-21T09:45:34.000Z</time>
      </trkpt>
      <trkpt lat="47.16458" lon="-1.57889">
        <ele>82</ele>
        <time>2021-03-21T09:45:36.000Z</time>
      </trkpt>
      <trkpt lat="47.16467" lon="-1.57898">
        <ele>82</ele>
        <time>2021-03-21T09:45:38.000Z</time>
      </trkpt>
      <trkpt lat="47.16477" lon="-1.57906">
        <ele>82</ele>
        <time>2021-03-21T09:45:40.000Z</time>
      </trkpt>
      <trkpt lat="47.16486" lon="-1.57916">
        <ele>82</ele>
        <time>2021-03-21T09:45:42.000Z</time>
      </trkpt>
      <trkpt lat="47.16496" lon="-1.57925">
        <ele>82</ele>
        <time>2021-03-21T09:45:44.000Z</time>
      </trkpt>
      <trkpt lat="47.16506" lon="-1.57935">
        <ele>82</ele>
        <time>2021-03-21T09:45:46.000Z</time>
      </trkpt>
      <trkpt lat="47.16517" lon="-1.57945">
        <ele>82</ele>
        <time>2021-03-21T09:45:48.000Z</time>
      </trkpt>
      <trkpt lat="47.16526" lon="-1.57954">
        <ele>82</ele>
        <time>2021-03-21T09:45:50.000Z</time>
      </trkpt>
      <trkpt lat="47.16536" lon="-1.57964">
        <ele>82</ele>
        <time>2021-03-21T09:45:52.000Z</time>
      </trkpt>
      <trkpt lat="47.16546" lon="-1.57973">
        <ele>82</ele>
        <time>2021-03-21T09:45:54.000Z</time>
      </trkpt>
      <trkpt lat="47.16555" lon="-1.57984">
        <ele>82</ele>
        <time>2021-03-21T09:45:56.000Z</time>
      </trkpt>
      <trkpt lat="47.16564" lon="-1.57994">
        <ele>82</ele>
        <time>2021-03-21T09:45:58.000Z</time>
      </trkpt>
      <trkpt lat="47.16575" lon="-1.58004">
        <ele>82</ele>
        <time>2021-03-21T09:46:00.000Z</time>
      </trkpt>
      <trkpt lat="47.16585" lon="-1.58013">
        <ele>81</ele>
        <time>2021-03-21T09:46:02.000Z</time>
      </trkpt>
      <trkpt lat="47.16596" lon="-1.58021">
        <ele>80</ele>
        <time>2021-03-21T09:46:04.000Z</time>
      </trkpt>
      <trkpt lat="47.16607" lon="-1.58027">
        <ele>79</ele>
        <time>2021-03-21T09:46:06.000Z</time>
      </trkpt>
      <trkpt lat="47.16617" lon="-1.58033">
        <ele>79</ele>
        <time>2021-03-21T09:46:08.000Z</time>
      </trkpt>
      <trkpt lat="47.16625" lon="-1.5804">
        <ele>79</ele>
        <time>2021-03-21T09:46:10.000Z</time>
      </trkpt>
      <trkpt lat="47.16635" lon="-1.58051">
        <ele>79</ele>
        <time>2021-03-21T09:46:13.000Z</time>
      </trkpt>
      <trkpt lat="47.16643" lon="-1.58061">
        <ele>79</ele>
        <time>2021-03-21T09:46:15.000Z</time>
      </trkpt>
      <trkpt lat="47.16651" lon="-1.58073">
        <ele>79</ele>
        <time>2021-03-21T09:46:17.000Z</time>
      </trkpt>
      <trkpt lat="47.1666" lon="-1.58087">
        <ele>80</ele>
        <time>2021-03-21T09:46:19.000Z</time>
      </trkpt>
      <trkpt lat="47.16668" lon="-1.581">
        <ele>79</ele>
        <time>2021-03-21T09:46:21.000Z</time>
      </trkpt>
      <trkpt lat="47.16678" lon="-1.58112">
        <ele>79</ele>
        <time>2021-03-21T09:46:23.000Z</time>
      </trkpt>
      <trkpt lat="47.16688" lon="-1.58122">
        <ele>79</ele>
        <time>2021-03-21T09:46:25.000Z</time>
      </trkpt>
      <trkpt lat="47.16698" lon="-1.58132">
        <ele>79</ele>
        <time>2021-03-21T09:46:27.000Z</time>
      </trkpt>
      <trkpt lat="47.16708" lon="-1.58142">
        <ele>80</ele>
        <time>2021-03-21T09:46:29.000Z</time>
      </trkpt>
      <trkpt lat="47.16717" lon="-1.58152">
        <ele>80</ele>
        <time>2021-03-21T09:46:31.000Z</time>
      </trkpt>
      <trkpt lat="47.16727" lon="-1.58162">
        <ele>80</ele>
        <time>2021-03-21T09:46:33.000Z</time>
      </trkpt>
      <trkpt lat="47.16738" lon="-1.58172">
        <ele>80</ele>
        <time>2021-03-21T09:46:35.000Z</time>
      </trkpt>
      <trkpt lat="47.16748" lon="-1.58181">
        <ele>80</ele>
        <time>2021-03-21T09:46:37.000Z</time>
      </trkpt>
      <trkpt lat="47.16758" lon="-1.58191">
        <ele>80</ele>
        <time>2021-03-21T09:46:39.000Z</time>
      </trkpt>
      <trkpt lat="47.16768" lon="-1.582">
        <ele>80</ele>
        <time>2021-03-21T09:46:41.000Z</time>
      </trkpt>
      <trkpt lat="47.16778" lon="-1.5821">
        <ele>80</ele>
        <time>2021-03-21T09:46:43.000Z</time>
      </trkpt>
      <trkpt lat="47.16787" lon="-1.58219">
        <ele>81</ele>
        <time>2021-03-21T09:46:45.000Z</time>
      </trkpt>
      <trkpt lat="47.16797" lon="-1.58228">
        <ele>81</ele>
        <time>2021-03-21T09:46:47.000Z</time>
      </trkpt>
      <trkpt lat="47.16807" lon="-1.58238">
        <ele>81</ele>
        <time>2021-03-21T09:46:49.000Z</time>
      </trkpt>
      <trkpt lat="47.16817" lon="-1.58248">
        <ele>81</ele>
        <time>2021-03-21T09:46:51.000Z</time>
      </trkpt>
      <trkpt lat="47.16826" lon="-1.58258">
        <ele>80</ele>
        <time>2021-03-21T09:46:53.000Z</time>
      </trkpt>
      <trkpt lat="47.16835" lon="-1.58267">
        <ele>80</ele>
        <time>2021-03-21T09:46:55.000Z</time>
      </trkpt>
      <trkpt lat="47.16845" lon="-1.58277">
        <ele>80</ele>
        <time>2021-03-21T09:46:57.000Z</time>
      </trkpt>
      <trkpt lat="47.16855" lon="-1.58288">
        <ele>80</ele>
        <time>2021-03-21T09:46:59.000Z</time>
      </trkpt>
      <trkpt lat="47.16865" lon="-1.58299">
        <ele>80</ele>
        <time>2021-03-21T09:47:01.000Z</time>
      </trkpt>
      <trkpt lat="47.16875" lon="-1.58309">
        <ele>79</ele>
        <time>2021-03-21T09:47:03.000Z</time>
      </trkpt>
      <trkpt lat="47.16885" lon="-1.58318">
        <ele>79</ele>
        <time>2021-03-21T09:47:05.000Z</time>
      </trkpt>
      <trkpt lat="47.16895" lon="-1.58328">
        <ele>78</ele>
        <time>2021-03-21T09:47:07.000Z</time>
      </trkpt>
      <trkpt lat="47.16905" lon="-1.58337">
        <ele>78</ele>
        <time>2021-03-21T09:47:09.000Z</time>
      </trkpt>
      <trkpt lat="47.16915" lon="-1.58347">
        <ele>78</ele>
        <time>2021-03-21T09:47:11.000Z</time>
      </trkpt>
      <trkpt lat="47.16926" lon="-1.58358">
        <ele>79</ele>
        <time>2021-03-21T09:47:13.000Z</time>
      </trkpt>
      <trkpt lat="47.16936" lon="-1.58368">
        <ele>79</ele>
        <time>2021-03-21T09:47:15.000Z</time>
      </trkpt>
      <trkpt lat="47.16946" lon="-1.58379">
        <ele>79</ele>
        <time>2021-03-21T09:47:17.000Z</time>
      </trkpt>
      <trkpt lat="47.16956" lon="-1.58388">
        <ele>79</ele>
        <time>2021-03-21T09:47:19.000Z</time>
      </trkpt>
      <trkpt lat="47.16966" lon="-1.58397">
        <ele>79</ele>
        <time>2021-03-21T09:47:21.000Z</time>
      </trkpt>
      <trkpt lat="47.16976" lon="-1.58403">
        <ele>79</ele>
        <time>2021-03-21T09:47:23.000Z</time>
      </trkpt>
      <trkpt lat="47.16986" lon="-1.58409">
        <ele>80</ele>
        <time>2021-03-21T09:47:25.000Z</time>
      </trkpt>
      <trkpt lat="47.16996" lon="-1.58414">
        <ele>81</ele>
        <time>2021-03-21T09:47:27.000Z</time>
      </trkpt>
      <trkpt lat="47.17005" lon="-1.58409">
        <ele>81</ele>
        <time>2021-03-21T09:47:29.000Z</time>
      </trkpt>
      <trkpt lat="47.17015" lon="-1.58405">
        <ele>81</ele>
        <time>2021-03-21T09:47:31.000Z</time>
      </trkpt>
      <trkpt lat="47.17025" lon="-1.58401">
        <ele>81</ele>
        <time>2021-03-21T09:47:33.000Z</time>
      </trkpt>
      <trkpt lat="47.17034" lon="-1.58397">
        <ele>82</ele>
        <time>2021-03-21T09:47:35.000Z</time>
      </trkpt>
      <trkpt lat="47.17044" lon="-1.58394">
        <ele>82</ele>
        <time>2021-03-21T09:47:37.000Z</time>
      </trkpt>
      <trkpt lat="47.17054" lon="-1.58406">
        <ele>82</ele>
        <time>2021-03-21T09:47:39.000Z</time>
      </trkpt>
      <trkpt lat="47.17057" lon="-1.58424">
        <ele>81</ele>
        <time>2021-03-21T09:47:41.000Z</time>
      </trkpt>
      <trkpt lat="47.17062" lon="-1.58443">
        <ele>80</ele>
        <time>2021-03-21T09:47:43.000Z</time>
      </trkpt>
      <trkpt lat="47.17069" lon="-1.58452">
        <ele>80</ele>
        <time>2021-03-21T09:47:45.000Z</time>
      </trkpt>
      <trkpt lat="47.17082" lon="-1.58458">
        <ele>79</ele>
        <time>2021-03-21T09:47:48.000Z</time>
      </trkpt>
      <trkpt lat="47.17091" lon="-1.58466">
        <ele>79</ele>
        <time>2021-03-21T09:47:50.000Z</time>
      </trkpt>
      <trkpt lat="47.17103" lon="-1.58469">
        <ele>78</ele>
        <time>2021-03-21T09:47:52.000Z</time>
      </trkpt>
      <trkpt lat="47.17115" lon="-1.58469">
        <ele>77</ele>
        <time>2021-03-21T09:47:54.000Z</time>
      </trkpt>
      <trkpt lat="47.17133" lon="-1.5847">
        <ele>76</ele>
        <time>2021-03-21T09:47:57.000Z</time>
      </trkpt>
      <trkpt lat="47.17144" lon="-1.58471">
        <ele>76</ele>
        <time>2021-03-21T09:47:59.000Z</time>
      </trkpt>
      <trkpt lat="47.17156" lon="-1.58472">
        <ele>76</ele>
        <time>2021-03-21T09:48:01.000Z</time>
      </trkpt>
      <trkpt lat="47.17168" lon="-1.58473">
        <ele>76</ele>
        <time>2021-03-21T09:48:03.000Z</time>
      </trkpt>
      <trkpt lat="47.1718" lon="-1.58473">
        <ele>75</ele>
        <time>2021-03-21T09:48:05.000Z</time>
      </trkpt>
      <trkpt lat="47.17198" lon="-1.58476">
        <ele>75</ele>
        <time>2021-03-21T09:48:08.000Z</time>
      </trkpt>
      <trkpt lat="47.1721" lon="-1.58476">
        <ele>75</ele>
        <time>2021-03-21T09:48:10.000Z</time>
      </trkpt>
      <trkpt lat="47.17223" lon="-1.58479">
        <ele>75</ele>
        <time>2021-03-21T09:48:12.000Z</time>
      </trkpt>
      <trkpt lat="47.17235" lon="-1.5848">
        <ele>75</ele>
        <time>2021-03-21T09:48:14.000Z</time>
      </trkpt>
      <trkpt lat="47.17248" lon="-1.58482">
        <ele>75</ele>
        <time>2021-03-21T09:48:16.000Z</time>
      </trkpt>
      <trkpt lat="47.17259" lon="-1.58484">
        <ele>75</ele>
        <time>2021-03-21T09:48:18.000Z</time>
      </trkpt>
      <trkpt lat="47.17271" lon="-1.58487">
        <ele>75</ele>
        <time>2021-03-21T09:48:20.000Z</time>
      </trkpt>
      <trkpt lat="47.17283" lon="-1.58489">
        <ele>76</ele>
        <time>2021-03-21T09:48:22.000Z</time>
      </trkpt>
      <trkpt lat="47.17296" lon="-1.58491">
        <ele>76</ele>
        <time>2021-03-21T09:48:24.000Z</time>
      </trkpt>
      <trkpt lat="47.17309" lon="-1.58492">
        <ele>76</ele>
        <time>2021-03-21T09:48:26.000Z</time>
      </trkpt>
      <trkpt lat="47.17321" lon="-1.58494">
        <ele>76</ele>
        <time>2021-03-21T09:48:28.000Z</time>
      </trkpt>
      <trkpt lat="47.17334" lon="-1.58496">
        <ele>76</ele>
        <time>2021-03-21T09:48:30.000Z</time>
      </trkpt>
      <trkpt lat="47.17346" lon="-1.58497">
        <ele>76</ele>
        <time>2021-03-21T09:48:32.000Z</time>
      </trkpt>
      <trkpt lat="47.17358" lon="-1.58499">
        <ele>76</ele>
        <time>2021-03-21T09:48:34.000Z</time>
      </trkpt>
      <trkpt lat="47.17371" lon="-1.58501">
        <ele>75</ele>
        <time>2021-03-21T09:48:36.000Z</time>
      </trkpt>
      <trkpt lat="47.17384" lon="-1.58502">
        <ele>75</ele>
        <time>2021-03-21T09:48:38.000Z</time>
      </trkpt>
      <trkpt lat="47.17396" lon="-1.58504">
        <ele>75</ele>
        <time>2021-03-21T09:48:40.000Z</time>
      </trkpt>
      <trkpt lat="47.17409" lon="-1.58505">
        <ele>76</ele>
        <time>2021-03-21T09:48:42.000Z</time>
      </trkpt>
      <trkpt lat="47.17421" lon="-1.58507">
        <ele>76</ele>
        <time>2021-03-21T09:48:44.000Z</time>
      </trkpt>
      <trkpt lat="47.17433" lon="-1.5851">
        <ele>76</ele>
        <time>2021-03-21T09:48:46.000Z</time>
      </trkpt>
      <trkpt lat="47.17446" lon="-1.58511">
        <ele>76</ele>
        <time>2021-03-21T09:48:48.000Z</time>
      </trkpt>
      <trkpt lat="47.17458" lon="-1.58514">
        <ele>76</ele>
        <time>2021-03-21T09:48:50.000Z</time>
      </trkpt>
      <trkpt lat="47.17471" lon="-1.58518">
        <ele>76</ele>
        <time>2021-03-21T09:48:52.000Z</time>
      </trkpt>
      <trkpt lat="47.17483" lon="-1.58522">
        <ele>76</ele>
        <time>2021-03-21T09:48:54.000Z</time>
      </trkpt>
      <trkpt lat="47.17495" lon="-1.58527">
        <ele>76</ele>
        <time>2021-03-21T09:48:56.000Z</time>
      </trkpt>
      <trkpt lat="47.17506" lon="-1.58533">
        <ele>76</ele>
        <time>2021-03-21T09:48:58.000Z</time>
      </trkpt>
      <trkpt lat="47.17518" lon="-1.58539">
        <ele>76</ele>
        <time>2021-03-21T09:49:00.000Z</time>
      </trkpt>
      <trkpt lat="47.17529" lon="-1.58545">
        <ele>76</ele>
        <time>2021-03-21T09:49:02.000Z</time>
      </trkpt>
      <trkpt lat="47.17541" lon="-1.58552">
        <ele>77</ele>
        <time>2021-03-21T09:49:04.000Z</time>
      </trkpt>
      <trkpt lat="47.17552" lon="-1.58559">
        <ele>76</ele>
        <time>2021-03-21T09:49:06.000Z</time>
      </trkpt>
      <trkpt lat="47.17564" lon="-1.58565">
        <ele>77</ele>
        <time>2021-03-21T09:49:08.000Z</time>
      </trkpt>
      <trkpt lat="47.17575" lon="-1.58572">
        <ele>76</ele>
        <time>2021-03-21T09:49:10.000Z</time>
      </trkpt>
      <trkpt lat="47.17587" lon="-1.58577">
        <ele>76</ele>
        <time>2021-03-21T09:49:12.000Z</time>
      </trkpt>
      <trkpt lat="47.17598" lon="-1.58584">
        <ele>76</ele>
        <time>2021-03-21T09:49:14.000Z</time>
      </trkpt>
      <trkpt lat="47.1761" lon="-1.58591">
        <ele>76</ele>
        <time>2021-03-21T09:49:16.000Z</time>
      </trkpt>
      <trkpt lat="47.17622" lon="-1.58597">
        <ele>76</ele>
        <time>2021-03-21T09:49:18.000Z</time>
      </trkpt>
      <trkpt lat="47.17639" lon="-1.58606">
        <ele>76</ele>
        <time>2021-03-21T09:49:21.000Z</time>
      </trkpt>
      <trkpt lat="47.17651" lon="-1.58612">
        <ele>76</ele>
        <time>2021-03-21T09:49:23.000Z</time>
      </trkpt>
      <trkpt lat="47.17662" lon="-1.58617">
        <ele>76</ele>
        <time>2021-03-21T09:49:25.000Z</time>
      </trkpt>
      <trkpt lat="47.17674" lon="-1.58624">
        <ele>76</ele>
        <time>2021-03-21T09:49:27.000Z</time>
      </trkpt>
      <trkpt lat="47.17685" lon="-1.58627">
        <ele>75</ele>
        <time>2021-03-21T09:49:29.000Z</time>
      </trkpt>
      <trkpt lat="47.17698" lon="-1.58628">
        <ele>75</ele>
        <time>2021-03-21T09:49:31.000Z</time>
      </trkpt>
      <trkpt lat="47.17711" lon="-1.58628">
        <ele>75</ele>
        <time>2021-03-21T09:49:33.000Z</time>
      </trkpt>
      <trkpt lat="47.17723" lon="-1.58627">
        <ele>74</ele>
        <time>2021-03-21T09:49:35.000Z</time>
      </trkpt>
      <trkpt lat="47.17735" lon="-1.58626">
        <ele>74</ele>
        <time>2021-03-21T09:49:37.000Z</time>
      </trkpt>
      <trkpt lat="47.17747" lon="-1.58624">
        <ele>73</ele>
        <time>2021-03-21T09:49:39.000Z</time>
      </trkpt>
      <trkpt lat="47.17759" lon="-1.5862">
        <ele>73</ele>
        <time>2021-03-21T09:49:41.000Z</time>
      </trkpt>
      <trkpt lat="47.1777" lon="-1.58626">
        <ele>73</ele>
        <time>2021-03-21T09:49:43.000Z</time>
      </trkpt>
      <trkpt lat="47.17776" lon="-1.58643">
        <ele>73</ele>
        <time>2021-03-21T09:49:45.000Z</time>
      </trkpt>
      <trkpt lat="47.17787" lon="-1.58663">
        <ele>74</ele>
        <time>2021-03-21T09:49:48.000Z</time>
      </trkpt>
      <trkpt lat="47.17796" lon="-1.58674">
        <ele>74</ele>
        <time>2021-03-21T09:49:50.000Z</time>
      </trkpt>
      <trkpt lat="47.17806" lon="-1.58686">
        <ele>74</ele>
        <time>2021-03-21T09:49:52.000Z</time>
      </trkpt>
      <trkpt lat="47.17816" lon="-1.58698">
        <ele>74</ele>
        <time>2021-03-21T09:49:54.000Z</time>
      </trkpt>
      <trkpt lat="47.17825" lon="-1.58711">
        <ele>74</ele>
        <time>2021-03-21T09:49:56.000Z</time>
      </trkpt>
      <trkpt lat="47.17834" lon="-1.58722">
        <ele>74</ele>
        <time>2021-03-21T09:49:58.000Z</time>
      </trkpt>
      <trkpt lat="47.17844" lon="-1.58734">
        <ele>74</ele>
        <time>2021-03-21T09:50:00.000Z</time>
      </trkpt>
      <trkpt lat="47.17853" lon="-1.58748">
        <ele>73</ele>
        <time>2021-03-21T09:50:02.000Z</time>
      </trkpt>
      <trkpt lat="47.17862" lon="-1.5876">
        <ele>73</ele>
        <time>2021-03-21T09:50:04.000Z</time>
      </trkpt>
      <trkpt lat="47.17871" lon="-1.58772">
        <ele>73</ele>
        <time>2021-03-21T09:50:06.000Z</time>
      </trkpt>
      <trkpt lat="47.17881" lon="-1.58784">
        <ele>72</ele>
        <time>2021-03-21T09:50:08.000Z</time>
      </trkpt>
      <trkpt lat="47.17891" lon="-1.58795">
        <ele>73</ele>
        <time>2021-03-21T09:50:10.000Z</time>
      </trkpt>
      <trkpt lat="47.17901" lon="-1.58804">
        <ele>72</ele>
        <time>2021-03-21T09:50:12.000Z</time>
      </trkpt>
      <trkpt lat="47.17912" lon="-1.58814">
        <ele>72</ele>
        <time>2021-03-21T09:50:14.000Z</time>
      </trkpt>
      <trkpt lat="47.17929" lon="-1.58827">
        <ele>72</ele>
        <time>2021-03-21T09:50:17.000Z</time>
      </trkpt>
      <trkpt lat="47.1794" lon="-1.58837">
        <ele>72</ele>
        <time>2021-03-21T09:50:19.000Z</time>
      </trkpt>
      <trkpt lat="47.1795" lon="-1.58847">
        <ele>72</ele>
        <time>2021-03-21T09:50:21.000Z</time>
      </trkpt>
      <trkpt lat="47.1796" lon="-1.58856">
        <ele>72</ele>
        <time>2021-03-21T09:50:23.000Z</time>
      </trkpt>
      <trkpt lat="47.17971" lon="-1.58862">
        <ele>72</ele>
        <time>2021-03-21T09:50:25.000Z</time>
      </trkpt>
      <trkpt lat="47.17983" lon="-1.58868">
        <ele>72</ele>
        <time>2021-03-21T09:50:27.000Z</time>
      </trkpt>
      <trkpt lat="47.17994" lon="-1.5888">
        <ele>72</ele>
        <time>2021-03-21T09:50:29.000Z</time>
      </trkpt>
      <trkpt lat="47.18004" lon="-1.58892">
        <ele>72</ele>
        <time>2021-03-21T09:50:31.000Z</time>
      </trkpt>
      <trkpt lat="47.18021" lon="-1.58906">
        <ele>73</ele>
        <time>2021-03-21T09:50:34.000Z</time>
      </trkpt>
      <trkpt lat="47.18032" lon="-1.58916">
        <ele>73</ele>
        <time>2021-03-21T09:50:36.000Z</time>
      </trkpt>
      <trkpt lat="47.18043" lon="-1.58929">
        <ele>74</ele>
        <time>2021-03-21T09:50:38.000Z</time>
      </trkpt>
      <trkpt lat="47.18054" lon="-1.58944">
        <ele>74</ele>
        <time>2021-03-21T09:50:40.000Z</time>
      </trkpt>
      <trkpt lat="47.18064" lon="-1.58962">
        <ele>74</ele>
        <time>2021-03-21T09:50:42.000Z</time>
      </trkpt>
      <trkpt lat="47.18066" lon="-1.58982">
        <ele>76</ele>
        <time>2021-03-21T09:50:44.000Z</time>
      </trkpt>
      <trkpt lat="47.18069" lon="-1.59003">
        <ele>76</ele>
        <time>2021-03-21T09:50:46.000Z</time>
      </trkpt>
      <trkpt lat="47.18072" lon="-1.59024">
        <ele>75</ele>
        <time>2021-03-21T09:50:48.000Z</time>
      </trkpt>
      <trkpt lat="47.18076" lon="-1.59045">
        <ele>75</ele>
        <time>2021-03-21T09:50:50.000Z</time>
      </trkpt>
      <trkpt lat="47.18079" lon="-1.59065">
        <ele>74</ele>
        <time>2021-03-21T09:50:52.000Z</time>
      </trkpt>
      <trkpt lat="47.18082" lon="-1.59083">
        <ele>75</ele>
        <time>2021-03-21T09:50:54.000Z</time>
      </trkpt>
      <trkpt lat="47.18084" lon="-1.59101">
        <ele>74</ele>
        <time>2021-03-21T09:50:56.000Z</time>
      </trkpt>
      <trkpt lat="47.18086" lon="-1.5912">
        <ele>74</ele>
        <time>2021-03-21T09:50:58.000Z</time>
      </trkpt>
      <trkpt lat="47.18089" lon="-1.59138">
        <ele>74</ele>
        <time>2021-03-21T09:51:00.000Z</time>
      </trkpt>
      <trkpt lat="47.18091" lon="-1.59155">
        <ele>73</ele>
        <time>2021-03-21T09:51:02.000Z</time>
      </trkpt>
      <trkpt lat="47.18096" lon="-1.59171">
        <ele>72</ele>
        <time>2021-03-21T09:51:04.000Z</time>
      </trkpt>
      <trkpt lat="47.18097" lon="-1.59187">
        <ele>72</ele>
        <time>2021-03-21T09:51:06.000Z</time>
      </trkpt>
      <trkpt lat="47.18089" lon="-1.592">
        <ele>72</ele>
        <time>2021-03-21T09:51:08.000Z</time>
      </trkpt>
      <trkpt lat="47.18081" lon="-1.59216">
        <ele>72</ele>
        <time>2021-03-21T09:51:10.000Z</time>
      </trkpt>
      <trkpt lat="47.18077" lon="-1.59231">
        <ele>72</ele>
        <time>2021-03-21T09:51:12.000Z</time>
      </trkpt>
      <trkpt lat="47.18075" lon="-1.59251">
        <ele>71</ele>
        <time>2021-03-21T09:51:14.000Z</time>
      </trkpt>
      <trkpt lat="47.18072" lon="-1.59269">
        <ele>71</ele>
        <time>2021-03-21T09:51:16.000Z</time>
      </trkpt>
      <trkpt lat="47.18069" lon="-1.59285">
        <ele>72</ele>
        <time>2021-03-21T09:51:18.000Z</time>
      </trkpt>
      <trkpt lat="47.18067" lon="-1.59302">
        <ele>72</ele>
        <time>2021-03-21T09:51:20.000Z</time>
      </trkpt>
      <trkpt lat="47.18065" lon="-1.59321">
        <ele>72</ele>
        <time>2021-03-21T09:51:22.000Z</time>
      </trkpt>
      <trkpt lat="47.18063" lon="-1.59341">
        <ele>71</ele>
        <time>2021-03-21T09:51:24.000Z</time>
      </trkpt>
      <trkpt lat="47.1806" lon="-1.59362">
        <ele>71</ele>
        <time>2021-03-21T09:51:26.000Z</time>
      </trkpt>
      <trkpt lat="47.18057" lon="-1.59382">
        <ele>71</ele>
        <time>2021-03-21T09:51:28.000Z</time>
      </trkpt>
      <trkpt lat="47.18061" lon="-1.59399">
        <ele>71</ele>
        <time>2021-03-21T09:51:30.000Z</time>
      </trkpt>
      <trkpt lat="47.18068" lon="-1.59414">
        <ele>71</ele>
        <time>2021-03-21T09:51:32.000Z</time>
      </trkpt>
      <trkpt lat="47.18063" lon="-1.59432">
        <ele>71</ele>
        <time>2021-03-21T09:51:34.000Z</time>
      </trkpt>
      <trkpt lat="47.18052" lon="-1.59446">
        <ele>71</ele>
        <time>2021-03-21T09:51:36.000Z</time>
      </trkpt>
      <trkpt lat="47.18044" lon="-1.59461">
        <ele>72</ele>
        <time>2021-03-21T09:51:38.000Z</time>
      </trkpt>
      <trkpt lat="47.18038" lon="-1.59479">
        <ele>71</ele>
        <time>2021-03-21T09:51:40.000Z</time>
      </trkpt>
      <trkpt lat="47.18033" lon="-1.59499">
        <ele>71</ele>
        <time>2021-03-21T09:51:42.000Z</time>
      </trkpt>
      <trkpt lat="47.18028" lon="-1.59519">
        <ele>71</ele>
        <time>2021-03-21T09:51:44.000Z</time>
      </trkpt>
      <trkpt lat="47.18023" lon="-1.59539">
        <ele>71</ele>
        <time>2021-03-21T09:51:46.000Z</time>
      </trkpt>
      <trkpt lat="47.18018" lon="-1.59558">
        <ele>71</ele>
        <time>2021-03-21T09:51:48.000Z</time>
      </trkpt>
      <trkpt lat="47.18014" lon="-1.59577">
        <ele>71</ele>
        <time>2021-03-21T09:51:50.000Z</time>
      </trkpt>
      <trkpt lat="47.18008" lon="-1.59596">
        <ele>71</ele>
        <time>2021-03-21T09:51:52.000Z</time>
      </trkpt>
      <trkpt lat="47.18002" lon="-1.59616">
        <ele>71</ele>
        <time>2021-03-21T09:51:54.000Z</time>
      </trkpt>
      <trkpt lat="47.17997" lon="-1.59636">
        <ele>70</ele>
        <time>2021-03-21T09:51:56.000Z</time>
      </trkpt>
      <trkpt lat="47.17992" lon="-1.59656">
        <ele>70</ele>
        <time>2021-03-21T09:51:58.000Z</time>
      </trkpt>
      <trkpt lat="47.17987" lon="-1.59675">
        <ele>70</ele>
        <time>2021-03-21T09:52:00.000Z</time>
      </trkpt>
      <trkpt lat="47.17983" lon="-1.59696">
        <ele>70</ele>
        <time>2021-03-21T09:52:02.000Z</time>
      </trkpt>
      <trkpt lat="47.17978" lon="-1.59716">
        <ele>69</ele>
        <time>2021-03-21T09:52:04.000Z</time>
      </trkpt>
      <trkpt lat="47.17972" lon="-1.59736">
        <ele>69</ele>
        <time>2021-03-21T09:52:06.000Z</time>
      </trkpt>
      <trkpt lat="47.17966" lon="-1.59756">
        <ele>68</ele>
        <time>2021-03-21T09:52:08.000Z</time>
      </trkpt>
      <trkpt lat="47.17959" lon="-1.59779">
        <ele>68</ele>
        <time>2021-03-21T09:52:10.000Z</time>
      </trkpt>
      <trkpt lat="47.17954" lon="-1.59803">
        <ele>67</ele>
        <time>2021-03-21T09:52:12.000Z</time>
      </trkpt>
      <trkpt lat="47.1795" lon="-1.59827">
        <ele>67</ele>
        <time>2021-03-21T09:52:14.000Z</time>
      </trkpt>
      <trkpt lat="47.17946" lon="-1.59852">
        <ele>65</ele>
        <time>2021-03-21T09:52:16.000Z</time>
      </trkpt>
      <trkpt lat="47.17942" lon="-1.59877">
        <ele>63</ele>
        <time>2021-03-21T09:52:18.000Z</time>
      </trkpt>
      <trkpt lat="47.17937" lon="-1.59902">
        <ele>62</ele>
        <time>2021-03-21T09:52:20.000Z</time>
      </trkpt>
      <trkpt lat="47.17933" lon="-1.59926">
        <ele>62</ele>
        <time>2021-03-21T09:52:22.000Z</time>
      </trkpt>
      <trkpt lat="47.17928" lon="-1.59937">
        <ele>62</ele>
        <time>2021-03-21T09:52:23.000Z</time>
      </trkpt>
      <trkpt lat="47.1792" lon="-1.59944">
        <ele>62</ele>
        <time>2021-03-21T09:52:24.000Z</time>
      </trkpt>
      <trkpt lat="47.1791" lon="-1.59946">
        <ele>62</ele>
        <time>2021-03-21T09:52:25.000Z</time>
      </trkpt>
      <trkpt lat="47.17901" lon="-1.59946">
        <ele>61</ele>
        <time>2021-03-21T09:52:26.000Z</time>
      </trkpt>
      <trkpt lat="47.17886" lon="-1.59955">
        <ele>60</ele>
        <time>2021-03-21T09:52:28.000Z</time>
      </trkpt>
      <trkpt lat="47.17875" lon="-1.59972">
        <ele>61</ele>
        <time>2021-03-21T09:52:30.000Z</time>
      </trkpt>
      <trkpt lat="47.17865" lon="-1.5999">
        <ele>62</ele>
        <time>2021-03-21T09:52:32.000Z</time>
      </trkpt>
      <trkpt lat="47.17856" lon="-1.60007">
        <ele>62</ele>
        <time>2021-03-21T09:52:34.000Z</time>
      </trkpt>
      <trkpt lat="47.17847" lon="-1.60022">
        <ele>62</ele>
        <time>2021-03-21T09:52:36.000Z</time>
      </trkpt>
      <trkpt lat="47.17838" lon="-1.60036">
        <ele>62</ele>
        <time>2021-03-21T09:52:38.000Z</time>
      </trkpt>
      <trkpt lat="47.1783" lon="-1.60051">
        <ele>63</ele>
        <time>2021-03-21T09:52:40.000Z</time>
      </trkpt>
      <trkpt lat="47.17822" lon="-1.60065">
        <ele>64</ele>
        <time>2021-03-21T09:52:42.000Z</time>
      </trkpt>
      <trkpt lat="47.17814" lon="-1.60078">
        <ele>65</ele>
        <time>2021-03-21T09:52:44.000Z</time>
      </trkpt>
      <trkpt lat="47.17807" lon="-1.60091">
        <ele>65</ele>
        <time>2021-03-21T09:52:46.000Z</time>
      </trkpt>
      <trkpt lat="47.178" lon="-1.60103">
        <ele>65</ele>
        <time>2021-03-21T09:52:48.000Z</time>
      </trkpt>
      <trkpt lat="47.17793" lon="-1.60115">
        <ele>66</ele>
        <time>2021-03-21T09:52:50.000Z</time>
      </trkpt>
      <trkpt lat="47.17786" lon="-1.60127">
        <ele>66</ele>
        <time>2021-03-21T09:52:52.000Z</time>
      </trkpt>
      <trkpt lat="47.17779" lon="-1.60139">
        <ele>66</ele>
        <time>2021-03-21T09:52:54.000Z</time>
      </trkpt>
      <trkpt lat="47.17772" lon="-1.60151">
        <ele>66</ele>
        <time>2021-03-21T09:52:56.000Z</time>
      </trkpt>
      <trkpt lat="47.17765" lon="-1.60163">
        <ele>67</ele>
        <time>2021-03-21T09:52:58.000Z</time>
      </trkpt>
      <trkpt lat="47.1776" lon="-1.60177">
        <ele>67</ele>
        <time>2021-03-21T09:53:00.000Z</time>
      </trkpt>
      <trkpt lat="47.17755" lon="-1.60191">
        <ele>67</ele>
        <time>2021-03-21T09:53:02.000Z</time>
      </trkpt>
      <trkpt lat="47.17751" lon="-1.60207">
        <ele>67</ele>
        <time>2021-03-21T09:53:04.000Z</time>
      </trkpt>
      <trkpt lat="47.17747" lon="-1.60222">
        <ele>66</ele>
        <time>2021-03-21T09:53:06.000Z</time>
      </trkpt>
      <trkpt lat="47.17743" lon="-1.60238">
        <ele>67</ele>
        <time>2021-03-21T09:53:08.000Z</time>
      </trkpt>
      <trkpt lat="47.1774" lon="-1.60254">
        <ele>68</ele>
        <time>2021-03-21T09:53:10.000Z</time>
      </trkpt>
      <trkpt lat="47.17735" lon="-1.60269">
        <ele>68</ele>
        <time>2021-03-21T09:53:12.000Z</time>
      </trkpt>
      <trkpt lat="47.17728" lon="-1.60282">
        <ele>69</ele>
        <time>2021-03-21T09:53:14.000Z</time>
      </trkpt>
      <trkpt lat="47.1772" lon="-1.60294">
        <ele>69</ele>
        <time>2021-03-21T09:53:16.000Z</time>
      </trkpt>
      <trkpt lat="47.17711" lon="-1.60305">
        <ele>70</ele>
        <time>2021-03-21T09:53:18.000Z</time>
      </trkpt>
      <trkpt lat="47.17703" lon="-1.60316">
        <ele>70</ele>
        <time>2021-03-21T09:53:20.000Z</time>
      </trkpt>
      <trkpt lat="47.17696" lon="-1.60327">
        <ele>71</ele>
        <time>2021-03-21T09:53:22.000Z</time>
      </trkpt>
      <trkpt lat="47.17687" lon="-1.60337">
        <ele>71</ele>
        <time>2021-03-21T09:53:24.000Z</time>
      </trkpt>
      <trkpt lat="47.17679" lon="-1.60349">
        <ele>71</ele>
        <time>2021-03-21T09:53:26.000Z</time>
      </trkpt>
      <trkpt lat="47.17671" lon="-1.6036">
        <ele>71</ele>
        <time>2021-03-21T09:53:28.000Z</time>
      </trkpt>
      <trkpt lat="47.17663" lon="-1.60373">
        <ele>70</ele>
        <time>2021-03-21T09:53:30.000Z</time>
      </trkpt>
      <trkpt lat="47.17654" lon="-1.60385">
        <ele>69</ele>
        <time>2021-03-21T09:53:32.000Z</time>
      </trkpt>
      <trkpt lat="47.17647" lon="-1.60398">
        <ele>69</ele>
        <time>2021-03-21T09:53:34.000Z</time>
      </trkpt>
      <trkpt lat="47.17639" lon="-1.60412">
        <ele>68</ele>
        <time>2021-03-21T09:53:36.000Z</time>
      </trkpt>
      <trkpt lat="47.17629" lon="-1.60427">
        <ele>68</ele>
        <time>2021-03-21T09:53:38.000Z</time>
      </trkpt>
      <trkpt lat="47.1762" lon="-1.60442">
        <ele>67</ele>
        <time>2021-03-21T09:53:40.000Z</time>
      </trkpt>
      <trkpt lat="47.1761" lon="-1.60457">
        <ele>67</ele>
        <time>2021-03-21T09:53:42.000Z</time>
      </trkpt>
      <trkpt lat="47.17601" lon="-1.60472">
        <ele>67</ele>
        <time>2021-03-21T09:53:44.000Z</time>
      </trkpt>
      <trkpt lat="47.17593" lon="-1.60486">
        <ele>67</ele>
        <time>2021-03-21T09:53:46.000Z</time>
      </trkpt>
      <trkpt lat="47.17584" lon="-1.605">
        <ele>67</ele>
        <time>2021-03-21T09:53:48.000Z</time>
      </trkpt>
      <trkpt lat="47.17575" lon="-1.60514">
        <ele>67</ele>
        <time>2021-03-21T09:53:50.000Z</time>
      </trkpt>
      <trkpt lat="47.17566" lon="-1.60528">
        <ele>67</ele>
        <time>2021-03-21T09:53:52.000Z</time>
      </trkpt>
      <trkpt lat="47.17557" lon="-1.60542">
        <ele>67</ele>
        <time>2021-03-21T09:53:54.000Z</time>
      </trkpt>
      <trkpt lat="47.17549" lon="-1.60556">
        <ele>67</ele>
        <time>2021-03-21T09:53:56.000Z</time>
      </trkpt>
      <trkpt lat="47.1754" lon="-1.6057">
        <ele>67</ele>
        <time>2021-03-21T09:53:58.000Z</time>
      </trkpt>
      <trkpt lat="47.17531" lon="-1.60585">
        <ele>67</ele>
        <time>2021-03-21T09:54:00.000Z</time>
      </trkpt>
      <trkpt lat="47.17523" lon="-1.60598">
        <ele>67</ele>
        <time>2021-03-21T09:54:02.000Z</time>
      </trkpt>
      <trkpt lat="47.17513" lon="-1.60613">
        <ele>67</ele>
        <time>2021-03-21T09:54:04.000Z</time>
      </trkpt>
      <trkpt lat="47.17505" lon="-1.60628">
        <ele>67</ele>
        <time>2021-03-21T09:54:06.000Z</time>
      </trkpt>
      <trkpt lat="47.17496" lon="-1.60642">
        <ele>67</ele>
        <time>2021-03-21T09:54:08.000Z</time>
      </trkpt>
      <trkpt lat="47.17487" lon="-1.60656">
        <ele>67</ele>
        <time>2021-03-21T09:54:10.000Z</time>
      </trkpt>
      <trkpt lat="47.17478" lon="-1.60671">
        <ele>67</ele>
        <time>2021-03-21T09:54:12.000Z</time>
      </trkpt>
      <trkpt lat="47.17469" lon="-1.60686">
        <ele>66</ele>
        <time>2021-03-21T09:54:14.000Z</time>
      </trkpt>
      <trkpt lat="47.1746" lon="-1.607">
        <ele>66</ele>
        <time>2021-03-21T09:54:16.000Z</time>
      </trkpt>
      <trkpt lat="47.17451" lon="-1.60716">
        <ele>66</ele>
        <time>2021-03-21T09:54:18.000Z</time>
      </trkpt>
      <trkpt lat="47.17442" lon="-1.60732">
        <ele>65</ele>
        <time>2021-03-21T09:54:20.000Z</time>
      </trkpt>
      <trkpt lat="47.17432" lon="-1.60748">
        <ele>64</ele>
        <time>2021-03-21T09:54:22.000Z</time>
      </trkpt>
      <trkpt lat="47.17424" lon="-1.60766">
        <ele>63</ele>
        <time>2021-03-21T09:54:24.000Z</time>
      </trkpt>
      <trkpt lat="47.17417" lon="-1.60785">
        <ele>62</ele>
        <time>2021-03-21T09:54:26.000Z</time>
      </trkpt>
      <trkpt lat="47.1741" lon="-1.60805">
        <ele>62</ele>
        <time>2021-03-21T09:54:28.000Z</time>
      </trkpt>
      <trkpt lat="47.17405" lon="-1.60827">
        <ele>61</ele>
        <time>2021-03-21T09:54:30.000Z</time>
      </trkpt>
      <trkpt lat="47.17401" lon="-1.60849">
        <ele>61</ele>
        <time>2021-03-21T09:54:32.000Z</time>
      </trkpt>
      <trkpt lat="47.17399" lon="-1.60871">
        <ele>60</ele>
        <time>2021-03-21T09:54:34.000Z</time>
      </trkpt>
      <trkpt lat="47.17397" lon="-1.60894">
        <ele>60</ele>
        <time>2021-03-21T09:54:36.000Z</time>
      </trkpt>
      <trkpt lat="47.17396" lon="-1.60916">
        <ele>60</ele>
        <time>2021-03-21T09:54:38.000Z</time>
      </trkpt>
      <trkpt lat="47.17399" lon="-1.60939">
        <ele>59</ele>
        <time>2021-03-21T09:54:40.000Z</time>
      </trkpt>
      <trkpt lat="47.17402" lon="-1.60957">
        <ele>59</ele>
        <time>2021-03-21T09:54:42.000Z</time>
      </trkpt>
      <trkpt lat="47.17406" lon="-1.60974">
        <ele>59</ele>
        <time>2021-03-21T09:54:44.000Z</time>
      </trkpt>
      <trkpt lat="47.17413" lon="-1.60988">
        <ele>58</ele>
        <time>2021-03-21T09:54:46.000Z</time>
      </trkpt>
      <trkpt lat="47.17419" lon="-1.61005">
        <ele>58</ele>
        <time>2021-03-21T09:54:48.000Z</time>
      </trkpt>
      <trkpt lat="47.17423" lon="-1.61025">
        <ele>58</ele>
        <time>2021-03-21T09:54:50.000Z</time>
      </trkpt>
      <trkpt lat="47.17425" lon="-1.61044">
        <ele>59</ele>
        <time>2021-03-21T09:54:52.000Z</time>
      </trkpt>
      <trkpt lat="47.17432" lon="-1.61062">
        <ele>59</ele>
        <time>2021-03-21T09:54:54.000Z</time>
      </trkpt>
      <trkpt lat="47.17439" lon="-1.61078">
        <ele>59</ele>
        <time>2021-03-21T09:54:56.000Z</time>
      </trkpt>
      <trkpt lat="47.17445" lon="-1.61094">
        <ele>60</ele>
        <time>2021-03-21T09:54:58.000Z</time>
      </trkpt>
      <trkpt lat="47.17452" lon="-1.6111">
        <ele>60</ele>
        <time>2021-03-21T09:55:00.000Z</time>
      </trkpt>
      <trkpt lat="47.17458" lon="-1.61126">
        <ele>60</ele>
        <time>2021-03-21T09:55:02.000Z</time>
      </trkpt>
      <trkpt lat="47.17464" lon="-1.61141">
        <ele>60</ele>
        <time>2021-03-21T09:55:04.000Z</time>
      </trkpt>
      <trkpt lat="47.1747" lon="-1.61156">
        <ele>60</ele>
        <time>2021-03-21T09:55:06.000Z</time>
      </trkpt>
      <trkpt lat="47.17476" lon="-1.61172">
        <ele>61</ele>
        <time>2021-03-21T09:55:08.000Z</time>
      </trkpt>
      <trkpt lat="47.17483" lon="-1.61188">
        <ele>62</ele>
        <time>2021-03-21T09:55:10.000Z</time>
      </trkpt>
      <trkpt lat="47.17489" lon="-1.61204">
        <ele>62</ele>
        <time>2021-03-21T09:55:12.000Z</time>
      </trkpt>
      <trkpt lat="47.17495" lon="-1.6122">
        <ele>62</ele>
        <time>2021-03-21T09:55:14.000Z</time>
      </trkpt>
      <trkpt lat="47.17502" lon="-1.61234">
        <ele>62</ele>
        <time>2021-03-21T09:55:16.000Z</time>
      </trkpt>
      <trkpt lat="47.17509" lon="-1.61248">
        <ele>62</ele>
        <time>2021-03-21T09:55:18.000Z</time>
      </trkpt>
      <trkpt lat="47.17516" lon="-1.61261">
        <ele>62</ele>
        <time>2021-03-21T09:55:20.000Z</time>
      </trkpt>
      <trkpt lat="47.17524" lon="-1.61274">
        <ele>62</ele>
        <time>2021-03-21T09:55:22.000Z</time>
      </trkpt>
      <trkpt lat="47.17533" lon="-1.61284">
        <ele>62</ele>
        <time>2021-03-21T09:55:24.000Z</time>
      </trkpt>
      <trkpt lat="47.17544" lon="-1.61292">
        <ele>62</ele>
        <time>2021-03-21T09:55:26.000Z</time>
      </trkpt>
      <trkpt lat="47.17555" lon="-1.613">
        <ele>62</ele>
        <time>2021-03-21T09:55:28.000Z</time>
      </trkpt>
      <trkpt lat="47.17562" lon="-1.61316">
        <ele>62</ele>
        <time>2021-03-21T09:55:30.000Z</time>
      </trkpt>
      <trkpt lat="47.17561" lon="-1.61335">
        <ele>63</ele>
        <time>2021-03-21T09:55:32.000Z</time>
      </trkpt>
      <trkpt lat="47.17554" lon="-1.61351">
        <ele>63</ele>
        <time>2021-03-21T09:55:34.000Z</time>
      </trkpt>
      <trkpt lat="47.17544" lon="-1.61361">
        <ele>63</ele>
        <time>2021-03-21T09:55:36.000Z</time>
      </trkpt>
      <trkpt lat="47.17535" lon="-1.61373">
        <ele>63</ele>
        <time>2021-03-21T09:55:38.000Z</time>
      </trkpt>
      <trkpt lat="47.17529" lon="-1.6139">
        <ele>63</ele>
        <time>2021-03-21T09:55:40.000Z</time>
      </trkpt>
      <trkpt lat="47.17525" lon="-1.61406">
        <ele>64</ele>
        <time>2021-03-21T09:55:42.000Z</time>
      </trkpt>
      <trkpt lat="47.17522" lon="-1.61421">
        <ele>64</ele>
        <time>2021-03-21T09:55:44.000Z</time>
      </trkpt>
      <trkpt lat="47.17519" lon="-1.61435">
        <ele>65</ele>
        <time>2021-03-21T09:55:46.000Z</time>
      </trkpt>
      <trkpt lat="47.17515" lon="-1.6145">
        <ele>66</ele>
        <time>2021-03-21T09:55:48.000Z</time>
      </trkpt>
      <trkpt lat="47.17509" lon="-1.61462">
        <ele>66</ele>
        <time>2021-03-21T09:55:50.000Z</time>
      </trkpt>
      <trkpt lat="47.17498" lon="-1.61468">
        <ele>66</ele>
        <time>2021-03-21T09:55:52.000Z</time>
      </trkpt>
      <trkpt lat="47.17488" lon="-1.61473">
        <ele>67</ele>
        <time>2021-03-21T09:55:54.000Z</time>
      </trkpt>
      <trkpt lat="47.17477" lon="-1.61478">
        <ele>68</ele>
        <time>2021-03-21T09:55:56.000Z</time>
      </trkpt>
      <trkpt lat="47.17467" lon="-1.61482">
        <ele>68</ele>
        <time>2021-03-21T09:55:58.000Z</time>
      </trkpt>
      <trkpt lat="47.17457" lon="-1.61485">
        <ele>68</ele>
        <time>2021-03-21T09:56:00.000Z</time>
      </trkpt>
      <trkpt lat="47.17448" lon="-1.6149">
        <ele>68</ele>
        <time>2021-03-21T09:56:02.000Z</time>
      </trkpt>
      <trkpt lat="47.17439" lon="-1.61495">
        <ele>69</ele>
        <time>2021-03-21T09:56:04.000Z</time>
      </trkpt>
      <trkpt lat="47.1743" lon="-1.61501">
        <ele>69</ele>
        <time>2021-03-21T09:56:06.000Z</time>
      </trkpt>
      <trkpt lat="47.17421" lon="-1.61507">
        <ele>69</ele>
        <time>2021-03-21T09:56:08.000Z</time>
      </trkpt>
      <trkpt lat="47.17412" lon="-1.61513">
        <ele>70</ele>
        <time>2021-03-21T09:56:10.000Z</time>
      </trkpt>
      <trkpt lat="47.17404" lon="-1.6152">
        <ele>70</ele>
        <time>2021-03-21T09:56:12.000Z</time>
      </trkpt>
      <trkpt lat="47.17396" lon="-1.61526">
        <ele>70</ele>
        <time>2021-03-21T09:56:14.000Z</time>
      </trkpt>
      <trkpt lat="47.17387" lon="-1.61533">
        <ele>70</ele>
        <time>2021-03-21T09:56:16.000Z</time>
      </trkpt>
      <trkpt lat="47.1738" lon="-1.61542">
        <ele>71</ele>
        <time>2021-03-21T09:56:18.000Z</time>
      </trkpt>
      <trkpt lat="47.1737" lon="-1.61554">
        <ele>72</ele>
        <time>2021-03-21T09:56:21.000Z</time>
      </trkpt>
      <trkpt lat="47.17362" lon="-1.61562">
        <ele>73</ele>
        <time>2021-03-21T09:56:23.000Z</time>
      </trkpt>
      <trkpt lat="47.17355" lon="-1.61572">
        <ele>73</ele>
        <time>2021-03-21T09:56:25.000Z</time>
      </trkpt>
      <trkpt lat="47.17348" lon="-1.61582">
        <ele>73</ele>
        <time>2021-03-21T09:56:27.000Z</time>
      </trkpt>
      <trkpt lat="47.1734" lon="-1.6159">
        <ele>73</ele>
        <time>2021-03-21T09:56:29.000Z</time>
      </trkpt>
      <trkpt lat="47.17331" lon="-1.616">
        <ele>73</ele>
        <time>2021-03-21T09:56:31.000Z</time>
      </trkpt>
      <trkpt lat="47.17323" lon="-1.6161">
        <ele>73</ele>
        <time>2021-03-21T09:56:33.000Z</time>
      </trkpt>
      <trkpt lat="47.17315" lon="-1.6162">
        <ele>73</ele>
        <time>2021-03-21T09:56:35.000Z</time>
      </trkpt>
      <trkpt lat="47.17307" lon="-1.61632">
        <ele>72</ele>
        <time>2021-03-21T09:56:37.000Z</time>
      </trkpt>
      <trkpt lat="47.173" lon="-1.61644">
        <ele>72</ele>
        <time>2021-03-21T09:56:39.000Z</time>
      </trkpt>
      <trkpt lat="47.17294" lon="-1.61657">
        <ele>73</ele>
        <time>2021-03-21T09:56:41.000Z</time>
      </trkpt>
      <trkpt lat="47.17286" lon="-1.61669">
        <ele>73</ele>
        <time>2021-03-21T09:56:43.000Z</time>
      </trkpt>
      <trkpt lat="47.17279" lon="-1.61682">
        <ele>73</ele>
        <time>2021-03-21T09:56:45.000Z</time>
      </trkpt>
      <trkpt lat="47.17273" lon="-1.61695">
        <ele>72</ele>
        <time>2021-03-21T09:56:47.000Z</time>
      </trkpt>
      <trkpt lat="47.17265" lon="-1.61708">
        <ele>73</ele>
        <time>2021-03-21T09:56:49.000Z</time>
      </trkpt>
      <trkpt lat="47.17259" lon="-1.61722">
        <ele>73</ele>
        <time>2021-03-21T09:56:51.000Z</time>
      </trkpt>
      <trkpt lat="47.17253" lon="-1.61736">
        <ele>72</ele>
        <time>2021-03-21T09:56:53.000Z</time>
      </trkpt>
      <trkpt lat="47.17249" lon="-1.61751">
        <ele>72</ele>
        <time>2021-03-21T09:56:55.000Z</time>
      </trkpt>
      <trkpt lat="47.17246" lon="-1.61768">
        <ele>71</ele>
        <time>2021-03-21T09:56:57.000Z</time>
      </trkpt>
      <trkpt lat="47.1724" lon="-1.61783">
        <ele>71</ele>
        <time>2021-03-21T09:56:59.000Z</time>
      </trkpt>
      <trkpt lat="47.1723" lon="-1.61792">
        <ele>71</ele>
        <time>2021-03-21T09:57:01.000Z</time>
      </trkpt>
      <trkpt lat="47.17219" lon="-1.61802">
        <ele>71</ele>
        <time>2021-03-21T09:57:03.000Z</time>
      </trkpt>
      <trkpt lat="47.17208" lon="-1.61811">
        <ele>71</ele>
        <time>2021-03-21T09:57:05.000Z</time>
      </trkpt>
      <trkpt lat="47.17198" lon="-1.6182">
        <ele>72</ele>
        <time>2021-03-21T09:57:07.000Z</time>
      </trkpt>
      <trkpt lat="47.17188" lon="-1.61829">
        <ele>72</ele>
        <time>2021-03-21T09:57:09.000Z</time>
      </trkpt>
      <trkpt lat="47.17178" lon="-1.61839">
        <ele>72</ele>
        <time>2021-03-21T09:57:11.000Z</time>
      </trkpt>
      <trkpt lat="47.17168" lon="-1.61849">
        <ele>72</ele>
        <time>2021-03-21T09:57:13.000Z</time>
      </trkpt>
      <trkpt lat="47.17157" lon="-1.61859">
        <ele>72</ele>
        <time>2021-03-21T09:57:15.000Z</time>
      </trkpt>
      <trkpt lat="47.17148" lon="-1.61868">
        <ele>72</ele>
        <time>2021-03-21T09:57:17.000Z</time>
      </trkpt>
      <trkpt lat="47.17138" lon="-1.61877">
        <ele>73</ele>
        <time>2021-03-21T09:57:19.000Z</time>
      </trkpt>
      <trkpt lat="47.17128" lon="-1.61887">
        <ele>73</ele>
        <time>2021-03-21T09:57:21.000Z</time>
      </trkpt>
      <trkpt lat="47.17118" lon="-1.61896">
        <ele>72</ele>
        <time>2021-03-21T09:57:23.000Z</time>
      </trkpt>
      <trkpt lat="47.17108" lon="-1.61906">
        <ele>72</ele>
        <time>2021-03-21T09:57:25.000Z</time>
      </trkpt>
      <trkpt lat="47.17098" lon="-1.61916">
        <ele>72</ele>
        <time>2021-03-21T09:57:27.000Z</time>
      </trkpt>
      <trkpt lat="47.17089" lon="-1.61925">
        <ele>72</ele>
        <time>2021-03-21T09:57:29.000Z</time>
      </trkpt>
      <trkpt lat="47.17079" lon="-1.61934">
        <ele>72</ele>
        <time>2021-03-21T09:57:31.000Z</time>
      </trkpt>
      <trkpt lat="47.1707" lon="-1.61944">
        <ele>72</ele>
        <time>2021-03-21T09:57:33.000Z</time>
      </trkpt>
      <trkpt lat="47.17062" lon="-1.61955">
        <ele>72</ele>
        <time>2021-03-21T09:57:35.000Z</time>
      </trkpt>
      <trkpt lat="47.17053" lon="-1.61967">
        <ele>72</ele>
        <time>2021-03-21T09:57:37.000Z</time>
      </trkpt>
      <trkpt lat="47.17045" lon="-1.61979">
        <ele>72</ele>
        <time>2021-03-21T09:57:39.000Z</time>
      </trkpt>
      <trkpt lat="47.17037" lon="-1.61991">
        <ele>73</ele>
        <time>2021-03-21T09:57:41.000Z</time>
      </trkpt>
      <trkpt lat="47.17029" lon="-1.62003">
        <ele>73</ele>
        <time>2021-03-21T09:57:43.000Z</time>
      </trkpt>
      <trkpt lat="47.1702" lon="-1.62015">
        <ele>73</ele>
        <time>2021-03-21T09:57:45.000Z</time>
      </trkpt>
      <trkpt lat="47.17012" lon="-1.62028">
        <ele>72</ele>
        <time>2021-03-21T09:57:47.000Z</time>
      </trkpt>
      <trkpt lat="47.17004" lon="-1.62042">
        <ele>72</ele>
        <time>2021-03-21T09:57:49.000Z</time>
      </trkpt>
      <trkpt lat="47.16996" lon="-1.62056">
        <ele>72</ele>
        <time>2021-03-21T09:57:51.000Z</time>
      </trkpt>
      <trkpt lat="47.16988" lon="-1.6207">
        <ele>72</ele>
        <time>2021-03-21T09:57:53.000Z</time>
      </trkpt>
      <trkpt lat="47.1698" lon="-1.62084">
        <ele>73</ele>
        <time>2021-03-21T09:57:55.000Z</time>
      </trkpt>
      <trkpt lat="47.16972" lon="-1.62097">
        <ele>73</ele>
        <time>2021-03-21T09:57:57.000Z</time>
      </trkpt>
      <trkpt lat="47.16964" lon="-1.62112">
        <ele>72</ele>
        <time>2021-03-21T09:57:59.000Z</time>
      </trkpt>
      <trkpt lat="47.16957" lon="-1.62127">
        <ele>72</ele>
        <time>2021-03-21T09:58:01.000Z</time>
      </trkpt>
      <trkpt lat="47.16949" lon="-1.62141">
        <ele>72</ele>
        <time>2021-03-21T09:58:03.000Z</time>
      </trkpt>
      <trkpt lat="47.16942" lon="-1.62156">
        <ele>72</ele>
        <time>2021-03-21T09:58:05.000Z</time>
      </trkpt>
      <trkpt lat="47.16935" lon="-1.62172">
        <ele>72</ele>
        <time>2021-03-21T09:58:07.000Z</time>
      </trkpt>
      <trkpt lat="47.16928" lon="-1.62187">
        <ele>72</ele>
        <time>2021-03-21T09:58:09.000Z</time>
      </trkpt>
      <trkpt lat="47.1692" lon="-1.62201">
        <ele>72</ele>
        <time>2021-03-21T09:58:11.000Z</time>
      </trkpt>
      <trkpt lat="47.16911" lon="-1.62214">
        <ele>73</ele>
        <time>2021-03-21T09:58:13.000Z</time>
      </trkpt>
      <trkpt lat="47.16902" lon="-1.62227">
        <ele>74</ele>
        <time>2021-03-21T09:58:15.000Z</time>
      </trkpt>
      <trkpt lat="47.16892" lon="-1.6224">
        <ele>73</ele>
        <time>2021-03-21T09:58:17.000Z</time>
      </trkpt>
      <trkpt lat="47.16882" lon="-1.62253">
        <ele>73</ele>
        <time>2021-03-21T09:58:19.000Z</time>
      </trkpt>
      <trkpt lat="47.16872" lon="-1.62265">
        <ele>73</ele>
        <time>2021-03-21T09:58:21.000Z</time>
      </trkpt>
      <trkpt lat="47.16862" lon="-1.62277">
        <ele>73</ele>
        <time>2021-03-21T09:58:23.000Z</time>
      </trkpt>
      <trkpt lat="47.16852" lon="-1.62289">
        <ele>73</ele>
        <time>2021-03-21T09:58:25.000Z</time>
      </trkpt>
      <trkpt lat="47.16842" lon="-1.62301">
        <ele>73</ele>
        <time>2021-03-21T09:58:27.000Z</time>
      </trkpt>
      <trkpt lat="47.16833" lon="-1.62311">
        <ele>73</ele>
        <time>2021-03-21T09:58:29.000Z</time>
      </trkpt>
      <trkpt lat="47.16823" lon="-1.6232">
        <ele>73</ele>
        <time>2021-03-21T09:58:31.000Z</time>
      </trkpt>
      <trkpt lat="47.16812" lon="-1.62328">
        <ele>73</ele>
        <time>2021-03-21T09:58:33.000Z</time>
      </trkpt>
      <trkpt lat="47.16801" lon="-1.62334">
        <ele>73</ele>
        <time>2021-03-21T09:58:35.000Z</time>
      </trkpt>
      <trkpt lat="47.1679" lon="-1.62339">
        <ele>72</ele>
        <time>2021-03-21T09:58:37.000Z</time>
      </trkpt>
      <trkpt lat="47.16778" lon="-1.62345">
        <ele>72</ele>
        <time>2021-03-21T09:58:39.000Z</time>
      </trkpt>
      <trkpt lat="47.16767" lon="-1.62352">
        <ele>72</ele>
        <time>2021-03-21T09:58:41.000Z</time>
      </trkpt>
      <trkpt lat="47.16756" lon="-1.62361">
        <ele>71</ele>
        <time>2021-03-21T09:58:43.000Z</time>
      </trkpt>
      <trkpt lat="47.16746" lon="-1.62372">
        <ele>71</ele>
        <time>2021-03-21T09:58:45.000Z</time>
      </trkpt>
      <trkpt lat="47.16739" lon="-1.62386">
        <ele>70</ele>
        <time>2021-03-21T09:58:47.000Z</time>
      </trkpt>
      <trkpt lat="47.16734" lon="-1.62403">
        <ele>70</ele>
        <time>2021-03-21T09:58:49.000Z</time>
      </trkpt>
      <trkpt lat="47.16731" lon="-1.62418">
        <ele>71</ele>
        <time>2021-03-21T09:58:51.000Z</time>
      </trkpt>
      <trkpt lat="47.16729" lon="-1.62434">
        <ele>71</ele>
        <time>2021-03-21T09:58:53.000Z</time>
      </trkpt>
      <trkpt lat="47.16725" lon="-1.6245">
        <ele>71</ele>
        <time>2021-03-21T09:58:55.000Z</time>
      </trkpt>
      <trkpt lat="47.16721" lon="-1.62467">
        <ele>71</ele>
        <time>2021-03-21T09:58:57.000Z</time>
      </trkpt>
      <trkpt lat="47.16717" lon="-1.62483">
        <ele>71</ele>
        <time>2021-03-21T09:58:59.000Z</time>
      </trkpt>
      <trkpt lat="47.16719" lon="-1.62497">
        <ele>71</ele>
        <time>2021-03-21T09:59:01.000Z</time>
      </trkpt>
      <trkpt lat="47.1673" lon="-1.62501">
        <ele>70</ele>
        <time>2021-03-21T09:59:03.000Z</time>
      </trkpt>
      <trkpt lat="47.16741" lon="-1.62504">
        <ele>70</ele>
        <time>2021-03-21T09:59:05.000Z</time>
      </trkpt>
      <trkpt lat="47.16752" lon="-1.6251">
        <ele>70</ele>
        <time>2021-03-21T09:59:07.000Z</time>
      </trkpt>
      <trkpt lat="47.16763" lon="-1.62514">
        <ele>70</ele>
        <time>2021-03-21T09:59:09.000Z</time>
      </trkpt>
      <trkpt lat="47.16773" lon="-1.62521">
        <ele>71</ele>
        <time>2021-03-21T09:59:11.000Z</time>
      </trkpt>
      <trkpt lat="47.16783" lon="-1.62529">
        <ele>71</ele>
        <time>2021-03-21T09:59:13.000Z</time>
      </trkpt>
      <trkpt lat="47.16793" lon="-1.62534">
        <ele>71</ele>
        <time>2021-03-21T09:59:15.000Z</time>
      </trkpt>
      <trkpt lat="47.16803" lon="-1.62541">
        <ele>71</ele>
        <time>2021-03-21T09:59:17.000Z</time>
      </trkpt>
      <trkpt lat="47.16813" lon="-1.62548">
        <ele>70</ele>
        <time>2021-03-21T09:59:19.000Z</time>
      </trkpt>
      <trkpt lat="47.16822" lon="-1.62556">
        <ele>72</ele>
        <time>2021-03-21T09:59:21.000Z</time>
      </trkpt>
      <trkpt lat="47.16831" lon="-1.62567">
        <ele>73</ele>
        <time>2021-03-21T09:59:23.000Z</time>
      </trkpt>
      <trkpt lat="47.16833" lon="-1.62584">
        <ele>74</ele>
        <time>2021-03-21T09:59:25.000Z</time>
      </trkpt>
      <trkpt lat="47.16825" lon="-1.62602">
        <ele>74</ele>
        <time>2021-03-21T09:59:27.000Z</time>
      </trkpt>
      <trkpt lat="47.16818" lon="-1.62616">
        <ele>74</ele>
        <time>2021-03-21T09:59:29.000Z</time>
      </trkpt>
      <trkpt lat="47.1681" lon="-1.62629">
        <ele>74</ele>
        <time>2021-03-21T09:59:31.000Z</time>
      </trkpt>
      <trkpt lat="47.16803" lon="-1.6264">
        <ele>74</ele>
        <time>2021-03-21T09:59:33.000Z</time>
      </trkpt>
      <trkpt lat="47.16796" lon="-1.62651">
        <ele>74</ele>
        <time>2021-03-21T09:59:35.000Z</time>
      </trkpt>
      <trkpt lat="47.16789" lon="-1.62664">
        <ele>75</ele>
        <time>2021-03-21T09:59:38.000Z</time>
      </trkpt>
      <trkpt lat="47.1678" lon="-1.6266">
        <ele>75</ele>
        <time>2021-03-21T09:59:42.000Z</time>
      </trkpt>
    </trkseg>
  </trk>
</gpx>